<?xml version="1.0" encoding="UTF-8" standalone="no" ?>
<gpx xmlns="http://www.topografix.com/GPX/1/1" xmlns:xsi="http://www.w3.org/2001/XMLSchema-instance" xsi:schemaLocation="http://www.topografix.com/GPX/1/1 http://www.topografix.com/GPX/1/1/gpx.xsd" version="1.1" creator="VisuGPX - https://www.visugpx.com">
  <metadata>
    <name>Edirne-Mostar</name>
  </metadata>
  <trk>
    <name><![CDATA[Tour d'Europe: étape 619]]></name>
    <extensions>
      <line xmlns="http://www.topografix.com/GPX/gpx_style/0/2">
        <color>00FF00</color>
        <width>4</width>
      </line>
    </extensions>
    <trkseg>
      <trkpt lat="42.71906" lon="23.72811">
        <ele>668.488593</ele>
        <time>2022-03-09T09:04:17.631Z</time>
      </trkpt>
      <trkpt lat="42.71897" lon="23.7278">
        <ele>668.488593</ele>
        <time>2022-03-09T09:08:59.423Z</time>
      </trkpt>
      <trkpt lat="42.71889" lon="23.72772">
        <ele>668.488593</ele>
        <time>2022-03-09T09:09:04.395Z</time>
      </trkpt>
      <trkpt lat="42.7188" lon="23.72762">
        <ele>668.488593</ele>
        <time>2022-03-09T09:09:10.393Z</time>
      </trkpt>
      <trkpt lat="42.71872" lon="23.72753">
        <ele>668.488593</ele>
        <time>2022-03-09T09:09:15.378Z</time>
      </trkpt>
      <trkpt lat="42.71863" lon="23.72744">
        <ele>668.488593</ele>
        <time>2022-03-09T09:09:20.397Z</time>
      </trkpt>
      <trkpt lat="42.71856" lon="23.72734">
        <ele>668.488593</ele>
        <time>2022-03-09T09:09:24.381Z</time>
      </trkpt>
      <trkpt lat="42.71847" lon="23.72725">
        <ele>668.488593</ele>
        <time>2022-03-09T09:09:29.402Z</time>
      </trkpt>
      <trkpt lat="42.71838" lon="23.72716">
        <ele>667.896796</ele>
        <time>2022-03-09T09:09:34.437Z</time>
      </trkpt>
      <trkpt lat="42.71831" lon="23.72707">
        <ele>667.305236</ele>
        <time>2022-03-09T09:09:38.395Z</time>
      </trkpt>
      <trkpt lat="42.71824" lon="23.72696">
        <ele>666.710888</ele>
        <time>2022-03-09T09:09:42.394Z</time>
      </trkpt>
      <trkpt lat="42.71818" lon="23.72685">
        <ele>666.088264</ele>
        <time>2022-03-09T09:09:48.395Z</time>
      </trkpt>
      <trkpt lat="42.7181" lon="23.72675">
        <ele>665.484477</ele>
        <time>2022-03-09T09:09:53.389Z</time>
      </trkpt>
      <trkpt lat="42.71804" lon="23.72666">
        <ele>664.952468</ele>
        <time>2022-03-09T09:09:57.403Z</time>
      </trkpt>
      <trkpt lat="42.71797" lon="23.72656">
        <ele>664.34975</ele>
        <time>2022-03-09T09:10:02.455Z</time>
      </trkpt>
      <trkpt lat="42.71789" lon="23.72647">
        <ele>663.762527</ele>
        <time>2022-03-09T09:10:07.396Z</time>
      </trkpt>
      <trkpt lat="42.71782" lon="23.72637">
        <ele>663.144865</ele>
        <time>2022-03-09T09:10:12.497Z</time>
      </trkpt>
      <trkpt lat="42.71775" lon="23.72627">
        <ele>662.5249</ele>
        <time>2022-03-09T09:10:17.398Z</time>
      </trkpt>
      <trkpt lat="42.71767" lon="23.72617">
        <ele>661.909524</ele>
        <time>2022-03-09T09:10:22.385Z</time>
      </trkpt>
      <trkpt lat="42.71758" lon="23.72611">
        <ele>661.336886</ele>
        <time>2022-03-09T09:10:26.391Z</time>
      </trkpt>
      <trkpt lat="42.7175" lon="23.72602">
        <ele>660.709064</ele>
        <time>2022-03-09T09:10:31.447Z</time>
      </trkpt>
      <trkpt lat="42.71742" lon="23.72594">
        <ele>660.169893</ele>
        <time>2022-03-09T09:10:35.408Z</time>
      </trkpt>
      <trkpt lat="42.71735" lon="23.72584">
        <ele>659.567942</ele>
        <time>2022-03-09T09:10:39.393Z</time>
      </trkpt>
      <trkpt lat="42.71735" lon="23.72571">
        <ele>658.990628</ele>
        <time>2022-03-09T09:10:43.399Z</time>
      </trkpt>
      <trkpt lat="42.71729" lon="23.7256">
        <ele>658.39023</ele>
        <time>2022-03-09T09:10:48.417Z</time>
      </trkpt>
      <trkpt lat="42.71722" lon="23.7255">
        <ele>658.037473</ele>
        <time>2022-03-09T09:10:51.388Z</time>
      </trkpt>
      <trkpt lat="42.71713" lon="23.72538">
        <ele>658.426061</ele>
        <time>2022-03-09T09:10:54.453Z</time>
      </trkpt>
      <trkpt lat="42.71706" lon="23.72528">
        <ele>658.74779</ele>
        <time>2022-03-09T09:10:58.432Z</time>
      </trkpt>
      <trkpt lat="42.71699" lon="23.72518">
        <ele>659.05952</ele>
        <time>2022-03-09T09:11:02.384Z</time>
      </trkpt>
      <trkpt lat="42.71693" lon="23.72507">
        <ele>659.382572</ele>
        <time>2022-03-09T09:11:06.377Z</time>
      </trkpt>
      <trkpt lat="42.71685" lon="23.72497">
        <ele>659.710333</ele>
        <time>2022-03-09T09:11:10.402Z</time>
      </trkpt>
      <trkpt lat="42.71678" lon="23.72488">
        <ele>660.026107</ele>
        <time>2022-03-09T09:11:16.397Z</time>
      </trkpt>
      <trkpt lat="42.71677" lon="23.72475">
        <ele>660.322944</ele>
        <time>2022-03-09T09:11:21.409Z</time>
      </trkpt>
      <trkpt lat="42.71681" lon="23.72464">
        <ele>660.604337</ele>
        <time>2022-03-09T09:11:25.402Z</time>
      </trkpt>
      <trkpt lat="42.71685" lon="23.72452">
        <ele>660.905627</ele>
        <time>2022-03-09T09:11:29.381Z</time>
      </trkpt>
      <trkpt lat="42.71689" lon="23.72439">
        <ele>661.237826</ele>
        <time>2022-03-09T09:11:33.423Z</time>
      </trkpt>
      <trkpt lat="42.71692" lon="23.72425">
        <ele>661.57293</ele>
        <time>2022-03-09T09:11:37.396Z</time>
      </trkpt>
      <trkpt lat="42.71695" lon="23.72412">
        <ele>661.87809</ele>
        <time>2022-03-09T09:11:40.386Z</time>
      </trkpt>
      <trkpt lat="42.717" lon="23.72402">
        <ele>662.16512</ele>
        <time>2022-03-09T09:11:43.407Z</time>
      </trkpt>
      <trkpt lat="42.71704" lon="23.7239">
        <ele>662.476752</ele>
        <time>2022-03-09T09:11:46.391Z</time>
      </trkpt>
      <trkpt lat="42.71708" lon="23.72376">
        <ele>662.812745</ele>
        <time>2022-03-09T09:11:49.386Z</time>
      </trkpt>
      <trkpt lat="42.71712" lon="23.72361">
        <ele>663.163332</ele>
        <time>2022-03-09T09:11:52.431Z</time>
      </trkpt>
      <trkpt lat="42.71715" lon="23.72348">
        <ele>663.49997</ele>
        <time>2022-03-09T09:11:55.388Z</time>
      </trkpt>
      <trkpt lat="42.71719" lon="23.72333">
        <ele>663.381377</ele>
        <time>2022-03-09T09:11:59.456Z</time>
      </trkpt>
      <trkpt lat="42.71723" lon="23.72319">
        <ele>663.152541</ele>
        <time>2022-03-09T09:12:02.409Z</time>
      </trkpt>
      <trkpt lat="42.71728" lon="23.72305">
        <ele>662.909103</ele>
        <time>2022-03-09T09:12:05.398Z</time>
      </trkpt>
      <trkpt lat="42.71733" lon="23.7229">
        <ele>662.653377</ele>
        <time>2022-03-09T09:12:09.399Z</time>
      </trkpt>
      <trkpt lat="42.71738" lon="23.72276">
        <ele>662.407619</ele>
        <time>2022-03-09T09:12:12.379Z</time>
      </trkpt>
      <trkpt lat="42.71742" lon="23.72263">
        <ele>662.176817</ele>
        <time>2022-03-09T09:12:15.399Z</time>
      </trkpt>
      <trkpt lat="42.71746" lon="23.72249">
        <ele>661.937811</ele>
        <time>2022-03-09T09:12:18.408Z</time>
      </trkpt>
      <trkpt lat="42.7175" lon="23.72231">
        <ele>661.656144</ele>
        <time>2022-03-09T09:12:21.437Z</time>
      </trkpt>
      <trkpt lat="42.71753" lon="23.72219">
        <ele>661.456892</ele>
        <time>2022-03-09T09:12:23.414Z</time>
      </trkpt>
      <trkpt lat="42.71756" lon="23.72208">
        <ele>661.261976</ele>
        <time>2022-03-09T09:12:25.388Z</time>
      </trkpt>
      <trkpt lat="42.7176" lon="23.72196">
        <ele>661.062633</ele>
        <time>2022-03-09T09:12:27.393Z</time>
      </trkpt>
      <trkpt lat="42.71763" lon="23.72184">
        <ele>660.863673</ele>
        <time>2022-03-09T09:12:29.397Z</time>
      </trkpt>
      <trkpt lat="42.71767" lon="23.72172">
        <ele>660.657792</ele>
        <time>2022-03-09T09:12:31.407Z</time>
      </trkpt>
      <trkpt lat="42.7177" lon="23.72159">
        <ele>660.445177</ele>
        <time>2022-03-09T09:12:33.480Z</time>
      </trkpt>
      <trkpt lat="42.71774" lon="23.72145">
        <ele>660.214894</ele>
        <time>2022-03-09T09:12:35.394Z</time>
      </trkpt>
      <trkpt lat="42.71778" lon="23.72133">
        <ele>660.002981</ele>
        <time>2022-03-09T09:12:37.406Z</time>
      </trkpt>
      <trkpt lat="42.71781" lon="23.7212">
        <ele>659.789031</ele>
        <time>2022-03-09T09:12:39.419Z</time>
      </trkpt>
      <trkpt lat="42.71785" lon="23.72108">
        <ele>659.262462</ele>
        <time>2022-03-09T09:12:41.432Z</time>
      </trkpt>
      <trkpt lat="42.71789" lon="23.72091">
        <ele>658.41809</ele>
        <time>2022-03-09T09:12:44.407Z</time>
      </trkpt>
      <trkpt lat="42.71793" lon="23.72075">
        <ele>657.596571</ele>
        <time>2022-03-09T09:12:47.392Z</time>
      </trkpt>
      <trkpt lat="42.71796" lon="23.72061">
        <ele>656.861117</ele>
        <time>2022-03-09T09:12:50.376Z</time>
      </trkpt>
      <trkpt lat="42.71798" lon="23.72045">
        <ele>656.081867</ele>
        <time>2022-03-09T09:12:53.390Z</time>
      </trkpt>
      <trkpt lat="42.718" lon="23.7203">
        <ele>655.340569</ele>
        <time>2022-03-09T09:12:56.399Z</time>
      </trkpt>
      <trkpt lat="42.71802" lon="23.72016">
        <ele>654.690781</ele>
        <time>2022-03-09T09:12:59.456Z</time>
      </trkpt>
      <trkpt lat="42.71803" lon="23.72002">
        <ele>654.016138</ele>
        <time>2022-03-09T09:13:02.417Z</time>
      </trkpt>
      <trkpt lat="42.71806" lon="23.71988">
        <ele>653.28811</ele>
        <time>2022-03-09T09:13:06.393Z</time>
      </trkpt>
      <trkpt lat="42.7181" lon="23.71973">
        <ele>652.536834</ele>
        <time>2022-03-09T09:13:10.412Z</time>
      </trkpt>
      <trkpt lat="42.71816" lon="23.71961">
        <ele>651.824989</ele>
        <time>2022-03-09T09:13:14.376Z</time>
      </trkpt>
      <trkpt lat="42.71825" lon="23.71954">
        <ele>651.141397</ele>
        <time>2022-03-09T09:13:19.411Z</time>
      </trkpt>
      <trkpt lat="42.71836" lon="23.71951">
        <ele>650.396589</ele>
        <time>2022-03-09T09:13:24.400Z</time>
      </trkpt>
      <trkpt lat="42.71845" lon="23.7195">
        <ele>649.783548</ele>
        <time>2022-03-09T09:13:30.416Z</time>
      </trkpt>
      <trkpt lat="42.71856" lon="23.71949">
        <ele>649.086863</ele>
        <time>2022-03-09T09:13:36.392Z</time>
      </trkpt>
      <trkpt lat="42.71865" lon="23.71949">
        <ele>648.462968</ele>
        <time>2022-03-09T09:13:43.378Z</time>
      </trkpt>
      <trkpt lat="42.71875" lon="23.71947">
        <ele>647.901894</ele>
        <time>2022-03-09T09:13:50.395Z</time>
      </trkpt>
      <trkpt lat="42.71882" lon="23.71937">
        <ele>647.706542</ele>
        <time>2022-03-09T09:13:59.397Z</time>
      </trkpt>
      <trkpt lat="42.7189" lon="23.7193">
        <ele>647.519301</ele>
        <time>2022-03-09T09:14:04.395Z</time>
      </trkpt>
      <trkpt lat="42.71896" lon="23.7192">
        <ele>647.339661</ele>
        <time>2022-03-09T09:14:10.390Z</time>
      </trkpt>
      <trkpt lat="42.71898" lon="23.71908">
        <ele>647.156863</ele>
        <time>2022-03-09T09:14:16.400Z</time>
      </trkpt>
      <trkpt lat="42.71898" lon="23.71894">
        <ele>646.965392</ele>
        <time>2022-03-09T09:14:22.401Z</time>
      </trkpt>
      <trkpt lat="42.71897" lon="23.7188">
        <ele>646.761989</ele>
        <time>2022-03-09T09:14:26.389Z</time>
      </trkpt>
      <trkpt lat="42.71897" lon="23.71866">
        <ele>646.554569</ele>
        <time>2022-03-09T09:14:31.385Z</time>
      </trkpt>
      <trkpt lat="42.71891" lon="23.71853">
        <ele>646.341552</ele>
        <time>2022-03-09T09:14:36.437Z</time>
      </trkpt>
      <trkpt lat="42.71881" lon="23.71846">
        <ele>646.129626</ele>
        <time>2022-03-09T09:14:40.393Z</time>
      </trkpt>
      <trkpt lat="42.71871" lon="23.71845">
        <ele>645.924666</ele>
        <time>2022-03-09T09:14:43.394Z</time>
      </trkpt>
      <trkpt lat="42.7186" lon="23.71844">
        <ele>645.717892</ele>
        <time>2022-03-09T09:14:46.423Z</time>
      </trkpt>
      <trkpt lat="42.7185" lon="23.71843">
        <ele>645.509764</ele>
        <time>2022-03-09T09:14:49.429Z</time>
      </trkpt>
      <trkpt lat="42.71839" lon="23.71841">
        <ele>645.304207</ele>
        <time>2022-03-09T09:14:52.418Z</time>
      </trkpt>
      <trkpt lat="42.71829" lon="23.7184">
        <ele>645.096366</ele>
        <time>2022-03-09T09:14:55.409Z</time>
      </trkpt>
      <trkpt lat="42.71818" lon="23.71838">
        <ele>644.882742</ele>
        <time>2022-03-09T09:14:58.399Z</time>
      </trkpt>
      <trkpt lat="42.71805" lon="23.71835">
        <ele>644.634783</ele>
        <time>2022-03-09T09:15:01.392Z</time>
      </trkpt>
      <trkpt lat="42.71795" lon="23.71833">
        <ele>644.443072</ele>
        <time>2022-03-09T09:15:03.395Z</time>
      </trkpt>
      <trkpt lat="42.71785" lon="23.71831">
        <ele>644.03693</ele>
        <time>2022-03-09T09:15:05.397Z</time>
      </trkpt>
      <trkpt lat="42.71774" lon="23.7183">
        <ele>643.62572</ele>
        <time>2022-03-09T09:15:07.401Z</time>
      </trkpt>
      <trkpt lat="42.71764" lon="23.71828">
        <ele>643.259094</ele>
        <time>2022-03-09T09:15:09.414Z</time>
      </trkpt>
      <trkpt lat="42.71755" lon="23.71826">
        <ele>642.901408</ele>
        <time>2022-03-09T09:15:11.403Z</time>
      </trkpt>
      <trkpt lat="42.71745" lon="23.71825">
        <ele>642.524632</ele>
        <time>2022-03-09T09:15:13.397Z</time>
      </trkpt>
      <trkpt lat="42.71735" lon="23.71823">
        <ele>642.133697</ele>
        <time>2022-03-09T09:15:15.408Z</time>
      </trkpt>
      <trkpt lat="42.71723" lon="23.71823">
        <ele>641.698938</ele>
        <time>2022-03-09T09:15:17.388Z</time>
      </trkpt>
      <trkpt lat="42.71711" lon="23.71823">
        <ele>641.241435</ele>
        <time>2022-03-09T09:15:19.378Z</time>
      </trkpt>
      <trkpt lat="42.71698" lon="23.71825">
        <ele>640.739489</ele>
        <time>2022-03-09T09:15:21.434Z</time>
      </trkpt>
      <trkpt lat="42.71684" lon="23.71829">
        <ele>640.207383</ele>
        <time>2022-03-09T09:15:23.396Z</time>
      </trkpt>
      <trkpt lat="42.71669" lon="23.71836">
        <ele>639.624059</ele>
        <time>2022-03-09T09:15:25.394Z</time>
      </trkpt>
      <trkpt lat="42.71658" lon="23.71849">
        <ele>639.064374</ele>
        <time>2022-03-09T09:15:27.440Z</time>
      </trkpt>
      <trkpt lat="42.71648" lon="23.71865">
        <ele>638.492655</ele>
        <time>2022-03-09T09:15:29.420Z</time>
      </trkpt>
      <trkpt lat="42.71639" lon="23.7188">
        <ele>637.940288</ele>
        <time>2022-03-09T09:15:31.408Z</time>
      </trkpt>
      <trkpt lat="42.71629" lon="23.71893">
        <ele>637.66733</ele>
        <time>2022-03-09T09:15:33.439Z</time>
      </trkpt>
      <trkpt lat="42.71621" lon="23.71906">
        <ele>637.720204</ele>
        <time>2022-03-09T09:15:35.408Z</time>
      </trkpt>
      <trkpt lat="42.71612" lon="23.71918">
        <ele>637.772283</ele>
        <time>2022-03-09T09:15:37.383Z</time>
      </trkpt>
      <trkpt lat="42.71604" lon="23.7193">
        <ele>637.822574</ele>
        <time>2022-03-09T09:15:39.409Z</time>
      </trkpt>
      <trkpt lat="42.71595" lon="23.7194">
        <ele>637.871974</ele>
        <time>2022-03-09T09:15:41.404Z</time>
      </trkpt>
      <trkpt lat="42.71586" lon="23.71949">
        <ele>637.918767</ele>
        <time>2022-03-09T09:15:43.395Z</time>
      </trkpt>
      <trkpt lat="42.71577" lon="23.71957">
        <ele>637.963991</ele>
        <time>2022-03-09T09:15:45.415Z</time>
      </trkpt>
      <trkpt lat="42.71568" lon="23.71965">
        <ele>638.00937</ele>
        <time>2022-03-09T09:15:47.391Z</time>
      </trkpt>
      <trkpt lat="42.71558" lon="23.71971">
        <ele>638.054324</ele>
        <time>2022-03-09T09:15:49.396Z</time>
      </trkpt>
      <trkpt lat="42.71548" lon="23.71976">
        <ele>638.098643</ele>
        <time>2022-03-09T09:15:51.398Z</time>
      </trkpt>
      <trkpt lat="42.71538" lon="23.71979">
        <ele>638.144352</ele>
        <time>2022-03-09T09:15:53.405Z</time>
      </trkpt>
      <trkpt lat="42.71528" lon="23.71982">
        <ele>638.185724</ele>
        <time>2022-03-09T09:15:55.449Z</time>
      </trkpt>
      <trkpt lat="42.71518" lon="23.71983">
        <ele>638.226831</ele>
        <time>2022-03-09T09:15:57.393Z</time>
      </trkpt>
      <trkpt lat="42.71509" lon="23.71985">
        <ele>638.267032</ele>
        <time>2022-03-09T09:15:59.398Z</time>
      </trkpt>
      <trkpt lat="42.71498" lon="23.71986">
        <ele>638.314379</ele>
        <time>2022-03-09T09:16:02.397Z</time>
      </trkpt>
      <trkpt lat="42.71488" lon="23.71988">
        <ele>638.35404</ele>
        <time>2022-03-09T09:16:05.393Z</time>
      </trkpt>
      <trkpt lat="42.71478" lon="23.7199">
        <ele>638.396102</ele>
        <time>2022-03-09T09:16:08.384Z</time>
      </trkpt>
      <trkpt lat="42.71466" lon="23.71991">
        <ele>638.270773</ele>
        <time>2022-03-09T09:16:11.439Z</time>
      </trkpt>
      <trkpt lat="42.71455" lon="23.71992">
        <ele>638.141455</ele>
        <time>2022-03-09T09:16:14.400Z</time>
      </trkpt>
      <trkpt lat="42.71445" lon="23.71993">
        <ele>638.029476</ele>
        <time>2022-03-09T09:16:17.400Z</time>
      </trkpt>
      <trkpt lat="42.71435" lon="23.71995">
        <ele>637.909696</ele>
        <time>2022-03-09T09:16:20.397Z</time>
      </trkpt>
      <trkpt lat="42.71424" lon="23.71996">
        <ele>637.791538</ele>
        <time>2022-03-09T09:16:23.389Z</time>
      </trkpt>
      <trkpt lat="42.71414" lon="23.71999">
        <ele>637.665072</ele>
        <time>2022-03-09T09:16:26.393Z</time>
      </trkpt>
      <trkpt lat="42.71404" lon="23.72">
        <ele>637.560787</ele>
        <time>2022-03-09T09:16:28.401Z</time>
      </trkpt>
      <trkpt lat="42.71391" lon="23.72003">
        <ele>637.40816</ele>
        <time>2022-03-09T09:16:31.393Z</time>
      </trkpt>
      <trkpt lat="42.71379" lon="23.72006">
        <ele>637.262652</ele>
        <time>2022-03-09T09:16:34.398Z</time>
      </trkpt>
      <trkpt lat="42.7137" lon="23.72011">
        <ele>637.155397</ele>
        <time>2022-03-09T09:16:36.386Z</time>
      </trkpt>
      <trkpt lat="42.71358" lon="23.72017">
        <ele>637.005963</ele>
        <time>2022-03-09T09:16:39.401Z</time>
      </trkpt>
      <trkpt lat="42.71349" lon="23.7202">
        <ele>636.899488</ele>
        <time>2022-03-09T09:16:41.403Z</time>
      </trkpt>
      <trkpt lat="42.71339" lon="23.72024">
        <ele>636.790668</ele>
        <time>2022-03-09T09:16:43.424Z</time>
      </trkpt>
      <trkpt lat="42.71329" lon="23.72028">
        <ele>636.667931</ele>
        <time>2022-03-09T09:16:45.379Z</time>
      </trkpt>
      <trkpt lat="42.71319" lon="23.72032">
        <ele>636.551381</ele>
        <time>2022-03-09T09:16:47.383Z</time>
      </trkpt>
      <trkpt lat="42.71311" lon="23.72036">
        <ele>636.447907</ele>
        <time>2022-03-09T09:16:49.417Z</time>
      </trkpt>
      <trkpt lat="42.71302" lon="23.72041">
        <ele>636.367069</ele>
        <time>2022-03-09T09:16:51.401Z</time>
      </trkpt>
      <trkpt lat="42.71292" lon="23.72044">
        <ele>636.572134</ele>
        <time>2022-03-09T09:16:53.395Z</time>
      </trkpt>
      <trkpt lat="42.71282" lon="23.72048">
        <ele>636.810822</ele>
        <time>2022-03-09T09:16:56.383Z</time>
      </trkpt>
      <trkpt lat="42.71271" lon="23.72052">
        <ele>637.053086</ele>
        <time>2022-03-09T09:16:59.409Z</time>
      </trkpt>
      <trkpt lat="42.71261" lon="23.72056">
        <ele>637.28632</ele>
        <time>2022-03-09T09:17:02.397Z</time>
      </trkpt>
      <trkpt lat="42.7125" lon="23.72061">
        <ele>637.530085</ele>
        <time>2022-03-09T09:17:05.386Z</time>
      </trkpt>
      <trkpt lat="42.71238" lon="23.72066">
        <ele>637.804527</ele>
        <time>2022-03-09T09:17:08.410Z</time>
      </trkpt>
      <trkpt lat="42.71229" lon="23.7207">
        <ele>638.010686</ele>
        <time>2022-03-09T09:17:10.394Z</time>
      </trkpt>
      <trkpt lat="42.71218" lon="23.72076">
        <ele>638.27774</ele>
        <time>2022-03-09T09:17:13.412Z</time>
      </trkpt>
      <trkpt lat="42.71205" lon="23.72082">
        <ele>638.5628</ele>
        <time>2022-03-09T09:17:16.392Z</time>
      </trkpt>
      <trkpt lat="42.71193" lon="23.72087">
        <ele>638.839781</ele>
        <time>2022-03-09T09:17:19.386Z</time>
      </trkpt>
      <trkpt lat="42.71182" lon="23.72092">
        <ele>639.104679</ele>
        <time>2022-03-09T09:17:22.385Z</time>
      </trkpt>
      <trkpt lat="42.71173" lon="23.72096">
        <ele>639.305686</ele>
        <time>2022-03-09T09:17:24.410Z</time>
      </trkpt>
      <trkpt lat="42.71164" lon="23.72101">
        <ele>639.519108</ele>
        <time>2022-03-09T09:17:26.406Z</time>
      </trkpt>
      <trkpt lat="42.71155" lon="23.72104">
        <ele>639.716206</ele>
        <time>2022-03-09T09:17:28.454Z</time>
      </trkpt>
      <trkpt lat="42.71145" lon="23.7211">
        <ele>639.95951</ele>
        <time>2022-03-09T09:17:31.408Z</time>
      </trkpt>
      <trkpt lat="42.71135" lon="23.72114">
        <ele>640.174977</ele>
        <time>2022-03-09T09:17:34.392Z</time>
      </trkpt>
      <trkpt lat="42.71124" lon="23.72119">
        <ele>640.455543</ele>
        <time>2022-03-09T09:17:38.384Z</time>
      </trkpt>
      <trkpt lat="42.71116" lon="23.72124">
        <ele>640.686791</ele>
        <time>2022-03-09T09:17:41.495Z</time>
      </trkpt>
      <trkpt lat="42.71107" lon="23.72128">
        <ele>640.922381</ele>
        <time>2022-03-09T09:17:44.399Z</time>
      </trkpt>
      <trkpt lat="42.71098" lon="23.72131">
        <ele>641.167461</ele>
        <time>2022-03-09T09:17:47.396Z</time>
      </trkpt>
      <trkpt lat="42.71089" lon="23.72134">
        <ele>641.418452</ele>
        <time>2022-03-09T09:17:50.401Z</time>
      </trkpt>
      <trkpt lat="42.71077" lon="23.72135">
        <ele>641.708704</ele>
        <time>2022-03-09T09:17:54.475Z</time>
      </trkpt>
      <trkpt lat="42.71069" lon="23.72129">
        <ele>641.945178</ele>
        <time>2022-03-09T09:17:58.395Z</time>
      </trkpt>
      <trkpt lat="42.71063" lon="23.72117">
        <ele>642.216962</ele>
        <time>2022-03-09T09:18:02.465Z</time>
      </trkpt>
      <trkpt lat="42.71057" lon="23.72106">
        <ele>642.461538</ele>
        <time>2022-03-09T09:18:06.420Z</time>
      </trkpt>
      <trkpt lat="42.71053" lon="23.72095">
        <ele>642.706388</ele>
        <time>2022-03-09T09:18:10.381Z</time>
      </trkpt>
      <trkpt lat="42.7105" lon="23.72082">
        <ele>642.966381</ele>
        <time>2022-03-09T09:18:15.401Z</time>
      </trkpt>
      <trkpt lat="42.71046" lon="23.72068">
        <ele>643.249404</ele>
        <time>2022-03-09T09:18:20.379Z</time>
      </trkpt>
      <trkpt lat="42.71042" lon="23.72055">
        <ele>643.506667</ele>
        <time>2022-03-09T09:18:24.390Z</time>
      </trkpt>
      <trkpt lat="42.71039" lon="23.72043">
        <ele>643.755155</ele>
        <time>2022-03-09T09:18:29.450Z</time>
      </trkpt>
      <trkpt lat="42.71035" lon="23.72029">
        <ele>644.032827</ele>
        <time>2022-03-09T09:18:34.392Z</time>
      </trkpt>
      <trkpt lat="42.71033" lon="23.72017">
        <ele>644.264031</ele>
        <time>2022-03-09T09:18:38.430Z</time>
      </trkpt>
      <trkpt lat="42.71029" lon="23.72004">
        <ele>644.531301</ele>
        <time>2022-03-09T09:18:43.378Z</time>
      </trkpt>
      <trkpt lat="42.71025" lon="23.7199">
        <ele>644.814324</ele>
        <time>2022-03-09T09:18:48.393Z</time>
      </trkpt>
      <trkpt lat="42.71022" lon="23.71976">
        <ele>645.451612</ele>
        <time>2022-03-09T09:18:53.409Z</time>
      </trkpt>
      <trkpt lat="42.71018" lon="23.71964">
        <ele>646.103769</ele>
        <time>2022-03-09T09:18:58.379Z</time>
      </trkpt>
      <trkpt lat="42.71015" lon="23.71952">
        <ele>646.750253</ele>
        <time>2022-03-09T09:19:04.396Z</time>
      </trkpt>
      <trkpt lat="42.71011" lon="23.7194">
        <ele>647.437102</ele>
        <time>2022-03-09T09:19:10.410Z</time>
      </trkpt>
      <trkpt lat="42.71007" lon="23.71929">
        <ele>648.062949</ele>
        <time>2022-03-09T09:19:16.416Z</time>
      </trkpt>
      <trkpt lat="42.71001" lon="23.71917">
        <ele>648.797746</ele>
        <time>2022-03-09T09:19:22.407Z</time>
      </trkpt>
      <trkpt lat="42.70999" lon="23.71905">
        <ele>649.450175</ele>
        <time>2022-03-09T09:19:27.468Z</time>
      </trkpt>
      <trkpt lat="42.70995" lon="23.71891">
        <ele>650.194278</ele>
        <time>2022-03-09T09:19:32.397Z</time>
      </trkpt>
      <trkpt lat="42.70992" lon="23.71878">
        <ele>650.912481</ele>
        <time>2022-03-09T09:19:37.391Z</time>
      </trkpt>
      <trkpt lat="42.70989" lon="23.71865">
        <ele>651.605047</ele>
        <time>2022-03-09T09:19:43.396Z</time>
      </trkpt>
      <trkpt lat="42.70987" lon="23.71852">
        <ele>652.277208</ele>
        <time>2022-03-09T09:19:49.405Z</time>
      </trkpt>
      <trkpt lat="42.70982" lon="23.7184">
        <ele>653.00617</ele>
        <time>2022-03-09T09:19:55.401Z</time>
      </trkpt>
      <trkpt lat="42.7098" lon="23.71827">
        <ele>653.658742</ele>
        <time>2022-03-09T09:19:59.409Z</time>
      </trkpt>
      <trkpt lat="42.70976" lon="23.71815">
        <ele>654.318785</ele>
        <time>2022-03-09T09:20:04.393Z</time>
      </trkpt>
      <trkpt lat="42.70973" lon="23.71802">
        <ele>655.029392</ele>
        <time>2022-03-09T09:20:11.395Z</time>
      </trkpt>
      <trkpt lat="42.7097" lon="23.71789">
        <ele>655.71806</ele>
        <time>2022-03-09T09:20:17.425Z</time>
      </trkpt>
      <trkpt lat="42.70966" lon="23.71776">
        <ele>656.421075</ele>
        <time>2022-03-09T09:20:23.398Z</time>
      </trkpt>
      <trkpt lat="42.70963" lon="23.71765">
        <ele>657.072263</ele>
        <time>2022-03-09T09:20:28.446Z</time>
      </trkpt>
      <trkpt lat="42.70958" lon="23.71752">
        <ele>657.518182</ele>
        <time>2022-03-09T09:20:34.397Z</time>
      </trkpt>
      <trkpt lat="42.70955" lon="23.7174">
        <ele>657.740957</ele>
        <time>2022-03-09T09:20:39.430Z</time>
      </trkpt>
      <trkpt lat="42.70953" lon="23.71728">
        <ele>657.95648</ele>
        <time>2022-03-09T09:20:44.397Z</time>
      </trkpt>
      <trkpt lat="42.7095" lon="23.71715">
        <ele>658.176107</ele>
        <time>2022-03-09T09:20:49.409Z</time>
      </trkpt>
      <trkpt lat="42.70948" lon="23.71703">
        <ele>658.391291</ele>
        <time>2022-03-09T09:20:54.403Z</time>
      </trkpt>
      <trkpt lat="42.70944" lon="23.7169">
        <ele>658.645868</ele>
        <time>2022-03-09T09:21:00.379Z</time>
      </trkpt>
      <trkpt lat="42.7094" lon="23.71678">
        <ele>658.863036</ele>
        <time>2022-03-09T09:21:05.396Z</time>
      </trkpt>
      <trkpt lat="42.70936" lon="23.71665">
        <ele>659.106914</ele>
        <time>2022-03-09T09:21:12.397Z</time>
      </trkpt>
      <trkpt lat="42.70932" lon="23.71652">
        <ele>659.343888</ele>
        <time>2022-03-09T09:21:18.440Z</time>
      </trkpt>
      <trkpt lat="42.70929" lon="23.71639">
        <ele>659.573917</ele>
        <time>2022-03-09T09:21:23.401Z</time>
      </trkpt>
      <trkpt lat="42.70927" lon="23.71626">
        <ele>659.804263</ele>
        <time>2022-03-09T09:21:28.391Z</time>
      </trkpt>
      <trkpt lat="42.70924" lon="23.71613">
        <ele>660.043508</ele>
        <time>2022-03-09T09:21:35.386Z</time>
      </trkpt>
      <trkpt lat="42.7092" lon="23.716">
        <ele>660.278126</ele>
        <time>2022-03-09T09:21:41.392Z</time>
      </trkpt>
      <trkpt lat="42.70916" lon="23.71588">
        <ele>660.517701</ele>
        <time>2022-03-09T09:21:47.405Z</time>
      </trkpt>
      <trkpt lat="42.70912" lon="23.71574">
        <ele>660.766976</ele>
        <time>2022-03-09T09:21:53.391Z</time>
      </trkpt>
      <trkpt lat="42.70909" lon="23.71562">
        <ele>660.995919</ele>
        <time>2022-03-09T09:21:58.393Z</time>
      </trkpt>
      <trkpt lat="42.70905" lon="23.7155">
        <ele>661.205616</ele>
        <time>2022-03-09T09:22:03.400Z</time>
      </trkpt>
      <trkpt lat="42.70901" lon="23.71539">
        <ele>661.427464</ele>
        <time>2022-03-09T09:22:09.392Z</time>
      </trkpt>
      <trkpt lat="42.70897" lon="23.71526">
        <ele>661.683067</ele>
        <time>2022-03-09T09:22:15.392Z</time>
      </trkpt>
      <trkpt lat="42.70894" lon="23.71512">
        <ele>661.988362</ele>
        <time>2022-03-09T09:22:21.427Z</time>
      </trkpt>
      <trkpt lat="42.70892" lon="23.715">
        <ele>662.249108</ele>
        <time>2022-03-09T09:22:26.389Z</time>
      </trkpt>
      <trkpt lat="42.70889" lon="23.71486">
        <ele>662.557633</ele>
        <time>2022-03-09T09:22:32.410Z</time>
      </trkpt>
      <trkpt lat="42.70884" lon="23.71474">
        <ele>662.849962</ele>
        <time>2022-03-09T09:22:38.401Z</time>
      </trkpt>
      <trkpt lat="42.70882" lon="23.71462">
        <ele>663.110359</ele>
        <time>2022-03-09T09:22:43.400Z</time>
      </trkpt>
      <trkpt lat="42.70878" lon="23.71448">
        <ele>663.420869</ele>
        <time>2022-03-09T09:22:49.401Z</time>
      </trkpt>
      <trkpt lat="42.70875" lon="23.71436">
        <ele>663.69573</ele>
        <time>2022-03-09T09:22:54.407Z</time>
      </trkpt>
      <trkpt lat="42.70873" lon="23.71424">
        <ele>663.961406</ele>
        <time>2022-03-09T09:23:00.398Z</time>
      </trkpt>
      <trkpt lat="42.7087" lon="23.71411">
        <ele>664.236009</ele>
        <time>2022-03-09T09:23:05.404Z</time>
      </trkpt>
      <trkpt lat="42.70866" lon="23.71399">
        <ele>664.516965</ele>
        <time>2022-03-09T09:23:10.403Z</time>
      </trkpt>
      <trkpt lat="42.70862" lon="23.71388">
        <ele>664.779245</ele>
        <time>2022-03-09T09:23:15.406Z</time>
      </trkpt>
      <trkpt lat="42.70859" lon="23.71375">
        <ele>665.081827</ele>
        <time>2022-03-09T09:23:21.400Z</time>
      </trkpt>
      <trkpt lat="42.70856" lon="23.71362">
        <ele>665.355644</ele>
        <time>2022-03-09T09:23:26.417Z</time>
      </trkpt>
      <trkpt lat="42.70854" lon="23.7135">
        <ele>665.622818</ele>
        <time>2022-03-09T09:23:31.392Z</time>
      </trkpt>
      <trkpt lat="42.70852" lon="23.71337">
        <ele>665.892626</ele>
        <time>2022-03-09T09:23:37.448Z</time>
      </trkpt>
      <trkpt lat="42.70849" lon="23.71324">
        <ele>666.194798</ele>
        <time>2022-03-09T09:23:42.387Z</time>
      </trkpt>
      <trkpt lat="42.70846" lon="23.71309">
        <ele>666.522927</ele>
        <time>2022-03-09T09:23:47.407Z</time>
      </trkpt>
      <trkpt lat="42.70842" lon="23.71295">
        <ele>666.906368</ele>
        <time>2022-03-09T09:23:51.392Z</time>
      </trkpt>
      <trkpt lat="42.70839" lon="23.71282">
        <ele>667.436493</ele>
        <time>2022-03-09T09:23:56.402Z</time>
      </trkpt>
      <trkpt lat="42.70836" lon="23.71269">
        <ele>667.96595</ele>
        <time>2022-03-09T09:24:02.402Z</time>
      </trkpt>
      <trkpt lat="42.70833" lon="23.71255">
        <ele>668.523315</ele>
        <time>2022-03-09T09:24:08.375Z</time>
      </trkpt>
      <trkpt lat="42.7083" lon="23.71241">
        <ele>669.087391</ele>
        <time>2022-03-09T09:24:13.406Z</time>
      </trkpt>
      <trkpt lat="42.70827" lon="23.71228">
        <ele>669.619493</ele>
        <time>2022-03-09T09:24:18.386Z</time>
      </trkpt>
      <trkpt lat="42.70823" lon="23.71214">
        <ele>670.19334</ele>
        <time>2022-03-09T09:24:23.408Z</time>
      </trkpt>
      <trkpt lat="42.7082" lon="23.71202">
        <ele>670.705346</ele>
        <time>2022-03-09T09:24:28.391Z</time>
      </trkpt>
      <trkpt lat="42.70819" lon="23.71189">
        <ele>671.212775</ele>
        <time>2022-03-09T09:24:33.416Z</time>
      </trkpt>
      <trkpt lat="42.70816" lon="23.71177">
        <ele>671.712053</ele>
        <time>2022-03-09T09:24:39.388Z</time>
      </trkpt>
      <trkpt lat="42.70813" lon="23.71164">
        <ele>672.220092</ele>
        <time>2022-03-09T09:24:44.393Z</time>
      </trkpt>
      <trkpt lat="42.70811" lon="23.71151">
        <ele>672.738351</ele>
        <time>2022-03-09T09:24:49.427Z</time>
      </trkpt>
      <trkpt lat="42.70807" lon="23.71138">
        <ele>673.293973</ele>
        <time>2022-03-09T09:24:53.415Z</time>
      </trkpt>
      <trkpt lat="42.70805" lon="23.71124">
        <ele>673.837351</ele>
        <time>2022-03-09T09:24:57.389Z</time>
      </trkpt>
      <trkpt lat="42.70803" lon="23.71111">
        <ele>674.374493</ele>
        <time>2022-03-09T09:25:01.401Z</time>
      </trkpt>
      <trkpt lat="42.708" lon="23.71095">
        <ele>674.996206</ele>
        <time>2022-03-09T09:25:05.387Z</time>
      </trkpt>
      <trkpt lat="42.70796" lon="23.7108">
        <ele>675.637806</ele>
        <time>2022-03-09T09:25:09.434Z</time>
      </trkpt>
      <trkpt lat="42.70792" lon="23.71066">
        <ele>676.223018</ele>
        <time>2022-03-09T09:25:13.404Z</time>
      </trkpt>
      <trkpt lat="42.7079" lon="23.71051">
        <ele>676.231404</ele>
        <time>2022-03-09T09:25:17.406Z</time>
      </trkpt>
      <trkpt lat="42.70788" lon="23.71038">
        <ele>676.16374</ele>
        <time>2022-03-09T09:25:20.386Z</time>
      </trkpt>
      <trkpt lat="42.70785" lon="23.71025">
        <ele>676.098073</ele>
        <time>2022-03-09T09:25:23.427Z</time>
      </trkpt>
      <trkpt lat="42.70783" lon="23.71013">
        <ele>676.033211</ele>
        <time>2022-03-09T09:25:26.420Z</time>
      </trkpt>
      <trkpt lat="42.7078" lon="23.70999">
        <ele>675.963844</ele>
        <time>2022-03-09T09:25:29.411Z</time>
      </trkpt>
      <trkpt lat="42.70777" lon="23.70987">
        <ele>675.89761</ele>
        <time>2022-03-09T09:25:32.430Z</time>
      </trkpt>
      <trkpt lat="42.70774" lon="23.70974">
        <ele>675.831115</ele>
        <time>2022-03-09T09:25:35.402Z</time>
      </trkpt>
      <trkpt lat="42.70771" lon="23.7096">
        <ele>675.759106</ele>
        <time>2022-03-09T09:25:38.409Z</time>
      </trkpt>
      <trkpt lat="42.70768" lon="23.70946">
        <ele>675.682418</ele>
        <time>2022-03-09T09:25:41.398Z</time>
      </trkpt>
      <trkpt lat="42.70765" lon="23.70929">
        <ele>675.5951</ele>
        <time>2022-03-09T09:25:44.448Z</time>
      </trkpt>
      <trkpt lat="42.70764" lon="23.70917">
        <ele>675.533612</ele>
        <time>2022-03-09T09:25:46.395Z</time>
      </trkpt>
      <trkpt lat="42.70761" lon="23.70904">
        <ele>675.464822</ele>
        <time>2022-03-09T09:25:48.390Z</time>
      </trkpt>
      <trkpt lat="42.70758" lon="23.7089">
        <ele>675.392375</ele>
        <time>2022-03-09T09:25:50.418Z</time>
      </trkpt>
      <trkpt lat="42.70755" lon="23.70876">
        <ele>675.321824</ele>
        <time>2022-03-09T09:25:52.407Z</time>
      </trkpt>
      <trkpt lat="42.70752" lon="23.70862">
        <ele>675.249157</ele>
        <time>2022-03-09T09:25:54.403Z</time>
      </trkpt>
      <trkpt lat="42.70749" lon="23.70848">
        <ele>675.176425</ele>
        <time>2022-03-09T09:25:56.397Z</time>
      </trkpt>
      <trkpt lat="42.70747" lon="23.70834">
        <ele>675.103582</ele>
        <time>2022-03-09T09:25:58.397Z</time>
      </trkpt>
      <trkpt lat="42.70744" lon="23.7082">
        <ele>674.811602</ele>
        <time>2022-03-09T09:26:00.415Z</time>
      </trkpt>
      <trkpt lat="42.7074" lon="23.70806">
        <ele>674.32388</ele>
        <time>2022-03-09T09:26:02.394Z</time>
      </trkpt>
      <trkpt lat="42.70737" lon="23.70789">
        <ele>673.763892</ele>
        <time>2022-03-09T09:26:04.416Z</time>
      </trkpt>
      <trkpt lat="42.70733" lon="23.70772">
        <ele>673.170156</ele>
        <time>2022-03-09T09:26:06.390Z</time>
      </trkpt>
      <trkpt lat="42.7073" lon="23.70753">
        <ele>672.546964</ele>
        <time>2022-03-09T09:26:08.400Z</time>
      </trkpt>
      <trkpt lat="42.70726" lon="23.70734">
        <ele>671.920622</ele>
        <time>2022-03-09T09:26:10.436Z</time>
      </trkpt>
      <trkpt lat="42.70723" lon="23.70715">
        <ele>671.269055</ele>
        <time>2022-03-09T09:26:12.400Z</time>
      </trkpt>
      <trkpt lat="42.70719" lon="23.70695">
        <ele>670.607917</ele>
        <time>2022-03-09T09:26:14.396Z</time>
      </trkpt>
      <trkpt lat="42.70716" lon="23.70676">
        <ele>669.955295</ele>
        <time>2022-03-09T09:26:16.399Z</time>
      </trkpt>
      <trkpt lat="42.70712" lon="23.70656">
        <ele>669.296321</ele>
        <time>2022-03-09T09:26:18.406Z</time>
      </trkpt>
      <trkpt lat="42.70708" lon="23.70636">
        <ele>668.620475</ele>
        <time>2022-03-09T09:26:20.398Z</time>
      </trkpt>
      <trkpt lat="42.70704" lon="23.70614">
        <ele>667.876144</ele>
        <time>2022-03-09T09:26:22.414Z</time>
      </trkpt>
      <trkpt lat="42.70699" lon="23.70591">
        <ele>667.104969</ele>
        <time>2022-03-09T09:26:24.409Z</time>
      </trkpt>
      <trkpt lat="42.70697" lon="23.70579">
        <ele>666.704496</ele>
        <time>2022-03-09T09:26:25.400Z</time>
      </trkpt>
      <trkpt lat="42.70694" lon="23.70567">
        <ele>666.296717</ele>
        <time>2022-03-09T09:26:26.387Z</time>
      </trkpt>
      <trkpt lat="42.70692" lon="23.70555">
        <ele>665.88778</ele>
        <time>2022-03-09T09:26:27.410Z</time>
      </trkpt>
      <trkpt lat="42.7069" lon="23.70543">
        <ele>665.493611</ele>
        <time>2022-03-09T09:26:28.409Z</time>
      </trkpt>
      <trkpt lat="42.70687" lon="23.70531">
        <ele>665.088811</ele>
        <time>2022-03-09T09:26:29.466Z</time>
      </trkpt>
      <trkpt lat="42.70682" lon="23.70508">
        <ele>664.321816</ele>
        <time>2022-03-09T09:26:31.408Z</time>
      </trkpt>
      <trkpt lat="42.70677" lon="23.70486">
        <ele>663.571548</ele>
        <time>2022-03-09T09:26:33.404Z</time>
      </trkpt>
      <trkpt lat="42.70672" lon="23.70463">
        <ele>662.808214</ele>
        <time>2022-03-09T09:26:35.397Z</time>
      </trkpt>
      <trkpt lat="42.70667" lon="23.70441">
        <ele>662.038118</ele>
        <time>2022-03-09T09:26:37.399Z</time>
      </trkpt>
      <trkpt lat="42.70662" lon="23.70419">
        <ele>661.29459</ele>
        <time>2022-03-09T09:26:39.409Z</time>
      </trkpt>
      <trkpt lat="42.70657" lon="23.70396">
        <ele>660.534778</ele>
        <time>2022-03-09T09:26:41.396Z</time>
      </trkpt>
      <trkpt lat="42.70654" lon="23.70384">
        <ele>660.139458</ele>
        <time>2022-03-09T09:26:42.399Z</time>
      </trkpt>
      <trkpt lat="42.70649" lon="23.70361">
        <ele>659.366857</ele>
        <time>2022-03-09T09:26:44.385Z</time>
      </trkpt>
      <trkpt lat="42.70644" lon="23.70339">
        <ele>658.025247</ele>
        <time>2022-03-09T09:26:46.389Z</time>
      </trkpt>
      <trkpt lat="42.7064" lon="23.70316">
        <ele>656.514179</ele>
        <time>2022-03-09T09:26:48.401Z</time>
      </trkpt>
      <trkpt lat="42.70637" lon="23.70304">
        <ele>655.703131</ele>
        <time>2022-03-09T09:26:49.405Z</time>
      </trkpt>
      <trkpt lat="42.70634" lon="23.70292">
        <ele>654.882102</ele>
        <time>2022-03-09T09:26:50.422Z</time>
      </trkpt>
      <trkpt lat="42.70632" lon="23.70278">
        <ele>653.958692</ele>
        <time>2022-03-09T09:26:51.437Z</time>
      </trkpt>
      <trkpt lat="42.70629" lon="23.70265">
        <ele>653.091917</ele>
        <time>2022-03-09T09:26:52.400Z</time>
      </trkpt>
      <trkpt lat="42.70626" lon="23.70252">
        <ele>652.204213</ele>
        <time>2022-03-09T09:26:53.385Z</time>
      </trkpt>
      <trkpt lat="42.70624" lon="23.70239">
        <ele>651.348108</ele>
        <time>2022-03-09T09:26:54.407Z</time>
      </trkpt>
      <trkpt lat="42.70621" lon="23.70226">
        <ele>650.485764</ele>
        <time>2022-03-09T09:26:55.426Z</time>
      </trkpt>
      <trkpt lat="42.70619" lon="23.70213">
        <ele>649.633687</ele>
        <time>2022-03-09T09:26:56.421Z</time>
      </trkpt>
      <trkpt lat="42.70617" lon="23.70201">
        <ele>648.810913</ele>
        <time>2022-03-09T09:26:57.416Z</time>
      </trkpt>
      <trkpt lat="42.70612" lon="23.70178">
        <ele>647.273442</ele>
        <time>2022-03-09T09:26:59.419Z</time>
      </trkpt>
      <trkpt lat="42.70608" lon="23.70154">
        <ele>645.742314</ele>
        <time>2022-03-09T09:27:01.411Z</time>
      </trkpt>
      <trkpt lat="42.70604" lon="23.70131">
        <ele>644.217456</ele>
        <time>2022-03-09T09:27:03.408Z</time>
      </trkpt>
      <trkpt lat="42.706" lon="23.70108">
        <ele>642.787929</ele>
        <time>2022-03-09T09:27:05.409Z</time>
      </trkpt>
      <trkpt lat="42.70597" lon="23.70096">
        <ele>642.125083</ele>
        <time>2022-03-09T09:27:06.416Z</time>
      </trkpt>
      <trkpt lat="42.70595" lon="23.70083">
        <ele>641.427314</ele>
        <time>2022-03-09T09:27:07.460Z</time>
      </trkpt>
      <trkpt lat="42.70592" lon="23.7007">
        <ele>640.693502</ele>
        <time>2022-03-09T09:27:08.433Z</time>
      </trkpt>
      <trkpt lat="42.70589" lon="23.70056">
        <ele>639.926777</ele>
        <time>2022-03-09T09:27:09.417Z</time>
      </trkpt>
      <trkpt lat="42.70586" lon="23.70043">
        <ele>639.166309</ele>
        <time>2022-03-09T09:27:10.408Z</time>
      </trkpt>
      <trkpt lat="42.70583" lon="23.7003">
        <ele>638.440793</ele>
        <time>2022-03-09T09:27:11.405Z</time>
      </trkpt>
      <trkpt lat="42.70581" lon="23.70017">
        <ele>637.710136</ele>
        <time>2022-03-09T09:27:12.405Z</time>
      </trkpt>
      <trkpt lat="42.70578" lon="23.70004">
        <ele>636.984619</ele>
        <time>2022-03-09T09:27:13.407Z</time>
      </trkpt>
      <trkpt lat="42.70575" lon="23.6999">
        <ele>636.236494</ele>
        <time>2022-03-09T09:27:14.400Z</time>
      </trkpt>
      <trkpt lat="42.70572" lon="23.69977">
        <ele>635.464365</ele>
        <time>2022-03-09T09:27:15.411Z</time>
      </trkpt>
      <trkpt lat="42.70568" lon="23.69963">
        <ele>634.687572</ele>
        <time>2022-03-09T09:27:16.418Z</time>
      </trkpt>
      <trkpt lat="42.70565" lon="23.69949">
        <ele>633.910351</ele>
        <time>2022-03-09T09:27:17.411Z</time>
      </trkpt>
      <trkpt lat="42.70562" lon="23.69935">
        <ele>633.14046</ele>
        <time>2022-03-09T09:27:18.449Z</time>
      </trkpt>
      <trkpt lat="42.70559" lon="23.69922">
        <ele>632.379989</ele>
        <time>2022-03-09T09:27:19.407Z</time>
      </trkpt>
      <trkpt lat="42.70555" lon="23.69908">
        <ele>631.581507</ele>
        <time>2022-03-09T09:27:20.408Z</time>
      </trkpt>
      <trkpt lat="42.70553" lon="23.69894">
        <ele>630.809614</ele>
        <time>2022-03-09T09:27:21.399Z</time>
      </trkpt>
      <trkpt lat="42.7055" lon="23.6988">
        <ele>630.115945</ele>
        <time>2022-03-09T09:27:22.401Z</time>
      </trkpt>
      <trkpt lat="42.70548" lon="23.69866">
        <ele>629.563668</ele>
        <time>2022-03-09T09:27:23.410Z</time>
      </trkpt>
      <trkpt lat="42.70545" lon="23.69852">
        <ele>629.007649</ele>
        <time>2022-03-09T09:27:24.399Z</time>
      </trkpt>
      <trkpt lat="42.70543" lon="23.69838">
        <ele>628.45541</ele>
        <time>2022-03-09T09:27:25.409Z</time>
      </trkpt>
      <trkpt lat="42.7054" lon="23.69825">
        <ele>627.921435</ele>
        <time>2022-03-09T09:27:26.403Z</time>
      </trkpt>
      <trkpt lat="42.70537" lon="23.69812">
        <ele>627.375236</ele>
        <time>2022-03-09T09:27:27.419Z</time>
      </trkpt>
      <trkpt lat="42.70533" lon="23.69799">
        <ele>626.832743</ele>
        <time>2022-03-09T09:27:28.411Z</time>
      </trkpt>
      <trkpt lat="42.7053" lon="23.69785">
        <ele>626.291892</ele>
        <time>2022-03-09T09:27:29.433Z</time>
      </trkpt>
      <trkpt lat="42.70527" lon="23.69773">
        <ele>625.771244</ele>
        <time>2022-03-09T09:27:30.418Z</time>
      </trkpt>
      <trkpt lat="42.70525" lon="23.6976">
        <ele>625.272106</ele>
        <time>2022-03-09T09:27:31.390Z</time>
      </trkpt>
      <trkpt lat="42.7052" lon="23.69738">
        <ele>624.350942</ele>
        <time>2022-03-09T09:27:33.403Z</time>
      </trkpt>
      <trkpt lat="42.70515" lon="23.69716">
        <ele>623.467537</ele>
        <time>2022-03-09T09:27:35.458Z</time>
      </trkpt>
      <trkpt lat="42.7051" lon="23.69695">
        <ele>622.603996</ele>
        <time>2022-03-09T09:27:37.400Z</time>
      </trkpt>
      <trkpt lat="42.70506" lon="23.69675">
        <ele>621.792921</ele>
        <time>2022-03-09T09:27:39.411Z</time>
      </trkpt>
      <trkpt lat="42.70502" lon="23.69658">
        <ele>621.110603</ele>
        <time>2022-03-09T09:27:41.422Z</time>
      </trkpt>
      <trkpt lat="42.70499" lon="23.69642">
        <ele>620.79932</ele>
        <time>2022-03-09T09:27:43.429Z</time>
      </trkpt>
      <trkpt lat="42.70495" lon="23.69626">
        <ele>620.826073</ele>
        <time>2022-03-09T09:27:45.402Z</time>
      </trkpt>
      <trkpt lat="42.70492" lon="23.69611">
        <ele>620.850074</ele>
        <time>2022-03-09T09:27:47.400Z</time>
      </trkpt>
      <trkpt lat="42.7049" lon="23.69598">
        <ele>620.871485</ele>
        <time>2022-03-09T09:27:49.402Z</time>
      </trkpt>
      <trkpt lat="42.70487" lon="23.69586">
        <ele>620.891246</ele>
        <time>2022-03-09T09:27:51.416Z</time>
      </trkpt>
      <trkpt lat="42.70483" lon="23.69569">
        <ele>620.918491</ele>
        <time>2022-03-09T09:27:54.423Z</time>
      </trkpt>
      <trkpt lat="42.7048" lon="23.69553">
        <ele>620.943524</ele>
        <time>2022-03-09T09:27:57.434Z</time>
      </trkpt>
      <trkpt lat="42.70477" lon="23.6954">
        <ele>620.96502</ele>
        <time>2022-03-09T09:28:00.407Z</time>
      </trkpt>
      <trkpt lat="42.70474" lon="23.69526">
        <ele>620.988155</ele>
        <time>2022-03-09T09:28:03.405Z</time>
      </trkpt>
      <trkpt lat="42.70471" lon="23.69513">
        <ele>621.009552</ele>
        <time>2022-03-09T09:28:06.413Z</time>
      </trkpt>
      <trkpt lat="42.70468" lon="23.695">
        <ele>621.030926</ele>
        <time>2022-03-09T09:28:09.396Z</time>
      </trkpt>
      <trkpt lat="42.70466" lon="23.69487">
        <ele>621.05098</ele>
        <time>2022-03-09T09:28:12.420Z</time>
      </trkpt>
      <trkpt lat="42.70463" lon="23.69475">
        <ele>621.071249</ele>
        <time>2022-03-09T09:28:15.416Z</time>
      </trkpt>
      <trkpt lat="42.70461" lon="23.69461">
        <ele>621.092404</ele>
        <time>2022-03-09T09:28:18.399Z</time>
      </trkpt>
      <trkpt lat="42.70458" lon="23.69449">
        <ele>621.113064</ele>
        <time>2022-03-09T09:28:21.419Z</time>
      </trkpt>
      <trkpt lat="42.70455" lon="23.69436">
        <ele>621.133946</ele>
        <time>2022-03-09T09:28:24.444Z</time>
      </trkpt>
      <trkpt lat="42.70452" lon="23.69422">
        <ele>621.156275</ele>
        <time>2022-03-09T09:28:27.388Z</time>
      </trkpt>
      <trkpt lat="42.70448" lon="23.69409">
        <ele>621.292566</ele>
        <time>2022-03-09T09:28:30.405Z</time>
      </trkpt>
      <trkpt lat="42.70445" lon="23.69395">
        <ele>621.568792</ele>
        <time>2022-03-09T09:28:33.414Z</time>
      </trkpt>
      <trkpt lat="42.70443" lon="23.69383">
        <ele>621.818495</ele>
        <time>2022-03-09T09:28:36.399Z</time>
      </trkpt>
      <trkpt lat="42.7044" lon="23.69369">
        <ele>622.081319</ele>
        <time>2022-03-09T09:28:39.416Z</time>
      </trkpt>
      <trkpt lat="42.70437" lon="23.69354">
        <ele>622.372263</ele>
        <time>2022-03-09T09:28:42.409Z</time>
      </trkpt>
      <trkpt lat="42.70434" lon="23.69339">
        <ele>622.659443</ele>
        <time>2022-03-09T09:28:45.410Z</time>
      </trkpt>
      <trkpt lat="42.70432" lon="23.69327">
        <ele>622.898523</ele>
        <time>2022-03-09T09:28:48.413Z</time>
      </trkpt>
      <trkpt lat="42.7043" lon="23.69314">
        <ele>623.146293</ele>
        <time>2022-03-09T09:28:51.414Z</time>
      </trkpt>
      <trkpt lat="42.70428" lon="23.69301">
        <ele>623.400549</ele>
        <time>2022-03-09T09:28:54.404Z</time>
      </trkpt>
      <trkpt lat="42.70427" lon="23.69285">
        <ele>623.703704</ele>
        <time>2022-03-09T09:28:58.430Z</time>
      </trkpt>
      <trkpt lat="42.70424" lon="23.69272">
        <ele>623.950657</ele>
        <time>2022-03-09T09:29:01.403Z</time>
      </trkpt>
      <trkpt lat="42.70422" lon="23.69259">
        <ele>624.206882</ele>
        <time>2022-03-09T09:29:04.402Z</time>
      </trkpt>
      <trkpt lat="42.70418" lon="23.69247">
        <ele>624.452609</ele>
        <time>2022-03-09T09:29:07.410Z</time>
      </trkpt>
      <trkpt lat="42.70416" lon="23.69234">
        <ele>624.712069</ele>
        <time>2022-03-09T09:29:10.411Z</time>
      </trkpt>
      <trkpt lat="42.70413" lon="23.69221">
        <ele>624.959673</ele>
        <time>2022-03-09T09:29:13.433Z</time>
      </trkpt>
      <trkpt lat="42.70411" lon="23.69208">
        <ele>625.206627</ele>
        <time>2022-03-09T09:29:16.404Z</time>
      </trkpt>
      <trkpt lat="42.70408" lon="23.69196">
        <ele>625.451758</ele>
        <time>2022-03-09T09:29:19.427Z</time>
      </trkpt>
      <trkpt lat="42.70405" lon="23.69183">
        <ele>625.700414</ele>
        <time>2022-03-09T09:29:22.419Z</time>
      </trkpt>
      <trkpt lat="42.70403" lon="23.69169">
        <ele>625.775018</ele>
        <time>2022-03-09T09:29:25.393Z</time>
      </trkpt>
      <trkpt lat="42.704" lon="23.69155">
        <ele>625.772717</ele>
        <time>2022-03-09T09:29:28.419Z</time>
      </trkpt>
      <trkpt lat="42.70398" lon="23.69143">
        <ele>625.770758</ele>
        <time>2022-03-09T09:29:31.412Z</time>
      </trkpt>
      <trkpt lat="42.70395" lon="23.6913">
        <ele>625.768666</ele>
        <time>2022-03-09T09:29:34.392Z</time>
      </trkpt>
      <trkpt lat="42.70391" lon="23.69116">
        <ele>625.766351</ele>
        <time>2022-03-09T09:29:37.441Z</time>
      </trkpt>
      <trkpt lat="42.70388" lon="23.69102">
        <ele>625.76391</ele>
        <time>2022-03-09T09:29:40.413Z</time>
      </trkpt>
      <trkpt lat="42.70384" lon="23.69088">
        <ele>625.761566</ele>
        <time>2022-03-09T09:29:43.405Z</time>
      </trkpt>
      <trkpt lat="42.70381" lon="23.69073">
        <ele>625.75908</ele>
        <time>2022-03-09T09:29:46.393Z</time>
      </trkpt>
      <trkpt lat="42.70377" lon="23.69056">
        <ele>625.756383</ele>
        <time>2022-03-09T09:29:49.431Z</time>
      </trkpt>
      <trkpt lat="42.70374" lon="23.69041">
        <ele>625.753919</ele>
        <time>2022-03-09T09:29:52.404Z</time>
      </trkpt>
      <trkpt lat="42.70371" lon="23.69027">
        <ele>625.751588</ele>
        <time>2022-03-09T09:29:55.421Z</time>
      </trkpt>
      <trkpt lat="42.70368" lon="23.69015">
        <ele>625.749481</ele>
        <time>2022-03-09T09:29:58.401Z</time>
      </trkpt>
      <trkpt lat="42.70365" lon="23.68999">
        <ele>625.746877</ele>
        <time>2022-03-09T09:30:01.411Z</time>
      </trkpt>
      <trkpt lat="42.70362" lon="23.68984">
        <ele>625.744458</ele>
        <time>2022-03-09T09:30:04.397Z</time>
      </trkpt>
      <trkpt lat="42.70359" lon="23.68969">
        <ele>625.742003</ele>
        <time>2022-03-09T09:30:07.408Z</time>
      </trkpt>
      <trkpt lat="42.70356" lon="23.68953">
        <ele>625.739384</ele>
        <time>2022-03-09T09:30:10.390Z</time>
      </trkpt>
      <trkpt lat="42.70353" lon="23.68937">
        <ele>625.736344</ele>
        <time>2022-03-09T09:30:13.389Z</time>
      </trkpt>
      <trkpt lat="42.7035" lon="23.68921">
        <ele>625.732706</ele>
        <time>2022-03-09T09:30:16.393Z</time>
      </trkpt>
      <trkpt lat="42.70347" lon="23.68905">
        <ele>625.729049</ele>
        <time>2022-03-09T09:30:19.408Z</time>
      </trkpt>
      <trkpt lat="42.70343" lon="23.6889">
        <ele>625.725567</ele>
        <time>2022-03-09T09:30:22.412Z</time>
      </trkpt>
      <trkpt lat="42.70339" lon="23.68873">
        <ele>625.721767</ele>
        <time>2022-03-09T09:30:25.414Z</time>
      </trkpt>
      <trkpt lat="42.70335" lon="23.68856">
        <ele>625.71789</ele>
        <time>2022-03-09T09:30:28.415Z</time>
      </trkpt>
      <trkpt lat="42.70332" lon="23.6884">
        <ele>625.714202</ele>
        <time>2022-03-09T09:30:31.402Z</time>
      </trkpt>
      <trkpt lat="42.70329" lon="23.68823">
        <ele>625.710295</ele>
        <time>2022-03-09T09:30:34.403Z</time>
      </trkpt>
      <trkpt lat="42.70327" lon="23.68811">
        <ele>625.707568</ele>
        <time>2022-03-09T09:30:36.391Z</time>
      </trkpt>
      <trkpt lat="42.70325" lon="23.68799">
        <ele>625.704903</ele>
        <time>2022-03-09T09:30:38.434Z</time>
      </trkpt>
      <trkpt lat="42.70321" lon="23.68782">
        <ele>625.701043</ele>
        <time>2022-03-09T09:30:41.422Z</time>
      </trkpt>
      <trkpt lat="42.70317" lon="23.68765">
        <ele>625.69719</ele>
        <time>2022-03-09T09:30:44.394Z</time>
      </trkpt>
      <trkpt lat="42.70313" lon="23.68749">
        <ele>625.693373</ele>
        <time>2022-03-09T09:30:47.411Z</time>
      </trkpt>
      <trkpt lat="42.7031" lon="23.68731">
        <ele>625.689338</ele>
        <time>2022-03-09T09:30:50.408Z</time>
      </trkpt>
      <trkpt lat="42.70306" lon="23.68715">
        <ele>625.685581</ele>
        <time>2022-03-09T09:30:53.401Z</time>
      </trkpt>
      <trkpt lat="42.70302" lon="23.68697">
        <ele>625.655117</ele>
        <time>2022-03-09T09:30:56.420Z</time>
      </trkpt>
      <trkpt lat="42.70299" lon="23.68681">
        <ele>625.614297</ele>
        <time>2022-03-09T09:30:59.437Z</time>
      </trkpt>
      <trkpt lat="42.70296" lon="23.68664">
        <ele>625.574077</ele>
        <time>2022-03-09T09:31:02.418Z</time>
      </trkpt>
      <trkpt lat="42.70294" lon="23.68652">
        <ele>625.543642</ele>
        <time>2022-03-09T09:31:04.414Z</time>
      </trkpt>
      <trkpt lat="42.70291" lon="23.6864">
        <ele>625.514214</ele>
        <time>2022-03-09T09:31:06.410Z</time>
      </trkpt>
      <trkpt lat="42.70288" lon="23.68623">
        <ele>625.473149</ele>
        <time>2022-03-09T09:31:09.395Z</time>
      </trkpt>
      <trkpt lat="42.70285" lon="23.68606">
        <ele>625.430969</ele>
        <time>2022-03-09T09:31:12.386Z</time>
      </trkpt>
      <trkpt lat="42.70281" lon="23.68589">
        <ele>625.388879</ele>
        <time>2022-03-09T09:31:15.409Z</time>
      </trkpt>
      <trkpt lat="42.70277" lon="23.68572">
        <ele>625.346992</ele>
        <time>2022-03-09T09:31:18.387Z</time>
      </trkpt>
      <trkpt lat="42.70274" lon="23.68556">
        <ele>625.307213</ele>
        <time>2022-03-09T09:31:21.426Z</time>
      </trkpt>
      <trkpt lat="42.7027" lon="23.68539">
        <ele>625.266804</ele>
        <time>2022-03-09T09:31:24.397Z</time>
      </trkpt>
      <trkpt lat="42.70266" lon="23.68522">
        <ele>625.225304</ele>
        <time>2022-03-09T09:31:27.404Z</time>
      </trkpt>
      <trkpt lat="42.70263" lon="23.68505">
        <ele>625.183301</ele>
        <time>2022-03-09T09:31:30.401Z</time>
      </trkpt>
      <trkpt lat="42.70261" lon="23.68493">
        <ele>625.154112</ele>
        <time>2022-03-09T09:31:32.423Z</time>
      </trkpt>
      <trkpt lat="42.70259" lon="23.68481">
        <ele>625.125225</ele>
        <time>2022-03-09T09:31:34.392Z</time>
      </trkpt>
      <trkpt lat="42.70256" lon="23.6847">
        <ele>625.081056</ele>
        <time>2022-03-09T09:31:36.396Z</time>
      </trkpt>
      <trkpt lat="42.70252" lon="23.68452">
        <ele>624.964484</ele>
        <time>2022-03-09T09:31:39.404Z</time>
      </trkpt>
      <trkpt lat="42.70249" lon="23.68435">
        <ele>624.850851</ele>
        <time>2022-03-09T09:31:42.414Z</time>
      </trkpt>
      <trkpt lat="42.70246" lon="23.68418">
        <ele>624.735817</ele>
        <time>2022-03-09T09:31:45.394Z</time>
      </trkpt>
      <trkpt lat="42.70244" lon="23.68406">
        <ele>624.657235</ele>
        <time>2022-03-09T09:31:47.394Z</time>
      </trkpt>
      <trkpt lat="42.70242" lon="23.68394">
        <ele>624.578654</ele>
        <time>2022-03-09T09:31:49.398Z</time>
      </trkpt>
      <trkpt lat="42.70239" lon="23.68377">
        <ele>624.468716</ele>
        <time>2022-03-09T09:31:52.428Z</time>
      </trkpt>
      <trkpt lat="42.70235" lon="23.68361">
        <ele>624.363231</ele>
        <time>2022-03-09T09:31:55.412Z</time>
      </trkpt>
      <trkpt lat="42.70231" lon="23.68344">
        <ele>624.248869</ele>
        <time>2022-03-09T09:31:58.413Z</time>
      </trkpt>
      <trkpt lat="42.70227" lon="23.68327">
        <ele>624.132417</ele>
        <time>2022-03-09T09:32:01.410Z</time>
      </trkpt>
      <trkpt lat="42.70224" lon="23.68315">
        <ele>624.050485</ele>
        <time>2022-03-09T09:32:03.392Z</time>
      </trkpt>
      <trkpt lat="42.70222" lon="23.68302">
        <ele>623.970069</ele>
        <time>2022-03-09T09:32:05.441Z</time>
      </trkpt>
      <trkpt lat="42.7022" lon="23.68291">
        <ele>623.891453</ele>
        <time>2022-03-09T09:32:07.412Z</time>
      </trkpt>
      <trkpt lat="42.70215" lon="23.68274">
        <ele>623.776678</ele>
        <time>2022-03-09T09:32:10.414Z</time>
      </trkpt>
      <trkpt lat="42.70211" lon="23.68256">
        <ele>623.660225</ele>
        <time>2022-03-09T09:32:13.410Z</time>
      </trkpt>
      <trkpt lat="42.70209" lon="23.68244">
        <ele>623.579597</ele>
        <time>2022-03-09T09:32:15.400Z</time>
      </trkpt>
      <trkpt lat="42.70207" lon="23.68232">
        <ele>623.538648</ele>
        <time>2022-03-09T09:32:17.412Z</time>
      </trkpt>
      <trkpt lat="42.70204" lon="23.68219">
        <ele>623.539184</ele>
        <time>2022-03-09T09:32:19.425Z</time>
      </trkpt>
      <trkpt lat="42.702" lon="23.68201">
        <ele>623.539935</ele>
        <time>2022-03-09T09:32:22.415Z</time>
      </trkpt>
      <trkpt lat="42.70197" lon="23.68189">
        <ele>623.540463</ele>
        <time>2022-03-09T09:32:24.441Z</time>
      </trkpt>
      <trkpt lat="42.70194" lon="23.68176">
        <ele>623.541004</ele>
        <time>2022-03-09T09:32:26.412Z</time>
      </trkpt>
      <trkpt lat="42.70192" lon="23.68162">
        <ele>623.54159</ele>
        <time>2022-03-09T09:32:28.413Z</time>
      </trkpt>
      <trkpt lat="42.70189" lon="23.68149">
        <ele>623.542145</ele>
        <time>2022-03-09T09:32:30.416Z</time>
      </trkpt>
      <trkpt lat="42.70187" lon="23.68131">
        <ele>623.542873</ele>
        <time>2022-03-09T09:32:33.458Z</time>
      </trkpt>
      <trkpt lat="42.70184" lon="23.68119">
        <ele>623.543376</ele>
        <time>2022-03-09T09:32:35.417Z</time>
      </trkpt>
      <trkpt lat="42.70181" lon="23.68102">
        <ele>623.544125</ele>
        <time>2022-03-09T09:32:38.409Z</time>
      </trkpt>
      <trkpt lat="42.70177" lon="23.68085">
        <ele>623.544852</ele>
        <time>2022-03-09T09:32:41.413Z</time>
      </trkpt>
      <trkpt lat="42.70174" lon="23.68068">
        <ele>623.54554</ele>
        <time>2022-03-09T09:32:44.439Z</time>
      </trkpt>
      <trkpt lat="42.70172" lon="23.68055">
        <ele>623.546068</ele>
        <time>2022-03-09T09:32:46.421Z</time>
      </trkpt>
      <trkpt lat="42.7017" lon="23.68043">
        <ele>623.546585</ele>
        <time>2022-03-09T09:32:48.407Z</time>
      </trkpt>
      <trkpt lat="42.70167" lon="23.68031">
        <ele>623.54709</ele>
        <time>2022-03-09T09:32:50.393Z</time>
      </trkpt>
      <trkpt lat="42.70165" lon="23.68019">
        <ele>623.547602</ele>
        <time>2022-03-09T09:32:52.392Z</time>
      </trkpt>
      <trkpt lat="42.7016" lon="23.68003">
        <ele>623.548316</ele>
        <time>2022-03-09T09:32:55.437Z</time>
      </trkpt>
      <trkpt lat="42.70157" lon="23.67986">
        <ele>623.526867</ele>
        <time>2022-03-09T09:32:58.412Z</time>
      </trkpt>
      <trkpt lat="42.70153" lon="23.67969">
        <ele>623.505097</ele>
        <time>2022-03-09T09:33:01.413Z</time>
      </trkpt>
      <trkpt lat="42.7015" lon="23.67953">
        <ele>623.484212</ele>
        <time>2022-03-09T09:33:04.417Z</time>
      </trkpt>
      <trkpt lat="42.70147" lon="23.67937">
        <ele>623.463315</ele>
        <time>2022-03-09T09:33:07.395Z</time>
      </trkpt>
      <trkpt lat="42.70143" lon="23.6792">
        <ele>623.44089</ele>
        <time>2022-03-09T09:33:10.417Z</time>
      </trkpt>
      <trkpt lat="42.7014" lon="23.67909">
        <ele>623.425499</ele>
        <time>2022-03-09T09:33:12.414Z</time>
      </trkpt>
      <trkpt lat="42.70136" lon="23.67892">
        <ele>623.403179</ele>
        <time>2022-03-09T09:33:15.396Z</time>
      </trkpt>
      <trkpt lat="42.70132" lon="23.67876">
        <ele>623.382234</ele>
        <time>2022-03-09T09:33:18.411Z</time>
      </trkpt>
      <trkpt lat="42.70127" lon="23.67861">
        <ele>623.360151</ele>
        <time>2022-03-09T09:33:21.409Z</time>
      </trkpt>
      <trkpt lat="42.70122" lon="23.67845">
        <ele>623.33881</ele>
        <time>2022-03-09T09:33:24.412Z</time>
      </trkpt>
      <trkpt lat="42.70117" lon="23.67829">
        <ele>623.316885</ele>
        <time>2022-03-09T09:33:27.407Z</time>
      </trkpt>
      <trkpt lat="42.70112" lon="23.67813">
        <ele>623.295038</ele>
        <time>2022-03-09T09:33:30.409Z</time>
      </trkpt>
      <trkpt lat="42.70108" lon="23.67797">
        <ele>623.272593</ele>
        <time>2022-03-09T09:33:33.411Z</time>
      </trkpt>
      <trkpt lat="42.70104" lon="23.67785">
        <ele>623.256914</ele>
        <time>2022-03-09T09:33:35.408Z</time>
      </trkpt>
      <trkpt lat="42.701" lon="23.67768">
        <ele>623.307614</ele>
        <time>2022-03-09T09:33:38.416Z</time>
      </trkpt>
      <trkpt lat="42.70094" lon="23.67752">
        <ele>623.641451</ele>
        <time>2022-03-09T09:33:41.406Z</time>
      </trkpt>
      <trkpt lat="42.7009" lon="23.67741">
        <ele>623.875526</ele>
        <time>2022-03-09T09:33:43.412Z</time>
      </trkpt>
      <trkpt lat="42.70085" lon="23.6773">
        <ele>624.110593</ele>
        <time>2022-03-09T09:33:45.392Z</time>
      </trkpt>
      <trkpt lat="42.70079" lon="23.67715">
        <ele>624.447624</ele>
        <time>2022-03-09T09:33:48.427Z</time>
      </trkpt>
      <trkpt lat="42.70073" lon="23.67699">
        <ele>624.785903</ele>
        <time>2022-03-09T09:33:51.404Z</time>
      </trkpt>
      <trkpt lat="42.70066" lon="23.67683">
        <ele>625.133308</ele>
        <time>2022-03-09T09:33:54.396Z</time>
      </trkpt>
      <trkpt lat="42.7006" lon="23.67669">
        <ele>625.449216</ele>
        <time>2022-03-09T09:33:57.410Z</time>
      </trkpt>
      <trkpt lat="42.70054" lon="23.67653">
        <ele>625.783796</ele>
        <time>2022-03-09T09:34:00.406Z</time>
      </trkpt>
      <trkpt lat="42.70049" lon="23.67643">
        <ele>626.015821</ele>
        <time>2022-03-09T09:34:02.589Z</time>
      </trkpt>
      <trkpt lat="42.70042" lon="23.67628">
        <ele>626.352054</ele>
        <time>2022-03-09T09:34:05.437Z</time>
      </trkpt>
      <trkpt lat="42.70034" lon="23.67613">
        <ele>626.698393</ele>
        <time>2022-03-09T09:34:08.512Z</time>
      </trkpt>
      <trkpt lat="42.70026" lon="23.67598">
        <ele>627.046256</ele>
        <time>2022-03-09T09:34:11.427Z</time>
      </trkpt>
      <trkpt lat="42.70019" lon="23.67583">
        <ele>627.391</ele>
        <time>2022-03-09T09:34:14.414Z</time>
      </trkpt>
      <trkpt lat="42.70014" lon="23.67573">
        <ele>627.622946</ele>
        <time>2022-03-09T09:34:16.415Z</time>
      </trkpt>
      <trkpt lat="42.70005" lon="23.6756">
        <ele>627.823913</ele>
        <time>2022-03-09T09:34:19.404Z</time>
      </trkpt>
      <trkpt lat="42.69999" lon="23.67551">
        <ele>627.696959</ele>
        <time>2022-03-09T09:34:21.417Z</time>
      </trkpt>
      <trkpt lat="42.69993" lon="23.67541">
        <ele>627.567861</ele>
        <time>2022-03-09T09:34:23.452Z</time>
      </trkpt>
      <trkpt lat="42.69987" lon="23.6753">
        <ele>627.432074</ele>
        <time>2022-03-09T09:34:25.408Z</time>
      </trkpt>
      <trkpt lat="42.69981" lon="23.6752">
        <ele>627.302105</ele>
        <time>2022-03-09T09:34:27.400Z</time>
      </trkpt>
      <trkpt lat="42.69976" lon="23.6751">
        <ele>627.172988</ele>
        <time>2022-03-09T09:34:29.413Z</time>
      </trkpt>
      <trkpt lat="42.69968" lon="23.67496">
        <ele>626.989055</ele>
        <time>2022-03-09T09:34:32.418Z</time>
      </trkpt>
      <trkpt lat="42.6996" lon="23.67484">
        <ele>626.822533</ele>
        <time>2022-03-09T09:34:35.399Z</time>
      </trkpt>
      <trkpt lat="42.6995" lon="23.67473">
        <ele>626.64219</ele>
        <time>2022-03-09T09:34:38.419Z</time>
      </trkpt>
      <trkpt lat="42.69938" lon="23.67474">
        <ele>626.471181</ele>
        <time>2022-03-09T09:34:41.395Z</time>
      </trkpt>
      <trkpt lat="42.69925" lon="23.67479">
        <ele>626.279428</ele>
        <time>2022-03-09T09:34:44.411Z</time>
      </trkpt>
      <trkpt lat="42.69914" lon="23.6748">
        <ele>626.130945</ele>
        <time>2022-03-09T09:34:46.406Z</time>
      </trkpt>
      <trkpt lat="42.69902" lon="23.6748">
        <ele>625.965968</ele>
        <time>2022-03-09T09:34:48.426Z</time>
      </trkpt>
      <trkpt lat="42.6989" lon="23.67478">
        <ele>625.799217</ele>
        <time>2022-03-09T09:34:50.442Z</time>
      </trkpt>
      <trkpt lat="42.69877" lon="23.67477">
        <ele>625.618003</ele>
        <time>2022-03-09T09:34:52.419Z</time>
      </trkpt>
      <trkpt lat="42.69864" lon="23.67474">
        <ele>625.422328</ele>
        <time>2022-03-09T09:34:54.409Z</time>
      </trkpt>
      <trkpt lat="42.69849" lon="23.67472">
        <ele>624.86575</ele>
        <time>2022-03-09T09:34:56.409Z</time>
      </trkpt>
      <trkpt lat="42.69835" lon="23.67468">
        <ele>624.150715</ele>
        <time>2022-03-09T09:34:58.401Z</time>
      </trkpt>
      <trkpt lat="42.6982" lon="23.67464">
        <ele>623.441776</ele>
        <time>2022-03-09T09:35:00.435Z</time>
      </trkpt>
      <trkpt lat="42.69807" lon="23.6746">
        <ele>622.753479</ele>
        <time>2022-03-09T09:35:02.394Z</time>
      </trkpt>
      <trkpt lat="42.69793" lon="23.67455">
        <ele>622.066395</ele>
        <time>2022-03-09T09:35:04.409Z</time>
      </trkpt>
      <trkpt lat="42.6978" lon="23.67451">
        <ele>621.412982</ele>
        <time>2022-03-09T09:35:06.449Z</time>
      </trkpt>
      <trkpt lat="42.69768" lon="23.67447">
        <ele>620.816831</ele>
        <time>2022-03-09T09:35:08.383Z</time>
      </trkpt>
      <trkpt lat="42.69756" lon="23.67444">
        <ele>620.232543</ele>
        <time>2022-03-09T09:35:10.424Z</time>
      </trkpt>
      <trkpt lat="42.69746" lon="23.67441">
        <ele>619.708563</ele>
        <time>2022-03-09T09:35:12.417Z</time>
      </trkpt>
      <trkpt lat="42.69736" lon="23.67438">
        <ele>619.207206</ele>
        <time>2022-03-09T09:35:14.405Z</time>
      </trkpt>
      <trkpt lat="42.69726" lon="23.67436">
        <ele>618.735959</ele>
        <time>2022-03-09T09:35:16.404Z</time>
      </trkpt>
      <trkpt lat="42.69717" lon="23.67434">
        <ele>618.265328</ele>
        <time>2022-03-09T09:35:18.419Z</time>
      </trkpt>
      <trkpt lat="42.69707" lon="23.67431">
        <ele>617.778379</ele>
        <time>2022-03-09T09:35:20.418Z</time>
      </trkpt>
      <trkpt lat="42.69697" lon="23.67429">
        <ele>617.296229</ele>
        <time>2022-03-09T09:35:22.408Z</time>
      </trkpt>
      <trkpt lat="42.69687" lon="23.67426">
        <ele>616.789417</ele>
        <time>2022-03-09T09:35:24.408Z</time>
      </trkpt>
      <trkpt lat="42.69677" lon="23.67424">
        <ele>616.426449</ele>
        <time>2022-03-09T09:35:26.410Z</time>
      </trkpt>
      <trkpt lat="42.69667" lon="23.67421">
        <ele>616.167951</ele>
        <time>2022-03-09T09:35:28.454Z</time>
      </trkpt>
      <trkpt lat="42.69656" lon="23.67419">
        <ele>615.909766</ele>
        <time>2022-03-09T09:35:30.417Z</time>
      </trkpt>
      <trkpt lat="42.69646" lon="23.67416">
        <ele>615.65788</ele>
        <time>2022-03-09T09:35:32.403Z</time>
      </trkpt>
      <trkpt lat="42.69636" lon="23.67414">
        <ele>615.40943</ele>
        <time>2022-03-09T09:35:34.424Z</time>
      </trkpt>
      <trkpt lat="42.69627" lon="23.67411">
        <ele>615.159227</ele>
        <time>2022-03-09T09:35:36.410Z</time>
      </trkpt>
      <trkpt lat="42.69617" lon="23.67408">
        <ele>614.919811</ele>
        <time>2022-03-09T09:35:38.426Z</time>
      </trkpt>
      <trkpt lat="42.69607" lon="23.67406">
        <ele>614.678319</ele>
        <time>2022-03-09T09:35:40.395Z</time>
      </trkpt>
      <trkpt lat="42.69598" lon="23.67403">
        <ele>614.432549</ele>
        <time>2022-03-09T09:35:42.400Z</time>
      </trkpt>
      <trkpt lat="42.69588" lon="23.674">
        <ele>614.178583</ele>
        <time>2022-03-09T09:35:44.442Z</time>
      </trkpt>
      <trkpt lat="42.69578" lon="23.67397">
        <ele>613.924273</ele>
        <time>2022-03-09T09:35:46.414Z</time>
      </trkpt>
      <trkpt lat="42.69567" lon="23.67394">
        <ele>613.666442</ele>
        <time>2022-03-09T09:35:48.406Z</time>
      </trkpt>
      <trkpt lat="42.69557" lon="23.67392">
        <ele>613.407281</ele>
        <time>2022-03-09T09:35:50.442Z</time>
      </trkpt>
      <trkpt lat="42.69547" lon="23.67388">
        <ele>613.146251</ele>
        <time>2022-03-09T09:35:52.403Z</time>
      </trkpt>
      <trkpt lat="42.69537" lon="23.67385">
        <ele>612.897248</ele>
        <time>2022-03-09T09:35:54.410Z</time>
      </trkpt>
      <trkpt lat="42.69527" lon="23.67382">
        <ele>612.64946</ele>
        <time>2022-03-09T09:35:56.415Z</time>
      </trkpt>
      <trkpt lat="42.69518" lon="23.67379">
        <ele>612.405686</ele>
        <time>2022-03-09T09:35:58.419Z</time>
      </trkpt>
      <trkpt lat="42.69508" lon="23.67376">
        <ele>612.163885</ele>
        <time>2022-03-09T09:36:00.412Z</time>
      </trkpt>
      <trkpt lat="42.69498" lon="23.67373">
        <ele>611.988464</ele>
        <time>2022-03-09T09:36:02.388Z</time>
      </trkpt>
      <trkpt lat="42.69486" lon="23.67369">
        <ele>611.801836</ele>
        <time>2022-03-09T09:36:04.410Z</time>
      </trkpt>
      <trkpt lat="42.69474" lon="23.67366">
        <ele>611.612846</ele>
        <time>2022-03-09T09:36:06.415Z</time>
      </trkpt>
      <trkpt lat="42.69461" lon="23.67363">
        <ele>611.41625</ele>
        <time>2022-03-09T09:36:08.439Z</time>
      </trkpt>
      <trkpt lat="42.69449" lon="23.6736">
        <ele>611.223563</ele>
        <time>2022-03-09T09:36:10.413Z</time>
      </trkpt>
      <trkpt lat="42.69436" lon="23.67356">
        <ele>611.016776</ele>
        <time>2022-03-09T09:36:12.415Z</time>
      </trkpt>
      <trkpt lat="42.69422" lon="23.67352">
        <ele>610.800439</ele>
        <time>2022-03-09T09:36:14.401Z</time>
      </trkpt>
      <trkpt lat="42.69409" lon="23.67349">
        <ele>610.587799</ele>
        <time>2022-03-09T09:36:16.414Z</time>
      </trkpt>
      <trkpt lat="42.69395" lon="23.67345">
        <ele>610.375158</ele>
        <time>2022-03-09T09:36:18.412Z</time>
      </trkpt>
      <trkpt lat="42.69382" lon="23.67342">
        <ele>610.160997</ele>
        <time>2022-03-09T09:36:20.401Z</time>
      </trkpt>
      <trkpt lat="42.69368" lon="23.67338">
        <ele>609.948141</ele>
        <time>2022-03-09T09:36:22.419Z</time>
      </trkpt>
      <trkpt lat="42.69355" lon="23.67335">
        <ele>609.73398</ele>
        <time>2022-03-09T09:36:24.420Z</time>
      </trkpt>
      <trkpt lat="42.69342" lon="23.67331">
        <ele>609.52545</ele>
        <time>2022-03-09T09:36:26.404Z</time>
      </trkpt>
      <trkpt lat="42.69328" lon="23.67328">
        <ele>609.307627</ele>
        <time>2022-03-09T09:36:28.408Z</time>
      </trkpt>
      <trkpt lat="42.69315" lon="23.67324">
        <ele>609.020336</ele>
        <time>2022-03-09T09:36:30.403Z</time>
      </trkpt>
      <trkpt lat="42.69302" lon="23.67321">
        <ele>608.730027</ele>
        <time>2022-03-09T09:36:32.409Z</time>
      </trkpt>
      <trkpt lat="42.69289" lon="23.67317">
        <ele>608.437291</ele>
        <time>2022-03-09T09:36:34.417Z</time>
      </trkpt>
      <trkpt lat="42.69276" lon="23.67313">
        <ele>608.143218</ele>
        <time>2022-03-09T09:36:36.414Z</time>
      </trkpt>
      <trkpt lat="42.69262" lon="23.67309">
        <ele>607.853701</ele>
        <time>2022-03-09T09:36:38.402Z</time>
      </trkpt>
      <trkpt lat="42.69249" lon="23.67305">
        <ele>607.558852</ele>
        <time>2022-03-09T09:36:40.418Z</time>
      </trkpt>
      <trkpt lat="42.69236" lon="23.67302">
        <ele>607.26491</ele>
        <time>2022-03-09T09:36:42.412Z</time>
      </trkpt>
      <trkpt lat="42.69223" lon="23.67299">
        <ele>606.981859</ele>
        <time>2022-03-09T09:36:44.417Z</time>
      </trkpt>
      <trkpt lat="42.69211" lon="23.67296">
        <ele>606.724819</ele>
        <time>2022-03-09T09:36:46.455Z</time>
      </trkpt>
      <trkpt lat="42.69199" lon="23.67292">
        <ele>606.469895</ele>
        <time>2022-03-09T09:36:48.413Z</time>
      </trkpt>
      <trkpt lat="42.69188" lon="23.67289">
        <ele>606.224542</ele>
        <time>2022-03-09T09:36:50.411Z</time>
      </trkpt>
      <trkpt lat="42.69177" lon="23.67285">
        <ele>605.970075</ele>
        <time>2022-03-09T09:36:52.408Z</time>
      </trkpt>
      <trkpt lat="42.69165" lon="23.67282">
        <ele>605.70509</ele>
        <time>2022-03-09T09:36:54.416Z</time>
      </trkpt>
      <trkpt lat="42.69153" lon="23.67279">
        <ele>605.455064</ele>
        <time>2022-03-09T09:36:56.416Z</time>
      </trkpt>
      <trkpt lat="42.69142" lon="23.67275">
        <ele>605.254728</ele>
        <time>2022-03-09T09:36:58.402Z</time>
      </trkpt>
      <trkpt lat="42.69131" lon="23.67272">
        <ele>605.0552</ele>
        <time>2022-03-09T09:37:00.397Z</time>
      </trkpt>
      <trkpt lat="42.69121" lon="23.6727">
        <ele>604.868392</ele>
        <time>2022-03-09T09:37:02.405Z</time>
      </trkpt>
      <trkpt lat="42.69111" lon="23.67267">
        <ele>604.689546</ele>
        <time>2022-03-09T09:37:04.409Z</time>
      </trkpt>
      <trkpt lat="42.69101" lon="23.67264">
        <ele>604.507967</ele>
        <time>2022-03-09T09:37:06.404Z</time>
      </trkpt>
      <trkpt lat="42.69091" lon="23.67262">
        <ele>604.325618</ele>
        <time>2022-03-09T09:37:08.393Z</time>
      </trkpt>
      <trkpt lat="42.6908" lon="23.6726">
        <ele>604.134915</ele>
        <time>2022-03-09T09:37:10.415Z</time>
      </trkpt>
      <trkpt lat="42.6907" lon="23.67257">
        <ele>603.952097</ele>
        <time>2022-03-09T09:37:12.416Z</time>
      </trkpt>
      <trkpt lat="42.69061" lon="23.67254">
        <ele>603.777481</ele>
        <time>2022-03-09T09:37:14.448Z</time>
      </trkpt>
      <trkpt lat="42.69052" lon="23.67252">
        <ele>603.610365</ele>
        <time>2022-03-09T09:37:16.398Z</time>
      </trkpt>
      <trkpt lat="42.69042" lon="23.67249">
        <ele>603.440502</ele>
        <time>2022-03-09T09:37:18.395Z</time>
      </trkpt>
      <trkpt lat="42.69033" lon="23.67247">
        <ele>603.266906</ele>
        <time>2022-03-09T09:37:20.416Z</time>
      </trkpt>
      <trkpt lat="42.69023" lon="23.67245">
        <ele>603.089811</ele>
        <time>2022-03-09T09:37:22.418Z</time>
      </trkpt>
      <trkpt lat="42.69013" lon="23.67242">
        <ele>602.921211</ele>
        <time>2022-03-09T09:37:24.441Z</time>
      </trkpt>
      <trkpt lat="42.69" lon="23.67239">
        <ele>602.677716</ele>
        <time>2022-03-09T09:37:27.406Z</time>
      </trkpt>
      <trkpt lat="42.68991" lon="23.67236">
        <ele>602.506851</ele>
        <time>2022-03-09T09:37:29.407Z</time>
      </trkpt>
      <trkpt lat="42.68982" lon="23.67234">
        <ele>602.345732</ele>
        <time>2022-03-09T09:37:31.406Z</time>
      </trkpt>
      <trkpt lat="42.68972" lon="23.67232">
        <ele>602.238709</ele>
        <time>2022-03-09T09:37:33.407Z</time>
      </trkpt>
      <trkpt lat="42.68963" lon="23.67229">
        <ele>602.181203</ele>
        <time>2022-03-09T09:37:35.420Z</time>
      </trkpt>
      <trkpt lat="42.68954" lon="23.67227">
        <ele>602.123176</ele>
        <time>2022-03-09T09:37:37.408Z</time>
      </trkpt>
      <trkpt lat="42.68942" lon="23.67224">
        <ele>602.048099</ele>
        <time>2022-03-09T09:37:40.417Z</time>
      </trkpt>
      <trkpt lat="42.68929" lon="23.6722">
        <ele>601.967894</ele>
        <time>2022-03-09T09:37:43.412Z</time>
      </trkpt>
      <trkpt lat="42.6892" lon="23.67217">
        <ele>601.913013</ele>
        <time>2022-03-09T09:37:45.400Z</time>
      </trkpt>
      <trkpt lat="42.68911" lon="23.67215">
        <ele>601.855659</ele>
        <time>2022-03-09T09:37:47.404Z</time>
      </trkpt>
      <trkpt lat="42.68901" lon="23.67212">
        <ele>601.794738</ele>
        <time>2022-03-09T09:37:49.387Z</time>
      </trkpt>
      <trkpt lat="42.68891" lon="23.67209">
        <ele>601.733908</ele>
        <time>2022-03-09T09:37:51.409Z</time>
      </trkpt>
      <trkpt lat="42.68882" lon="23.67207">
        <ele>601.675639</ele>
        <time>2022-03-09T09:37:53.447Z</time>
      </trkpt>
      <trkpt lat="42.68872" lon="23.67204">
        <ele>601.618649</ele>
        <time>2022-03-09T09:37:55.410Z</time>
      </trkpt>
      <trkpt lat="42.68863" lon="23.67202">
        <ele>601.561143</ele>
        <time>2022-03-09T09:37:57.415Z</time>
      </trkpt>
      <trkpt lat="42.6885" lon="23.67198">
        <ele>601.481625</ele>
        <time>2022-03-09T09:38:00.397Z</time>
      </trkpt>
      <trkpt lat="42.68838" lon="23.67195">
        <ele>601.402196</ele>
        <time>2022-03-09T09:38:03.405Z</time>
      </trkpt>
      <trkpt lat="42.68825" lon="23.67191">
        <ele>601.322586</ele>
        <time>2022-03-09T09:38:06.420Z</time>
      </trkpt>
      <trkpt lat="42.68812" lon="23.67187">
        <ele>601.240595</ele>
        <time>2022-03-09T09:38:09.413Z</time>
      </trkpt>
      <trkpt lat="42.68802" lon="23.67184">
        <ele>601.183142</ele>
        <time>2022-03-09T09:38:11.403Z</time>
      </trkpt>
      <trkpt lat="42.68789" lon="23.6718">
        <ele>601.159939</ele>
        <time>2022-03-09T09:38:14.398Z</time>
      </trkpt>
      <trkpt lat="42.68779" lon="23.67178">
        <ele>601.14686</ele>
        <time>2022-03-09T09:38:16.396Z</time>
      </trkpt>
      <trkpt lat="42.6877" lon="23.67175">
        <ele>601.13391</ele>
        <time>2022-03-09T09:38:18.397Z</time>
      </trkpt>
      <trkpt lat="42.68761" lon="23.67172">
        <ele>601.121733</ele>
        <time>2022-03-09T09:38:20.409Z</time>
      </trkpt>
      <trkpt lat="42.68751" lon="23.6717">
        <ele>601.109248</ele>
        <time>2022-03-09T09:38:22.419Z</time>
      </trkpt>
      <trkpt lat="42.68742" lon="23.67167">
        <ele>601.096874</ele>
        <time>2022-03-09T09:38:24.409Z</time>
      </trkpt>
      <trkpt lat="42.68733" lon="23.67164">
        <ele>601.084182</ele>
        <time>2022-03-09T09:38:26.426Z</time>
      </trkpt>
      <trkpt lat="42.68724" lon="23.67161">
        <ele>601.071619</ele>
        <time>2022-03-09T09:38:28.424Z</time>
      </trkpt>
      <trkpt lat="42.68714" lon="23.67159">
        <ele>601.059429</ele>
        <time>2022-03-09T09:38:30.423Z</time>
      </trkpt>
      <trkpt lat="42.68705" lon="23.67156">
        <ele>601.047123</ele>
        <time>2022-03-09T09:38:32.408Z</time>
      </trkpt>
      <trkpt lat="42.68696" lon="23.67154">
        <ele>601.034379</ele>
        <time>2022-03-09T09:38:34.395Z</time>
      </trkpt>
      <trkpt lat="42.68687" lon="23.67151">
        <ele>601.021794</ele>
        <time>2022-03-09T09:38:36.414Z</time>
      </trkpt>
      <trkpt lat="42.68677" lon="23.67149">
        <ele>601.00918</ele>
        <time>2022-03-09T09:38:38.408Z</time>
      </trkpt>
      <trkpt lat="42.68668" lon="23.67146">
        <ele>600.996379</ele>
        <time>2022-03-09T09:38:40.449Z</time>
      </trkpt>
      <trkpt lat="42.68659" lon="23.67143">
        <ele>600.984244</ele>
        <time>2022-03-09T09:38:42.406Z</time>
      </trkpt>
      <trkpt lat="42.6865" lon="23.67141">
        <ele>600.972018</ele>
        <time>2022-03-09T09:38:44.420Z</time>
      </trkpt>
      <trkpt lat="42.68641" lon="23.67139">
        <ele>600.960069</ele>
        <time>2022-03-09T09:38:46.430Z</time>
      </trkpt>
      <trkpt lat="42.68628" lon="23.67135">
        <ele>600.942361</ele>
        <time>2022-03-09T09:38:49.408Z</time>
      </trkpt>
      <trkpt lat="42.68618" lon="23.67133">
        <ele>600.950215</ele>
        <time>2022-03-09T09:38:51.446Z</time>
      </trkpt>
      <trkpt lat="42.68609" lon="23.6713">
        <ele>600.964866</ele>
        <time>2022-03-09T09:38:53.412Z</time>
      </trkpt>
      <trkpt lat="42.68599" lon="23.67128">
        <ele>600.97905</ele>
        <time>2022-03-09T09:38:55.419Z</time>
      </trkpt>
      <trkpt lat="42.6859" lon="23.67125">
        <ele>600.993107</ele>
        <time>2022-03-09T09:38:57.406Z</time>
      </trkpt>
      <trkpt lat="42.68581" lon="23.67123">
        <ele>601.006804</ele>
        <time>2022-03-09T09:38:59.424Z</time>
      </trkpt>
      <trkpt lat="42.68572" lon="23.67121">
        <ele>601.021009</ele>
        <time>2022-03-09T09:39:01.412Z</time>
      </trkpt>
      <trkpt lat="42.68563" lon="23.67118">
        <ele>601.035556</ele>
        <time>2022-03-09T09:39:03.393Z</time>
      </trkpt>
      <trkpt lat="42.68553" lon="23.67115">
        <ele>601.050275</ele>
        <time>2022-03-09T09:39:05.410Z</time>
      </trkpt>
      <trkpt lat="42.68544" lon="23.67113">
        <ele>601.065034</ele>
        <time>2022-03-09T09:39:07.399Z</time>
      </trkpt>
      <trkpt lat="42.68534" lon="23.6711">
        <ele>601.079686</ele>
        <time>2022-03-09T09:39:09.439Z</time>
      </trkpt>
      <trkpt lat="42.68525" lon="23.67107">
        <ele>601.093716</ele>
        <time>2022-03-09T09:39:11.406Z</time>
      </trkpt>
      <trkpt lat="42.68512" lon="23.67104">
        <ele>601.113999</ele>
        <time>2022-03-09T09:39:14.386Z</time>
      </trkpt>
      <trkpt lat="42.68502" lon="23.67102">
        <ele>601.128799</ele>
        <time>2022-03-09T09:39:16.410Z</time>
      </trkpt>
      <trkpt lat="42.68493" lon="23.67099">
        <ele>601.14273</ele>
        <time>2022-03-09T09:39:18.407Z</time>
      </trkpt>
      <trkpt lat="42.68484" lon="23.67096">
        <ele>601.157596</ele>
        <time>2022-03-09T09:39:20.410Z</time>
      </trkpt>
      <trkpt lat="42.68474" lon="23.67094">
        <ele>601.173182</ele>
        <time>2022-03-09T09:39:22.444Z</time>
      </trkpt>
      <trkpt lat="42.68464" lon="23.67091">
        <ele>601.187942</ele>
        <time>2022-03-09T09:39:24.427Z</time>
      </trkpt>
      <trkpt lat="42.68455" lon="23.67089">
        <ele>601.202572</ele>
        <time>2022-03-09T09:39:26.407Z</time>
      </trkpt>
      <trkpt lat="42.68445" lon="23.67087">
        <ele>601.193494</ele>
        <time>2022-03-09T09:39:28.420Z</time>
      </trkpt>
      <trkpt lat="42.68436" lon="23.67084">
        <ele>601.146008</ele>
        <time>2022-03-09T09:39:30.450Z</time>
      </trkpt>
      <trkpt lat="42.68426" lon="23.67081">
        <ele>601.097015</ele>
        <time>2022-03-09T09:39:32.404Z</time>
      </trkpt>
      <trkpt lat="42.68416" lon="23.67078">
        <ele>601.046319</ele>
        <time>2022-03-09T09:39:34.417Z</time>
      </trkpt>
      <trkpt lat="42.68406" lon="23.67076">
        <ele>600.997063</ele>
        <time>2022-03-09T09:39:36.413Z</time>
      </trkpt>
      <trkpt lat="42.68396" lon="23.67073">
        <ele>600.948835</ele>
        <time>2022-03-09T09:39:38.389Z</time>
      </trkpt>
      <trkpt lat="42.68386" lon="23.67071">
        <ele>600.899646</ele>
        <time>2022-03-09T09:39:40.401Z</time>
      </trkpt>
      <trkpt lat="42.68376" lon="23.67068">
        <ele>600.84991</ele>
        <time>2022-03-09T09:39:42.413Z</time>
      </trkpt>
      <trkpt lat="42.68367" lon="23.67066">
        <ele>600.803375</ele>
        <time>2022-03-09T09:39:44.410Z</time>
      </trkpt>
      <trkpt lat="42.68357" lon="23.67064">
        <ele>600.757133</ele>
        <time>2022-03-09T09:39:46.399Z</time>
      </trkpt>
      <trkpt lat="42.68348" lon="23.67062">
        <ele>600.712158</ele>
        <time>2022-03-09T09:39:48.420Z</time>
      </trkpt>
      <trkpt lat="42.68339" lon="23.6706">
        <ele>600.667459</ele>
        <time>2022-03-09T09:39:50.408Z</time>
      </trkpt>
      <trkpt lat="42.6833" lon="23.67058">
        <ele>600.622369</ele>
        <time>2022-03-09T09:39:52.437Z</time>
      </trkpt>
      <trkpt lat="42.68321" lon="23.67056">
        <ele>600.577338</ele>
        <time>2022-03-09T09:39:54.415Z</time>
      </trkpt>
      <trkpt lat="42.68308" lon="23.67053">
        <ele>600.511294</ele>
        <time>2022-03-09T09:39:57.417Z</time>
      </trkpt>
      <trkpt lat="42.68299" lon="23.67051">
        <ele>600.466319</ele>
        <time>2022-03-09T09:39:59.410Z</time>
      </trkpt>
      <trkpt lat="42.68289" lon="23.67049">
        <ele>600.420265</ele>
        <time>2022-03-09T09:40:01.428Z</time>
      </trkpt>
      <trkpt lat="42.68276" lon="23.67046">
        <ele>600.354828</ele>
        <time>2022-03-09T09:40:04.406Z</time>
      </trkpt>
      <trkpt lat="42.68263" lon="23.67043">
        <ele>600.69342</ele>
        <time>2022-03-09T09:40:07.396Z</time>
      </trkpt>
      <trkpt lat="42.68253" lon="23.67042">
        <ele>601.1051</ele>
        <time>2022-03-09T09:40:09.452Z</time>
      </trkpt>
      <trkpt lat="42.68243" lon="23.67043">
        <ele>601.523922</ele>
        <time>2022-03-09T09:40:11.412Z</time>
      </trkpt>
      <trkpt lat="42.68234" lon="23.67046">
        <ele>601.897471</ele>
        <time>2022-03-09T09:40:13.408Z</time>
      </trkpt>
      <trkpt lat="42.68225" lon="23.6705">
        <ele>602.269229</ele>
        <time>2022-03-09T09:40:15.429Z</time>
      </trkpt>
      <trkpt lat="42.68216" lon="23.67053">
        <ele>602.664937</ele>
        <time>2022-03-09T09:40:17.409Z</time>
      </trkpt>
      <trkpt lat="42.68207" lon="23.67056">
        <ele>603.058331</ele>
        <time>2022-03-09T09:40:19.412Z</time>
      </trkpt>
      <trkpt lat="42.68197" lon="23.6706">
        <ele>603.473128</ele>
        <time>2022-03-09T09:40:21.445Z</time>
      </trkpt>
      <trkpt lat="42.68188" lon="23.67064">
        <ele>603.860938</ele>
        <time>2022-03-09T09:40:23.424Z</time>
      </trkpt>
      <trkpt lat="42.68179" lon="23.67067">
        <ele>604.242581</ele>
        <time>2022-03-09T09:40:25.405Z</time>
      </trkpt>
      <trkpt lat="42.68171" lon="23.67072">
        <ele>604.614479</ele>
        <time>2022-03-09T09:40:27.448Z</time>
      </trkpt>
      <trkpt lat="42.68162" lon="23.67077">
        <ele>604.998017</ele>
        <time>2022-03-09T09:40:29.398Z</time>
      </trkpt>
      <trkpt lat="42.68149" lon="23.67082">
        <ele>605.563283</ele>
        <time>2022-03-09T09:40:32.401Z</time>
      </trkpt>
      <trkpt lat="42.68136" lon="23.67087">
        <ele>606.090362</ele>
        <time>2022-03-09T09:40:35.405Z</time>
      </trkpt>
      <trkpt lat="42.68124" lon="23.6709">
        <ele>606.618969</ele>
        <time>2022-03-09T09:40:38.453Z</time>
      </trkpt>
      <trkpt lat="42.68115" lon="23.67093">
        <ele>606.994986</ele>
        <time>2022-03-09T09:40:40.407Z</time>
      </trkpt>
      <trkpt lat="42.68103" lon="23.67098">
        <ele>607.497014</ele>
        <time>2022-03-09T09:40:43.403Z</time>
      </trkpt>
      <trkpt lat="42.68092" lon="23.67102">
        <ele>607.626661</ele>
        <time>2022-03-09T09:40:46.412Z</time>
      </trkpt>
      <trkpt lat="42.68083" lon="23.67105">
        <ele>607.512878</ele>
        <time>2022-03-09T09:40:48.405Z</time>
      </trkpt>
      <trkpt lat="42.68073" lon="23.6711">
        <ele>607.38499</ele>
        <time>2022-03-09T09:40:50.408Z</time>
      </trkpt>
      <trkpt lat="42.68063" lon="23.67112">
        <ele>607.262211</ele>
        <time>2022-03-09T09:40:52.403Z</time>
      </trkpt>
      <trkpt lat="42.68053" lon="23.67116">
        <ele>607.13969</ele>
        <time>2022-03-09T09:40:54.415Z</time>
      </trkpt>
      <trkpt lat="42.68044" lon="23.67119">
        <ele>607.022115</ele>
        <time>2022-03-09T09:40:56.413Z</time>
      </trkpt>
      <trkpt lat="42.68035" lon="23.67123">
        <ele>606.904054</ele>
        <time>2022-03-09T09:40:58.407Z</time>
      </trkpt>
      <trkpt lat="42.68022" lon="23.67129">
        <ele>606.73781</ele>
        <time>2022-03-09T09:41:01.411Z</time>
      </trkpt>
      <trkpt lat="42.68013" lon="23.67133">
        <ele>606.619519</ele>
        <time>2022-03-09T09:41:03.416Z</time>
      </trkpt>
      <trkpt lat="42.68003" lon="23.67138">
        <ele>606.492968</ele>
        <time>2022-03-09T09:41:05.450Z</time>
      </trkpt>
      <trkpt lat="42.67995" lon="23.67142">
        <ele>606.380637</ele>
        <time>2022-03-09T09:41:07.413Z</time>
      </trkpt>
      <trkpt lat="42.67982" lon="23.67148">
        <ele>606.214645</ele>
        <time>2022-03-09T09:41:10.412Z</time>
      </trkpt>
      <trkpt lat="42.67969" lon="23.67154">
        <ele>606.048104</ele>
        <time>2022-03-09T09:41:13.436Z</time>
      </trkpt>
      <trkpt lat="42.67956" lon="23.6716">
        <ele>605.883879</ele>
        <time>2022-03-09T09:41:16.412Z</time>
      </trkpt>
      <trkpt lat="42.67944" lon="23.67167">
        <ele>605.719095</ele>
        <time>2022-03-09T09:41:19.399Z</time>
      </trkpt>
      <trkpt lat="42.67931" lon="23.67175">
        <ele>605.54708</ele>
        <time>2022-03-09T09:41:22.430Z</time>
      </trkpt>
      <trkpt lat="42.67922" lon="23.67179">
        <ele>605.524278</ele>
        <time>2022-03-09T09:41:24.427Z</time>
      </trkpt>
      <trkpt lat="42.67912" lon="23.67184">
        <ele>605.561281</ele>
        <time>2022-03-09T09:41:26.388Z</time>
      </trkpt>
      <trkpt lat="42.67903" lon="23.67188">
        <ele>605.598621</ele>
        <time>2022-03-09T09:41:28.430Z</time>
      </trkpt>
      <trkpt lat="42.67893" lon="23.67187">
        <ele>605.63598</ele>
        <time>2022-03-09T09:41:30.414Z</time>
      </trkpt>
      <trkpt lat="42.67882" lon="23.67185">
        <ele>605.677228</ele>
        <time>2022-03-09T09:41:32.398Z</time>
      </trkpt>
      <trkpt lat="42.6787" lon="23.67178">
        <ele>605.727678</ele>
        <time>2022-03-09T09:41:35.452Z</time>
      </trkpt>
      <trkpt lat="42.67857" lon="23.67173">
        <ele>605.777419</ele>
        <time>2022-03-09T09:41:38.445Z</time>
      </trkpt>
      <trkpt lat="42.67846" lon="23.67167">
        <ele>605.822251</ele>
        <time>2022-03-09T09:41:41.396Z</time>
      </trkpt>
      <trkpt lat="42.67835" lon="23.67161">
        <ele>605.866923</ele>
        <time>2022-03-09T09:41:44.410Z</time>
      </trkpt>
      <trkpt lat="42.67823" lon="23.67157">
        <ele>605.913865</ele>
        <time>2022-03-09T09:41:47.409Z</time>
      </trkpt>
      <trkpt lat="42.67809" lon="23.67158">
        <ele>605.965538</ele>
        <time>2022-03-09T09:41:50.402Z</time>
      </trkpt>
      <trkpt lat="42.67799" lon="23.67161">
        <ele>606.003727</ele>
        <time>2022-03-09T09:41:52.417Z</time>
      </trkpt>
      <trkpt lat="42.67791" lon="23.67164">
        <ele>606.038408</ele>
        <time>2022-03-09T09:41:54.407Z</time>
      </trkpt>
      <trkpt lat="42.67778" lon="23.6717">
        <ele>606.087516</ele>
        <time>2022-03-09T09:41:57.404Z</time>
      </trkpt>
      <trkpt lat="42.67769" lon="23.67173">
        <ele>606.121676</ele>
        <time>2022-03-09T09:41:59.408Z</time>
      </trkpt>
      <trkpt lat="42.67757" lon="23.67176">
        <ele>606.170289</ele>
        <time>2022-03-09T09:42:02.420Z</time>
      </trkpt>
      <trkpt lat="42.67748" lon="23.67169">
        <ele>606.231131</ele>
        <time>2022-03-09T09:42:05.395Z</time>
      </trkpt>
      <trkpt lat="42.6774" lon="23.67161">
        <ele>606.304196</ele>
        <time>2022-03-09T09:42:08.418Z</time>
      </trkpt>
      <trkpt lat="42.67731" lon="23.67154">
        <ele>606.382031</ele>
        <time>2022-03-09T09:42:11.451Z</time>
      </trkpt>
      <trkpt lat="42.67734" lon="23.67167">
        <ele>606.455757</ele>
        <time>2022-03-09T09:42:21.436Z</time>
      </trkpt>
      <trkpt lat="42.67742" lon="23.67175">
        <ele>606.528442</ele>
        <time>2022-03-09T09:42:27.460Z</time>
      </trkpt>
      <trkpt lat="42.67736" lon="23.67162">
        <ele>606.608469</ele>
        <time>2022-03-09T09:42:35.421Z</time>
      </trkpt>
      <trkpt lat="42.67727" lon="23.67157">
        <ele>606.677796</ele>
        <time>2022-03-09T09:42:38.416Z</time>
      </trkpt>
      <trkpt lat="42.67719" lon="23.67151">
        <ele>606.742504</ele>
        <time>2022-03-09T09:42:41.408Z</time>
      </trkpt>
      <trkpt lat="42.6771" lon="23.67142">
        <ele>606.824712</ele>
        <time>2022-03-09T09:42:45.397Z</time>
      </trkpt>
      <trkpt lat="42.67701" lon="23.67134">
        <ele>606.897398</ele>
        <time>2022-03-09T09:42:48.395Z</time>
      </trkpt>
      <trkpt lat="42.67692" lon="23.67127">
        <ele>606.967997</ele>
        <time>2022-03-09T09:42:51.379Z</time>
      </trkpt>
      <trkpt lat="42.67683" lon="23.6712">
        <ele>607.042334</ele>
        <time>2022-03-09T09:42:54.396Z</time>
      </trkpt>
      <trkpt lat="42.67674" lon="23.67112">
        <ele>607.121783</ele>
        <time>2022-03-09T09:42:57.408Z</time>
      </trkpt>
      <trkpt lat="42.67667" lon="23.67104">
        <ele>607.188892</ele>
        <time>2022-03-09T09:43:00.404Z</time>
      </trkpt>
      <trkpt lat="42.67661" lon="23.67091">
        <ele>607.26802</ele>
        <time>2022-03-09T09:43:03.404Z</time>
      </trkpt>
      <trkpt lat="42.67658" lon="23.67076">
        <ele>607.349936</ele>
        <time>2022-03-09T09:43:06.411Z</time>
      </trkpt>
      <trkpt lat="42.67658" lon="23.67059">
        <ele>607.438295</ele>
        <time>2022-03-09T09:43:09.420Z</time>
      </trkpt>
      <trkpt lat="42.6766" lon="23.67042">
        <ele>607.344733</ele>
        <time>2022-03-09T09:43:12.397Z</time>
      </trkpt>
      <trkpt lat="42.67662" lon="23.67026">
        <ele>607.2088</ele>
        <time>2022-03-09T09:43:15.391Z</time>
      </trkpt>
      <trkpt lat="42.67665" lon="23.67011">
        <ele>607.086512</ele>
        <time>2022-03-09T09:43:18.430Z</time>
      </trkpt>
      <trkpt lat="42.67666" lon="23.66996">
        <ele>606.961999</ele>
        <time>2022-03-09T09:43:21.412Z</time>
      </trkpt>
      <trkpt lat="42.67668" lon="23.6698">
        <ele>606.831468</ele>
        <time>2022-03-09T09:43:24.391Z</time>
      </trkpt>
      <trkpt lat="42.6767" lon="23.66966">
        <ele>606.712038</ele>
        <time>2022-03-09T09:43:27.435Z</time>
      </trkpt>
      <trkpt lat="42.67673" lon="23.66952">
        <ele>606.597491</ele>
        <time>2022-03-09T09:43:30.415Z</time>
      </trkpt>
      <trkpt lat="42.67675" lon="23.66938">
        <ele>606.477236</ele>
        <time>2022-03-09T09:43:33.402Z</time>
      </trkpt>
      <trkpt lat="42.67676" lon="23.66923">
        <ele>606.351219</ele>
        <time>2022-03-09T09:43:36.412Z</time>
      </trkpt>
      <trkpt lat="42.67675" lon="23.66908">
        <ele>606.232649</ele>
        <time>2022-03-09T09:43:39.396Z</time>
      </trkpt>
      <trkpt lat="42.67673" lon="23.66895">
        <ele>606.121282</ele>
        <time>2022-03-09T09:43:42.379Z</time>
      </trkpt>
      <trkpt lat="42.67669" lon="23.66882">
        <ele>606.009743</ele>
        <time>2022-03-09T09:43:45.440Z</time>
      </trkpt>
      <trkpt lat="42.67665" lon="23.66867">
        <ele>605.874364</ele>
        <time>2022-03-09T09:43:48.393Z</time>
      </trkpt>
      <trkpt lat="42.6766" lon="23.66852">
        <ele>605.740499</ele>
        <time>2022-03-09T09:43:51.396Z</time>
      </trkpt>
      <trkpt lat="42.67656" lon="23.66837">
        <ele>605.616707</ele>
        <time>2022-03-09T09:43:54.392Z</time>
      </trkpt>
      <trkpt lat="42.67651" lon="23.66823">
        <ele>605.489234</ele>
        <time>2022-03-09T09:43:57.427Z</time>
      </trkpt>
      <trkpt lat="42.67646" lon="23.66811">
        <ele>605.265159</ele>
        <time>2022-03-09T09:44:00.397Z</time>
      </trkpt>
      <trkpt lat="42.67642" lon="23.66795">
        <ele>604.961955</ele>
        <time>2022-03-09T09:44:03.420Z</time>
      </trkpt>
      <trkpt lat="42.67638" lon="23.66781">
        <ele>604.69552</ele>
        <time>2022-03-09T09:44:06.400Z</time>
      </trkpt>
      <trkpt lat="42.67632" lon="23.66768">
        <ele>604.428071</ele>
        <time>2022-03-09T09:44:09.401Z</time>
      </trkpt>
      <trkpt lat="42.67626" lon="23.66754">
        <ele>604.131338</ele>
        <time>2022-03-09T09:44:12.398Z</time>
      </trkpt>
      <trkpt lat="42.6762" lon="23.6674">
        <ele>603.83296</ele>
        <time>2022-03-09T09:44:15.400Z</time>
      </trkpt>
      <trkpt lat="42.67615" lon="23.66729">
        <ele>603.604258</ele>
        <time>2022-03-09T09:44:17.401Z</time>
      </trkpt>
      <trkpt lat="42.67611" lon="23.66717">
        <ele>603.369816</ele>
        <time>2022-03-09T09:44:19.441Z</time>
      </trkpt>
      <trkpt lat="42.67607" lon="23.66706">
        <ele>603.147259</ele>
        <time>2022-03-09T09:44:21.466Z</time>
      </trkpt>
      <trkpt lat="42.67604" lon="23.66695">
        <ele>602.921421</ele>
        <time>2022-03-09T09:44:23.420Z</time>
      </trkpt>
      <trkpt lat="42.676" lon="23.66683">
        <ele>602.690642</ele>
        <time>2022-03-09T09:44:25.443Z</time>
      </trkpt>
      <trkpt lat="42.67596" lon="23.66672">
        <ele>602.464901</ele>
        <time>2022-03-09T09:44:27.399Z</time>
      </trkpt>
      <trkpt lat="42.6759" lon="23.66657">
        <ele>602.16071</ele>
        <time>2022-03-09T09:44:30.398Z</time>
      </trkpt>
      <trkpt lat="42.67585" lon="23.66642">
        <ele>601.867853</ele>
        <time>2022-03-09T09:44:33.400Z</time>
      </trkpt>
      <trkpt lat="42.67579" lon="23.66627">
        <ele>601.559751</ele>
        <time>2022-03-09T09:44:36.427Z</time>
      </trkpt>
      <trkpt lat="42.67576" lon="23.66616">
        <ele>601.339456</ele>
        <time>2022-03-09T09:44:38.385Z</time>
      </trkpt>
      <trkpt lat="42.67571" lon="23.66605">
        <ele>601.119015</ele>
        <time>2022-03-09T09:44:40.395Z</time>
      </trkpt>
      <trkpt lat="42.67567" lon="23.66593">
        <ele>600.859925</ele>
        <time>2022-03-09T09:44:42.419Z</time>
      </trkpt>
      <trkpt lat="42.67563" lon="23.66582">
        <ele>600.58097</ele>
        <time>2022-03-09T09:44:44.414Z</time>
      </trkpt>
      <trkpt lat="42.67558" lon="23.66567">
        <ele>600.22876</ele>
        <time>2022-03-09T09:44:47.418Z</time>
      </trkpt>
      <trkpt lat="42.67554" lon="23.66552">
        <ele>599.903697</ele>
        <time>2022-03-09T09:44:50.407Z</time>
      </trkpt>
      <trkpt lat="42.6755" lon="23.66541">
        <ele>599.640866</ele>
        <time>2022-03-09T09:44:52.437Z</time>
      </trkpt>
      <trkpt lat="42.67544" lon="23.66527">
        <ele>599.288595</ele>
        <time>2022-03-09T09:44:55.405Z</time>
      </trkpt>
      <trkpt lat="42.67538" lon="23.66512">
        <ele>598.937147</ele>
        <time>2022-03-09T09:44:58.445Z</time>
      </trkpt>
      <trkpt lat="42.67533" lon="23.66497">
        <ele>598.581146</ele>
        <time>2022-03-09T09:45:01.433Z</time>
      </trkpt>
      <trkpt lat="42.67527" lon="23.66481">
        <ele>598.197782</ele>
        <time>2022-03-09T09:45:04.407Z</time>
      </trkpt>
      <trkpt lat="42.67522" lon="23.66465">
        <ele>597.832815</ele>
        <time>2022-03-09T09:45:07.405Z</time>
      </trkpt>
      <trkpt lat="42.67518" lon="23.66452">
        <ele>597.525734</ele>
        <time>2022-03-09T09:45:10.428Z</time>
      </trkpt>
      <trkpt lat="42.67515" lon="23.66439">
        <ele>597.228658</ele>
        <time>2022-03-09T09:45:13.388Z</time>
      </trkpt>
      <trkpt lat="42.6751" lon="23.66425">
        <ele>596.89835</ele>
        <time>2022-03-09T09:45:16.401Z</time>
      </trkpt>
      <trkpt lat="42.67505" lon="23.6641">
        <ele>596.547577</ele>
        <time>2022-03-09T09:45:19.391Z</time>
      </trkpt>
      <trkpt lat="42.675" lon="23.66396">
        <ele>596.226131</ele>
        <time>2022-03-09T09:45:22.393Z</time>
      </trkpt>
      <trkpt lat="42.67495" lon="23.66382">
        <ele>595.894382</ele>
        <time>2022-03-09T09:45:25.403Z</time>
      </trkpt>
      <trkpt lat="42.6749" lon="23.66368">
        <ele>595.735515</ele>
        <time>2022-03-09T09:45:28.394Z</time>
      </trkpt>
      <trkpt lat="42.67484" lon="23.66353">
        <ele>595.617286</ele>
        <time>2022-03-09T09:45:31.420Z</time>
      </trkpt>
      <trkpt lat="42.67478" lon="23.66338">
        <ele>595.502332</ele>
        <time>2022-03-09T09:45:34.414Z</time>
      </trkpt>
      <trkpt lat="42.67474" lon="23.66325">
        <ele>595.400123</ele>
        <time>2022-03-09T09:45:37.428Z</time>
      </trkpt>
      <trkpt lat="42.67469" lon="23.6631">
        <ele>595.285723</ele>
        <time>2022-03-09T09:45:40.411Z</time>
      </trkpt>
      <trkpt lat="42.67464" lon="23.66294">
        <ele>595.164073</ele>
        <time>2022-03-09T09:45:43.429Z</time>
      </trkpt>
      <trkpt lat="42.67459" lon="23.66278">
        <ele>595.047004</ele>
        <time>2022-03-09T09:45:46.407Z</time>
      </trkpt>
      <trkpt lat="42.67454" lon="23.66262">
        <ele>594.927478</ele>
        <time>2022-03-09T09:45:49.401Z</time>
      </trkpt>
      <trkpt lat="42.67449" lon="23.66247">
        <ele>594.806464</ele>
        <time>2022-03-09T09:45:52.417Z</time>
      </trkpt>
      <trkpt lat="42.67443" lon="23.66231">
        <ele>594.683451</ele>
        <time>2022-03-09T09:45:55.438Z</time>
      </trkpt>
      <trkpt lat="42.67438" lon="23.66217">
        <ele>594.57459</ele>
        <time>2022-03-09T09:45:58.416Z</time>
      </trkpt>
      <trkpt lat="42.67433" lon="23.66203">
        <ele>594.466321</ele>
        <time>2022-03-09T09:46:01.419Z</time>
      </trkpt>
      <trkpt lat="42.67427" lon="23.6619">
        <ele>594.359489</ele>
        <time>2022-03-09T09:46:04.405Z</time>
      </trkpt>
      <trkpt lat="42.67421" lon="23.66176">
        <ele>594.247273</ele>
        <time>2022-03-09T09:46:07.413Z</time>
      </trkpt>
      <trkpt lat="42.67415" lon="23.66161">
        <ele>594.128973</ele>
        <time>2022-03-09T09:46:10.424Z</time>
      </trkpt>
      <trkpt lat="42.6741" lon="23.66146">
        <ele>593.998744</ele>
        <time>2022-03-09T09:46:13.395Z</time>
      </trkpt>
      <trkpt lat="42.67405" lon="23.66132">
        <ele>593.862704</ele>
        <time>2022-03-09T09:46:16.389Z</time>
      </trkpt>
      <trkpt lat="42.674" lon="23.66117">
        <ele>593.729907</ele>
        <time>2022-03-09T09:46:19.439Z</time>
      </trkpt>
      <trkpt lat="42.67396" lon="23.66103">
        <ele>593.598036</ele>
        <time>2022-03-09T09:46:22.445Z</time>
      </trkpt>
      <trkpt lat="42.67391" lon="23.66088">
        <ele>593.461275</ele>
        <time>2022-03-09T09:46:25.388Z</time>
      </trkpt>
      <trkpt lat="42.67386" lon="23.66074">
        <ele>593.326758</ele>
        <time>2022-03-09T09:46:28.401Z</time>
      </trkpt>
      <trkpt lat="42.6738" lon="23.6606">
        <ele>593.195016</ele>
        <time>2022-03-09T09:46:31.409Z</time>
      </trkpt>
      <trkpt lat="42.67376" lon="23.66045">
        <ele>593.061603</ele>
        <time>2022-03-09T09:46:34.387Z</time>
      </trkpt>
      <trkpt lat="42.67371" lon="23.6603">
        <ele>592.926038</ele>
        <time>2022-03-09T09:46:37.416Z</time>
      </trkpt>
      <trkpt lat="42.67367" lon="23.66015">
        <ele>592.79123</ele>
        <time>2022-03-09T09:46:40.404Z</time>
      </trkpt>
      <trkpt lat="42.67363" lon="23.66001">
        <ele>592.662727</ele>
        <time>2022-03-09T09:46:43.399Z</time>
      </trkpt>
      <trkpt lat="42.6736" lon="23.65986">
        <ele>592.53169</ele>
        <time>2022-03-09T09:46:46.399Z</time>
      </trkpt>
      <trkpt lat="42.67357" lon="23.65971">
        <ele>592.400819</ele>
        <time>2022-03-09T09:46:49.397Z</time>
      </trkpt>
      <trkpt lat="42.67354" lon="23.65956">
        <ele>592.273795</ele>
        <time>2022-03-09T09:46:52.421Z</time>
      </trkpt>
      <trkpt lat="42.6735" lon="23.65942">
        <ele>592.142758</ele>
        <time>2022-03-09T09:46:55.411Z</time>
      </trkpt>
      <trkpt lat="42.67347" lon="23.65926">
        <ele>592.200882</ele>
        <time>2022-03-09T09:46:58.397Z</time>
      </trkpt>
      <trkpt lat="42.67344" lon="23.65911">
        <ele>592.485374</ele>
        <time>2022-03-09T09:47:01.400Z</time>
      </trkpt>
      <trkpt lat="42.67342" lon="23.65897">
        <ele>592.749695</ele>
        <time>2022-03-09T09:47:04.414Z</time>
      </trkpt>
      <trkpt lat="42.6734" lon="23.65882">
        <ele>593.012033</ele>
        <time>2022-03-09T09:47:07.449Z</time>
      </trkpt>
      <trkpt lat="42.67337" lon="23.65869">
        <ele>593.267932</ele>
        <time>2022-03-09T09:47:10.397Z</time>
      </trkpt>
      <trkpt lat="42.67335" lon="23.65855">
        <ele>593.526173</ele>
        <time>2022-03-09T09:47:13.400Z</time>
      </trkpt>
      <trkpt lat="42.67332" lon="23.65841">
        <ele>593.78286</ele>
        <time>2022-03-09T09:47:16.398Z</time>
      </trkpt>
      <trkpt lat="42.67329" lon="23.65826">
        <ele>594.058204</ele>
        <time>2022-03-09T09:47:19.416Z</time>
      </trkpt>
      <trkpt lat="42.67326" lon="23.65812">
        <ele>594.32182</ele>
        <time>2022-03-09T09:47:22.403Z</time>
      </trkpt>
      <trkpt lat="42.67323" lon="23.65798">
        <ele>594.591299</ele>
        <time>2022-03-09T09:47:25.404Z</time>
      </trkpt>
      <trkpt lat="42.67319" lon="23.65784">
        <ele>594.855055</ele>
        <time>2022-03-09T09:47:28.403Z</time>
      </trkpt>
      <trkpt lat="42.67316" lon="23.65769">
        <ele>595.135953</ele>
        <time>2022-03-09T09:47:31.397Z</time>
      </trkpt>
      <trkpt lat="42.67312" lon="23.65754">
        <ele>595.41481</ele>
        <time>2022-03-09T09:47:34.411Z</time>
      </trkpt>
      <trkpt lat="42.67308" lon="23.6574">
        <ele>595.69799</ele>
        <time>2022-03-09T09:47:37.417Z</time>
      </trkpt>
      <trkpt lat="42.67304" lon="23.65726">
        <ele>595.965243</ele>
        <time>2022-03-09T09:47:40.449Z</time>
      </trkpt>
      <trkpt lat="42.67298" lon="23.65711">
        <ele>596.265955</ele>
        <time>2022-03-09T09:47:43.388Z</time>
      </trkpt>
      <trkpt lat="42.67295" lon="23.65696">
        <ele>596.515639</ele>
        <time>2022-03-09T09:47:46.471Z</time>
      </trkpt>
      <trkpt lat="42.6729" lon="23.65682">
        <ele>596.686789</ele>
        <time>2022-03-09T09:47:49.431Z</time>
      </trkpt>
      <trkpt lat="42.67286" lon="23.65669">
        <ele>596.845845</ele>
        <time>2022-03-09T09:47:52.392Z</time>
      </trkpt>
      <trkpt lat="42.67283" lon="23.65654">
        <ele>597.010758</ele>
        <time>2022-03-09T09:47:55.407Z</time>
      </trkpt>
      <trkpt lat="42.6728" lon="23.65639">
        <ele>597.188565</ele>
        <time>2022-03-09T09:47:58.403Z</time>
      </trkpt>
      <trkpt lat="42.67276" lon="23.65625">
        <ele>597.357105</ele>
        <time>2022-03-09T09:48:01.397Z</time>
      </trkpt>
      <trkpt lat="42.67269" lon="23.6561">
        <ele>597.543192</ele>
        <time>2022-03-09T09:48:04.401Z</time>
      </trkpt>
      <trkpt lat="42.67261" lon="23.65598">
        <ele>597.723886</ele>
        <time>2022-03-09T09:48:07.400Z</time>
      </trkpt>
      <trkpt lat="42.67253" lon="23.65586">
        <ele>597.897665</ele>
        <time>2022-03-09T09:48:10.394Z</time>
      </trkpt>
      <trkpt lat="42.67245" lon="23.65575">
        <ele>598.077277</ele>
        <time>2022-03-09T09:48:13.407Z</time>
      </trkpt>
      <trkpt lat="42.67236" lon="23.65565">
        <ele>598.246332</ele>
        <time>2022-03-09T09:48:16.394Z</time>
      </trkpt>
      <trkpt lat="42.67228" lon="23.65556">
        <ele>598.406723</ele>
        <time>2022-03-09T09:48:19.386Z</time>
      </trkpt>
      <trkpt lat="42.67221" lon="23.65547">
        <ele>598.543508</ele>
        <time>2022-03-09T09:48:22.405Z</time>
      </trkpt>
      <trkpt lat="42.67214" lon="23.65539">
        <ele>598.687052</ele>
        <time>2022-03-09T09:48:25.415Z</time>
      </trkpt>
      <trkpt lat="42.67205" lon="23.6553">
        <ele>598.854882</ele>
        <time>2022-03-09T09:48:28.392Z</time>
      </trkpt>
      <trkpt lat="42.67195" lon="23.65518">
        <ele>599.04574</ele>
        <time>2022-03-09T09:48:31.428Z</time>
      </trkpt>
      <trkpt lat="42.67186" lon="23.65508">
        <ele>599.248011</ele>
        <time>2022-03-09T09:48:34.410Z</time>
      </trkpt>
      <trkpt lat="42.67176" lon="23.65498">
        <ele>599.478818</ele>
        <time>2022-03-09T09:48:37.436Z</time>
      </trkpt>
      <trkpt lat="42.67168" lon="23.65489">
        <ele>599.696146</ele>
        <time>2022-03-09T09:48:40.405Z</time>
      </trkpt>
      <trkpt lat="42.67158" lon="23.6548">
        <ele>599.937989</ele>
        <time>2022-03-09T09:48:43.418Z</time>
      </trkpt>
      <trkpt lat="42.67148" lon="23.65469">
        <ele>600.177947</ele>
        <time>2022-03-09T09:48:46.412Z</time>
      </trkpt>
      <trkpt lat="42.67137" lon="23.65459">
        <ele>600.440154</ele>
        <time>2022-03-09T09:48:49.399Z</time>
      </trkpt>
      <trkpt lat="42.6713" lon="23.6545">
        <ele>600.623056</ele>
        <time>2022-03-09T09:48:51.390Z</time>
      </trkpt>
      <trkpt lat="42.67125" lon="23.65441">
        <ele>600.800942</ele>
        <time>2022-03-09T09:48:53.417Z</time>
      </trkpt>
      <trkpt lat="42.6712" lon="23.6543">
        <ele>600.985237</ele>
        <time>2022-03-09T09:48:55.413Z</time>
      </trkpt>
      <trkpt lat="42.67115" lon="23.6542">
        <ele>601.163168</ele>
        <time>2022-03-09T09:48:57.392Z</time>
      </trkpt>
      <trkpt lat="42.67109" lon="23.65404">
        <ele>601.418477</ele>
        <time>2022-03-09T09:49:00.395Z</time>
      </trkpt>
      <trkpt lat="42.67104" lon="23.65394">
        <ele>601.596346</ele>
        <time>2022-03-09T09:49:02.407Z</time>
      </trkpt>
      <trkpt lat="42.67097" lon="23.65379">
        <ele>601.862214</ele>
        <time>2022-03-09T09:49:05.448Z</time>
      </trkpt>
      <trkpt lat="42.67092" lon="23.65368">
        <ele>602.043883</ele>
        <time>2022-03-09T09:49:07.403Z</time>
      </trkpt>
      <trkpt lat="42.67087" lon="23.65358">
        <ele>602.221724</ele>
        <time>2022-03-09T09:49:09.397Z</time>
      </trkpt>
      <trkpt lat="42.67081" lon="23.65347">
        <ele>602.410289</ele>
        <time>2022-03-09T09:49:11.450Z</time>
      </trkpt>
      <trkpt lat="42.67076" lon="23.65337">
        <ele>602.594135</ele>
        <time>2022-03-09T09:49:13.384Z</time>
      </trkpt>
      <trkpt lat="42.67071" lon="23.65327">
        <ele>602.713391</ele>
        <time>2022-03-09T09:49:15.377Z</time>
      </trkpt>
      <trkpt lat="42.67064" lon="23.65312">
        <ele>602.688107</ele>
        <time>2022-03-09T09:49:18.401Z</time>
      </trkpt>
      <trkpt lat="42.67058" lon="23.65302">
        <ele>602.670427</ele>
        <time>2022-03-09T09:49:20.403Z</time>
      </trkpt>
      <trkpt lat="42.67051" lon="23.65288">
        <ele>602.646068</ele>
        <time>2022-03-09T09:49:23.398Z</time>
      </trkpt>
      <trkpt lat="42.67044" lon="23.65272">
        <ele>602.619975</ele>
        <time>2022-03-09T09:49:26.391Z</time>
      </trkpt>
      <trkpt lat="42.67039" lon="23.65262">
        <ele>602.601807</ele>
        <time>2022-03-09T09:49:28.384Z</time>
      </trkpt>
      <trkpt lat="42.67031" lon="23.65247">
        <ele>602.576314</ele>
        <time>2022-03-09T09:49:31.403Z</time>
      </trkpt>
      <trkpt lat="42.67024" lon="23.65232">
        <ele>602.55193</ele>
        <time>2022-03-09T09:49:34.397Z</time>
      </trkpt>
      <trkpt lat="42.67017" lon="23.65219">
        <ele>602.52782</ele>
        <time>2022-03-09T09:49:37.389Z</time>
      </trkpt>
      <trkpt lat="42.6701" lon="23.65204">
        <ele>602.503461</ele>
        <time>2022-03-09T09:49:40.406Z</time>
      </trkpt>
      <trkpt lat="42.67003" lon="23.65192">
        <ele>602.480381</ele>
        <time>2022-03-09T09:49:43.414Z</time>
      </trkpt>
      <trkpt lat="42.66997" lon="23.65179">
        <ele>602.458316</ele>
        <time>2022-03-09T09:49:46.394Z</time>
      </trkpt>
      <trkpt lat="42.66989" lon="23.65165">
        <ele>602.433489</ele>
        <time>2022-03-09T09:49:49.409Z</time>
      </trkpt>
      <trkpt lat="42.66983" lon="23.65156">
        <ele>602.415645</ele>
        <time>2022-03-09T09:49:51.400Z</time>
      </trkpt>
      <trkpt lat="42.66976" lon="23.65141">
        <ele>602.39157</ele>
        <time>2022-03-09T09:49:54.403Z</time>
      </trkpt>
      <trkpt lat="42.66971" lon="23.65127">
        <ele>602.357736</ele>
        <time>2022-03-09T09:49:57.387Z</time>
      </trkpt>
      <trkpt lat="42.66966" lon="23.65111">
        <ele>602.168586</ele>
        <time>2022-03-09T09:50:00.421Z</time>
      </trkpt>
      <trkpt lat="42.66962" lon="23.65099">
        <ele>602.024173</ele>
        <time>2022-03-09T09:50:02.436Z</time>
      </trkpt>
      <trkpt lat="42.66957" lon="23.65088">
        <ele>601.887922</ele>
        <time>2022-03-09T09:50:04.384Z</time>
      </trkpt>
      <trkpt lat="42.6695" lon="23.65073">
        <ele>601.692607</ele>
        <time>2022-03-09T09:50:07.384Z</time>
      </trkpt>
      <trkpt lat="42.66945" lon="23.65063">
        <ele>601.559302</ele>
        <time>2022-03-09T09:50:09.397Z</time>
      </trkpt>
      <trkpt lat="42.66937" lon="23.65048">
        <ele>601.368493</ele>
        <time>2022-03-09T09:50:12.408Z</time>
      </trkpt>
      <trkpt lat="42.6693" lon="23.65034">
        <ele>601.181738</ele>
        <time>2022-03-09T09:50:15.392Z</time>
      </trkpt>
      <trkpt lat="42.66921" lon="23.65021">
        <ele>600.991467</ele>
        <time>2022-03-09T09:50:18.445Z</time>
      </trkpt>
      <trkpt lat="42.66911" lon="23.6501">
        <ele>600.801371</ele>
        <time>2022-03-09T09:50:21.393Z</time>
      </trkpt>
      <trkpt lat="42.669" lon="23.65001">
        <ele>600.608605</ele>
        <time>2022-03-09T09:50:24.391Z</time>
      </trkpt>
      <trkpt lat="42.66891" lon="23.64995">
        <ele>600.467758</ele>
        <time>2022-03-09T09:50:26.388Z</time>
      </trkpt>
      <trkpt lat="42.66884" lon="23.64989">
        <ele>600.334165</ele>
        <time>2022-03-09T09:50:28.400Z</time>
      </trkpt>
      <trkpt lat="42.66872" lon="23.64981">
        <ele>600.140371</ele>
        <time>2022-03-09T09:50:31.396Z</time>
      </trkpt>
      <trkpt lat="42.6686" lon="23.64973">
        <ele>599.941565</ele>
        <time>2022-03-09T09:50:34.408Z</time>
      </trkpt>
      <trkpt lat="42.66848" lon="23.64965">
        <ele>599.75161</ele>
        <time>2022-03-09T09:50:37.399Z</time>
      </trkpt>
      <trkpt lat="42.66838" lon="23.64957">
        <ele>599.573933</ele>
        <time>2022-03-09T09:50:40.411Z</time>
      </trkpt>
      <trkpt lat="42.66829" lon="23.64951">
        <ele>599.416357</ele>
        <time>2022-03-09T09:50:43.445Z</time>
      </trkpt>
      <trkpt lat="42.66818" lon="23.64943">
        <ele>599.227992</ele>
        <time>2022-03-09T09:50:46.399Z</time>
      </trkpt>
      <trkpt lat="42.66807" lon="23.64934">
        <ele>599.032504</ele>
        <time>2022-03-09T09:50:49.425Z</time>
      </trkpt>
      <trkpt lat="42.66796" lon="23.64926">
        <ele>598.833826</ele>
        <time>2022-03-09T09:50:52.398Z</time>
      </trkpt>
      <trkpt lat="42.66785" lon="23.64917">
        <ele>598.638154</ele>
        <time>2022-03-09T09:50:55.436Z</time>
      </trkpt>
      <trkpt lat="42.66773" lon="23.64909">
        <ele>598.433028</ele>
        <time>2022-03-09T09:50:58.408Z</time>
      </trkpt>
      <trkpt lat="42.66765" lon="23.64904">
        <ele>598.291899</ele>
        <time>2022-03-09T09:51:00.412Z</time>
      </trkpt>
      <trkpt lat="42.66756" lon="23.64893">
        <ele>598.108238</ele>
        <time>2022-03-09T09:51:03.398Z</time>
      </trkpt>
      <trkpt lat="42.66748" lon="23.64881">
        <ele>597.911947</ele>
        <time>2022-03-09T09:51:06.437Z</time>
      </trkpt>
      <trkpt lat="42.66741" lon="23.64866">
        <ele>597.713423</ele>
        <time>2022-03-09T09:51:09.408Z</time>
      </trkpt>
      <trkpt lat="42.66732" lon="23.64853">
        <ele>597.510834</ele>
        <time>2022-03-09T09:51:12.423Z</time>
      </trkpt>
      <trkpt lat="42.66724" lon="23.64838">
        <ele>597.30243</ele>
        <time>2022-03-09T09:51:15.401Z</time>
      </trkpt>
      <trkpt lat="42.66718" lon="23.64822">
        <ele>597.100894</ele>
        <time>2022-03-09T09:51:18.413Z</time>
      </trkpt>
      <trkpt lat="42.66716" lon="23.64805">
        <ele>596.865036</ele>
        <time>2022-03-09T09:51:21.406Z</time>
      </trkpt>
      <trkpt lat="42.66715" lon="23.64792">
        <ele>596.622387</ele>
        <time>2022-03-09T09:51:23.430Z</time>
      </trkpt>
      <trkpt lat="42.66715" lon="23.6478">
        <ele>596.384179</ele>
        <time>2022-03-09T09:51:25.408Z</time>
      </trkpt>
      <trkpt lat="42.66715" lon="23.64768">
        <ele>596.147803</ele>
        <time>2022-03-09T09:51:27.395Z</time>
      </trkpt>
      <trkpt lat="42.66716" lon="23.64751">
        <ele>595.815053</ele>
        <time>2022-03-09T09:51:30.402Z</time>
      </trkpt>
      <trkpt lat="42.66717" lon="23.64734">
        <ele>595.495411</ele>
        <time>2022-03-09T09:51:33.401Z</time>
      </trkpt>
      <trkpt lat="42.66717" lon="23.64717">
        <ele>595.169849</ele>
        <time>2022-03-09T09:51:36.415Z</time>
      </trkpt>
      <trkpt lat="42.66717" lon="23.647">
        <ele>594.844628</ele>
        <time>2022-03-09T09:51:39.404Z</time>
      </trkpt>
      <trkpt lat="42.66717" lon="23.64684">
        <ele>594.529084</ele>
        <time>2022-03-09T09:51:42.389Z</time>
      </trkpt>
      <trkpt lat="42.66718" lon="23.64668">
        <ele>594.219379</ele>
        <time>2022-03-09T09:51:45.452Z</time>
      </trkpt>
      <trkpt lat="42.66718" lon="23.64652">
        <ele>593.913545</ele>
        <time>2022-03-09T09:51:48.398Z</time>
      </trkpt>
      <trkpt lat="42.66718" lon="23.64635">
        <ele>593.58025</ele>
        <time>2022-03-09T09:51:51.393Z</time>
      </trkpt>
      <trkpt lat="42.66719" lon="23.64619">
        <ele>593.270277</ele>
        <time>2022-03-09T09:51:54.412Z</time>
      </trkpt>
      <trkpt lat="42.66719" lon="23.64604">
        <ele>592.968223</ele>
        <time>2022-03-09T09:51:57.390Z</time>
      </trkpt>
      <trkpt lat="42.66719" lon="23.64588">
        <ele>592.668161</ele>
        <time>2022-03-09T09:52:00.398Z</time>
      </trkpt>
      <trkpt lat="42.66719" lon="23.64572">
        <ele>592.366198</ele>
        <time>2022-03-09T09:52:03.447Z</time>
      </trkpt>
      <trkpt lat="42.6672" lon="23.64558">
        <ele>592.184387</ele>
        <time>2022-03-09T09:52:06.407Z</time>
      </trkpt>
      <trkpt lat="42.6672" lon="23.64544">
        <ele>592.136302</ele>
        <time>2022-03-09T09:52:09.405Z</time>
      </trkpt>
      <trkpt lat="42.66721" lon="23.6453">
        <ele>592.088999</ele>
        <time>2022-03-09T09:52:12.434Z</time>
      </trkpt>
      <trkpt lat="42.6672" lon="23.64515">
        <ele>592.039313</ele>
        <time>2022-03-09T09:52:15.408Z</time>
      </trkpt>
      <trkpt lat="42.6672" lon="23.645">
        <ele>591.987611</ele>
        <time>2022-03-09T09:52:18.404Z</time>
      </trkpt>
      <trkpt lat="42.6672" lon="23.64485">
        <ele>591.936591</ele>
        <time>2022-03-09T09:52:21.396Z</time>
      </trkpt>
      <trkpt lat="42.6672" lon="23.6447">
        <ele>591.887884</ele>
        <time>2022-03-09T09:52:24.399Z</time>
      </trkpt>
      <trkpt lat="42.6672" lon="23.64456">
        <ele>591.84058</ele>
        <time>2022-03-09T09:52:27.397Z</time>
      </trkpt>
      <trkpt lat="42.6672" lon="23.64442">
        <ele>591.790574</ele>
        <time>2022-03-09T09:52:30.404Z</time>
      </trkpt>
      <trkpt lat="42.6672" lon="23.64427">
        <ele>591.741843</ele>
        <time>2022-03-09T09:52:33.417Z</time>
      </trkpt>
      <trkpt lat="42.66721" lon="23.64413">
        <ele>591.694148</ele>
        <time>2022-03-09T09:52:36.409Z</time>
      </trkpt>
      <trkpt lat="42.66722" lon="23.64399">
        <ele>591.647249</ele>
        <time>2022-03-09T09:52:39.411Z</time>
      </trkpt>
      <trkpt lat="42.66722" lon="23.64385">
        <ele>591.599252</ele>
        <time>2022-03-09T09:52:42.405Z</time>
      </trkpt>
      <trkpt lat="42.66722" lon="23.6437">
        <ele>591.549577</ele>
        <time>2022-03-09T09:52:45.391Z</time>
      </trkpt>
      <trkpt lat="42.66722" lon="23.64356">
        <ele>591.49991</ele>
        <time>2022-03-09T09:52:48.394Z</time>
      </trkpt>
      <trkpt lat="42.66722" lon="23.64341">
        <ele>591.448884</ele>
        <time>2022-03-09T09:52:51.405Z</time>
      </trkpt>
      <trkpt lat="42.66722" lon="23.64325">
        <ele>591.39719</ele>
        <time>2022-03-09T09:52:54.408Z</time>
      </trkpt>
      <trkpt lat="42.66722" lon="23.64311">
        <ele>591.316999</ele>
        <time>2022-03-09T09:52:57.396Z</time>
      </trkpt>
      <trkpt lat="42.66723" lon="23.64296">
        <ele>591.217979</ele>
        <time>2022-03-09T09:53:00.408Z</time>
      </trkpt>
      <trkpt lat="42.66723" lon="23.64281">
        <ele>591.117578</ele>
        <time>2022-03-09T09:53:03.399Z</time>
      </trkpt>
      <trkpt lat="42.66724" lon="23.64266">
        <ele>591.017259</ele>
        <time>2022-03-09T09:53:06.403Z</time>
      </trkpt>
      <trkpt lat="42.66724" lon="23.6425">
        <ele>590.913649</ele>
        <time>2022-03-09T09:53:09.402Z</time>
      </trkpt>
      <trkpt lat="42.66724" lon="23.64234">
        <ele>590.806678</ele>
        <time>2022-03-09T09:53:12.391Z</time>
      </trkpt>
      <trkpt lat="42.66724" lon="23.6422">
        <ele>590.70975</ele>
        <time>2022-03-09T09:53:15.402Z</time>
      </trkpt>
      <trkpt lat="42.66724" lon="23.64205">
        <ele>590.608681</ele>
        <time>2022-03-09T09:53:18.429Z</time>
      </trkpt>
      <trkpt lat="42.66725" lon="23.64189">
        <ele>590.506278</ele>
        <time>2022-03-09T09:53:21.395Z</time>
      </trkpt>
      <trkpt lat="42.66726" lon="23.64174">
        <ele>590.401155</ele>
        <time>2022-03-09T09:53:24.399Z</time>
      </trkpt>
      <trkpt lat="42.66726" lon="23.64158">
        <ele>590.294883</ele>
        <time>2022-03-09T09:53:27.393Z</time>
      </trkpt>
      <trkpt lat="42.66726" lon="23.64143">
        <ele>590.1959</ele>
        <time>2022-03-09T09:53:30.412Z</time>
      </trkpt>
      <trkpt lat="42.66726" lon="23.64128">
        <ele>590.09561</ele>
        <time>2022-03-09T09:53:33.400Z</time>
      </trkpt>
      <trkpt lat="42.66727" lon="23.64113">
        <ele>589.996628</ele>
        <time>2022-03-09T09:53:36.396Z</time>
      </trkpt>
      <trkpt lat="42.66727" lon="23.64099">
        <ele>589.902351</ele>
        <time>2022-03-09T09:53:39.397Z</time>
      </trkpt>
      <trkpt lat="42.66727" lon="23.64084">
        <ele>589.802617</ele>
        <time>2022-03-09T09:53:42.399Z</time>
      </trkpt>
      <trkpt lat="42.66728" lon="23.64069">
        <ele>589.731093</ele>
        <time>2022-03-09T09:53:45.392Z</time>
      </trkpt>
      <trkpt lat="42.66728" lon="23.64054">
        <ele>589.704364</ele>
        <time>2022-03-09T09:53:48.396Z</time>
      </trkpt>
      <trkpt lat="42.66728" lon="23.6404">
        <ele>589.677452</ele>
        <time>2022-03-09T09:53:51.415Z</time>
      </trkpt>
      <trkpt lat="42.66728" lon="23.64025">
        <ele>589.649803</ele>
        <time>2022-03-09T09:53:54.408Z</time>
      </trkpt>
      <trkpt lat="42.66728" lon="23.6401">
        <ele>589.62307</ele>
        <time>2022-03-09T09:53:57.402Z</time>
      </trkpt>
      <trkpt lat="42.66728" lon="23.63995">
        <ele>589.595601</ele>
        <time>2022-03-09T09:54:00.407Z</time>
      </trkpt>
      <trkpt lat="42.66728" lon="23.6398">
        <ele>589.567947</ele>
        <time>2022-03-09T09:54:03.399Z</time>
      </trkpt>
      <trkpt lat="42.66728" lon="23.63965">
        <ele>589.540112</ele>
        <time>2022-03-09T09:54:06.406Z</time>
      </trkpt>
      <trkpt lat="42.66728" lon="23.6395">
        <ele>589.512452</ele>
        <time>2022-03-09T09:54:09.408Z</time>
      </trkpt>
      <trkpt lat="42.66728" lon="23.63935">
        <ele>589.484793</ele>
        <time>2022-03-09T09:54:12.411Z</time>
      </trkpt>
      <trkpt lat="42.66728" lon="23.6392">
        <ele>589.457697</ele>
        <time>2022-03-09T09:54:15.406Z</time>
      </trkpt>
      <trkpt lat="42.66728" lon="23.63905">
        <ele>589.429493</ele>
        <time>2022-03-09T09:54:18.413Z</time>
      </trkpt>
      <trkpt lat="42.66728" lon="23.6389">
        <ele>589.400728</ele>
        <time>2022-03-09T09:54:21.416Z</time>
      </trkpt>
      <trkpt lat="42.66729" lon="23.63874">
        <ele>589.371234</ele>
        <time>2022-03-09T09:54:24.397Z</time>
      </trkpt>
      <trkpt lat="42.66729" lon="23.63858">
        <ele>589.343215</ele>
        <time>2022-03-09T09:54:27.408Z</time>
      </trkpt>
      <trkpt lat="42.66729" lon="23.63843">
        <ele>589.315372</ele>
        <time>2022-03-09T09:54:30.432Z</time>
      </trkpt>
      <trkpt lat="42.66729" lon="23.63828">
        <ele>589.281165</ele>
        <time>2022-03-09T09:54:33.449Z</time>
      </trkpt>
      <trkpt lat="42.66729" lon="23.63813">
        <ele>589.21</ele>
        <time>2022-03-09T09:54:36.413Z</time>
      </trkpt>
      <trkpt lat="42.66729" lon="23.63798">
        <ele>589.137409</ele>
        <time>2022-03-09T09:54:39.431Z</time>
      </trkpt>
      <trkpt lat="42.66729" lon="23.63782">
        <ele>589.064841</ele>
        <time>2022-03-09T09:54:42.398Z</time>
      </trkpt>
      <trkpt lat="42.66729" lon="23.63766">
        <ele>588.98991</ele>
        <time>2022-03-09T09:54:45.440Z</time>
      </trkpt>
      <trkpt lat="42.66729" lon="23.63752">
        <ele>588.921545</ele>
        <time>2022-03-09T09:54:48.406Z</time>
      </trkpt>
      <trkpt lat="42.66729" lon="23.63738">
        <ele>588.85647</ele>
        <time>2022-03-09T09:54:51.448Z</time>
      </trkpt>
      <trkpt lat="42.6673" lon="23.63724">
        <ele>588.792177</ele>
        <time>2022-03-09T09:54:54.427Z</time>
      </trkpt>
      <trkpt lat="42.66731" lon="23.6371">
        <ele>588.725548</ele>
        <time>2022-03-09T09:54:57.395Z</time>
      </trkpt>
      <trkpt lat="42.66731" lon="23.63696">
        <ele>588.659056</ele>
        <time>2022-03-09T09:55:00.405Z</time>
      </trkpt>
      <trkpt lat="42.66731" lon="23.63681">
        <ele>588.591145</ele>
        <time>2022-03-09T09:55:03.402Z</time>
      </trkpt>
      <trkpt lat="42.66731" lon="23.63666">
        <ele>588.52092</ele>
        <time>2022-03-09T09:55:06.425Z</time>
      </trkpt>
      <trkpt lat="42.66731" lon="23.63652">
        <ele>588.453009</ele>
        <time>2022-03-09T09:55:09.396Z</time>
      </trkpt>
      <trkpt lat="42.66731" lon="23.63637">
        <ele>588.384609</ele>
        <time>2022-03-09T09:55:12.395Z</time>
      </trkpt>
      <trkpt lat="42.66731" lon="23.63622">
        <ele>588.315309</ele>
        <time>2022-03-09T09:55:15.413Z</time>
      </trkpt>
      <trkpt lat="42.66732" lon="23.63606">
        <ele>588.241117</ele>
        <time>2022-03-09T09:55:18.388Z</time>
      </trkpt>
      <trkpt lat="42.66733" lon="23.63591">
        <ele>588.167858</ele>
        <time>2022-03-09T09:55:21.398Z</time>
      </trkpt>
      <trkpt lat="42.66733" lon="23.63576">
        <ele>588.149943</ele>
        <time>2022-03-09T09:55:24.437Z</time>
      </trkpt>
      <trkpt lat="42.66732" lon="23.63561">
        <ele>588.154078</ele>
        <time>2022-03-09T09:55:27.397Z</time>
      </trkpt>
      <trkpt lat="42.66732" lon="23.63547">
        <ele>588.158213</ele>
        <time>2022-03-09T09:55:30.428Z</time>
      </trkpt>
      <trkpt lat="42.66732" lon="23.63532">
        <ele>588.162319</ele>
        <time>2022-03-09T09:55:33.392Z</time>
      </trkpt>
      <trkpt lat="42.66733" lon="23.63518">
        <ele>588.166425</ele>
        <time>2022-03-09T09:55:36.414Z</time>
      </trkpt>
      <trkpt lat="42.66733" lon="23.63503">
        <ele>588.170429</ele>
        <time>2022-03-09T09:55:39.406Z</time>
      </trkpt>
      <trkpt lat="42.66734" lon="23.63489">
        <ele>588.17445</ele>
        <time>2022-03-09T09:55:42.402Z</time>
      </trkpt>
      <trkpt lat="42.66733" lon="23.63474">
        <ele>588.178639</ele>
        <time>2022-03-09T09:55:45.404Z</time>
      </trkpt>
      <trkpt lat="42.66734" lon="23.6346">
        <ele>588.182744</ele>
        <time>2022-03-09T09:55:48.408Z</time>
      </trkpt>
      <trkpt lat="42.66734" lon="23.63445">
        <ele>588.186933</ele>
        <time>2022-03-09T09:55:51.407Z</time>
      </trkpt>
      <trkpt lat="42.66734" lon="23.6343">
        <ele>588.19118</ele>
        <time>2022-03-09T09:55:54.400Z</time>
      </trkpt>
      <trkpt lat="42.66734" lon="23.63415">
        <ele>588.195285</ele>
        <time>2022-03-09T09:55:57.409Z</time>
      </trkpt>
      <trkpt lat="42.66734" lon="23.634">
        <ele>588.199446</ele>
        <time>2022-03-09T09:56:00.394Z</time>
      </trkpt>
      <trkpt lat="42.66734" lon="23.63385">
        <ele>588.20358</ele>
        <time>2022-03-09T09:56:03.397Z</time>
      </trkpt>
      <trkpt lat="42.66734" lon="23.63371">
        <ele>588.207573</ele>
        <time>2022-03-09T09:56:06.436Z</time>
      </trkpt>
      <trkpt lat="42.66734" lon="23.63357">
        <ele>588.21151</ele>
        <time>2022-03-09T09:56:09.469Z</time>
      </trkpt>
      <trkpt lat="42.66735" lon="23.63343">
        <ele>588.215621</ele>
        <time>2022-03-09T09:56:12.413Z</time>
      </trkpt>
      <trkpt lat="42.66735" lon="23.63328">
        <ele>588.328747</ele>
        <time>2022-03-09T09:56:15.410Z</time>
      </trkpt>
      <trkpt lat="42.66735" lon="23.63314">
        <ele>588.439566</ele>
        <time>2022-03-09T09:56:18.391Z</time>
      </trkpt>
      <trkpt lat="42.66735" lon="23.63299">
        <ele>588.558256</ele>
        <time>2022-03-09T09:56:21.408Z</time>
      </trkpt>
      <trkpt lat="42.66735" lon="23.63284">
        <ele>588.67696</ele>
        <time>2022-03-09T09:56:24.397Z</time>
      </trkpt>
      <trkpt lat="42.66736" lon="23.63269">
        <ele>588.79335</ele>
        <time>2022-03-09T09:56:27.396Z</time>
      </trkpt>
      <trkpt lat="42.66736" lon="23.63255">
        <ele>588.904206</ele>
        <time>2022-03-09T09:56:30.401Z</time>
      </trkpt>
      <trkpt lat="42.66737" lon="23.63241">
        <ele>589.014271</ele>
        <time>2022-03-09T09:56:33.394Z</time>
      </trkpt>
      <trkpt lat="42.66737" lon="23.63227">
        <ele>589.121884</ele>
        <time>2022-03-09T09:56:36.410Z</time>
      </trkpt>
      <trkpt lat="42.66737" lon="23.63214">
        <ele>589.230303</ele>
        <time>2022-03-09T09:56:39.389Z</time>
      </trkpt>
      <trkpt lat="42.66737" lon="23.632">
        <ele>589.341159</ele>
        <time>2022-03-09T09:56:42.407Z</time>
      </trkpt>
      <trkpt lat="42.66737" lon="23.63186">
        <ele>589.448766</ele>
        <time>2022-03-09T09:56:45.422Z</time>
      </trkpt>
      <trkpt lat="42.66737" lon="23.63172">
        <ele>589.563495</ele>
        <time>2022-03-09T09:56:48.432Z</time>
      </trkpt>
      <trkpt lat="42.66737" lon="23.63157">
        <ele>589.680617</ele>
        <time>2022-03-09T09:56:51.400Z</time>
      </trkpt>
      <trkpt lat="42.66737" lon="23.63143">
        <ele>589.792976</ele>
        <time>2022-03-09T09:56:54.397Z</time>
      </trkpt>
      <trkpt lat="42.66737" lon="23.63128">
        <ele>589.90771</ele>
        <time>2022-03-09T09:56:57.400Z</time>
      </trkpt>
      <trkpt lat="42.66737" lon="23.63114">
        <ele>590.020861</ele>
        <time>2022-03-09T09:57:00.410Z</time>
      </trkpt>
      <trkpt lat="42.66738" lon="23.631">
        <ele>590.131717</ele>
        <time>2022-03-09T09:57:03.416Z</time>
      </trkpt>
      <trkpt lat="42.66737" lon="23.63086">
        <ele>590.175406</ele>
        <time>2022-03-09T09:57:06.395Z</time>
      </trkpt>
      <trkpt lat="42.66738" lon="23.63073">
        <ele>590.204433</ele>
        <time>2022-03-09T09:57:09.406Z</time>
      </trkpt>
      <trkpt lat="42.66738" lon="23.63058">
        <ele>590.236076</ele>
        <time>2022-03-09T09:57:12.424Z</time>
      </trkpt>
      <trkpt lat="42.66738" lon="23.63043">
        <ele>590.269007</ele>
        <time>2022-03-09T09:57:15.405Z</time>
      </trkpt>
      <trkpt lat="42.66738" lon="23.63028">
        <ele>590.302362</ele>
        <time>2022-03-09T09:57:18.404Z</time>
      </trkpt>
      <trkpt lat="42.66738" lon="23.63012">
        <ele>590.335726</ele>
        <time>2022-03-09T09:57:21.398Z</time>
      </trkpt>
      <trkpt lat="42.66739" lon="23.62997">
        <ele>590.36908</ele>
        <time>2022-03-09T09:57:24.405Z</time>
      </trkpt>
      <trkpt lat="42.66739" lon="23.62982">
        <ele>590.400919</ele>
        <time>2022-03-09T09:57:27.435Z</time>
      </trkpt>
      <trkpt lat="42.66739" lon="23.62968">
        <ele>590.43083</ele>
        <time>2022-03-09T09:57:30.400Z</time>
      </trkpt>
      <trkpt lat="42.6674" lon="23.62954">
        <ele>590.461634</ele>
        <time>2022-03-09T09:57:33.412Z</time>
      </trkpt>
      <trkpt lat="42.66739" lon="23.6294">
        <ele>590.492827</ele>
        <time>2022-03-09T09:57:36.407Z</time>
      </trkpt>
      <trkpt lat="42.66739" lon="23.62926">
        <ele>590.522751</ele>
        <time>2022-03-09T09:57:39.406Z</time>
      </trkpt>
      <trkpt lat="42.6674" lon="23.62912">
        <ele>590.553556</ele>
        <time>2022-03-09T09:57:42.401Z</time>
      </trkpt>
      <trkpt lat="42.6674" lon="23.62897">
        <ele>590.586366</ele>
        <time>2022-03-09T09:57:45.419Z</time>
      </trkpt>
      <trkpt lat="42.66741" lon="23.62882">
        <ele>590.618702</ele>
        <time>2022-03-09T09:57:48.405Z</time>
      </trkpt>
      <trkpt lat="42.66742" lon="23.62867">
        <ele>590.650789</ele>
        <time>2022-03-09T09:57:51.404Z</time>
      </trkpt>
      <trkpt lat="42.66743" lon="23.62852">
        <ele>590.678792</ele>
        <time>2022-03-09T09:57:54.392Z</time>
      </trkpt>
      <trkpt lat="42.66743" lon="23.62836">
        <ele>590.648961</ele>
        <time>2022-03-09T09:57:57.396Z</time>
      </trkpt>
      <trkpt lat="42.66743" lon="23.6282">
        <ele>590.619652</ele>
        <time>2022-03-09T09:58:00.450Z</time>
      </trkpt>
      <trkpt lat="42.66742" lon="23.62806">
        <ele>590.592995</ele>
        <time>2022-03-09T09:58:03.441Z</time>
      </trkpt>
      <trkpt lat="42.66742" lon="23.62792">
        <ele>590.566644</ele>
        <time>2022-03-09T09:58:06.409Z</time>
      </trkpt>
      <trkpt lat="42.66741" lon="23.62777">
        <ele>590.539061</ele>
        <time>2022-03-09T09:58:09.400Z</time>
      </trkpt>
      <trkpt lat="42.66742" lon="23.62763">
        <ele>590.512709</ele>
        <time>2022-03-09T09:58:12.411Z</time>
      </trkpt>
      <trkpt lat="42.66742" lon="23.62749">
        <ele>590.486425</ele>
        <time>2022-03-09T09:58:15.403Z</time>
      </trkpt>
      <trkpt lat="42.66742" lon="23.62734">
        <ele>590.458473</ele>
        <time>2022-03-09T09:58:18.415Z</time>
      </trkpt>
      <trkpt lat="42.66742" lon="23.62719">
        <ele>590.430894</ele>
        <time>2022-03-09T09:58:21.405Z</time>
      </trkpt>
      <trkpt lat="42.66742" lon="23.62704">
        <ele>590.40406</ele>
        <time>2022-03-09T09:58:24.431Z</time>
      </trkpt>
      <trkpt lat="42.66742" lon="23.6269">
        <ele>590.376668</ele>
        <time>2022-03-09T09:58:27.409Z</time>
      </trkpt>
      <trkpt lat="42.66742" lon="23.62675">
        <ele>590.350002</ele>
        <time>2022-03-09T09:58:30.397Z</time>
      </trkpt>
      <trkpt lat="42.66743" lon="23.62661">
        <ele>590.323512</ele>
        <time>2022-03-09T09:58:33.392Z</time>
      </trkpt>
      <trkpt lat="42.66743" lon="23.62646">
        <ele>590.295719</ele>
        <time>2022-03-09T09:58:36.397Z</time>
      </trkpt>
      <trkpt lat="42.66744" lon="23.62631">
        <ele>590.267191</ele>
        <time>2022-03-09T09:58:39.397Z</time>
      </trkpt>
      <trkpt lat="42.66744" lon="23.62616">
        <ele>590.239798</ele>
        <time>2022-03-09T09:58:42.406Z</time>
      </trkpt>
      <trkpt lat="42.66743" lon="23.62601">
        <ele>590.145057</ele>
        <time>2022-03-09T09:58:45.400Z</time>
      </trkpt>
      <trkpt lat="42.66743" lon="23.62586">
        <ele>589.984328</ele>
        <time>2022-03-09T09:58:48.398Z</time>
      </trkpt>
      <trkpt lat="42.66743" lon="23.6257">
        <ele>589.817268</ele>
        <time>2022-03-09T09:58:51.442Z</time>
      </trkpt>
      <trkpt lat="42.66744" lon="23.62554">
        <ele>589.653388</ele>
        <time>2022-03-09T09:58:54.414Z</time>
      </trkpt>
      <trkpt lat="42.66744" lon="23.62538">
        <ele>589.48728</ele>
        <time>2022-03-09T09:58:57.415Z</time>
      </trkpt>
      <trkpt lat="42.66745" lon="23.62522">
        <ele>589.319072</ele>
        <time>2022-03-09T09:59:00.406Z</time>
      </trkpt>
      <trkpt lat="42.66745" lon="23.62507">
        <ele>589.159413</ele>
        <time>2022-03-09T09:59:03.411Z</time>
      </trkpt>
      <trkpt lat="42.66745" lon="23.62492">
        <ele>588.998703</ele>
        <time>2022-03-09T09:59:06.395Z</time>
      </trkpt>
      <trkpt lat="42.66745" lon="23.62476">
        <ele>588.829501</ele>
        <time>2022-03-09T09:59:09.408Z</time>
      </trkpt>
      <trkpt lat="42.66745" lon="23.6246">
        <ele>588.663546</ele>
        <time>2022-03-09T09:59:12.400Z</time>
      </trkpt>
      <trkpt lat="42.66746" lon="23.62443">
        <ele>588.488814</ele>
        <time>2022-03-09T09:59:15.405Z</time>
      </trkpt>
      <trkpt lat="42.66746" lon="23.62427">
        <ele>588.318562</ele>
        <time>2022-03-09T09:59:18.413Z</time>
      </trkpt>
      <trkpt lat="42.66747" lon="23.62412">
        <ele>588.162874</ele>
        <time>2022-03-09T09:59:21.398Z</time>
      </trkpt>
      <trkpt lat="42.66748" lon="23.62397">
        <ele>588.001765</ele>
        <time>2022-03-09T09:59:24.462Z</time>
      </trkpt>
      <trkpt lat="42.66748" lon="23.62381">
        <ele>587.828434</ele>
        <time>2022-03-09T09:59:27.381Z</time>
      </trkpt>
      <trkpt lat="42.66747" lon="23.62365">
        <ele>587.66553</ele>
        <time>2022-03-09T09:59:30.407Z</time>
      </trkpt>
      <trkpt lat="42.66747" lon="23.6235">
        <ele>587.756289</ele>
        <time>2022-03-09T09:59:33.390Z</time>
      </trkpt>
      <trkpt lat="42.66747" lon="23.62335">
        <ele>587.862345</ele>
        <time>2022-03-09T09:59:36.419Z</time>
      </trkpt>
      <trkpt lat="42.66748" lon="23.6232">
        <ele>587.96849</ele>
        <time>2022-03-09T09:59:39.396Z</time>
      </trkpt>
      <trkpt lat="42.66748" lon="23.62306">
        <ele>588.066656</ele>
        <time>2022-03-09T09:59:42.389Z</time>
      </trkpt>
      <trkpt lat="42.66748" lon="23.62292">
        <ele>588.172041</ele>
        <time>2022-03-09T09:59:45.408Z</time>
      </trkpt>
      <trkpt lat="42.66749" lon="23.62277">
        <ele>588.275186</ele>
        <time>2022-03-09T09:59:48.397Z</time>
      </trkpt>
      <trkpt lat="42.6675" lon="23.62262">
        <ele>588.380289</ele>
        <time>2022-03-09T09:59:51.427Z</time>
      </trkpt>
      <trkpt lat="42.6675" lon="23.62248">
        <ele>588.481338</ele>
        <time>2022-03-09T09:59:54.398Z</time>
      </trkpt>
      <trkpt lat="42.6675" lon="23.62234">
        <ele>588.579504</ele>
        <time>2022-03-09T09:59:57.407Z</time>
      </trkpt>
      <trkpt lat="42.6675" lon="23.6222">
        <ele>588.681974</ele>
        <time>2022-03-09T10:00:00.388Z</time>
      </trkpt>
      <trkpt lat="42.66751" lon="23.62206">
        <ele>588.780254</ele>
        <time>2022-03-09T10:00:03.413Z</time>
      </trkpt>
      <trkpt lat="42.66751" lon="23.62192">
        <ele>588.879127</ele>
        <time>2022-03-09T10:00:06.451Z</time>
      </trkpt>
      <trkpt lat="42.66751" lon="23.62178">
        <ele>588.980152</ele>
        <time>2022-03-09T10:00:09.402Z</time>
      </trkpt>
      <trkpt lat="42.6675" lon="23.62164">
        <ele>589.078389</ele>
        <time>2022-03-09T10:00:12.415Z</time>
      </trkpt>
      <trkpt lat="42.6675" lon="23.62151">
        <ele>589.176556</ele>
        <time>2022-03-09T10:00:15.393Z</time>
      </trkpt>
      <trkpt lat="42.6675" lon="23.62136">
        <ele>589.277562</ele>
        <time>2022-03-09T10:00:18.389Z</time>
      </trkpt>
      <trkpt lat="42.6675" lon="23.62122">
        <ele>589.379321</ele>
        <time>2022-03-09T10:00:21.465Z</time>
      </trkpt>
      <trkpt lat="42.6675" lon="23.62108">
        <ele>589.581466</ele>
        <time>2022-03-09T10:00:24.398Z</time>
      </trkpt>
      <trkpt lat="42.6675" lon="23.62095">
        <ele>589.796746</ele>
        <time>2022-03-09T10:00:27.397Z</time>
      </trkpt>
      <trkpt lat="42.6675" lon="23.62081">
        <ele>590.021738</ele>
        <time>2022-03-09T10:00:30.410Z</time>
      </trkpt>
      <trkpt lat="42.6675" lon="23.62067">
        <ele>590.248337</ele>
        <time>2022-03-09T10:00:33.412Z</time>
      </trkpt>
      <trkpt lat="42.6675" lon="23.62053">
        <ele>590.479834</ele>
        <time>2022-03-09T10:00:36.417Z</time>
      </trkpt>
      <trkpt lat="42.66751" lon="23.62038">
        <ele>590.714619</ele>
        <time>2022-03-09T10:00:39.409Z</time>
      </trkpt>
      <trkpt lat="42.66751" lon="23.62024">
        <ele>590.950971</ele>
        <time>2022-03-09T10:00:42.416Z</time>
      </trkpt>
      <trkpt lat="42.6675" lon="23.6201">
        <ele>591.171195</ele>
        <time>2022-03-09T10:00:45.432Z</time>
      </trkpt>
      <trkpt lat="42.6675" lon="23.61997">
        <ele>591.38028</ele>
        <time>2022-03-09T10:00:48.402Z</time>
      </trkpt>
      <trkpt lat="42.6675" lon="23.61984">
        <ele>591.598797</ele>
        <time>2022-03-09T10:00:51.404Z</time>
      </trkpt>
      <trkpt lat="42.6675" lon="23.61971">
        <ele>591.810841</ele>
        <time>2022-03-09T10:00:54.409Z</time>
      </trkpt>
      <trkpt lat="42.66751" lon="23.61956">
        <ele>592.046038</ele>
        <time>2022-03-09T10:00:57.401Z</time>
      </trkpt>
      <trkpt lat="42.66751" lon="23.6194">
        <ele>592.30686</ele>
        <time>2022-03-09T10:01:00.394Z</time>
      </trkpt>
      <trkpt lat="42.66751" lon="23.61926">
        <ele>592.525411</ele>
        <time>2022-03-09T10:01:03.397Z</time>
      </trkpt>
      <trkpt lat="42.66751" lon="23.61912">
        <ele>592.764959</ele>
        <time>2022-03-09T10:01:06.446Z</time>
      </trkpt>
      <trkpt lat="42.66751" lon="23.61897">
        <ele>593.00131</ele>
        <time>2022-03-09T10:01:09.413Z</time>
      </trkpt>
      <trkpt lat="42.66751" lon="23.61881">
        <ele>593.2687</ele>
        <time>2022-03-09T10:01:12.412Z</time>
      </trkpt>
      <trkpt lat="42.66752" lon="23.61864">
        <ele>593.294553</ele>
        <time>2022-03-09T10:01:15.406Z</time>
      </trkpt>
      <trkpt lat="42.66752" lon="23.61849">
        <ele>593.207209</ele>
        <time>2022-03-09T10:01:18.422Z</time>
      </trkpt>
      <trkpt lat="42.66752" lon="23.61835">
        <ele>593.12606</ele>
        <time>2022-03-09T10:01:21.406Z</time>
      </trkpt>
      <trkpt lat="42.66752" lon="23.6182">
        <ele>593.046038</ele>
        <time>2022-03-09T10:01:24.408Z</time>
      </trkpt>
      <trkpt lat="42.66752" lon="23.61805">
        <ele>592.95695</ele>
        <time>2022-03-09T10:01:27.393Z</time>
      </trkpt>
      <trkpt lat="42.66754" lon="23.61788">
        <ele>592.860637</ele>
        <time>2022-03-09T10:01:30.397Z</time>
      </trkpt>
      <trkpt lat="42.66754" lon="23.6177">
        <ele>592.761975</ele>
        <time>2022-03-09T10:01:33.414Z</time>
      </trkpt>
      <trkpt lat="42.66754" lon="23.61754">
        <ele>592.672859</ele>
        <time>2022-03-09T10:01:36.405Z</time>
      </trkpt>
      <trkpt lat="42.66754" lon="23.61738">
        <ele>592.579851</ele>
        <time>2022-03-09T10:01:39.434Z</time>
      </trkpt>
      <trkpt lat="42.66754" lon="23.61721">
        <ele>592.486305</ele>
        <time>2022-03-09T10:01:42.413Z</time>
      </trkpt>
      <trkpt lat="42.66754" lon="23.61705">
        <ele>592.395567</ele>
        <time>2022-03-09T10:01:45.394Z</time>
      </trkpt>
      <trkpt lat="42.66755" lon="23.6169">
        <ele>592.308939</ele>
        <time>2022-03-09T10:01:48.433Z</time>
      </trkpt>
      <trkpt lat="42.66756" lon="23.61674">
        <ele>592.220386</ele>
        <time>2022-03-09T10:01:51.435Z</time>
      </trkpt>
      <trkpt lat="42.66756" lon="23.61658">
        <ele>592.130172</ele>
        <time>2022-03-09T10:01:54.402Z</time>
      </trkpt>
      <trkpt lat="42.66756" lon="23.61642">
        <ele>592.041648</ele>
        <time>2022-03-09T10:01:57.403Z</time>
      </trkpt>
      <trkpt lat="42.66755" lon="23.61627">
        <ele>591.970634</ele>
        <time>2022-03-09T10:02:00.408Z</time>
      </trkpt>
      <trkpt lat="42.66756" lon="23.61613">
        <ele>591.944613</ele>
        <time>2022-03-09T10:02:03.391Z</time>
      </trkpt>
      <trkpt lat="42.66756" lon="23.61597">
        <ele>591.914778</ele>
        <time>2022-03-09T10:02:06.399Z</time>
      </trkpt>
      <trkpt lat="42.66757" lon="23.61579">
        <ele>591.883295</ele>
        <time>2022-03-09T10:02:09.419Z</time>
      </trkpt>
      <trkpt lat="42.66757" lon="23.61563">
        <ele>591.854026</ele>
        <time>2022-03-09T10:02:12.436Z</time>
      </trkpt>
      <trkpt lat="42.66757" lon="23.61547">
        <ele>591.824573</ele>
        <time>2022-03-09T10:02:15.405Z</time>
      </trkpt>
      <trkpt lat="42.66757" lon="23.6153">
        <ele>591.795304</ele>
        <time>2022-03-09T10:02:18.402Z</time>
      </trkpt>
      <trkpt lat="42.66756" lon="23.61516">
        <ele>591.769066</ele>
        <time>2022-03-09T10:02:21.416Z</time>
      </trkpt>
      <trkpt lat="42.66756" lon="23.61502">
        <ele>591.743771</ele>
        <time>2022-03-09T10:02:24.399Z</time>
      </trkpt>
      <trkpt lat="42.66756" lon="23.61486">
        <ele>591.714477</ele>
        <time>2022-03-09T10:02:27.400Z</time>
      </trkpt>
      <trkpt lat="42.66758" lon="23.61469">
        <ele>591.684261</ele>
        <time>2022-03-09T10:02:30.421Z</time>
      </trkpt>
      <trkpt lat="42.66758" lon="23.61455">
        <ele>591.658963</ele>
        <time>2022-03-09T10:02:33.399Z</time>
      </trkpt>
      <trkpt lat="42.66758" lon="23.61441">
        <ele>591.632584</ele>
        <time>2022-03-09T10:02:36.394Z</time>
      </trkpt>
      <trkpt lat="42.66759" lon="23.61424">
        <ele>591.603099</ele>
        <time>2022-03-09T10:02:39.399Z</time>
      </trkpt>
      <trkpt lat="42.66759" lon="23.61407">
        <ele>591.572381</ele>
        <time>2022-03-09T10:02:42.401Z</time>
      </trkpt>
      <trkpt lat="42.66759" lon="23.61392">
        <ele>591.544915</ele>
        <time>2022-03-09T10:02:45.387Z</time>
      </trkpt>
      <trkpt lat="42.6676" lon="23.61378">
        <ele>591.57218</ele>
        <time>2022-03-09T10:02:48.413Z</time>
      </trkpt>
      <trkpt lat="42.66759" lon="23.61362">
        <ele>591.638311</ele>
        <time>2022-03-09T10:02:51.447Z</time>
      </trkpt>
      <trkpt lat="42.66759" lon="23.61347">
        <ele>591.701494</ele>
        <time>2022-03-09T10:02:54.484Z</time>
      </trkpt>
      <trkpt lat="42.66759" lon="23.61331">
        <ele>591.765133</ele>
        <time>2022-03-09T10:02:57.434Z</time>
      </trkpt>
      <trkpt lat="42.66758" lon="23.61316">
        <ele>591.829173</ele>
        <time>2022-03-09T10:03:00.416Z</time>
      </trkpt>
      <trkpt lat="42.66759" lon="23.61301">
        <ele>591.894567</ele>
        <time>2022-03-09T10:03:03.390Z</time>
      </trkpt>
      <trkpt lat="42.66759" lon="23.61286">
        <ele>591.956934</ele>
        <time>2022-03-09T10:03:06.413Z</time>
      </trkpt>
      <trkpt lat="42.6676" lon="23.6127">
        <ele>592.022228</ele>
        <time>2022-03-09T10:03:09.393Z</time>
      </trkpt>
      <trkpt lat="42.66761" lon="23.61254">
        <ele>592.090716</ele>
        <time>2022-03-09T10:03:12.386Z</time>
      </trkpt>
      <trkpt lat="42.66761" lon="23.61237">
        <ele>592.159775</ele>
        <time>2022-03-09T10:03:15.475Z</time>
      </trkpt>
      <trkpt lat="42.66761" lon="23.61223">
        <ele>592.21961</ele>
        <time>2022-03-09T10:03:18.409Z</time>
      </trkpt>
      <trkpt lat="42.66761" lon="23.61209">
        <ele>592.279905</ele>
        <time>2022-03-09T10:03:21.401Z</time>
      </trkpt>
      <trkpt lat="42.66761" lon="23.61192">
        <ele>592.3502</ele>
        <time>2022-03-09T10:03:24.395Z</time>
      </trkpt>
      <trkpt lat="42.66761" lon="23.61176">
        <ele>592.415054</ele>
        <time>2022-03-09T10:03:27.409Z</time>
      </trkpt>
      <trkpt lat="42.66761" lon="23.6116">
        <ele>592.482428</ele>
        <time>2022-03-09T10:03:30.397Z</time>
      </trkpt>
      <trkpt lat="42.66762" lon="23.61144">
        <ele>592.549879</ele>
        <time>2022-03-09T10:03:33.450Z</time>
      </trkpt>
      <trkpt lat="42.66762" lon="23.61129">
        <ele>592.944233</ele>
        <time>2022-03-09T10:03:36.441Z</time>
      </trkpt>
      <trkpt lat="42.66761" lon="23.61115">
        <ele>593.357773</ele>
        <time>2022-03-09T10:03:39.406Z</time>
      </trkpt>
      <trkpt lat="42.66761" lon="23.61101">
        <ele>593.775556</ele>
        <time>2022-03-09T10:03:42.405Z</time>
      </trkpt>
      <trkpt lat="42.6676" lon="23.61087">
        <ele>594.194803</ele>
        <time>2022-03-09T10:03:45.414Z</time>
      </trkpt>
      <trkpt lat="42.6676" lon="23.61073">
        <ele>594.605372</ele>
        <time>2022-03-09T10:03:48.404Z</time>
      </trkpt>
      <trkpt lat="42.66759" lon="23.6106">
        <ele>595.00835</ele>
        <time>2022-03-09T10:03:51.413Z</time>
      </trkpt>
      <trkpt lat="42.66758" lon="23.61046">
        <ele>595.423059</ele>
        <time>2022-03-09T10:03:54.396Z</time>
      </trkpt>
      <trkpt lat="42.66758" lon="23.61031">
        <ele>595.85429</ele>
        <time>2022-03-09T10:03:57.412Z</time>
      </trkpt>
      <trkpt lat="42.66758" lon="23.61014">
        <ele>596.381039</ele>
        <time>2022-03-09T10:04:00.406Z</time>
      </trkpt>
      <trkpt lat="42.66759" lon="23.61001">
        <ele>596.747501</ele>
        <time>2022-03-09T10:04:02.402Z</time>
      </trkpt>
      <trkpt lat="42.6676" lon="23.60984">
        <ele>597.26372</ele>
        <time>2022-03-09T10:04:05.402Z</time>
      </trkpt>
      <trkpt lat="42.66761" lon="23.60968">
        <ele>597.746403</ele>
        <time>2022-03-09T10:04:08.405Z</time>
      </trkpt>
      <trkpt lat="42.66762" lon="23.60953">
        <ele>598.202125</ele>
        <time>2022-03-09T10:04:11.397Z</time>
      </trkpt>
      <trkpt lat="42.66761" lon="23.60939">
        <ele>598.618498</ele>
        <time>2022-03-09T10:04:14.397Z</time>
      </trkpt>
      <trkpt lat="42.66761" lon="23.60923">
        <ele>599.070385</ele>
        <time>2022-03-09T10:04:17.402Z</time>
      </trkpt>
      <trkpt lat="42.66761" lon="23.60909">
        <ele>599.510383</ele>
        <time>2022-03-09T10:04:20.400Z</time>
      </trkpt>
      <trkpt lat="42.66762" lon="23.60892">
        <ele>599.835811</ele>
        <time>2022-03-09T10:04:23.395Z</time>
      </trkpt>
      <trkpt lat="42.66761" lon="23.60877">
        <ele>599.851583</ele>
        <time>2022-03-09T10:04:26.419Z</time>
      </trkpt>
      <trkpt lat="42.66762" lon="23.60859">
        <ele>599.868657</ele>
        <time>2022-03-09T10:04:29.405Z</time>
      </trkpt>
      <trkpt lat="42.66763" lon="23.60842">
        <ele>599.886237</ele>
        <time>2022-03-09T10:04:32.448Z</time>
      </trkpt>
      <trkpt lat="42.66762" lon="23.60826">
        <ele>599.902388</ele>
        <time>2022-03-09T10:04:35.409Z</time>
      </trkpt>
      <trkpt lat="42.66762" lon="23.60808">
        <ele>599.919928</ele>
        <time>2022-03-09T10:04:38.411Z</time>
      </trkpt>
      <trkpt lat="42.66763" lon="23.60793">
        <ele>599.934825</ele>
        <time>2022-03-09T10:04:41.403Z</time>
      </trkpt>
      <trkpt lat="42.66764" lon="23.60777">
        <ele>599.950783</ele>
        <time>2022-03-09T10:04:44.409Z</time>
      </trkpt>
      <trkpt lat="42.66763" lon="23.60762">
        <ele>599.965436</ele>
        <time>2022-03-09T10:04:47.426Z</time>
      </trkpt>
      <trkpt lat="42.66764" lon="23.60748">
        <ele>599.980246</ele>
        <time>2022-03-09T10:04:50.390Z</time>
      </trkpt>
      <trkpt lat="42.66764" lon="23.60735">
        <ele>599.992912</ele>
        <time>2022-03-09T10:04:53.412Z</time>
      </trkpt>
      <trkpt lat="42.66765" lon="23.60721">
        <ele>600.007078</ele>
        <time>2022-03-09T10:04:56.404Z</time>
      </trkpt>
      <trkpt lat="42.66764" lon="23.60706">
        <ele>600.022254</ele>
        <time>2022-03-09T10:04:59.394Z</time>
      </trkpt>
      <trkpt lat="42.66763" lon="23.60691">
        <ele>600.036734</ele>
        <time>2022-03-09T10:05:02.426Z</time>
      </trkpt>
      <trkpt lat="42.66764" lon="23.60677">
        <ele>600.051192</ele>
        <time>2022-03-09T10:05:05.424Z</time>
      </trkpt>
      <trkpt lat="42.66765" lon="23.6066">
        <ele>600.067347</ele>
        <time>2022-03-09T10:05:09.397Z</time>
      </trkpt>
      <trkpt lat="42.66763" lon="23.60647">
        <ele>600.249565</ele>
        <time>2022-03-09T10:05:12.410Z</time>
      </trkpt>
      <trkpt lat="42.66763" lon="23.60631">
        <ele>600.621997</ele>
        <time>2022-03-09T10:05:15.406Z</time>
      </trkpt>
      <trkpt lat="42.66764" lon="23.60614">
        <ele>601.038152</ele>
        <time>2022-03-09T10:05:18.398Z</time>
      </trkpt>
      <trkpt lat="42.66764" lon="23.60598">
        <ele>601.434753</ele>
        <time>2022-03-09T10:05:21.404Z</time>
      </trkpt>
      <trkpt lat="42.66764" lon="23.60581">
        <ele>601.839265</ele>
        <time>2022-03-09T10:05:24.412Z</time>
      </trkpt>
      <trkpt lat="42.66765" lon="23.60564">
        <ele>602.246191</ele>
        <time>2022-03-09T10:05:27.388Z</time>
      </trkpt>
      <trkpt lat="42.66767" lon="23.60548">
        <ele>602.645848</ele>
        <time>2022-03-09T10:05:30.416Z</time>
      </trkpt>
      <trkpt lat="42.66768" lon="23.60532">
        <ele>603.034463</ele>
        <time>2022-03-09T10:05:33.408Z</time>
      </trkpt>
      <trkpt lat="42.66768" lon="23.60517">
        <ele>603.382946</ele>
        <time>2022-03-09T10:05:36.392Z</time>
      </trkpt>
      <trkpt lat="42.66768" lon="23.60503">
        <ele>603.738497</ele>
        <time>2022-03-09T10:05:39.427Z</time>
      </trkpt>
      <trkpt lat="42.66771" lon="23.60489">
        <ele>604.087026</ele>
        <time>2022-03-09T10:05:42.399Z</time>
      </trkpt>
      <trkpt lat="42.66777" lon="23.60476">
        <ele>604.451418</ele>
        <time>2022-03-09T10:05:45.454Z</time>
      </trkpt>
      <trkpt lat="42.66783" lon="23.60465">
        <ele>604.780724</ele>
        <time>2022-03-09T10:05:48.448Z</time>
      </trkpt>
      <trkpt lat="42.6679" lon="23.60455">
        <ele>605.105311</ele>
        <time>2022-03-09T10:05:51.419Z</time>
      </trkpt>
      <trkpt lat="42.66798" lon="23.6045">
        <ele>605.406879</ele>
        <time>2022-03-09T10:05:54.415Z</time>
      </trkpt>
      <trkpt lat="42.66808" lon="23.6045">
        <ele>605.739196</ele>
        <time>2022-03-09T10:05:57.387Z</time>
      </trkpt>
      <trkpt lat="42.6682" lon="23.6045">
        <ele>605.986904</ele>
        <time>2022-03-09T10:06:01.505Z</time>
      </trkpt>
      <trkpt lat="42.6683" lon="23.60448">
        <ele>605.979682</ele>
        <time>2022-03-09T10:06:05.392Z</time>
      </trkpt>
      <trkpt lat="42.66841" lon="23.60445">
        <ele>605.972469</ele>
        <time>2022-03-09T10:06:09.434Z</time>
      </trkpt>
      <trkpt lat="42.66851" lon="23.6044">
        <ele>605.964794</ele>
        <time>2022-03-09T10:06:13.396Z</time>
      </trkpt>
      <trkpt lat="42.66864" lon="23.6044">
        <ele>605.956612</ele>
        <time>2022-03-09T10:06:17.391Z</time>
      </trkpt>
      <trkpt lat="42.66874" lon="23.60438">
        <ele>605.949671</ele>
        <time>2022-03-09T10:06:20.404Z</time>
      </trkpt>
      <trkpt lat="42.66883" lon="23.60437">
        <ele>605.943251</ele>
        <time>2022-03-09T10:06:23.422Z</time>
      </trkpt>
      <trkpt lat="42.66894" lon="23.60434">
        <ele>605.935872</ele>
        <time>2022-03-09T10:06:26.417Z</time>
      </trkpt>
      <trkpt lat="42.66904" lon="23.60435">
        <ele>605.928844</ele>
        <time>2022-03-09T10:06:29.432Z</time>
      </trkpt>
      <trkpt lat="42.66915" lon="23.60435">
        <ele>605.921617</ele>
        <time>2022-03-09T10:06:32.415Z</time>
      </trkpt>
      <trkpt lat="42.66925" lon="23.60434">
        <ele>605.914725</ele>
        <time>2022-03-09T10:06:35.415Z</time>
      </trkpt>
      <trkpt lat="42.66936" lon="23.60433">
        <ele>605.907174</ele>
        <time>2022-03-09T10:06:38.472Z</time>
      </trkpt>
      <trkpt lat="42.66944" lon="23.60427">
        <ele>605.901063</ele>
        <time>2022-03-09T10:06:41.420Z</time>
      </trkpt>
      <trkpt lat="42.66951" lon="23.60417">
        <ele>605.894356</ele>
        <time>2022-03-09T10:06:44.387Z</time>
      </trkpt>
      <trkpt lat="42.6696" lon="23.60407">
        <ele>605.886832</ele>
        <time>2022-03-09T10:06:47.395Z</time>
      </trkpt>
      <trkpt lat="42.66965" lon="23.60396">
        <ele>605.880259</ele>
        <time>2022-03-09T10:06:50.405Z</time>
      </trkpt>
      <trkpt lat="42.6697" lon="23.60384">
        <ele>605.873255</ele>
        <time>2022-03-09T10:06:53.390Z</time>
      </trkpt>
      <trkpt lat="42.66976" lon="23.60371">
        <ele>605.690689</ele>
        <time>2022-03-09T10:06:56.447Z</time>
      </trkpt>
      <trkpt lat="42.66981" lon="23.6036">
        <ele>605.05553</ele>
        <time>2022-03-09T10:06:59.406Z</time>
      </trkpt>
      <trkpt lat="42.66986" lon="23.60348">
        <ele>604.408603</ele>
        <time>2022-03-09T10:07:02.404Z</time>
      </trkpt>
      <trkpt lat="42.66991" lon="23.60336">
        <ele>603.791036</ele>
        <time>2022-03-09T10:07:05.393Z</time>
      </trkpt>
      <trkpt lat="42.66996" lon="23.60322">
        <ele>603.050189</ele>
        <time>2022-03-09T10:07:08.433Z</time>
      </trkpt>
      <trkpt lat="42.67" lon="23.60305">
        <ele>602.230751</ele>
        <time>2022-03-09T10:07:11.396Z</time>
      </trkpt>
      <trkpt lat="42.67001" lon="23.60288">
        <ele>601.452426</ele>
        <time>2022-03-09T10:07:14.405Z</time>
      </trkpt>
      <trkpt lat="42.67002" lon="23.60271">
        <ele>600.679435</ele>
        <time>2022-03-09T10:07:17.388Z</time>
      </trkpt>
      <trkpt lat="42.67001" lon="23.60256">
        <ele>599.994289</ele>
        <time>2022-03-09T10:07:20.404Z</time>
      </trkpt>
      <trkpt lat="42.67001" lon="23.60242">
        <ele>599.341717</ele>
        <time>2022-03-09T10:07:23.416Z</time>
      </trkpt>
      <trkpt lat="42.67" lon="23.60229">
        <ele>598.706394</ele>
        <time>2022-03-09T10:07:27.388Z</time>
      </trkpt>
      <trkpt lat="42.67" lon="23.60216">
        <ele>598.104456</ele>
        <time>2022-03-09T10:07:30.405Z</time>
      </trkpt>
      <trkpt lat="42.67001" lon="23.60203">
        <ele>597.506479</ele>
        <time>2022-03-09T10:07:33.393Z</time>
      </trkpt>
      <trkpt lat="42.67001" lon="23.60189">
        <ele>596.886435</ele>
        <time>2022-03-09T10:07:36.398Z</time>
      </trkpt>
      <trkpt lat="42.67" lon="23.60177">
        <ele>596.295544</ele>
        <time>2022-03-09T10:07:39.404Z</time>
      </trkpt>
      <trkpt lat="42.67001" lon="23.60165">
        <ele>595.730185</ele>
        <time>2022-03-09T10:07:42.395Z</time>
      </trkpt>
      <trkpt lat="42.67009" lon="23.60151">
        <ele>594.954773</ele>
        <time>2022-03-09T10:07:46.439Z</time>
      </trkpt>
      <trkpt lat="42.67014" lon="23.60137">
        <ele>594.809324</ele>
        <time>2022-03-09T10:07:49.414Z</time>
      </trkpt>
      <trkpt lat="42.6702" lon="23.60123">
        <ele>595.40325</ele>
        <time>2022-03-09T10:07:52.440Z</time>
      </trkpt>
      <trkpt lat="42.67028" lon="23.60108">
        <ele>596.058501</ele>
        <time>2022-03-09T10:07:55.399Z</time>
      </trkpt>
      <trkpt lat="42.67036" lon="23.60095">
        <ele>596.700551</ele>
        <time>2022-03-09T10:07:58.416Z</time>
      </trkpt>
      <trkpt lat="42.67043" lon="23.60082">
        <ele>597.276755</ele>
        <time>2022-03-09T10:08:01.417Z</time>
      </trkpt>
      <trkpt lat="42.67048" lon="23.60069">
        <ele>597.811687</ele>
        <time>2022-03-09T10:08:04.407Z</time>
      </trkpt>
      <trkpt lat="42.67053" lon="23.60055">
        <ele>598.384445</ele>
        <time>2022-03-09T10:08:07.479Z</time>
      </trkpt>
      <trkpt lat="42.67058" lon="23.60043">
        <ele>598.881256</ele>
        <time>2022-03-09T10:08:10.404Z</time>
      </trkpt>
      <trkpt lat="42.67062" lon="23.6003">
        <ele>599.393439</ele>
        <time>2022-03-09T10:08:13.401Z</time>
      </trkpt>
      <trkpt lat="42.67065" lon="23.60017">
        <ele>599.870493</ele>
        <time>2022-03-09T10:08:16.418Z</time>
      </trkpt>
      <trkpt lat="42.67069" lon="23.60005">
        <ele>600.36643</ele>
        <time>2022-03-09T10:08:19.401Z</time>
      </trkpt>
      <trkpt lat="42.67073" lon="23.59992">
        <ele>600.866282</ele>
        <time>2022-03-09T10:08:22.446Z</time>
      </trkpt>
      <trkpt lat="42.67079" lon="23.59978">
        <ele>601.441696</ele>
        <time>2022-03-09T10:08:25.405Z</time>
      </trkpt>
      <trkpt lat="42.67084" lon="23.59966">
        <ele>601.954625</ele>
        <time>2022-03-09T10:08:28.405Z</time>
      </trkpt>
      <trkpt lat="42.67088" lon="23.59954">
        <ele>602.435994</ele>
        <time>2022-03-09T10:08:31.406Z</time>
      </trkpt>
      <trkpt lat="42.67093" lon="23.59941">
        <ele>602.958659</ele>
        <time>2022-03-09T10:08:35.383Z</time>
      </trkpt>
      <trkpt lat="42.67097" lon="23.59929">
        <ele>603.421722</ele>
        <time>2022-03-09T10:08:39.404Z</time>
      </trkpt>
      <trkpt lat="42.67105" lon="23.5992">
        <ele>603.467356</ele>
        <time>2022-03-09T10:08:42.392Z</time>
      </trkpt>
      <trkpt lat="42.67113" lon="23.59909">
        <ele>603.506963</ele>
        <time>2022-03-09T10:08:45.457Z</time>
      </trkpt>
      <trkpt lat="42.67116" lon="23.59894">
        <ele>603.544015</ele>
        <time>2022-03-09T10:08:49.410Z</time>
      </trkpt>
      <trkpt lat="42.67119" lon="23.59882">
        <ele>603.57497</ele>
        <time>2022-03-09T10:08:52.406Z</time>
      </trkpt>
      <trkpt lat="42.67122" lon="23.5987">
        <ele>603.606268</ele>
        <time>2022-03-09T10:08:55.399Z</time>
      </trkpt>
      <trkpt lat="42.67125" lon="23.59857">
        <ele>603.640451</ele>
        <time>2022-03-09T10:08:58.473Z</time>
      </trkpt>
      <trkpt lat="42.67131" lon="23.59843">
        <ele>603.680162</ele>
        <time>2022-03-09T10:09:01.426Z</time>
      </trkpt>
      <trkpt lat="42.67135" lon="23.59829">
        <ele>603.717949</ele>
        <time>2022-03-09T10:09:04.408Z</time>
      </trkpt>
      <trkpt lat="42.67141" lon="23.59815">
        <ele>603.757166</ele>
        <time>2022-03-09T10:09:07.434Z</time>
      </trkpt>
      <trkpt lat="42.67148" lon="23.59801">
        <ele>603.797653</ele>
        <time>2022-03-09T10:09:10.387Z</time>
      </trkpt>
      <trkpt lat="42.67152" lon="23.59787">
        <ele>603.833222</ele>
        <time>2022-03-09T10:09:13.429Z</time>
      </trkpt>
      <trkpt lat="42.67156" lon="23.59775">
        <ele>603.868648</ele>
        <time>2022-03-09T10:09:16.387Z</time>
      </trkpt>
      <trkpt lat="42.67163" lon="23.59762">
        <ele>603.905735</ele>
        <time>2022-03-09T10:09:19.431Z</time>
      </trkpt>
      <trkpt lat="42.67168" lon="23.59747">
        <ele>603.946831</ele>
        <time>2022-03-09T10:09:22.411Z</time>
      </trkpt>
      <trkpt lat="42.67172" lon="23.59734">
        <ele>603.982522</ele>
        <time>2022-03-09T10:09:25.430Z</time>
      </trkpt>
      <trkpt lat="42.67177" lon="23.59721">
        <ele>604.016786</ele>
        <time>2022-03-09T10:09:28.398Z</time>
      </trkpt>
      <trkpt lat="42.67183" lon="23.59708">
        <ele>603.816806</ele>
        <time>2022-03-09T10:09:31.446Z</time>
      </trkpt>
      <trkpt lat="42.67188" lon="23.59695">
        <ele>603.459169</ele>
        <time>2022-03-09T10:09:34.400Z</time>
      </trkpt>
      <trkpt lat="42.67194" lon="23.59681">
        <ele>603.053305</ele>
        <time>2022-03-09T10:09:37.421Z</time>
      </trkpt>
      <trkpt lat="42.672" lon="23.59666">
        <ele>602.634708</ele>
        <time>2022-03-09T10:09:40.406Z</time>
      </trkpt>
      <trkpt lat="42.67207" lon="23.59652">
        <ele>602.21648</ele>
        <time>2022-03-09T10:09:43.415Z</time>
      </trkpt>
      <trkpt lat="42.67211" lon="23.59639">
        <ele>601.849768</ele>
        <time>2022-03-09T10:09:46.397Z</time>
      </trkpt>
      <trkpt lat="42.67217" lon="23.59624">
        <ele>601.455606</ele>
        <time>2022-03-09T10:09:49.405Z</time>
      </trkpt>
      <trkpt lat="42.67221" lon="23.59612">
        <ele>601.11625</ele>
        <time>2022-03-09T10:09:52.417Z</time>
      </trkpt>
      <trkpt lat="42.67226" lon="23.59598">
        <ele>600.731016</ele>
        <time>2022-03-09T10:09:55.416Z</time>
      </trkpt>
      <trkpt lat="42.6723" lon="23.59586">
        <ele>600.403498</ele>
        <time>2022-03-09T10:09:58.393Z</time>
      </trkpt>
      <trkpt lat="42.67235" lon="23.59573">
        <ele>600.036621</ele>
        <time>2022-03-09T10:10:01.429Z</time>
      </trkpt>
      <trkpt lat="42.67239" lon="23.59558">
        <ele>599.643784</ele>
        <time>2022-03-09T10:10:04.392Z</time>
      </trkpt>
      <trkpt lat="42.67245" lon="23.59545">
        <ele>599.276833</ele>
        <time>2022-03-09T10:10:07.397Z</time>
      </trkpt>
      <trkpt lat="42.6725" lon="23.59533">
        <ele>598.933286</ele>
        <time>2022-03-09T10:10:10.436Z</time>
      </trkpt>
      <trkpt lat="42.67255" lon="23.5952">
        <ele>598.568023</ele>
        <time>2022-03-09T10:10:13.394Z</time>
      </trkpt>
      <trkpt lat="42.67261" lon="23.59508">
        <ele>598.199745</ele>
        <time>2022-03-09T10:10:16.396Z</time>
      </trkpt>
      <trkpt lat="42.67267" lon="23.59493">
        <ele>597.897586</ele>
        <time>2022-03-09T10:10:19.396Z</time>
      </trkpt>
      <trkpt lat="42.67273" lon="23.59477">
        <ele>597.724034</ele>
        <time>2022-03-09T10:10:22.424Z</time>
      </trkpt>
      <trkpt lat="42.67278" lon="23.59462">
        <ele>597.552563</ele>
        <time>2022-03-09T10:10:25.410Z</time>
      </trkpt>
      <trkpt lat="42.67282" lon="23.59451">
        <ele>597.42988</ele>
        <time>2022-03-09T10:10:27.450Z</time>
      </trkpt>
      <trkpt lat="42.67288" lon="23.59436">
        <ele>597.259913</ele>
        <time>2022-03-09T10:10:30.427Z</time>
      </trkpt>
      <trkpt lat="42.67295" lon="23.59422">
        <ele>597.09617</ele>
        <time>2022-03-09T10:10:33.403Z</time>
      </trkpt>
      <trkpt lat="42.673" lon="23.59409">
        <ele>596.94259</ele>
        <time>2022-03-09T10:10:36.405Z</time>
      </trkpt>
      <trkpt lat="42.67306" lon="23.59394">
        <ele>596.774045</ele>
        <time>2022-03-09T10:10:39.457Z</time>
      </trkpt>
      <trkpt lat="42.67312" lon="23.59381">
        <ele>596.625645</ele>
        <time>2022-03-09T10:10:42.415Z</time>
      </trkpt>
      <trkpt lat="42.67317" lon="23.59368">
        <ele>596.4796</ele>
        <time>2022-03-09T10:10:45.393Z</time>
      </trkpt>
      <trkpt lat="42.67322" lon="23.59355">
        <ele>596.32724</ele>
        <time>2022-03-09T10:10:48.497Z</time>
      </trkpt>
      <trkpt lat="42.67328" lon="23.5934">
        <ele>596.156925</ele>
        <time>2022-03-09T10:10:51.402Z</time>
      </trkpt>
      <trkpt lat="42.67334" lon="23.59326">
        <ele>596.001782</ele>
        <time>2022-03-09T10:10:54.387Z</time>
      </trkpt>
      <trkpt lat="42.67339" lon="23.59312">
        <ele>595.841687</ele>
        <time>2022-03-09T10:10:57.414Z</time>
      </trkpt>
      <trkpt lat="42.67345" lon="23.59298">
        <ele>595.676411</ele>
        <time>2022-03-09T10:11:00.407Z</time>
      </trkpt>
      <trkpt lat="42.67351" lon="23.59285">
        <ele>595.50495</ele>
        <time>2022-03-09T10:11:03.383Z</time>
      </trkpt>
      <trkpt lat="42.67357" lon="23.59271">
        <ele>595.040654</ele>
        <time>2022-03-09T10:11:06.401Z</time>
      </trkpt>
      <trkpt lat="42.67363" lon="23.59257">
        <ele>594.565918</ele>
        <time>2022-03-09T10:11:09.398Z</time>
      </trkpt>
      <trkpt lat="42.67368" lon="23.59243">
        <ele>594.110957</ele>
        <time>2022-03-09T10:11:12.414Z</time>
      </trkpt>
      <trkpt lat="42.67373" lon="23.59229">
        <ele>593.65517</ele>
        <time>2022-03-09T10:11:15.396Z</time>
      </trkpt>
      <trkpt lat="42.67378" lon="23.59215">
        <ele>593.203568</ele>
        <time>2022-03-09T10:11:18.412Z</time>
      </trkpt>
      <trkpt lat="42.67385" lon="23.59202">
        <ele>592.742309</ele>
        <time>2022-03-09T10:11:21.390Z</time>
      </trkpt>
      <trkpt lat="42.67391" lon="23.59188">
        <ele>592.267575</ele>
        <time>2022-03-09T10:11:24.420Z</time>
      </trkpt>
      <trkpt lat="42.67396" lon="23.59172">
        <ele>591.76115</ele>
        <time>2022-03-09T10:11:27.415Z</time>
      </trkpt>
      <trkpt lat="42.67402" lon="23.59159">
        <ele>591.306966</ele>
        <time>2022-03-09T10:11:30.389Z</time>
      </trkpt>
      <trkpt lat="42.67407" lon="23.59144">
        <ele>590.835011</ele>
        <time>2022-03-09T10:11:33.401Z</time>
      </trkpt>
      <trkpt lat="42.67413" lon="23.5913">
        <ele>590.34389</ele>
        <time>2022-03-09T10:11:36.408Z</time>
      </trkpt>
      <trkpt lat="42.67419" lon="23.59116">
        <ele>589.889173</ele>
        <time>2022-03-09T10:11:39.397Z</time>
      </trkpt>
      <trkpt lat="42.67424" lon="23.59103">
        <ele>589.458089</ele>
        <time>2022-03-09T10:11:42.400Z</time>
      </trkpt>
      <trkpt lat="42.67429" lon="23.59092">
        <ele>589.069543</ele>
        <time>2022-03-09T10:11:45.401Z</time>
      </trkpt>
      <trkpt lat="42.67434" lon="23.59078">
        <ele>588.629157</ele>
        <time>2022-03-09T10:11:48.407Z</time>
      </trkpt>
      <trkpt lat="42.67439" lon="23.59064">
        <ele>588.448397</ele>
        <time>2022-03-09T10:11:51.410Z</time>
      </trkpt>
      <trkpt lat="42.67445" lon="23.59049">
        <ele>588.557591</ele>
        <time>2022-03-09T10:11:54.405Z</time>
      </trkpt>
      <trkpt lat="42.6745" lon="23.59036">
        <ele>588.657566</ele>
        <time>2022-03-09T10:11:57.420Z</time>
      </trkpt>
      <trkpt lat="42.67455" lon="23.59023">
        <ele>588.750441</ele>
        <time>2022-03-09T10:12:00.416Z</time>
      </trkpt>
      <trkpt lat="42.67461" lon="23.59011">
        <ele>588.844003</ele>
        <time>2022-03-09T10:12:03.420Z</time>
      </trkpt>
      <trkpt lat="42.67465" lon="23.58997">
        <ele>588.939752</ele>
        <time>2022-03-09T10:12:06.417Z</time>
      </trkpt>
      <trkpt lat="42.6747" lon="23.58984">
        <ele>589.036735</ele>
        <time>2022-03-09T10:12:09.408Z</time>
      </trkpt>
      <trkpt lat="42.67475" lon="23.58971">
        <ele>589.131629</ele>
        <time>2022-03-09T10:12:12.408Z</time>
      </trkpt>
      <trkpt lat="42.67479" lon="23.58958">
        <ele>589.226201</ele>
        <time>2022-03-09T10:12:15.450Z</time>
      </trkpt>
      <trkpt lat="42.67483" lon="23.58944">
        <ele>589.323767</ele>
        <time>2022-03-09T10:12:18.412Z</time>
      </trkpt>
      <trkpt lat="42.67489" lon="23.5893">
        <ele>589.425365</ele>
        <time>2022-03-09T10:12:21.459Z</time>
      </trkpt>
      <trkpt lat="42.67494" lon="23.58917">
        <ele>589.525652</ele>
        <time>2022-03-09T10:12:24.426Z</time>
      </trkpt>
      <trkpt lat="42.675" lon="23.58904">
        <ele>589.624367</ele>
        <time>2022-03-09T10:12:27.413Z</time>
      </trkpt>
      <trkpt lat="42.67505" lon="23.5889">
        <ele>589.723422</ele>
        <time>2022-03-09T10:12:30.401Z</time>
      </trkpt>
      <trkpt lat="42.67511" lon="23.58875">
        <ele>589.836231</ele>
        <time>2022-03-09T10:12:33.407Z</time>
      </trkpt>
      <trkpt lat="42.67517" lon="23.5886">
        <ele>589.944911</ele>
        <time>2022-03-09T10:12:36.414Z</time>
      </trkpt>
      <trkpt lat="42.67522" lon="23.58845">
        <ele>589.831995</ele>
        <time>2022-03-09T10:12:39.403Z</time>
      </trkpt>
      <trkpt lat="42.67528" lon="23.58832">
        <ele>589.576324</ele>
        <time>2022-03-09T10:12:42.408Z</time>
      </trkpt>
      <trkpt lat="42.67532" lon="23.58818">
        <ele>589.329738</ele>
        <time>2022-03-09T10:12:45.438Z</time>
      </trkpt>
      <trkpt lat="42.67538" lon="23.58805">
        <ele>589.07973</ele>
        <time>2022-03-09T10:12:48.410Z</time>
      </trkpt>
      <trkpt lat="42.67543" lon="23.58791">
        <ele>588.82643</ele>
        <time>2022-03-09T10:12:51.419Z</time>
      </trkpt>
      <trkpt lat="42.67548" lon="23.58779">
        <ele>588.58726</ele>
        <time>2022-03-09T10:12:54.410Z</time>
      </trkpt>
      <trkpt lat="42.67553" lon="23.58765">
        <ele>588.334318</ele>
        <time>2022-03-09T10:12:57.405Z</time>
      </trkpt>
      <trkpt lat="42.67559" lon="23.5875">
        <ele>588.06348</ele>
        <time>2022-03-09T10:13:00.454Z</time>
      </trkpt>
      <trkpt lat="42.67565" lon="23.58736">
        <ele>587.789731</ele>
        <time>2022-03-09T10:13:03.414Z</time>
      </trkpt>
      <trkpt lat="42.67571" lon="23.58721">
        <ele>587.507376</ele>
        <time>2022-03-09T10:13:06.410Z</time>
      </trkpt>
      <trkpt lat="42.67577" lon="23.58708">
        <ele>587.253489</ele>
        <time>2022-03-09T10:13:09.439Z</time>
      </trkpt>
      <trkpt lat="42.67582" lon="23.58694">
        <ele>587.003228</ele>
        <time>2022-03-09T10:13:12.450Z</time>
      </trkpt>
      <trkpt lat="42.67588" lon="23.5868">
        <ele>586.734897</ele>
        <time>2022-03-09T10:13:15.396Z</time>
      </trkpt>
      <trkpt lat="42.67593" lon="23.58665">
        <ele>586.468632</ele>
        <time>2022-03-09T10:13:18.408Z</time>
      </trkpt>
      <trkpt lat="42.67599" lon="23.58651">
        <ele>586.20321</ele>
        <time>2022-03-09T10:13:21.440Z</time>
      </trkpt>
      <trkpt lat="42.67605" lon="23.58637">
        <ele>585.944866</ele>
        <time>2022-03-09T10:13:24.421Z</time>
      </trkpt>
      <trkpt lat="42.67611" lon="23.58621">
        <ele>585.762317</ele>
        <time>2022-03-09T10:13:27.436Z</time>
      </trkpt>
      <trkpt lat="42.67617" lon="23.58606">
        <ele>585.584593</ele>
        <time>2022-03-09T10:13:30.413Z</time>
      </trkpt>
      <trkpt lat="42.67623" lon="23.58591">
        <ele>585.401425</ele>
        <time>2022-03-09T10:13:33.410Z</time>
      </trkpt>
      <trkpt lat="42.67629" lon="23.58575">
        <ele>585.214854</ele>
        <time>2022-03-09T10:13:36.410Z</time>
      </trkpt>
      <trkpt lat="42.67633" lon="23.58564">
        <ele>585.085858</ele>
        <time>2022-03-09T10:13:38.416Z</time>
      </trkpt>
      <trkpt lat="42.67639" lon="23.58548">
        <ele>584.900659</ele>
        <time>2022-03-09T10:13:41.423Z</time>
      </trkpt>
      <trkpt lat="42.67646" lon="23.58533">
        <ele>584.72198</ele>
        <time>2022-03-09T10:13:44.412Z</time>
      </trkpt>
      <trkpt lat="42.6765" lon="23.58522">
        <ele>584.593358</ele>
        <time>2022-03-09T10:13:46.407Z</time>
      </trkpt>
      <trkpt lat="42.67654" lon="23.58511">
        <ele>584.465363</ele>
        <time>2022-03-09T10:13:48.418Z</time>
      </trkpt>
      <trkpt lat="42.6766" lon="23.58495">
        <ele>584.274419</ele>
        <time>2022-03-09T10:13:51.413Z</time>
      </trkpt>
      <trkpt lat="42.67667" lon="23.58479">
        <ele>584.090331</ele>
        <time>2022-03-09T10:13:54.417Z</time>
      </trkpt>
      <trkpt lat="42.67673" lon="23.58464">
        <ele>583.910117</ele>
        <time>2022-03-09T10:13:57.429Z</time>
      </trkpt>
      <trkpt lat="42.67679" lon="23.58448">
        <ele>583.723225</ele>
        <time>2022-03-09T10:14:00.422Z</time>
      </trkpt>
      <trkpt lat="42.67685" lon="23.58432">
        <ele>583.537785</ele>
        <time>2022-03-09T10:14:03.416Z</time>
      </trkpt>
      <trkpt lat="42.67691" lon="23.58417">
        <ele>583.475444</ele>
        <time>2022-03-09T10:14:06.404Z</time>
      </trkpt>
      <trkpt lat="42.67697" lon="23.58404">
        <ele>583.599441</ele>
        <time>2022-03-09T10:14:09.441Z</time>
      </trkpt>
      <trkpt lat="42.67702" lon="23.58389">
        <ele>583.729262</ele>
        <time>2022-03-09T10:14:12.409Z</time>
      </trkpt>
      <trkpt lat="42.67707" lon="23.58373">
        <ele>583.860949</ele>
        <time>2022-03-09T10:14:15.410Z</time>
      </trkpt>
      <trkpt lat="42.67714" lon="23.58358">
        <ele>583.998091</ele>
        <time>2022-03-09T10:14:18.407Z</time>
      </trkpt>
      <trkpt lat="42.67719" lon="23.58344">
        <ele>584.125489</ele>
        <time>2022-03-09T10:14:21.437Z</time>
      </trkpt>
      <trkpt lat="42.67725" lon="23.58329">
        <ele>584.257504</ele>
        <time>2022-03-09T10:14:24.406Z</time>
      </trkpt>
      <trkpt lat="42.67731" lon="23.58315">
        <ele>584.381776</ele>
        <time>2022-03-09T10:14:27.412Z</time>
      </trkpt>
      <trkpt lat="42.67737" lon="23.58301">
        <ele>584.507383</ele>
        <time>2022-03-09T10:14:30.415Z</time>
      </trkpt>
      <trkpt lat="42.67743" lon="23.58285">
        <ele>584.64584</ele>
        <time>2022-03-09T10:14:33.426Z</time>
      </trkpt>
      <trkpt lat="42.67747" lon="23.58274">
        <ele>584.746704</ele>
        <time>2022-03-09T10:14:35.406Z</time>
      </trkpt>
      <trkpt lat="42.67752" lon="23.58263">
        <ele>584.842701</ele>
        <time>2022-03-09T10:14:37.448Z</time>
      </trkpt>
      <trkpt lat="42.67757" lon="23.58253">
        <ele>584.938981</ele>
        <time>2022-03-09T10:14:39.414Z</time>
      </trkpt>
      <trkpt lat="42.67763" lon="23.58237">
        <ele>585.083143</ele>
        <time>2022-03-09T10:14:42.412Z</time>
      </trkpt>
      <trkpt lat="42.67768" lon="23.58226">
        <ele>585.179832</ele>
        <time>2022-03-09T10:14:44.404Z</time>
      </trkpt>
      <trkpt lat="42.67774" lon="23.5821">
        <ele>585.317661</ele>
        <time>2022-03-09T10:14:47.409Z</time>
      </trkpt>
      <trkpt lat="42.6778" lon="23.58194">
        <ele>585.39053</ele>
        <time>2022-03-09T10:14:50.412Z</time>
      </trkpt>
      <trkpt lat="42.67787" lon="23.58178">
        <ele>585.452905</ele>
        <time>2022-03-09T10:14:53.444Z</time>
      </trkpt>
      <trkpt lat="42.67793" lon="23.58162">
        <ele>585.515249</ele>
        <time>2022-03-09T10:14:56.421Z</time>
      </trkpt>
      <trkpt lat="42.67797" lon="23.58151">
        <ele>585.558574</ele>
        <time>2022-03-09T10:14:58.421Z</time>
      </trkpt>
      <trkpt lat="42.67803" lon="23.58136">
        <ele>585.618893</ele>
        <time>2022-03-09T10:15:01.401Z</time>
      </trkpt>
      <trkpt lat="42.67809" lon="23.58122">
        <ele>585.674659</ele>
        <time>2022-03-09T10:15:04.425Z</time>
      </trkpt>
      <trkpt lat="42.67815" lon="23.58107">
        <ele>585.735368</ele>
        <time>2022-03-09T10:15:07.391Z</time>
      </trkpt>
      <trkpt lat="42.67821" lon="23.58092">
        <ele>585.794937</ele>
        <time>2022-03-09T10:15:10.381Z</time>
      </trkpt>
      <trkpt lat="42.67827" lon="23.58077">
        <ele>585.853136</ele>
        <time>2022-03-09T10:15:13.388Z</time>
      </trkpt>
      <trkpt lat="42.67833" lon="23.58063">
        <ele>585.909897</ele>
        <time>2022-03-09T10:15:16.379Z</time>
      </trkpt>
      <trkpt lat="42.67839" lon="23.58048">
        <ele>585.96847</ele>
        <time>2022-03-09T10:15:19.384Z</time>
      </trkpt>
      <trkpt lat="42.67845" lon="23.58033">
        <ele>586.027203</ele>
        <time>2022-03-09T10:15:22.379Z</time>
      </trkpt>
      <trkpt lat="42.67851" lon="23.58019">
        <ele>586.083738</ele>
        <time>2022-03-09T10:15:25.387Z</time>
      </trkpt>
      <trkpt lat="42.67857" lon="23.58004">
        <ele>586.140974</ele>
        <time>2022-03-09T10:15:28.382Z</time>
      </trkpt>
      <trkpt lat="42.67863" lon="23.57989">
        <ele>586.20825</ele>
        <time>2022-03-09T10:15:31.399Z</time>
      </trkpt>
      <trkpt lat="42.6787" lon="23.57974">
        <ele>586.290802</ele>
        <time>2022-03-09T10:15:34.381Z</time>
      </trkpt>
      <trkpt lat="42.67876" lon="23.5796">
        <ele>586.368682</ele>
        <time>2022-03-09T10:15:37.385Z</time>
      </trkpt>
      <trkpt lat="42.67882" lon="23.57946">
        <ele>586.448998</ele>
        <time>2022-03-09T10:15:40.391Z</time>
      </trkpt>
      <trkpt lat="42.67888" lon="23.57929">
        <ele>586.537005</ele>
        <time>2022-03-09T10:15:43.382Z</time>
      </trkpt>
      <trkpt lat="42.67894" lon="23.57913">
        <ele>586.621742</ele>
        <time>2022-03-09T10:15:46.383Z</time>
      </trkpt>
      <trkpt lat="42.679" lon="23.57898">
        <ele>586.705053</ele>
        <time>2022-03-09T10:15:49.383Z</time>
      </trkpt>
      <trkpt lat="42.67905" lon="23.57882">
        <ele>586.790201</ele>
        <time>2022-03-09T10:15:52.380Z</time>
      </trkpt>
      <trkpt lat="42.67911" lon="23.57867">
        <ele>586.872665</ele>
        <time>2022-03-09T10:15:55.381Z</time>
      </trkpt>
      <trkpt lat="42.67917" lon="23.57851">
        <ele>586.955854</ele>
        <time>2022-03-09T10:15:58.384Z</time>
      </trkpt>
      <trkpt lat="42.67924" lon="23.57837">
        <ele>587.036658</ele>
        <time>2022-03-09T10:16:01.381Z</time>
      </trkpt>
      <trkpt lat="42.6793" lon="23.57822">
        <ele>587.115821</ele>
        <time>2022-03-09T10:16:04.415Z</time>
      </trkpt>
      <trkpt lat="42.67935" lon="23.57808">
        <ele>587.193699</ele>
        <time>2022-03-09T10:16:07.382Z</time>
      </trkpt>
      <trkpt lat="42.67941" lon="23.57793">
        <ele>587.275276</ele>
        <time>2022-03-09T10:16:10.396Z</time>
      </trkpt>
      <trkpt lat="42.67946" lon="23.57777">
        <ele>587.348619</ele>
        <time>2022-03-09T10:16:13.393Z</time>
      </trkpt>
      <trkpt lat="42.67952" lon="23.57761">
        <ele>587.294046</ele>
        <time>2022-03-09T10:16:16.389Z</time>
      </trkpt>
      <trkpt lat="42.67958" lon="23.57745">
        <ele>587.237059</ele>
        <time>2022-03-09T10:16:19.390Z</time>
      </trkpt>
      <trkpt lat="42.67964" lon="23.57729">
        <ele>587.183122</ele>
        <time>2022-03-09T10:16:22.393Z</time>
      </trkpt>
      <trkpt lat="42.6797" lon="23.57714">
        <ele>587.129609</ele>
        <time>2022-03-09T10:16:25.383Z</time>
      </trkpt>
      <trkpt lat="42.67976" lon="23.57698">
        <ele>587.073797</ele>
        <time>2022-03-09T10:16:28.386Z</time>
      </trkpt>
      <trkpt lat="42.67982" lon="23.57682">
        <ele>587.018947</ele>
        <time>2022-03-09T10:16:31.381Z</time>
      </trkpt>
      <trkpt lat="42.67988" lon="23.57666">
        <ele>586.963805</ele>
        <time>2022-03-09T10:16:34.391Z</time>
      </trkpt>
      <trkpt lat="42.67993" lon="23.57655">
        <ele>586.924093</ele>
        <time>2022-03-09T10:16:36.390Z</time>
      </trkpt>
      <trkpt lat="42.67997" lon="23.57643">
        <ele>586.883377</ele>
        <time>2022-03-09T10:16:38.385Z</time>
      </trkpt>
      <trkpt lat="42.68001" lon="23.57632">
        <ele>586.844606</ele>
        <time>2022-03-09T10:16:40.384Z</time>
      </trkpt>
      <trkpt lat="42.68006" lon="23.5762">
        <ele>586.802178</ele>
        <time>2022-03-09T10:16:42.381Z</time>
      </trkpt>
      <trkpt lat="42.68012" lon="23.57604">
        <ele>586.746123</ele>
        <time>2022-03-09T10:16:45.380Z</time>
      </trkpt>
      <trkpt lat="42.68018" lon="23.57589">
        <ele>586.693625</ele>
        <time>2022-03-09T10:16:48.383Z</time>
      </trkpt>
      <trkpt lat="42.68025" lon="23.57574">
        <ele>586.637946</ele>
        <time>2022-03-09T10:16:51.383Z</time>
      </trkpt>
      <trkpt lat="42.68032" lon="23.57558">
        <ele>586.673091</ele>
        <time>2022-03-09T10:16:54.407Z</time>
      </trkpt>
      <trkpt lat="42.68036" lon="23.57547">
        <ele>586.862073</ele>
        <time>2022-03-09T10:16:56.389Z</time>
      </trkpt>
      <trkpt lat="42.68041" lon="23.57532">
        <ele>587.116389</ele>
        <time>2022-03-09T10:16:59.390Z</time>
      </trkpt>
      <trkpt lat="42.68046" lon="23.57517">
        <ele>587.365059</ele>
        <time>2022-03-09T10:17:02.382Z</time>
      </trkpt>
      <trkpt lat="42.68052" lon="23.57502">
        <ele>587.625322</ele>
        <time>2022-03-09T10:17:05.386Z</time>
      </trkpt>
      <trkpt lat="42.68058" lon="23.57489">
        <ele>587.860996</ele>
        <time>2022-03-09T10:17:08.384Z</time>
      </trkpt>
      <trkpt lat="42.68064" lon="23.57474">
        <ele>588.11314</ele>
        <time>2022-03-09T10:17:11.386Z</time>
      </trkpt>
      <trkpt lat="42.68068" lon="23.5746">
        <ele>588.348362</ele>
        <time>2022-03-09T10:17:14.387Z</time>
      </trkpt>
      <trkpt lat="42.68074" lon="23.57445">
        <ele>588.607578</ele>
        <time>2022-03-09T10:17:17.416Z</time>
      </trkpt>
      <trkpt lat="42.6808" lon="23.57433">
        <ele>588.834259</ele>
        <time>2022-03-09T10:17:19.385Z</time>
      </trkpt>
      <trkpt lat="42.68085" lon="23.57422">
        <ele>589.03638</ele>
        <time>2022-03-09T10:17:21.387Z</time>
      </trkpt>
      <trkpt lat="42.6809" lon="23.57411">
        <ele>589.235462</ele>
        <time>2022-03-09T10:17:23.390Z</time>
      </trkpt>
      <trkpt lat="42.68095" lon="23.574">
        <ele>589.439858</ele>
        <time>2022-03-09T10:17:25.384Z</time>
      </trkpt>
      <trkpt lat="42.68099" lon="23.57388">
        <ele>589.637345</ele>
        <time>2022-03-09T10:17:27.381Z</time>
      </trkpt>
      <trkpt lat="42.68102" lon="23.57376">
        <ele>589.835592</ele>
        <time>2022-03-09T10:17:29.391Z</time>
      </trkpt>
      <trkpt lat="42.68106" lon="23.57364">
        <ele>590.034825</ele>
        <time>2022-03-09T10:17:31.381Z</time>
      </trkpt>
      <trkpt lat="42.6811" lon="23.57353">
        <ele>590.224213</ele>
        <time>2022-03-09T10:17:33.383Z</time>
      </trkpt>
      <trkpt lat="42.68116" lon="23.57338">
        <ele>590.343248</ele>
        <time>2022-03-09T10:17:36.389Z</time>
      </trkpt>
      <trkpt lat="42.68121" lon="23.57323">
        <ele>590.324928</ele>
        <time>2022-03-09T10:17:39.402Z</time>
      </trkpt>
      <trkpt lat="42.68127" lon="23.57308">
        <ele>590.30589</ele>
        <time>2022-03-09T10:17:42.380Z</time>
      </trkpt>
      <trkpt lat="42.68133" lon="23.57292">
        <ele>590.286069</ele>
        <time>2022-03-09T10:17:45.379Z</time>
      </trkpt>
      <trkpt lat="42.68139" lon="23.57276">
        <ele>590.266175</ele>
        <time>2022-03-09T10:17:48.385Z</time>
      </trkpt>
      <trkpt lat="42.68145" lon="23.57261">
        <ele>590.246617</ele>
        <time>2022-03-09T10:17:51.390Z</time>
      </trkpt>
      <trkpt lat="42.68151" lon="23.57244">
        <ele>590.226559</ele>
        <time>2022-03-09T10:17:54.393Z</time>
      </trkpt>
      <trkpt lat="42.68156" lon="23.57228">
        <ele>590.206666</ele>
        <time>2022-03-09T10:17:57.388Z</time>
      </trkpt>
      <trkpt lat="42.68162" lon="23.57213">
        <ele>590.187137</ele>
        <time>2022-03-09T10:18:00.398Z</time>
      </trkpt>
      <trkpt lat="42.68168" lon="23.57197">
        <ele>590.167182</ele>
        <time>2022-03-09T10:18:03.386Z</time>
      </trkpt>
      <trkpt lat="42.68175" lon="23.57181">
        <ele>590.1469</ele>
        <time>2022-03-09T10:18:06.381Z</time>
      </trkpt>
      <trkpt lat="42.68179" lon="23.5717">
        <ele>590.132523</ele>
        <time>2022-03-09T10:18:08.392Z</time>
      </trkpt>
      <trkpt lat="42.68183" lon="23.57157">
        <ele>590.117487</ele>
        <time>2022-03-09T10:18:10.435Z</time>
      </trkpt>
      <trkpt lat="42.68187" lon="23.57146">
        <ele>590.103405</ele>
        <time>2022-03-09T10:18:12.411Z</time>
      </trkpt>
      <trkpt lat="42.68192" lon="23.57135">
        <ele>590.089028</ele>
        <time>2022-03-09T10:18:14.396Z</time>
      </trkpt>
      <trkpt lat="42.68196" lon="23.57123">
        <ele>590.045466</ele>
        <time>2022-03-09T10:18:16.387Z</time>
      </trkpt>
      <trkpt lat="42.68202" lon="23.57113">
        <ele>589.95061</ele>
        <time>2022-03-09T10:18:18.389Z</time>
      </trkpt>
      <trkpt lat="42.68209" lon="23.57099">
        <ele>589.823944</ele>
        <time>2022-03-09T10:18:21.380Z</time>
      </trkpt>
      <trkpt lat="42.68216" lon="23.57086">
        <ele>589.703256</ele>
        <time>2022-03-09T10:18:24.401Z</time>
      </trkpt>
      <trkpt lat="42.68222" lon="23.57073">
        <ele>589.588476</ele>
        <time>2022-03-09T10:18:27.378Z</time>
      </trkpt>
      <trkpt lat="42.68229" lon="23.57059">
        <ele>589.46469</ele>
        <time>2022-03-09T10:18:30.397Z</time>
      </trkpt>
      <trkpt lat="42.68235" lon="23.57046">
        <ele>589.34817</ele>
        <time>2022-03-09T10:18:33.384Z</time>
      </trkpt>
      <trkpt lat="42.68242" lon="23.57034">
        <ele>589.232944</ele>
        <time>2022-03-09T10:18:36.393Z</time>
      </trkpt>
      <trkpt lat="42.68249" lon="23.57023">
        <ele>589.124291</ele>
        <time>2022-03-09T10:18:39.402Z</time>
      </trkpt>
      <trkpt lat="42.68254" lon="23.5701">
        <ele>589.01771</ele>
        <time>2022-03-09T10:18:44.397Z</time>
      </trkpt>
      <trkpt lat="42.68254" lon="23.56997">
        <ele>588.919073</ele>
        <time>2022-03-09T10:18:48.379Z</time>
      </trkpt>
      <trkpt lat="42.68247" lon="23.56988">
        <ele>588.822958</ele>
        <time>2022-03-09T10:18:51.380Z</time>
      </trkpt>
      <trkpt lat="42.68238" lon="23.5698">
        <ele>588.714444</ele>
        <time>2022-03-09T10:18:54.418Z</time>
      </trkpt>
      <trkpt lat="42.68232" lon="23.5697">
        <ele>588.61805</ele>
        <time>2022-03-09T10:18:57.385Z</time>
      </trkpt>
      <trkpt lat="42.68225" lon="23.56957">
        <ele>588.498042</ele>
        <time>2022-03-09T10:19:00.390Z</time>
      </trkpt>
      <trkpt lat="42.68217" lon="23.56943">
        <ele>588.369018</ele>
        <time>2022-03-09T10:19:03.387Z</time>
      </trkpt>
      <trkpt lat="42.68213" lon="23.56932">
        <ele>588.273472</ele>
        <time>2022-03-09T10:19:05.386Z</time>
      </trkpt>
      <trkpt lat="42.68205" lon="23.56918">
        <ele>588.105386</ele>
        <time>2022-03-09T10:19:08.386Z</time>
      </trkpt>
      <trkpt lat="42.68197" lon="23.56904">
        <ele>587.933626</ele>
        <time>2022-03-09T10:19:11.385Z</time>
      </trkpt>
      <trkpt lat="42.68192" lon="23.56894">
        <ele>587.809282</ele>
        <time>2022-03-09T10:19:13.408Z</time>
      </trkpt>
      <trkpt lat="42.68185" lon="23.56884">
        <ele>587.67088</ele>
        <time>2022-03-09T10:19:15.376Z</time>
      </trkpt>
      <trkpt lat="42.68179" lon="23.56874">
        <ele>587.542421</ele>
        <time>2022-03-09T10:19:17.379Z</time>
      </trkpt>
      <trkpt lat="42.68171" lon="23.56866">
        <ele>587.414351</ele>
        <time>2022-03-09T10:19:19.396Z</time>
      </trkpt>
      <trkpt lat="42.68165" lon="23.56858">
        <ele>587.291587</ele>
        <time>2022-03-09T10:19:21.380Z</time>
      </trkpt>
      <trkpt lat="42.68155" lon="23.56848">
        <ele>587.125855</ele>
        <time>2022-03-09T10:19:24.412Z</time>
      </trkpt>
      <trkpt lat="42.68144" lon="23.56837">
        <ele>586.943645</ele>
        <time>2022-03-09T10:19:27.388Z</time>
      </trkpt>
      <trkpt lat="42.68133" lon="23.56827">
        <ele>586.76945</ele>
        <time>2022-03-09T10:19:30.384Z</time>
      </trkpt>
      <trkpt lat="42.68123" lon="23.56818">
        <ele>586.600374</ele>
        <time>2022-03-09T10:19:33.379Z</time>
      </trkpt>
      <trkpt lat="42.68113" lon="23.56807">
        <ele>586.430999</ele>
        <time>2022-03-09T10:19:36.380Z</time>
      </trkpt>
      <trkpt lat="42.68102" lon="23.56797">
        <ele>586.254095</ele>
        <time>2022-03-09T10:19:39.383Z</time>
      </trkpt>
      <trkpt lat="42.68093" lon="23.56788">
        <ele>586.09509</ele>
        <time>2022-03-09T10:19:42.376Z</time>
      </trkpt>
      <trkpt lat="42.68082" lon="23.56777">
        <ele>585.916092</ele>
        <time>2022-03-09T10:19:45.380Z</time>
      </trkpt>
      <trkpt lat="42.68074" lon="23.56768">
        <ele>585.782567</ele>
        <time>2022-03-09T10:19:47.377Z</time>
      </trkpt>
      <trkpt lat="42.68066" lon="23.5676">
        <ele>585.657826</ele>
        <time>2022-03-09T10:19:49.381Z</time>
      </trkpt>
      <trkpt lat="42.6806" lon="23.56751">
        <ele>585.538254</ele>
        <time>2022-03-09T10:19:51.378Z</time>
      </trkpt>
      <trkpt lat="42.68054" lon="23.5674">
        <ele>585.415928</ele>
        <time>2022-03-09T10:19:53.385Z</time>
      </trkpt>
      <trkpt lat="42.6805" lon="23.56728">
        <ele>585.286291</ele>
        <time>2022-03-09T10:19:55.385Z</time>
      </trkpt>
      <trkpt lat="42.68045" lon="23.56716">
        <ele>585.163475</ele>
        <time>2022-03-09T10:19:57.382Z</time>
      </trkpt>
      <trkpt lat="42.6804" lon="23.56704">
        <ele>585.037636</ele>
        <time>2022-03-09T10:19:59.383Z</time>
      </trkpt>
      <trkpt lat="42.68036" lon="23.56693">
        <ele>584.922265</ele>
        <time>2022-03-09T10:20:01.386Z</time>
      </trkpt>
      <trkpt lat="42.68031" lon="23.56678">
        <ele>584.773088</ele>
        <time>2022-03-09T10:20:04.391Z</time>
      </trkpt>
      <trkpt lat="42.68027" lon="23.56666">
        <ele>584.656936</ele>
        <time>2022-03-09T10:20:06.386Z</time>
      </trkpt>
      <trkpt lat="42.68022" lon="23.56649">
        <ele>584.485149</ele>
        <time>2022-03-09T10:20:09.380Z</time>
      </trkpt>
      <trkpt lat="42.68018" lon="23.56635">
        <ele>584.348283</ele>
        <time>2022-03-09T10:20:11.385Z</time>
      </trkpt>
      <trkpt lat="42.68015" lon="23.56622">
        <ele>584.219635</ele>
        <time>2022-03-09T10:20:13.381Z</time>
      </trkpt>
      <trkpt lat="42.68012" lon="23.56609">
        <ele>584.10047</ele>
        <time>2022-03-09T10:20:15.378Z</time>
      </trkpt>
      <trkpt lat="42.68008" lon="23.56597">
        <ele>583.97463</ele>
        <time>2022-03-09T10:20:17.383Z</time>
      </trkpt>
      <trkpt lat="42.68002" lon="23.56586">
        <ele>583.849422</ele>
        <time>2022-03-09T10:20:19.386Z</time>
      </trkpt>
      <trkpt lat="42.67995" lon="23.56576">
        <ele>583.724836</ele>
        <time>2022-03-09T10:20:21.389Z</time>
      </trkpt>
      <trkpt lat="42.67988" lon="23.56568">
        <ele>583.602141</ele>
        <time>2022-03-09T10:20:23.383Z</time>
      </trkpt>
      <trkpt lat="42.67978" lon="23.56561">
        <ele>583.538444</ele>
        <time>2022-03-09T10:20:25.385Z</time>
      </trkpt>
      <trkpt lat="42.67969" lon="23.56557">
        <ele>583.495286</ele>
        <time>2022-03-09T10:20:27.384Z</time>
      </trkpt>
      <trkpt lat="42.67959" lon="23.56555">
        <ele>583.451676</ele>
        <time>2022-03-09T10:20:29.408Z</time>
      </trkpt>
      <trkpt lat="42.67949" lon="23.56555">
        <ele>583.408046</ele>
        <time>2022-03-09T10:20:31.378Z</time>
      </trkpt>
      <trkpt lat="42.67939" lon="23.56555">
        <ele>583.362217</ele>
        <time>2022-03-09T10:20:33.378Z</time>
      </trkpt>
      <trkpt lat="42.67929" lon="23.56556">
        <ele>583.320264</ele>
        <time>2022-03-09T10:20:35.404Z</time>
      </trkpt>
      <trkpt lat="42.6792" lon="23.56557">
        <ele>583.279617</ele>
        <time>2022-03-09T10:20:37.376Z</time>
      </trkpt>
      <trkpt lat="42.67907" lon="23.56557">
        <ele>583.22595</ele>
        <time>2022-03-09T10:20:40.380Z</time>
      </trkpt>
      <trkpt lat="42.67895" lon="23.56558">
        <ele>583.170806</ele>
        <time>2022-03-09T10:20:43.382Z</time>
      </trkpt>
      <trkpt lat="42.67886" lon="23.56558">
        <ele>583.130229</ele>
        <time>2022-03-09T10:20:45.382Z</time>
      </trkpt>
      <trkpt lat="42.67875" lon="23.56559">
        <ele>583.084411</ele>
        <time>2022-03-09T10:20:47.394Z</time>
      </trkpt>
      <trkpt lat="42.67865" lon="23.56559">
        <ele>583.0421</ele>
        <time>2022-03-09T10:20:49.386Z</time>
      </trkpt>
      <trkpt lat="42.67853" lon="23.56558">
        <ele>582.988414</ele>
        <time>2022-03-09T10:20:52.391Z</time>
      </trkpt>
      <trkpt lat="42.67844" lon="23.56558">
        <ele>582.948708</ele>
        <time>2022-03-09T10:20:54.382Z</time>
      </trkpt>
      <trkpt lat="42.67834" lon="23.56559">
        <ele>582.905864</ele>
        <time>2022-03-09T10:20:56.382Z</time>
      </trkpt>
      <trkpt lat="42.67825" lon="23.56561">
        <ele>582.865984</ele>
        <time>2022-03-09T10:20:58.385Z</time>
      </trkpt>
      <trkpt lat="42.67816" lon="23.56562">
        <ele>582.824701</ele>
        <time>2022-03-09T10:21:00.389Z</time>
      </trkpt>
      <trkpt lat="42.67803" lon="23.56562">
        <ele>582.773326</ele>
        <time>2022-03-09T10:21:03.381Z</time>
      </trkpt>
      <trkpt lat="42.67793" lon="23.56561">
        <ele>582.741496</ele>
        <time>2022-03-09T10:21:05.380Z</time>
      </trkpt>
      <trkpt lat="42.67783" lon="23.56559">
        <ele>582.709036</ele>
        <time>2022-03-09T10:21:07.389Z</time>
      </trkpt>
      <trkpt lat="42.67772" lon="23.56557">
        <ele>582.674101</ele>
        <time>2022-03-09T10:21:09.387Z</time>
      </trkpt>
      <trkpt lat="42.67761" lon="23.56554">
        <ele>582.637634</ele>
        <time>2022-03-09T10:21:11.383Z</time>
      </trkpt>
      <trkpt lat="42.6775" lon="23.5655">
        <ele>582.602642</ele>
        <time>2022-03-09T10:21:13.386Z</time>
      </trkpt>
      <trkpt lat="42.6774" lon="23.56546">
        <ele>582.569643</ele>
        <time>2022-03-09T10:21:15.382Z</time>
      </trkpt>
      <trkpt lat="42.67731" lon="23.56542">
        <ele>582.539341</ele>
        <time>2022-03-09T10:21:17.409Z</time>
      </trkpt>
      <trkpt lat="42.67719" lon="23.56537">
        <ele>582.496993</ele>
        <time>2022-03-09T10:21:20.413Z</time>
      </trkpt>
      <trkpt lat="42.6771" lon="23.56534">
        <ele>582.466964</ele>
        <time>2022-03-09T10:21:22.409Z</time>
      </trkpt>
      <trkpt lat="42.67701" lon="23.56529">
        <ele>582.436868</ele>
        <time>2022-03-09T10:21:24.424Z</time>
      </trkpt>
      <trkpt lat="42.67693" lon="23.56521">
        <ele>582.405698</ele>
        <time>2022-03-09T10:21:26.425Z</time>
      </trkpt>
      <trkpt lat="42.67686" lon="23.56511">
        <ele>582.37234</ele>
        <time>2022-03-09T10:21:28.401Z</time>
      </trkpt>
      <trkpt lat="42.67681" lon="23.565">
        <ele>582.341145</ele>
        <time>2022-03-09T10:21:30.447Z</time>
      </trkpt>
      <trkpt lat="42.67675" lon="23.56489">
        <ele>582.310163</ele>
        <time>2022-03-09T10:21:32.407Z</time>
      </trkpt>
      <trkpt lat="42.67667" lon="23.56475">
        <ele>582.26854</ele>
        <time>2022-03-09T10:21:35.427Z</time>
      </trkpt>
      <trkpt lat="42.67661" lon="23.56466">
        <ele>582.239146</ele>
        <time>2022-03-09T10:21:37.410Z</time>
      </trkpt>
      <trkpt lat="42.67652" lon="23.56453">
        <ele>582.122103</ele>
        <time>2022-03-09T10:21:40.414Z</time>
      </trkpt>
      <trkpt lat="42.67645" lon="23.56445">
        <ele>581.924235</ele>
        <time>2022-03-09T10:21:42.414Z</time>
      </trkpt>
      <trkpt lat="42.67639" lon="23.56435">
        <ele>581.718181</ele>
        <time>2022-03-09T10:21:44.400Z</time>
      </trkpt>
      <trkpt lat="42.6763" lon="23.56422">
        <ele>581.431944</ele>
        <time>2022-03-09T10:21:47.457Z</time>
      </trkpt>
      <trkpt lat="42.67621" lon="23.56409">
        <ele>581.152905</ele>
        <time>2022-03-09T10:21:50.417Z</time>
      </trkpt>
      <trkpt lat="42.67612" lon="23.56397">
        <ele>580.871328</ele>
        <time>2022-03-09T10:21:53.412Z</time>
      </trkpt>
      <trkpt lat="42.67604" lon="23.56385">
        <ele>580.613196</ele>
        <time>2022-03-09T10:21:56.420Z</time>
      </trkpt>
      <trkpt lat="42.67597" lon="23.56372">
        <ele>580.367478</ele>
        <time>2022-03-09T10:21:59.420Z</time>
      </trkpt>
      <trkpt lat="42.6759" lon="23.56361">
        <ele>580.132063</ele>
        <time>2022-03-09T10:22:02.426Z</time>
      </trkpt>
      <trkpt lat="42.67584" lon="23.56347">
        <ele>579.883516</ele>
        <time>2022-03-09T10:22:05.413Z</time>
      </trkpt>
      <trkpt lat="42.67578" lon="23.56334">
        <ele>579.630804</ele>
        <time>2022-03-09T10:22:08.412Z</time>
      </trkpt>
      <trkpt lat="42.67572" lon="23.56319">
        <ele>579.369377</ele>
        <time>2022-03-09T10:22:11.418Z</time>
      </trkpt>
      <trkpt lat="42.67566" lon="23.56305">
        <ele>579.10624</ele>
        <time>2022-03-09T10:22:14.404Z</time>
      </trkpt>
      <trkpt lat="42.67561" lon="23.5629">
        <ele>578.846926</ele>
        <time>2022-03-09T10:22:17.398Z</time>
      </trkpt>
      <trkpt lat="42.67555" lon="23.56276">
        <ele>578.590043</ele>
        <time>2022-03-09T10:22:20.410Z</time>
      </trkpt>
      <trkpt lat="42.67549" lon="23.56262">
        <ele>578.332443</ele>
        <time>2022-03-09T10:22:23.413Z</time>
      </trkpt>
      <trkpt lat="42.67543" lon="23.56248">
        <ele>578.273944</ele>
        <time>2022-03-09T10:22:26.412Z</time>
      </trkpt>
      <trkpt lat="42.67537" lon="23.56235">
        <ele>578.224602</ele>
        <time>2022-03-09T10:22:29.405Z</time>
      </trkpt>
      <trkpt lat="42.67532" lon="23.56222">
        <ele>578.176043</ele>
        <time>2022-03-09T10:22:32.440Z</time>
      </trkpt>
      <trkpt lat="42.67526" lon="23.56209">
        <ele>578.126259</ele>
        <time>2022-03-09T10:22:35.408Z</time>
      </trkpt>
      <trkpt lat="42.6752" lon="23.56195">
        <ele>578.075464</ele>
        <time>2022-03-09T10:22:38.410Z</time>
      </trkpt>
      <trkpt lat="42.67514" lon="23.56181">
        <ele>578.021754</ele>
        <time>2022-03-09T10:22:41.405Z</time>
      </trkpt>
      <trkpt lat="42.67508" lon="23.56167">
        <ele>577.970493</ele>
        <time>2022-03-09T10:22:44.386Z</time>
      </trkpt>
      <trkpt lat="42.67503" lon="23.56153">
        <ele>577.918164</ele>
        <time>2022-03-09T10:22:47.419Z</time>
      </trkpt>
      <trkpt lat="42.67497" lon="23.56138">
        <ele>577.86461</ele>
        <time>2022-03-09T10:22:50.396Z</time>
      </trkpt>
      <trkpt lat="42.67491" lon="23.56124">
        <ele>577.811347</ele>
        <time>2022-03-09T10:22:53.441Z</time>
      </trkpt>
      <trkpt lat="42.67484" lon="23.5611">
        <ele>577.755689</ele>
        <time>2022-03-09T10:22:56.405Z</time>
      </trkpt>
      <trkpt lat="42.67478" lon="23.56095">
        <ele>577.701641</ele>
        <time>2022-03-09T10:22:59.420Z</time>
      </trkpt>
      <trkpt lat="42.67473" lon="23.56082">
        <ele>577.652515</ele>
        <time>2022-03-09T10:23:02.409Z</time>
      </trkpt>
      <trkpt lat="42.67467" lon="23.56068">
        <ele>577.600095</ele>
        <time>2022-03-09T10:23:05.410Z</time>
      </trkpt>
      <trkpt lat="42.67461" lon="23.56054">
        <ele>577.546714</ele>
        <time>2022-03-09T10:23:08.444Z</time>
      </trkpt>
      <trkpt lat="42.67455" lon="23.56041">
        <ele>577.565948</ele>
        <time>2022-03-09T10:23:11.410Z</time>
      </trkpt>
      <trkpt lat="42.67449" lon="23.56027">
        <ele>577.61834</ele>
        <time>2022-03-09T10:23:14.418Z</time>
      </trkpt>
      <trkpt lat="42.67443" lon="23.56014">
        <ele>577.670576</ele>
        <time>2022-03-09T10:23:17.419Z</time>
      </trkpt>
      <trkpt lat="42.67438" lon="23.56001">
        <ele>577.721206</ele>
        <time>2022-03-09T10:23:20.412Z</time>
      </trkpt>
      <trkpt lat="42.67432" lon="23.55988">
        <ele>577.771073</ele>
        <time>2022-03-09T10:23:23.450Z</time>
      </trkpt>
      <trkpt lat="42.67426" lon="23.55975">
        <ele>577.822317</ele>
        <time>2022-03-09T10:23:26.411Z</time>
      </trkpt>
      <trkpt lat="42.6742" lon="23.55962">
        <ele>577.872421</ele>
        <time>2022-03-09T10:23:29.423Z</time>
      </trkpt>
      <trkpt lat="42.67416" lon="23.55949">
        <ele>577.920198</ele>
        <time>2022-03-09T10:23:32.420Z</time>
      </trkpt>
      <trkpt lat="42.67412" lon="23.55936">
        <ele>577.966492</ele>
        <time>2022-03-09T10:23:35.417Z</time>
      </trkpt>
      <trkpt lat="42.6741" lon="23.55922">
        <ele>578.014198</ele>
        <time>2022-03-09T10:23:38.428Z</time>
      </trkpt>
      <trkpt lat="42.67409" lon="23.55908">
        <ele>578.060095</ele>
        <time>2022-03-09T10:23:41.414Z</time>
      </trkpt>
      <trkpt lat="42.67408" lon="23.55895">
        <ele>578.104119</ele>
        <time>2022-03-09T10:23:44.412Z</time>
      </trkpt>
      <trkpt lat="42.67407" lon="23.55881">
        <ele>578.153514</ele>
        <time>2022-03-09T10:23:47.413Z</time>
      </trkpt>
      <trkpt lat="42.67405" lon="23.55866">
        <ele>578.2039</ele>
        <time>2022-03-09T10:23:50.413Z</time>
      </trkpt>
      <trkpt lat="42.67404" lon="23.55851">
        <ele>578.252172</ele>
        <time>2022-03-09T10:23:53.417Z</time>
      </trkpt>
      <trkpt lat="42.67402" lon="23.55837">
        <ele>578.30151</ele>
        <time>2022-03-09T10:23:56.437Z</time>
      </trkpt>
      <trkpt lat="42.67401" lon="23.55823">
        <ele>578.345764</ele>
        <time>2022-03-09T10:23:59.413Z</time>
      </trkpt>
      <trkpt lat="42.674" lon="23.55808">
        <ele>578.328989</ele>
        <time>2022-03-09T10:24:02.393Z</time>
      </trkpt>
      <trkpt lat="42.67399" lon="23.55795">
        <ele>578.312847</ele>
        <time>2022-03-09T10:24:05.436Z</time>
      </trkpt>
      <trkpt lat="42.67398" lon="23.55782">
        <ele>578.297717</ele>
        <time>2022-03-09T10:24:08.408Z</time>
      </trkpt>
      <trkpt lat="42.67396" lon="23.55768">
        <ele>578.282214</ele>
        <time>2022-03-09T10:24:11.399Z</time>
      </trkpt>
      <trkpt lat="42.67394" lon="23.55755">
        <ele>578.266531</ele>
        <time>2022-03-09T10:24:14.401Z</time>
      </trkpt>
      <trkpt lat="42.67392" lon="23.5574">
        <ele>578.249351</ele>
        <time>2022-03-09T10:24:17.411Z</time>
      </trkpt>
      <trkpt lat="42.67391" lon="23.55726">
        <ele>578.232426</ele>
        <time>2022-03-09T10:24:20.408Z</time>
      </trkpt>
      <trkpt lat="42.67389" lon="23.55711">
        <ele>578.215288</ele>
        <time>2022-03-09T10:24:23.417Z</time>
      </trkpt>
      <trkpt lat="42.67388" lon="23.55697">
        <ele>578.198184</ele>
        <time>2022-03-09T10:24:26.413Z</time>
      </trkpt>
      <trkpt lat="42.67387" lon="23.55683">
        <ele>578.181818</ele>
        <time>2022-03-09T10:24:29.442Z</time>
      </trkpt>
      <trkpt lat="42.67386" lon="23.55668">
        <ele>578.165026</ele>
        <time>2022-03-09T10:24:32.420Z</time>
      </trkpt>
      <trkpt lat="42.67385" lon="23.55653">
        <ele>578.147789</ele>
        <time>2022-03-09T10:24:35.448Z</time>
      </trkpt>
      <trkpt lat="42.67382" lon="23.55639">
        <ele>578.131096</ele>
        <time>2022-03-09T10:24:38.405Z</time>
      </trkpt>
      <trkpt lat="42.67381" lon="23.55625">
        <ele>578.113968</ele>
        <time>2022-03-09T10:24:41.460Z</time>
      </trkpt>
      <trkpt lat="42.6738" lon="23.55609">
        <ele>578.096054</ele>
        <time>2022-03-09T10:24:44.413Z</time>
      </trkpt>
      <trkpt lat="42.67378" lon="23.55596">
        <ele>578.07989</ele>
        <time>2022-03-09T10:24:47.419Z</time>
      </trkpt>
      <trkpt lat="42.67377" lon="23.55582">
        <ele>578.064045</ele>
        <time>2022-03-09T10:24:50.420Z</time>
      </trkpt>
      <trkpt lat="42.67376" lon="23.55568">
        <ele>577.782431</ele>
        <time>2022-03-09T10:24:53.416Z</time>
      </trkpt>
      <trkpt lat="42.67375" lon="23.55553">
        <ele>577.468897</ele>
        <time>2022-03-09T10:24:56.406Z</time>
      </trkpt>
      <trkpt lat="42.67374" lon="23.55538">
        <ele>577.156607</ele>
        <time>2022-03-09T10:24:59.430Z</time>
      </trkpt>
      <trkpt lat="42.67374" lon="23.55523">
        <ele>576.851577</ele>
        <time>2022-03-09T10:25:02.428Z</time>
      </trkpt>
      <trkpt lat="42.67373" lon="23.5551">
        <ele>576.578285</ele>
        <time>2022-03-09T10:25:05.407Z</time>
      </trkpt>
      <trkpt lat="42.67372" lon="23.55496">
        <ele>576.295382</ele>
        <time>2022-03-09T10:25:08.429Z</time>
      </trkpt>
      <trkpt lat="42.6737" lon="23.55483">
        <ele>576.019351</ele>
        <time>2022-03-09T10:25:11.408Z</time>
      </trkpt>
      <trkpt lat="42.67369" lon="23.5547">
        <ele>575.748402</ele>
        <time>2022-03-09T10:25:14.419Z</time>
      </trkpt>
      <trkpt lat="42.67369" lon="23.55457">
        <ele>575.483651</ele>
        <time>2022-03-09T10:25:17.418Z</time>
      </trkpt>
      <trkpt lat="42.67367" lon="23.55445">
        <ele>575.218325</ele>
        <time>2022-03-09T10:25:20.452Z</time>
      </trkpt>
      <trkpt lat="42.67365" lon="23.55431">
        <ele>574.929541</ele>
        <time>2022-03-09T10:25:23.422Z</time>
      </trkpt>
      <trkpt lat="42.67364" lon="23.55417">
        <ele>574.63055</ele>
        <time>2022-03-09T10:25:26.410Z</time>
      </trkpt>
      <trkpt lat="42.67362" lon="23.55403">
        <ele>574.339568</ele>
        <time>2022-03-09T10:25:29.418Z</time>
      </trkpt>
      <trkpt lat="42.67359" lon="23.55391">
        <ele>574.072188</ele>
        <time>2022-03-09T10:25:32.415Z</time>
      </trkpt>
      <trkpt lat="42.67357" lon="23.55377">
        <ele>573.789341</ele>
        <time>2022-03-09T10:25:35.412Z</time>
      </trkpt>
      <trkpt lat="42.67354" lon="23.55364">
        <ele>573.507031</ele>
        <time>2022-03-09T10:25:38.407Z</time>
      </trkpt>
      <trkpt lat="42.67351" lon="23.55351">
        <ele>573.209591</ele>
        <time>2022-03-09T10:25:41.455Z</time>
      </trkpt>
      <trkpt lat="42.67349" lon="23.55337">
        <ele>572.969887</ele>
        <time>2022-03-09T10:25:44.399Z</time>
      </trkpt>
      <trkpt lat="42.67346" lon="23.55324">
        <ele>572.893765</ele>
        <time>2022-03-09T10:25:47.408Z</time>
      </trkpt>
      <trkpt lat="42.67344" lon="23.5531">
        <ele>572.817644</ele>
        <time>2022-03-09T10:25:50.414Z</time>
      </trkpt>
      <trkpt lat="42.67341" lon="23.55297">
        <ele>572.740461</ele>
        <time>2022-03-09T10:25:53.456Z</time>
      </trkpt>
      <trkpt lat="42.67338" lon="23.55283">
        <ele>572.660931</ele>
        <time>2022-03-09T10:25:56.419Z</time>
      </trkpt>
      <trkpt lat="42.67336" lon="23.55269">
        <ele>572.583217</ele>
        <time>2022-03-09T10:25:59.446Z</time>
      </trkpt>
      <trkpt lat="42.67334" lon="23.55254">
        <ele>572.50376</ele>
        <time>2022-03-09T10:26:02.408Z</time>
      </trkpt>
      <trkpt lat="42.67332" lon="23.5524">
        <ele>572.423489</ele>
        <time>2022-03-09T10:26:05.408Z</time>
      </trkpt>
      <trkpt lat="42.6733" lon="23.55226">
        <ele>572.34658</ele>
        <time>2022-03-09T10:26:08.425Z</time>
      </trkpt>
      <trkpt lat="42.67327" lon="23.55213">
        <ele>572.269742</ele>
        <time>2022-03-09T10:26:11.422Z</time>
      </trkpt>
      <trkpt lat="42.67325" lon="23.55199">
        <ele>572.192906</ele>
        <time>2022-03-09T10:26:14.386Z</time>
      </trkpt>
      <trkpt lat="42.67323" lon="23.55186">
        <ele>572.119214</ele>
        <time>2022-03-09T10:26:17.425Z</time>
      </trkpt>
      <trkpt lat="42.67321" lon="23.55173">
        <ele>572.048402</ele>
        <time>2022-03-09T10:26:20.416Z</time>
      </trkpt>
      <trkpt lat="42.67318" lon="23.5516">
        <ele>571.976318</ele>
        <time>2022-03-09T10:26:23.410Z</time>
      </trkpt>
      <trkpt lat="42.67315" lon="23.55147">
        <ele>571.899325</ele>
        <time>2022-03-09T10:26:27.398Z</time>
      </trkpt>
      <trkpt lat="42.67312" lon="23.55132">
        <ele>571.817147</ele>
        <time>2022-03-09T10:26:31.410Z</time>
      </trkpt>
      <trkpt lat="42.6731" lon="23.5512">
        <ele>571.744567</ele>
        <time>2022-03-09T10:26:34.402Z</time>
      </trkpt>
      <trkpt lat="42.67308" lon="23.55107">
        <ele>571.675522</ele>
        <time>2022-03-09T10:26:37.409Z</time>
      </trkpt>
      <trkpt lat="42.67306" lon="23.55094">
        <ele>571.648853</ele>
        <time>2022-03-09T10:26:40.410Z</time>
      </trkpt>
      <trkpt lat="42.67305" lon="23.55082">
        <ele>571.648819</ele>
        <time>2022-03-09T10:26:43.403Z</time>
      </trkpt>
      <trkpt lat="42.67302" lon="23.55066">
        <ele>571.648776</ele>
        <time>2022-03-09T10:26:47.399Z</time>
      </trkpt>
      <trkpt lat="42.67299" lon="23.55052">
        <ele>571.648736</ele>
        <time>2022-03-09T10:26:51.416Z</time>
      </trkpt>
      <trkpt lat="42.67296" lon="23.55036">
        <ele>571.648692</ele>
        <time>2022-03-09T10:26:55.406Z</time>
      </trkpt>
      <trkpt lat="42.67293" lon="23.55023">
        <ele>571.648655</ele>
        <time>2022-03-09T10:26:58.410Z</time>
      </trkpt>
      <trkpt lat="42.67291" lon="23.5501">
        <ele>571.64862</ele>
        <time>2022-03-09T10:27:01.412Z</time>
      </trkpt>
      <trkpt lat="42.6729" lon="23.54997">
        <ele>571.648585</ele>
        <time>2022-03-09T10:27:04.451Z</time>
      </trkpt>
      <trkpt lat="42.67287" lon="23.54984">
        <ele>571.64855</ele>
        <time>2022-03-09T10:27:07.415Z</time>
      </trkpt>
      <trkpt lat="42.67285" lon="23.54972">
        <ele>571.648515</ele>
        <time>2022-03-09T10:27:10.428Z</time>
      </trkpt>
      <trkpt lat="42.67282" lon="23.5496">
        <ele>571.648482</ele>
        <time>2022-03-09T10:27:13.424Z</time>
      </trkpt>
      <trkpt lat="42.67279" lon="23.54948">
        <ele>571.648448</ele>
        <time>2022-03-09T10:27:16.424Z</time>
      </trkpt>
      <trkpt lat="42.67278" lon="23.54935">
        <ele>571.648414</ele>
        <time>2022-03-09T10:27:19.399Z</time>
      </trkpt>
      <trkpt lat="42.67275" lon="23.54922">
        <ele>571.648378</ele>
        <time>2022-03-09T10:27:22.404Z</time>
      </trkpt>
      <trkpt lat="42.67272" lon="23.5491">
        <ele>571.648344</ele>
        <time>2022-03-09T10:27:25.416Z</time>
      </trkpt>
      <trkpt lat="42.6727" lon="23.54897">
        <ele>571.648309</ele>
        <time>2022-03-09T10:27:28.433Z</time>
      </trkpt>
      <trkpt lat="42.67268" lon="23.54885">
        <ele>571.648274</ele>
        <time>2022-03-09T10:27:31.415Z</time>
      </trkpt>
      <trkpt lat="42.67266" lon="23.54872">
        <ele>571.648239</ele>
        <time>2022-03-09T10:27:34.399Z</time>
      </trkpt>
      <trkpt lat="42.67263" lon="23.54859">
        <ele>571.595424</ele>
        <time>2022-03-09T10:27:37.413Z</time>
      </trkpt>
      <trkpt lat="42.67261" lon="23.54845">
        <ele>571.486209</ele>
        <time>2022-03-09T10:27:40.415Z</time>
      </trkpt>
      <trkpt lat="42.67259" lon="23.54833">
        <ele>571.381654</ele>
        <time>2022-03-09T10:27:43.398Z</time>
      </trkpt>
      <trkpt lat="42.67256" lon="23.54821">
        <ele>571.281555</ele>
        <time>2022-03-09T10:27:46.416Z</time>
      </trkpt>
      <trkpt lat="42.67254" lon="23.54807">
        <ele>571.172013</ele>
        <time>2022-03-09T10:27:49.418Z</time>
      </trkpt>
      <trkpt lat="42.67252" lon="23.54795">
        <ele>571.067608</ele>
        <time>2022-03-09T10:27:52.415Z</time>
      </trkpt>
      <trkpt lat="42.6725" lon="23.54782">
        <ele>570.963331</ele>
        <time>2022-03-09T10:27:55.402Z</time>
      </trkpt>
      <trkpt lat="42.67247" lon="23.5477">
        <ele>570.85983</ele>
        <time>2022-03-09T10:27:58.448Z</time>
      </trkpt>
      <trkpt lat="42.67246" lon="23.54756">
        <ele>570.752276</ele>
        <time>2022-03-09T10:28:01.412Z</time>
      </trkpt>
      <trkpt lat="42.67243" lon="23.54743">
        <ele>570.639447</ele>
        <time>2022-03-09T10:28:04.435Z</time>
      </trkpt>
      <trkpt lat="42.67242" lon="23.54729">
        <ele>570.529429</ele>
        <time>2022-03-09T10:28:07.448Z</time>
      </trkpt>
      <trkpt lat="42.67239" lon="23.54716">
        <ele>570.422824</ele>
        <time>2022-03-09T10:28:10.425Z</time>
      </trkpt>
      <trkpt lat="42.67237" lon="23.54703">
        <ele>570.315442</ele>
        <time>2022-03-09T10:28:13.497Z</time>
      </trkpt>
      <trkpt lat="42.67234" lon="23.54691">
        <ele>570.21567</ele>
        <time>2022-03-09T10:28:16.435Z</time>
      </trkpt>
      <trkpt lat="42.67232" lon="23.54678">
        <ele>570.108987</ele>
        <time>2022-03-09T10:28:19.432Z</time>
      </trkpt>
      <trkpt lat="42.6723" lon="23.54666">
        <ele>570.003586</ele>
        <time>2022-03-09T10:28:22.432Z</time>
      </trkpt>
      <trkpt lat="42.67227" lon="23.54652">
        <ele>569.894649</ele>
        <time>2022-03-09T10:28:25.439Z</time>
      </trkpt>
      <trkpt lat="42.67225" lon="23.54639">
        <ele>569.781562</ele>
        <time>2022-03-09T10:28:28.419Z</time>
      </trkpt>
      <trkpt lat="42.67222" lon="23.54625">
        <ele>569.692415</ele>
        <time>2022-03-09T10:28:31.422Z</time>
      </trkpt>
      <trkpt lat="42.67219" lon="23.54611">
        <ele>569.712217</ele>
        <time>2022-03-09T10:28:34.431Z</time>
      </trkpt>
      <trkpt lat="42.67217" lon="23.54597">
        <ele>569.732384</ele>
        <time>2022-03-09T10:28:37.412Z</time>
      </trkpt>
      <trkpt lat="42.67215" lon="23.54583">
        <ele>569.752632</ele>
        <time>2022-03-09T10:28:40.426Z</time>
      </trkpt>
      <trkpt lat="42.67212" lon="23.5457">
        <ele>569.770756</ele>
        <time>2022-03-09T10:28:43.415Z</time>
      </trkpt>
      <trkpt lat="42.6721" lon="23.54557">
        <ele>569.789792</ele>
        <time>2022-03-09T10:28:46.416Z</time>
      </trkpt>
      <trkpt lat="42.67208" lon="23.54544">
        <ele>569.809232</ele>
        <time>2022-03-09T10:28:49.432Z</time>
      </trkpt>
      <trkpt lat="42.67205" lon="23.54529">
        <ele>569.830102</ele>
        <time>2022-03-09T10:28:52.433Z</time>
      </trkpt>
      <trkpt lat="42.67204" lon="23.54515">
        <ele>569.85035</ele>
        <time>2022-03-09T10:28:55.420Z</time>
      </trkpt>
      <trkpt lat="42.67201" lon="23.54502">
        <ele>569.869733</ele>
        <time>2022-03-09T10:28:58.425Z</time>
      </trkpt>
      <trkpt lat="42.67199" lon="23.54489">
        <ele>569.888327</ele>
        <time>2022-03-09T10:29:01.432Z</time>
      </trkpt>
      <trkpt lat="42.67196" lon="23.54475">
        <ele>569.907948</ele>
        <time>2022-03-09T10:29:04.402Z</time>
      </trkpt>
      <trkpt lat="42.67194" lon="23.54463">
        <ele>569.926032</ele>
        <time>2022-03-09T10:29:07.415Z</time>
      </trkpt>
      <trkpt lat="42.67193" lon="23.5445">
        <ele>569.944141</ele>
        <time>2022-03-09T10:29:10.424Z</time>
      </trkpt>
      <trkpt lat="42.67191" lon="23.54438">
        <ele>569.961499</ele>
        <time>2022-03-09T10:29:13.410Z</time>
      </trkpt>
      <trkpt lat="42.67188" lon="23.54426">
        <ele>569.979373</ele>
        <time>2022-03-09T10:29:16.426Z</time>
      </trkpt>
      <trkpt lat="42.67185" lon="23.54413">
        <ele>569.998376</ele>
        <time>2022-03-09T10:29:19.436Z</time>
      </trkpt>
      <trkpt lat="42.67184" lon="23.544">
        <ele>570.016782</ele>
        <time>2022-03-09T10:29:22.449Z</time>
      </trkpt>
      <trkpt lat="42.67181" lon="23.54386">
        <ele>570.033687</ele>
        <time>2022-03-09T10:29:25.436Z</time>
      </trkpt>
      <trkpt lat="42.67178" lon="23.54373">
        <ele>570.042448</ele>
        <time>2022-03-09T10:29:28.443Z</time>
      </trkpt>
      <trkpt lat="42.67176" lon="23.54359">
        <ele>570.05119</ele>
        <time>2022-03-09T10:29:31.414Z</time>
      </trkpt>
      <trkpt lat="42.67173" lon="23.54346">
        <ele>570.05976</ele>
        <time>2022-03-09T10:29:34.427Z</time>
      </trkpt>
      <trkpt lat="42.67171" lon="23.54333">
        <ele>570.068432</ele>
        <time>2022-03-09T10:29:37.427Z</time>
      </trkpt>
      <trkpt lat="42.67168" lon="23.54319">
        <ele>570.077377</ele>
        <time>2022-03-09T10:29:40.413Z</time>
      </trkpt>
      <trkpt lat="42.67167" lon="23.54305">
        <ele>570.085868</ele>
        <time>2022-03-09T10:29:43.425Z</time>
      </trkpt>
      <trkpt lat="42.67165" lon="23.54293">
        <ele>570.093786</ele>
        <time>2022-03-09T10:29:46.421Z</time>
      </trkpt>
      <trkpt lat="42.67162" lon="23.54277">
        <ele>570.103905</ele>
        <time>2022-03-09T10:29:50.456Z</time>
      </trkpt>
      <trkpt lat="42.6716" lon="23.54265">
        <ele>570.111919</ele>
        <time>2022-03-09T10:29:53.435Z</time>
      </trkpt>
      <trkpt lat="42.67158" lon="23.54252">
        <ele>570.120072</ele>
        <time>2022-03-09T10:29:56.428Z</time>
      </trkpt>
      <trkpt lat="42.67156" lon="23.54239">
        <ele>570.128437</ele>
        <time>2022-03-09T10:29:59.421Z</time>
      </trkpt>
      <trkpt lat="42.67153" lon="23.54226">
        <ele>570.136793</ele>
        <time>2022-03-09T10:30:02.427Z</time>
      </trkpt>
      <trkpt lat="42.67151" lon="23.54213">
        <ele>570.145169</ele>
        <time>2022-03-09T10:30:05.455Z</time>
      </trkpt>
      <trkpt lat="42.67148" lon="23.54201">
        <ele>570.153433</ele>
        <time>2022-03-09T10:30:08.416Z</time>
      </trkpt>
      <trkpt lat="42.67146" lon="23.54189">
        <ele>570.161141</ele>
        <time>2022-03-09T10:30:11.443Z</time>
      </trkpt>
      <trkpt lat="42.67145" lon="23.54176">
        <ele>570.169027</ele>
        <time>2022-03-09T10:30:14.434Z</time>
      </trkpt>
      <trkpt lat="42.67142" lon="23.54164">
        <ele>570.177059</ele>
        <time>2022-03-09T10:30:17.423Z</time>
      </trkpt>
      <trkpt lat="42.67139" lon="23.54151">
        <ele>570.18415</ele>
        <time>2022-03-09T10:30:20.420Z</time>
      </trkpt>
      <trkpt lat="42.67137" lon="23.54136">
        <ele>570.165236</ele>
        <time>2022-03-09T10:30:24.428Z</time>
      </trkpt>
      <trkpt lat="42.67135" lon="23.54124">
        <ele>570.150495</ele>
        <time>2022-03-09T10:30:27.404Z</time>
      </trkpt>
      <trkpt lat="42.67133" lon="23.54111">
        <ele>570.135486</ele>
        <time>2022-03-09T10:30:30.425Z</time>
      </trkpt>
      <trkpt lat="42.67131" lon="23.54099">
        <ele>570.1202</ele>
        <time>2022-03-09T10:30:33.468Z</time>
      </trkpt>
      <trkpt lat="42.67129" lon="23.54086">
        <ele>570.105076</ele>
        <time>2022-03-09T10:30:36.412Z</time>
      </trkpt>
      <trkpt lat="42.67127" lon="23.54073">
        <ele>570.089936</ele>
        <time>2022-03-09T10:30:39.421Z</time>
      </trkpt>
      <trkpt lat="42.67125" lon="23.54061">
        <ele>570.074681</ele>
        <time>2022-03-09T10:30:42.414Z</time>
      </trkpt>
      <trkpt lat="42.67123" lon="23.54048">
        <ele>570.058946</ele>
        <time>2022-03-09T10:30:45.413Z</time>
      </trkpt>
      <trkpt lat="42.6712" lon="23.54035">
        <ele>570.043781</ele>
        <time>2022-03-09T10:30:48.428Z</time>
      </trkpt>
      <trkpt lat="42.67118" lon="23.54023">
        <ele>570.028391</ele>
        <time>2022-03-09T10:30:51.426Z</time>
      </trkpt>
      <trkpt lat="42.67116" lon="23.54009">
        <ele>570.011801</ele>
        <time>2022-03-09T10:30:54.410Z</time>
      </trkpt>
      <trkpt lat="42.67114" lon="23.53995">
        <ele>569.995153</ele>
        <time>2022-03-09T10:30:57.421Z</time>
      </trkpt>
      <trkpt lat="42.67112" lon="23.53982">
        <ele>569.97919</ele>
        <time>2022-03-09T10:31:00.446Z</time>
      </trkpt>
      <trkpt lat="42.67109" lon="23.53969">
        <ele>569.96337</ele>
        <time>2022-03-09T10:31:03.441Z</time>
      </trkpt>
      <trkpt lat="42.67106" lon="23.53957">
        <ele>569.947921</ele>
        <time>2022-03-09T10:31:06.421Z</time>
      </trkpt>
      <trkpt lat="42.67103" lon="23.53944">
        <ele>569.932101</ele>
        <time>2022-03-09T10:31:09.429Z</time>
      </trkpt>
      <trkpt lat="42.67102" lon="23.5393">
        <ele>569.915481</ele>
        <time>2022-03-09T10:31:12.420Z</time>
      </trkpt>
      <trkpt lat="42.671" lon="23.53916">
        <ele>569.898601</ele>
        <time>2022-03-09T10:31:15.423Z</time>
      </trkpt>
      <trkpt lat="42.67097" lon="23.53902">
        <ele>569.985541</ele>
        <time>2022-03-09T10:31:18.430Z</time>
      </trkpt>
      <trkpt lat="42.67095" lon="23.53888">
        <ele>570.088391</ele>
        <time>2022-03-09T10:31:21.432Z</time>
      </trkpt>
      <trkpt lat="42.67092" lon="23.53875">
        <ele>570.186531</ele>
        <time>2022-03-09T10:31:24.408Z</time>
      </trkpt>
      <trkpt lat="42.67089" lon="23.53862">
        <ele>570.285185</ele>
        <time>2022-03-09T10:31:27.475Z</time>
      </trkpt>
      <trkpt lat="42.67086" lon="23.53848">
        <ele>570.387741</ele>
        <time>2022-03-09T10:31:30.413Z</time>
      </trkpt>
      <trkpt lat="42.67084" lon="23.53835">
        <ele>570.490134</ele>
        <time>2022-03-09T10:31:33.433Z</time>
      </trkpt>
      <trkpt lat="42.67082" lon="23.53819">
        <ele>570.605676</ele>
        <time>2022-03-09T10:31:36.434Z</time>
      </trkpt>
      <trkpt lat="42.6708" lon="23.53803">
        <ele>570.720898</ele>
        <time>2022-03-09T10:31:39.432Z</time>
      </trkpt>
      <trkpt lat="42.67078" lon="23.53788">
        <ele>570.831298</ele>
        <time>2022-03-09T10:31:42.412Z</time>
      </trkpt>
      <trkpt lat="42.67075" lon="23.53773">
        <ele>570.94568</ele>
        <time>2022-03-09T10:31:45.438Z</time>
      </trkpt>
      <trkpt lat="42.67073" lon="23.53758">
        <ele>571.056996</ele>
        <time>2022-03-09T10:31:48.420Z</time>
      </trkpt>
      <trkpt lat="42.67071" lon="23.53744">
        <ele>571.158804</ele>
        <time>2022-03-09T10:31:51.429Z</time>
      </trkpt>
      <trkpt lat="42.67068" lon="23.53731">
        <ele>571.261215</ele>
        <time>2022-03-09T10:31:54.417Z</time>
      </trkpt>
      <trkpt lat="42.67065" lon="23.53717">
        <ele>571.362095</ele>
        <time>2022-03-09T10:31:57.444Z</time>
      </trkpt>
      <trkpt lat="42.67061" lon="23.53705">
        <ele>571.457812</ele>
        <time>2022-03-09T10:32:00.469Z</time>
      </trkpt>
      <trkpt lat="42.67058" lon="23.53693">
        <ele>571.549391</ele>
        <time>2022-03-09T10:32:03.397Z</time>
      </trkpt>
      <trkpt lat="42.67055" lon="23.53681">
        <ele>571.644146</ele>
        <time>2022-03-09T10:32:06.427Z</time>
      </trkpt>
      <trkpt lat="42.67054" lon="23.53666">
        <ele>571.767111</ele>
        <time>2022-03-09T10:32:09.417Z</time>
      </trkpt>
      <trkpt lat="42.67052" lon="23.53651">
        <ele>571.894885</ele>
        <time>2022-03-09T10:32:12.395Z</time>
      </trkpt>
      <trkpt lat="42.6705" lon="23.53636">
        <ele>572.028094</ele>
        <time>2022-03-09T10:32:15.421Z</time>
      </trkpt>
      <trkpt lat="42.67047" lon="23.53621">
        <ele>572.152903</ele>
        <time>2022-03-09T10:32:18.420Z</time>
      </trkpt>
      <trkpt lat="42.67045" lon="23.53607">
        <ele>572.278618</ele>
        <time>2022-03-09T10:32:21.418Z</time>
      </trkpt>
      <trkpt lat="42.67042" lon="23.53593">
        <ele>572.404729</ele>
        <time>2022-03-09T10:32:24.408Z</time>
      </trkpt>
      <trkpt lat="42.67039" lon="23.53578">
        <ele>572.538165</ele>
        <time>2022-03-09T10:32:27.468Z</time>
      </trkpt>
      <trkpt lat="42.67037" lon="23.53561">
        <ele>572.683513</ele>
        <time>2022-03-09T10:32:30.443Z</time>
      </trkpt>
      <trkpt lat="42.67036" lon="23.53544">
        <ele>572.824301</ele>
        <time>2022-03-09T10:32:33.420Z</time>
      </trkpt>
      <trkpt lat="42.67032" lon="23.53529">
        <ele>572.957119</ele>
        <time>2022-03-09T10:32:36.422Z</time>
      </trkpt>
      <trkpt lat="42.67028" lon="23.53516">
        <ele>573.08145</ele>
        <time>2022-03-09T10:32:39.416Z</time>
      </trkpt>
      <trkpt lat="42.67025" lon="23.53501">
        <ele>573.210487</ele>
        <time>2022-03-09T10:32:42.426Z</time>
      </trkpt>
      <trkpt lat="42.67023" lon="23.53485">
        <ele>573.348796</ele>
        <time>2022-03-09T10:32:45.428Z</time>
      </trkpt>
      <trkpt lat="42.67021" lon="23.53472">
        <ele>573.464303</ele>
        <time>2022-03-09T10:32:48.427Z</time>
      </trkpt>
      <trkpt lat="42.67019" lon="23.53457">
        <ele>573.588143</ele>
        <time>2022-03-09T10:32:52.434Z</time>
      </trkpt>
      <trkpt lat="42.67018" lon="23.53444">
        <ele>573.698703</ele>
        <time>2022-03-09T10:32:56.447Z</time>
      </trkpt>
      <trkpt lat="42.67014" lon="23.5343">
        <ele>573.701845</ele>
        <time>2022-03-09T10:33:01.435Z</time>
      </trkpt>
      <trkpt lat="42.67013" lon="23.53416">
        <ele>573.629363</ele>
        <time>2022-03-09T10:33:06.409Z</time>
      </trkpt>
      <trkpt lat="42.67011" lon="23.53403">
        <ele>573.567201</ele>
        <time>2022-03-09T10:33:11.442Z</time>
      </trkpt>
      <trkpt lat="42.67008" lon="23.5339">
        <ele>573.500795</ele>
        <time>2022-03-09T10:33:17.418Z</time>
      </trkpt>
      <trkpt lat="42.67004" lon="23.53377">
        <ele>573.429173</ele>
        <time>2022-03-09T10:33:23.406Z</time>
      </trkpt>
      <trkpt lat="42.67003" lon="23.53363">
        <ele>573.363287</ele>
        <time>2022-03-09T10:33:27.422Z</time>
      </trkpt>
      <trkpt lat="42.67002" lon="23.5335">
        <ele>573.298788</ele>
        <time>2022-03-09T10:33:31.418Z</time>
      </trkpt>
      <trkpt lat="42.66999" lon="23.53338">
        <ele>573.235124</ele>
        <time>2022-03-09T10:33:35.417Z</time>
      </trkpt>
      <trkpt lat="42.66997" lon="23.53323">
        <ele>573.159737</ele>
        <time>2022-03-09T10:33:39.415Z</time>
      </trkpt>
      <trkpt lat="42.66994" lon="23.5331">
        <ele>573.091159</ele>
        <time>2022-03-09T10:33:42.421Z</time>
      </trkpt>
      <trkpt lat="42.6699" lon="23.53294">
        <ele>573.007243</ele>
        <time>2022-03-09T10:33:45.473Z</time>
      </trkpt>
      <trkpt lat="42.66988" lon="23.5328">
        <ele>572.939931</ele>
        <time>2022-03-09T10:33:47.428Z</time>
      </trkpt>
      <trkpt lat="42.66985" lon="23.53266">
        <ele>572.865653</ele>
        <time>2022-03-09T10:33:49.446Z</time>
      </trkpt>
      <trkpt lat="42.66982" lon="23.53251">
        <ele>572.791679</ele>
        <time>2022-03-09T10:33:51.407Z</time>
      </trkpt>
      <trkpt lat="42.66981" lon="23.53238">
        <ele>572.724952</ele>
        <time>2022-03-09T10:33:53.414Z</time>
      </trkpt>
      <trkpt lat="42.66984" lon="23.53221">
        <ele>572.640299</ele>
        <time>2022-03-09T10:33:56.418Z</time>
      </trkpt>
      <trkpt lat="42.66989" lon="23.53211">
        <ele>572.579128</ele>
        <time>2022-03-09T10:33:58.411Z</time>
      </trkpt>
      <trkpt lat="42.66994" lon="23.53198">
        <ele>572.674533</ele>
        <time>2022-03-09T10:34:00.409Z</time>
      </trkpt>
      <trkpt lat="42.66999" lon="23.53186">
        <ele>572.924644</ele>
        <time>2022-03-09T10:34:02.395Z</time>
      </trkpt>
      <trkpt lat="42.67005" lon="23.53171">
        <ele>573.237094</ele>
        <time>2022-03-09T10:34:05.395Z</time>
      </trkpt>
      <trkpt lat="42.6701" lon="23.53156">
        <ele>573.523495</ele>
        <time>2022-03-09T10:34:08.439Z</time>
      </trkpt>
      <trkpt lat="42.67013" lon="23.53144">
        <ele>573.755403</ele>
        <time>2022-03-09T10:34:11.406Z</time>
      </trkpt>
      <trkpt lat="42.67016" lon="23.53129">
        <ele>574.039994</ele>
        <time>2022-03-09T10:34:14.439Z</time>
      </trkpt>
      <trkpt lat="42.67019" lon="23.53114">
        <ele>574.313532</ele>
        <time>2022-03-09T10:34:17.430Z</time>
      </trkpt>
      <trkpt lat="42.67022" lon="23.53101">
        <ele>574.573271</ele>
        <time>2022-03-09T10:34:20.419Z</time>
      </trkpt>
      <trkpt lat="42.67024" lon="23.53086">
        <ele>574.843335</ele>
        <time>2022-03-09T10:34:23.406Z</time>
      </trkpt>
      <trkpt lat="42.67027" lon="23.53071">
        <ele>575.118558</ele>
        <time>2022-03-09T10:34:26.412Z</time>
      </trkpt>
      <trkpt lat="42.67029" lon="23.53057">
        <ele>575.382093</ele>
        <time>2022-03-09T10:34:29.428Z</time>
      </trkpt>
      <trkpt lat="42.67032" lon="23.53044">
        <ele>575.631987</ele>
        <time>2022-03-09T10:34:32.400Z</time>
      </trkpt>
      <trkpt lat="42.67036" lon="23.5303">
        <ele>575.900379</ele>
        <time>2022-03-09T10:34:35.427Z</time>
      </trkpt>
      <trkpt lat="42.6704" lon="23.53017">
        <ele>576.157682</ele>
        <time>2022-03-09T10:34:38.431Z</time>
      </trkpt>
      <trkpt lat="42.67043" lon="23.53">
        <ele>576.467959</ele>
        <time>2022-03-09T10:34:41.424Z</time>
      </trkpt>
      <trkpt lat="42.67047" lon="23.52985">
        <ele>576.75241</ele>
        <time>2022-03-09T10:34:44.409Z</time>
      </trkpt>
      <trkpt lat="42.67051" lon="23.52973">
        <ele>576.996773</ele>
        <time>2022-03-09T10:34:47.419Z</time>
      </trkpt>
      <trkpt lat="42.67055" lon="23.5296">
        <ele>577.217492</ele>
        <time>2022-03-09T10:34:50.409Z</time>
      </trkpt>
      <trkpt lat="42.67057" lon="23.52947">
        <ele>577.428686</ele>
        <time>2022-03-09T10:34:53.402Z</time>
      </trkpt>
      <trkpt lat="42.67059" lon="23.52934">
        <ele>577.641373</ele>
        <time>2022-03-09T10:34:56.399Z</time>
      </trkpt>
      <trkpt lat="42.6706" lon="23.52921">
        <ele>577.855141</ele>
        <time>2022-03-09T10:34:59.408Z</time>
      </trkpt>
      <trkpt lat="42.67062" lon="23.52906">
        <ele>578.106098</ele>
        <time>2022-03-09T10:35:02.445Z</time>
      </trkpt>
      <trkpt lat="42.67065" lon="23.52892">
        <ele>578.333406</ele>
        <time>2022-03-09T10:35:05.420Z</time>
      </trkpt>
      <trkpt lat="42.67065" lon="23.52878">
        <ele>578.567323</ele>
        <time>2022-03-09T10:35:08.459Z</time>
      </trkpt>
      <trkpt lat="42.67067" lon="23.52863">
        <ele>578.803035</ele>
        <time>2022-03-09T10:35:11.416Z</time>
      </trkpt>
      <trkpt lat="42.67068" lon="23.52848">
        <ele>579.046905</ele>
        <time>2022-03-09T10:35:14.433Z</time>
      </trkpt>
      <trkpt lat="42.67068" lon="23.52835">
        <ele>579.254575</ele>
        <time>2022-03-09T10:35:17.460Z</time>
      </trkpt>
      <trkpt lat="42.67067" lon="23.52823">
        <ele>579.453009</ele>
        <time>2022-03-09T10:35:20.412Z</time>
      </trkpt>
      <trkpt lat="42.67066" lon="23.52807">
        <ele>579.705282</ele>
        <time>2022-03-09T10:35:24.388Z</time>
      </trkpt>
      <trkpt lat="42.67065" lon="23.52791">
        <ele>579.965375</ele>
        <time>2022-03-09T10:35:28.420Z</time>
      </trkpt>
      <trkpt lat="42.67065" lon="23.52775">
        <ele>580.231561</ele>
        <time>2022-03-09T10:35:32.401Z</time>
      </trkpt>
      <trkpt lat="42.67065" lon="23.52762">
        <ele>580.434389</ele>
        <time>2022-03-09T10:35:35.415Z</time>
      </trkpt>
      <trkpt lat="42.67065" lon="23.52749">
        <ele>580.643657</ele>
        <time>2022-03-09T10:35:38.410Z</time>
      </trkpt>
      <trkpt lat="42.67065" lon="23.52736">
        <ele>580.852971</ele>
        <time>2022-03-09T10:35:41.404Z</time>
      </trkpt>
      <trkpt lat="42.67068" lon="23.52721">
        <ele>580.806499</ele>
        <time>2022-03-09T10:35:45.408Z</time>
      </trkpt>
      <trkpt lat="42.67075" lon="23.52709">
        <ele>580.684122</ele>
        <time>2022-03-09T10:35:48.414Z</time>
      </trkpt>
      <trkpt lat="42.67082" lon="23.52696">
        <ele>580.549801</ele>
        <time>2022-03-09T10:35:51.414Z</time>
      </trkpt>
      <trkpt lat="42.67091" lon="23.52685">
        <ele>580.420994</ele>
        <time>2022-03-09T10:35:54.402Z</time>
      </trkpt>
      <trkpt lat="42.67099" lon="23.52675">
        <ele>580.295226</ele>
        <time>2022-03-09T10:35:57.428Z</time>
      </trkpt>
      <trkpt lat="42.67106" lon="23.52664">
        <ele>580.178066</ele>
        <time>2022-03-09T10:36:00.426Z</time>
      </trkpt>
      <trkpt lat="42.67115" lon="23.52654">
        <ele>580.051977</ele>
        <time>2022-03-09T10:36:03.401Z</time>
      </trkpt>
      <trkpt lat="42.67122" lon="23.52641">
        <ele>579.917771</ele>
        <time>2022-03-09T10:36:06.429Z</time>
      </trkpt>
      <trkpt lat="42.67129" lon="23.52626">
        <ele>579.77636</ele>
        <time>2022-03-09T10:36:09.446Z</time>
      </trkpt>
      <trkpt lat="42.67133" lon="23.52611">
        <ele>579.644679</ele>
        <time>2022-03-09T10:36:12.413Z</time>
      </trkpt>
      <trkpt lat="42.67137" lon="23.52598">
        <ele>579.537179</ele>
        <time>2022-03-09T10:36:15.427Z</time>
      </trkpt>
      <trkpt lat="42.6714" lon="23.52586">
        <ele>579.42968</ele>
        <time>2022-03-09T10:36:18.408Z</time>
      </trkpt>
      <trkpt lat="42.67142" lon="23.52573">
        <ele>579.323181</ele>
        <time>2022-03-09T10:36:21.427Z</time>
      </trkpt>
      <trkpt lat="42.67145" lon="23.5256">
        <ele>579.213261</ele>
        <time>2022-03-09T10:36:24.444Z</time>
      </trkpt>
      <trkpt lat="42.67148" lon="23.52548">
        <ele>579.11032</ele>
        <time>2022-03-09T10:36:27.408Z</time>
      </trkpt>
      <trkpt lat="42.67151" lon="23.52536">
        <ele>579.00271</ele>
        <time>2022-03-09T10:36:30.402Z</time>
      </trkpt>
      <trkpt lat="42.67156" lon="23.52521">
        <ele>578.997648</ele>
        <time>2022-03-09T10:36:33.423Z</time>
      </trkpt>
      <trkpt lat="42.67157" lon="23.52509">
        <ele>579.170967</ele>
        <time>2022-03-09T10:36:35.433Z</time>
      </trkpt>
      <trkpt lat="42.67151" lon="23.52499">
        <ele>579.346918</ele>
        <time>2022-03-09T10:36:39.402Z</time>
      </trkpt>
      <trkpt lat="42.67144" lon="23.52508">
        <ele>579.533756</ele>
        <time>2022-03-09T10:36:44.391Z</time>
      </trkpt>
      <trkpt lat="42.67134" lon="23.52515">
        <ele>579.750079</ele>
        <time>2022-03-09T10:36:49.392Z</time>
      </trkpt>
      <trkpt lat="42.67125" lon="23.52509">
        <ele>579.931486</ele>
        <time>2022-03-09T10:36:53.458Z</time>
      </trkpt>
      <trkpt lat="42.67117" lon="23.52503">
        <ele>580.118558</ele>
        <time>2022-03-09T10:36:57.410Z</time>
      </trkpt>
      <trkpt lat="42.67108" lon="23.52498">
        <ele>580.298235</ele>
        <time>2022-03-09T10:37:01.522Z</time>
      </trkpt>
      <trkpt lat="42.67098" lon="23.5249">
        <ele>580.520225</ele>
        <time>2022-03-09T10:37:05.428Z</time>
      </trkpt>
      <trkpt lat="42.67089" lon="23.52481">
        <ele>580.728498</ele>
        <time>2022-03-09T10:37:09.396Z</time>
      </trkpt>
      <trkpt lat="42.67081" lon="23.52474">
        <ele>580.928272</ele>
        <time>2022-03-09T10:37:14.404Z</time>
      </trkpt>
      <trkpt lat="42.67072" lon="23.52466">
        <ele>581.131808</ele>
        <time>2022-03-09T10:37:19.404Z</time>
      </trkpt>
      <trkpt lat="42.67064" lon="23.52459">
        <ele>581.314106</ele>
        <time>2022-03-09T10:37:23.408Z</time>
      </trkpt>
      <trkpt lat="42.67055" lon="23.52452">
        <ele>581.497307</ele>
        <time>2022-03-09T10:37:27.449Z</time>
      </trkpt>
      <trkpt lat="42.67047" lon="23.52444">
        <ele>581.702458</ele>
        <time>2022-03-09T10:37:32.418Z</time>
      </trkpt>
      <trkpt lat="42.67039" lon="23.52437">
        <ele>581.881861</ele>
        <time>2022-03-09T10:37:35.455Z</time>
      </trkpt>
      <trkpt lat="42.6703" lon="23.52434">
        <ele>582.057465</ele>
        <time>2022-03-09T10:37:38.405Z</time>
      </trkpt>
      <trkpt lat="42.6702" lon="23.52428">
        <ele>582.256442</ele>
        <time>2022-03-09T10:37:42.400Z</time>
      </trkpt>
      <trkpt lat="42.67029" lon="23.52436">
        <ele>582.328589</ele>
        <time>2022-03-09T10:37:56.399Z</time>
      </trkpt>
      <trkpt lat="42.67039" lon="23.52444">
        <ele>582.239727</ele>
        <time>2022-03-09T10:38:00.423Z</time>
      </trkpt>
      <trkpt lat="42.67048" lon="23.5245">
        <ele>582.167627</ele>
        <time>2022-03-09T10:38:03.408Z</time>
      </trkpt>
      <trkpt lat="42.67057" lon="23.52455">
        <ele>582.098474</ele>
        <time>2022-03-09T10:38:06.413Z</time>
      </trkpt>
      <trkpt lat="42.67067" lon="23.52459">
        <ele>582.023205</ele>
        <time>2022-03-09T10:38:09.408Z</time>
      </trkpt>
      <trkpt lat="42.67076" lon="23.52468">
        <ele>581.941838</ele>
        <time>2022-03-09T10:38:13.391Z</time>
      </trkpt>
      <trkpt lat="42.67084" lon="23.52476">
        <ele>581.87021</ele>
        <time>2022-03-09T10:38:16.449Z</time>
      </trkpt>
      <trkpt lat="42.67094" lon="23.52482">
        <ele>581.789745</ele>
        <time>2022-03-09T10:38:19.400Z</time>
      </trkpt>
      <trkpt lat="42.67103" lon="23.5249">
        <ele>581.709195</ele>
        <time>2022-03-09T10:38:22.401Z</time>
      </trkpt>
      <trkpt lat="42.67111" lon="23.52497">
        <ele>581.640295</ele>
        <time>2022-03-09T10:38:25.394Z</time>
      </trkpt>
      <trkpt lat="42.67119" lon="23.52504">
        <ele>581.567979</ele>
        <time>2022-03-09T10:38:28.418Z</time>
      </trkpt>
      <trkpt lat="42.67129" lon="23.52511">
        <ele>581.484667</ele>
        <time>2022-03-09T10:38:31.389Z</time>
      </trkpt>
      <trkpt lat="42.6714" lon="23.52512">
        <ele>581.400899</ele>
        <time>2022-03-09T10:38:34.415Z</time>
      </trkpt>
      <trkpt lat="42.67151" lon="23.52505">
        <ele>581.316376</ele>
        <time>2022-03-09T10:38:38.399Z</time>
      </trkpt>
      <trkpt lat="42.67161" lon="23.52502">
        <ele>581.238446</ele>
        <time>2022-03-09T10:38:41.397Z</time>
      </trkpt>
      <trkpt lat="42.67169" lon="23.52493">
        <ele>581.165213</ele>
        <time>2022-03-09T10:38:44.403Z</time>
      </trkpt>
      <trkpt lat="42.67172" lon="23.52481">
        <ele>581.094796</ele>
        <time>2022-03-09T10:38:47.400Z</time>
      </trkpt>
      <trkpt lat="42.67177" lon="23.52468">
        <ele>580.904429</ele>
        <time>2022-03-09T10:38:50.409Z</time>
      </trkpt>
      <trkpt lat="42.67185" lon="23.52456">
        <ele>580.476526</ele>
        <time>2022-03-09T10:38:53.408Z</time>
      </trkpt>
      <trkpt lat="42.67192" lon="23.52444">
        <ele>580.060062</ele>
        <time>2022-03-09T10:38:56.397Z</time>
      </trkpt>
      <trkpt lat="42.67199" lon="23.52432">
        <ele>579.653811</ele>
        <time>2022-03-09T10:38:59.410Z</time>
      </trkpt>
      <trkpt lat="42.67207" lon="23.52421">
        <ele>579.251175</ele>
        <time>2022-03-09T10:39:02.391Z</time>
      </trkpt>
      <trkpt lat="42.67213" lon="23.5241">
        <ele>578.86072</ele>
        <time>2022-03-09T10:39:05.407Z</time>
      </trkpt>
      <trkpt lat="42.6722" lon="23.52398">
        <ele>578.472733</ele>
        <time>2022-03-09T10:39:08.412Z</time>
      </trkpt>
      <trkpt lat="42.67228" lon="23.52389">
        <ele>578.097374</ele>
        <time>2022-03-09T10:39:11.397Z</time>
      </trkpt>
      <trkpt lat="42.67236" lon="23.52379">
        <ele>577.689321</ele>
        <time>2022-03-09T10:39:14.433Z</time>
      </trkpt>
      <trkpt lat="42.67243" lon="23.52369">
        <ele>577.316232</ele>
        <time>2022-03-09T10:39:17.412Z</time>
      </trkpt>
      <trkpt lat="42.67251" lon="23.52357">
        <ele>576.898057</ele>
        <time>2022-03-09T10:39:20.391Z</time>
      </trkpt>
      <trkpt lat="42.6726" lon="23.52348">
        <ele>576.486606</ele>
        <time>2022-03-09T10:39:23.416Z</time>
      </trkpt>
      <trkpt lat="42.67269" lon="23.52338">
        <ele>576.069409</ele>
        <time>2022-03-09T10:39:26.407Z</time>
      </trkpt>
      <trkpt lat="42.67278" lon="23.52329">
        <ele>575.6477</ele>
        <time>2022-03-09T10:39:29.418Z</time>
      </trkpt>
      <trkpt lat="42.67286" lon="23.5232">
        <ele>575.271826</ele>
        <time>2022-03-09T10:39:32.396Z</time>
      </trkpt>
      <trkpt lat="42.67294" lon="23.52313">
        <ele>574.934989</ele>
        <time>2022-03-09T10:39:35.388Z</time>
      </trkpt>
      <trkpt lat="42.67305" lon="23.52304">
        <ele>574.50933</ele>
        <time>2022-03-09T10:39:38.397Z</time>
      </trkpt>
      <trkpt lat="42.67316" lon="23.52295">
        <ele>574.657345</ele>
        <time>2022-03-09T10:39:41.405Z</time>
      </trkpt>
      <trkpt lat="42.67328" lon="23.52288">
        <ele>574.808169</ele>
        <time>2022-03-09T10:39:44.409Z</time>
      </trkpt>
      <trkpt lat="42.67339" lon="23.52283">
        <ele>574.947843</ele>
        <time>2022-03-09T10:39:47.447Z</time>
      </trkpt>
      <trkpt lat="42.67351" lon="23.5228">
        <ele>575.08385</ele>
        <time>2022-03-09T10:39:50.397Z</time>
      </trkpt>
      <trkpt lat="42.67363" lon="23.52277">
        <ele>575.221072</ele>
        <time>2022-03-09T10:39:53.402Z</time>
      </trkpt>
      <trkpt lat="42.67375" lon="23.52274">
        <ele>575.361121</ele>
        <time>2022-03-09T10:39:56.437Z</time>
      </trkpt>
      <trkpt lat="42.67386" lon="23.52271">
        <ele>575.497884</ele>
        <time>2022-03-09T10:39:59.400Z</time>
      </trkpt>
      <trkpt lat="42.67397" lon="23.52269">
        <ele>575.626532</ele>
        <time>2022-03-09T10:40:02.409Z</time>
      </trkpt>
      <trkpt lat="42.67409" lon="23.52266">
        <ele>575.759899</ele>
        <time>2022-03-09T10:40:05.419Z</time>
      </trkpt>
      <trkpt lat="42.6742" lon="23.52264">
        <ele>575.888726</ele>
        <time>2022-03-09T10:40:08.437Z</time>
      </trkpt>
      <trkpt lat="42.67431" lon="23.5226">
        <ele>576.020647</ele>
        <time>2022-03-09T10:40:11.384Z</time>
      </trkpt>
      <trkpt lat="42.67441" lon="23.52257">
        <ele>576.1401</ele>
        <time>2022-03-09T10:40:14.438Z</time>
      </trkpt>
      <trkpt lat="42.67453" lon="23.52255">
        <ele>576.27446</ele>
        <time>2022-03-09T10:40:17.398Z</time>
      </trkpt>
      <trkpt lat="42.67464" lon="23.52251">
        <ele>576.414963</ele>
        <time>2022-03-09T10:40:20.444Z</time>
      </trkpt>
      <trkpt lat="42.67476" lon="23.52247">
        <ele>576.556967</ele>
        <time>2022-03-09T10:40:23.407Z</time>
      </trkpt>
      <trkpt lat="42.67487" lon="23.52244">
        <ele>576.548611</ele>
        <time>2022-03-09T10:40:26.407Z</time>
      </trkpt>
      <trkpt lat="42.67497" lon="23.52242">
        <ele>576.520694</ele>
        <time>2022-03-09T10:40:29.396Z</time>
      </trkpt>
      <trkpt lat="42.67507" lon="23.5224">
        <ele>576.493352</ele>
        <time>2022-03-09T10:40:32.407Z</time>
      </trkpt>
      <trkpt lat="42.67518" lon="23.52237">
        <ele>576.463465</ele>
        <time>2022-03-09T10:40:35.406Z</time>
      </trkpt>
      <trkpt lat="42.67529" lon="23.52234">
        <ele>576.432856</ele>
        <time>2022-03-09T10:40:38.398Z</time>
      </trkpt>
      <trkpt lat="42.67538" lon="23.52231">
        <ele>576.405616</ele>
        <time>2022-03-09T10:40:41.395Z</time>
      </trkpt>
      <trkpt lat="42.67548" lon="23.52228">
        <ele>576.376627</ele>
        <time>2022-03-09T10:40:44.401Z</time>
      </trkpt>
      <trkpt lat="42.67559" lon="23.52227">
        <ele>576.347257</ele>
        <time>2022-03-09T10:40:47.404Z</time>
      </trkpt>
      <trkpt lat="42.6757" lon="23.52225">
        <ele>576.315966</ele>
        <time>2022-03-09T10:40:50.416Z</time>
      </trkpt>
      <trkpt lat="42.67582" lon="23.52223">
        <ele>576.282509</ele>
        <time>2022-03-09T10:40:53.458Z</time>
      </trkpt>
      <trkpt lat="42.67594" lon="23.5222">
        <ele>576.250817</ele>
        <time>2022-03-09T10:40:56.390Z</time>
      </trkpt>
      <trkpt lat="42.67605" lon="23.52217">
        <ele>576.218584</ele>
        <time>2022-03-09T10:40:59.443Z</time>
      </trkpt>
      <trkpt lat="42.67616" lon="23.52215">
        <ele>576.187698</ele>
        <time>2022-03-09T10:41:02.394Z</time>
      </trkpt>
      <trkpt lat="42.67628" lon="23.52212">
        <ele>576.155697</ele>
        <time>2022-03-09T10:41:05.409Z</time>
      </trkpt>
      <trkpt lat="42.67639" lon="23.52208">
        <ele>576.122907</ele>
        <time>2022-03-09T10:41:08.389Z</time>
      </trkpt>
      <trkpt lat="42.6765" lon="23.52205">
        <ele>576.093068</ele>
        <time>2022-03-09T10:41:11.407Z</time>
      </trkpt>
      <trkpt lat="42.67662" lon="23.52202">
        <ele>576.048536</ele>
        <time>2022-03-09T10:41:14.405Z</time>
      </trkpt>
      <trkpt lat="42.67674" lon="23.52199">
        <ele>575.997378</ele>
        <time>2022-03-09T10:41:17.401Z</time>
      </trkpt>
      <trkpt lat="42.67685" lon="23.52198">
        <ele>575.949519</ele>
        <time>2022-03-09T10:41:20.399Z</time>
      </trkpt>
      <trkpt lat="42.67696" lon="23.52195">
        <ele>575.901332</ele>
        <time>2022-03-09T10:41:23.414Z</time>
      </trkpt>
      <trkpt lat="42.67709" lon="23.52192">
        <ele>575.846516</ele>
        <time>2022-03-09T10:41:26.396Z</time>
      </trkpt>
      <trkpt lat="42.6772" lon="23.52189">
        <ele>575.797973</ele>
        <time>2022-03-09T10:41:29.398Z</time>
      </trkpt>
      <trkpt lat="42.67731" lon="23.52187">
        <ele>575.748817</ele>
        <time>2022-03-09T10:41:32.430Z</time>
      </trkpt>
      <trkpt lat="42.67742" lon="23.52185">
        <ele>575.702002</ele>
        <time>2022-03-09T10:41:35.390Z</time>
      </trkpt>
      <trkpt lat="42.67753" lon="23.52183">
        <ele>575.657291</ele>
        <time>2022-03-09T10:41:38.408Z</time>
      </trkpt>
      <trkpt lat="42.67764" lon="23.5218">
        <ele>575.60959</ele>
        <time>2022-03-09T10:41:41.402Z</time>
      </trkpt>
      <trkpt lat="42.67774" lon="23.52179">
        <ele>575.565961</ele>
        <time>2022-03-09T10:41:44.407Z</time>
      </trkpt>
      <trkpt lat="42.67785" lon="23.52177">
        <ele>575.517325</ele>
        <time>2022-03-09T10:41:47.399Z</time>
      </trkpt>
      <trkpt lat="42.67797" lon="23.52173">
        <ele>575.467053</ele>
        <time>2022-03-09T10:41:50.418Z</time>
      </trkpt>
      <trkpt lat="42.67807" lon="23.52171">
        <ele>575.423603</ele>
        <time>2022-03-09T10:41:53.398Z</time>
      </trkpt>
      <trkpt lat="42.67817" lon="23.52168">
        <ele>575.381644</ele>
        <time>2022-03-09T10:41:56.411Z</time>
      </trkpt>
      <trkpt lat="42.67827" lon="23.52165">
        <ele>575.336008</ele>
        <time>2022-03-09T10:41:59.429Z</time>
      </trkpt>
      <trkpt lat="42.67838" lon="23.52163">
        <ele>575.297724</ele>
        <time>2022-03-09T10:42:02.398Z</time>
      </trkpt>
      <trkpt lat="42.67849" lon="23.5216">
        <ele>575.262287</ele>
        <time>2022-03-09T10:42:05.398Z</time>
      </trkpt>
      <trkpt lat="42.67859" lon="23.52157">
        <ele>575.232115</ele>
        <time>2022-03-09T10:42:08.402Z</time>
      </trkpt>
      <trkpt lat="42.67869" lon="23.52156">
        <ele>575.202741</ele>
        <time>2022-03-09T10:42:11.400Z</time>
      </trkpt>
      <trkpt lat="42.6788" lon="23.52154">
        <ele>575.170952</ele>
        <time>2022-03-09T10:42:14.393Z</time>
      </trkpt>
      <trkpt lat="42.6789" lon="23.52153">
        <ele>575.142101</ele>
        <time>2022-03-09T10:42:17.418Z</time>
      </trkpt>
      <trkpt lat="42.679" lon="23.52152">
        <ele>575.112414</ele>
        <time>2022-03-09T10:42:21.432Z</time>
      </trkpt>
      <trkpt lat="42.6791" lon="23.5215">
        <ele>575.083159</ele>
        <time>2022-03-09T10:42:25.401Z</time>
      </trkpt>
      <trkpt lat="42.67919" lon="23.52147">
        <ele>575.05377</ele>
        <time>2022-03-09T10:42:30.409Z</time>
      </trkpt>
      <trkpt lat="42.67929" lon="23.52145">
        <ele>575.024465</ele>
        <time>2022-03-09T10:42:35.412Z</time>
      </trkpt>
      <trkpt lat="42.67938" lon="23.52142">
        <ele>574.997361</ele>
        <time>2022-03-09T10:42:39.412Z</time>
      </trkpt>
      <trkpt lat="42.67949" lon="23.5214">
        <ele>574.96553</ele>
        <time>2022-03-09T10:42:43.393Z</time>
      </trkpt>
      <trkpt lat="42.6796" lon="23.52136">
        <ele>574.932432</ele>
        <time>2022-03-09T10:42:46.428Z</time>
      </trkpt>
      <trkpt lat="42.67968" lon="23.52134">
        <ele>574.905659</ele>
        <time>2022-03-09T10:42:48.413Z</time>
      </trkpt>
      <trkpt lat="42.67979" lon="23.52131">
        <ele>574.873498</ele>
        <time>2022-03-09T10:42:50.401Z</time>
      </trkpt>
      <trkpt lat="42.6799" lon="23.52128">
        <ele>574.840833</ele>
        <time>2022-03-09T10:42:52.445Z</time>
      </trkpt>
      <trkpt lat="42.68001" lon="23.52124">
        <ele>574.806784</ele>
        <time>2022-03-09T10:42:54.454Z</time>
      </trkpt>
      <trkpt lat="42.68011" lon="23.5212">
        <ele>574.746142</ele>
        <time>2022-03-09T10:42:56.398Z</time>
      </trkpt>
      <trkpt lat="42.68021" lon="23.52115">
        <ele>574.601869</ele>
        <time>2022-03-09T10:42:58.404Z</time>
      </trkpt>
      <trkpt lat="42.6803" lon="23.52109">
        <ele>574.454576</ele>
        <time>2022-03-09T10:43:00.417Z</time>
      </trkpt>
      <trkpt lat="42.68037" lon="23.52101">
        <ele>574.320851</ele>
        <time>2022-03-09T10:43:02.397Z</time>
      </trkpt>
      <trkpt lat="42.68044" lon="23.52093">
        <ele>574.191366</ele>
        <time>2022-03-09T10:43:04.399Z</time>
      </trkpt>
      <trkpt lat="42.68051" lon="23.52081">
        <ele>574.027409</ele>
        <time>2022-03-09T10:43:07.404Z</time>
      </trkpt>
      <trkpt lat="42.68056" lon="23.52068">
        <ele>573.871309</ele>
        <time>2022-03-09T10:43:10.403Z</time>
      </trkpt>
      <trkpt lat="42.68061" lon="23.52052">
        <ele>573.696363</ele>
        <time>2022-03-09T10:43:13.417Z</time>
      </trkpt>
      <trkpt lat="42.68066" lon="23.52036">
        <ele>573.506243</ele>
        <time>2022-03-09T10:43:16.454Z</time>
      </trkpt>
      <trkpt lat="42.6807" lon="23.52021">
        <ele>573.334671</ele>
        <time>2022-03-09T10:43:19.402Z</time>
      </trkpt>
      <trkpt lat="42.68075" lon="23.52005">
        <ele>573.151925</ele>
        <time>2022-03-09T10:43:22.388Z</time>
      </trkpt>
      <trkpt lat="42.68081" lon="23.51989">
        <ele>572.96666</ele>
        <time>2022-03-09T10:43:25.399Z</time>
      </trkpt>
      <trkpt lat="42.68087" lon="23.51973">
        <ele>572.779268</ele>
        <time>2022-03-09T10:43:28.417Z</time>
      </trkpt>
      <trkpt lat="42.68092" lon="23.51958">
        <ele>572.594779</ele>
        <time>2022-03-09T10:43:31.389Z</time>
      </trkpt>
      <trkpt lat="42.68096" lon="23.51946">
        <ele>572.463945</ele>
        <time>2022-03-09T10:43:33.407Z</time>
      </trkpt>
      <trkpt lat="42.68101" lon="23.5193">
        <ele>572.276891</ele>
        <time>2022-03-09T10:43:36.399Z</time>
      </trkpt>
      <trkpt lat="42.68105" lon="23.51919">
        <ele>572.167635</ele>
        <time>2022-03-09T10:43:38.409Z</time>
      </trkpt>
      <trkpt lat="42.68109" lon="23.51908">
        <ele>572.097721</ele>
        <time>2022-03-09T10:43:40.410Z</time>
      </trkpt>
      <trkpt lat="42.68115" lon="23.51894">
        <ele>572.004726</ele>
        <time>2022-03-09T10:43:43.405Z</time>
      </trkpt>
      <trkpt lat="42.6812" lon="23.51879">
        <ele>571.911771</ele>
        <time>2022-03-09T10:43:46.389Z</time>
      </trkpt>
      <trkpt lat="42.68125" lon="23.51865">
        <ele>571.821631</ele>
        <time>2022-03-09T10:43:49.399Z</time>
      </trkpt>
      <trkpt lat="42.68131" lon="23.51852">
        <ele>571.737292</ele>
        <time>2022-03-09T10:43:52.402Z</time>
      </trkpt>
      <trkpt lat="42.68136" lon="23.51837">
        <ele>571.645158</ele>
        <time>2022-03-09T10:43:55.409Z</time>
      </trkpt>
      <trkpt lat="42.68142" lon="23.51824">
        <ele>571.558103</ele>
        <time>2022-03-09T10:43:58.398Z</time>
      </trkpt>
      <trkpt lat="42.68146" lon="23.51809">
        <ele>571.465364</ele>
        <time>2022-03-09T10:44:01.403Z</time>
      </trkpt>
      <trkpt lat="42.68151" lon="23.51793">
        <ele>571.370242</ele>
        <time>2022-03-09T10:44:04.385Z</time>
      </trkpt>
      <trkpt lat="42.68157" lon="23.51779">
        <ele>571.278152</ele>
        <time>2022-03-09T10:44:07.415Z</time>
      </trkpt>
      <trkpt lat="42.68161" lon="23.51765">
        <ele>571.191478</ele>
        <time>2022-03-09T10:44:10.399Z</time>
      </trkpt>
      <trkpt lat="42.68166" lon="23.5175">
        <ele>571.100081</ele>
        <time>2022-03-09T10:44:13.398Z</time>
      </trkpt>
      <trkpt lat="42.6817" lon="23.51735">
        <ele>571.01329</ele>
        <time>2022-03-09T10:44:16.404Z</time>
      </trkpt>
      <trkpt lat="42.68174" lon="23.51721">
        <ele>570.927249</ele>
        <time>2022-03-09T10:44:19.399Z</time>
      </trkpt>
      <trkpt lat="42.68178" lon="23.51707">
        <ele>570.839346</ele>
        <time>2022-03-09T10:44:22.425Z</time>
      </trkpt>
      <trkpt lat="42.68182" lon="23.51692">
        <ele>570.800247</ele>
        <time>2022-03-09T10:44:25.404Z</time>
      </trkpt>
      <trkpt lat="42.68188" lon="23.51679">
        <ele>570.789051</ele>
        <time>2022-03-09T10:44:28.428Z</time>
      </trkpt>
      <trkpt lat="42.68193" lon="23.51665">
        <ele>570.778268</ele>
        <time>2022-03-09T10:44:31.410Z</time>
      </trkpt>
      <trkpt lat="42.68198" lon="23.51652">
        <ele>570.76795</ele>
        <time>2022-03-09T10:44:34.426Z</time>
      </trkpt>
      <trkpt lat="42.68202" lon="23.51639">
        <ele>570.757527</ele>
        <time>2022-03-09T10:44:37.392Z</time>
      </trkpt>
      <trkpt lat="42.68208" lon="23.51625">
        <ele>570.745956</ele>
        <time>2022-03-09T10:44:40.414Z</time>
      </trkpt>
      <trkpt lat="42.68212" lon="23.51611">
        <ele>570.734849</ele>
        <time>2022-03-09T10:44:43.408Z</time>
      </trkpt>
      <trkpt lat="42.68217" lon="23.51596">
        <ele>570.723505</ele>
        <time>2022-03-09T10:44:46.409Z</time>
      </trkpt>
      <trkpt lat="42.68221" lon="23.51582">
        <ele>570.712077</ele>
        <time>2022-03-09T10:44:49.412Z</time>
      </trkpt>
      <trkpt lat="42.68226" lon="23.51567">
        <ele>570.700667</ele>
        <time>2022-03-09T10:44:52.400Z</time>
      </trkpt>
      <trkpt lat="42.6823" lon="23.51554">
        <ele>570.690386</ele>
        <time>2022-03-09T10:44:55.405Z</time>
      </trkpt>
      <trkpt lat="42.68236" lon="23.51541">
        <ele>570.679239</ele>
        <time>2022-03-09T10:44:58.396Z</time>
      </trkpt>
      <trkpt lat="42.68241" lon="23.51526">
        <ele>570.667653</ele>
        <time>2022-03-09T10:45:01.412Z</time>
      </trkpt>
      <trkpt lat="42.68247" lon="23.51514">
        <ele>570.657485</ele>
        <time>2022-03-09T10:45:04.398Z</time>
      </trkpt>
      <trkpt lat="42.6825" lon="23.51502">
        <ele>570.64817</ele>
        <time>2022-03-09T10:45:07.399Z</time>
      </trkpt>
      <trkpt lat="42.68254" lon="23.5149">
        <ele>570.63826</ele>
        <time>2022-03-09T10:45:10.407Z</time>
      </trkpt>
      <trkpt lat="42.68259" lon="23.51475">
        <ele>570.710241</ele>
        <time>2022-03-09T10:45:13.433Z</time>
      </trkpt>
      <trkpt lat="42.68263" lon="23.5146">
        <ele>570.895906</ele>
        <time>2022-03-09T10:45:16.410Z</time>
      </trkpt>
      <trkpt lat="42.68268" lon="23.51445">
        <ele>571.079011</ele>
        <time>2022-03-09T10:45:19.450Z</time>
      </trkpt>
      <trkpt lat="42.68272" lon="23.51432">
        <ele>571.251338</ele>
        <time>2022-03-09T10:45:22.397Z</time>
      </trkpt>
      <trkpt lat="42.68277" lon="23.51419">
        <ele>571.413265</ele>
        <time>2022-03-09T10:45:25.406Z</time>
      </trkpt>
      <trkpt lat="42.68282" lon="23.51406">
        <ele>571.582244</ele>
        <time>2022-03-09T10:45:28.434Z</time>
      </trkpt>
      <trkpt lat="42.68287" lon="23.51394">
        <ele>571.747246</ele>
        <time>2022-03-09T10:45:31.402Z</time>
      </trkpt>
      <trkpt lat="42.68292" lon="23.51381">
        <ele>571.90634</ele>
        <time>2022-03-09T10:45:34.397Z</time>
      </trkpt>
      <trkpt lat="42.68297" lon="23.51368">
        <ele>572.078103</ele>
        <time>2022-03-09T10:45:37.392Z</time>
      </trkpt>
      <trkpt lat="42.68301" lon="23.51356">
        <ele>572.237887</ele>
        <time>2022-03-09T10:45:40.390Z</time>
      </trkpt>
      <trkpt lat="42.68306" lon="23.51343">
        <ele>572.405633</ele>
        <time>2022-03-09T10:45:43.411Z</time>
      </trkpt>
      <trkpt lat="42.68311" lon="23.5133">
        <ele>572.570336</ele>
        <time>2022-03-09T10:45:46.430Z</time>
      </trkpt>
      <trkpt lat="42.68315" lon="23.51318">
        <ele>572.731514</ele>
        <time>2022-03-09T10:45:49.399Z</time>
      </trkpt>
      <trkpt lat="42.68319" lon="23.51306">
        <ele>572.883757</ele>
        <time>2022-03-09T10:45:52.400Z</time>
      </trkpt>
      <trkpt lat="42.68323" lon="23.51294">
        <ele>573.035608</ele>
        <time>2022-03-09T10:45:55.396Z</time>
      </trkpt>
      <trkpt lat="42.68328" lon="23.51281">
        <ele>573.195391</ele>
        <time>2022-03-09T10:45:58.400Z</time>
      </trkpt>
      <trkpt lat="42.68333" lon="23.51268">
        <ele>573.363166</ele>
        <time>2022-03-09T10:46:01.399Z</time>
      </trkpt>
      <trkpt lat="42.68338" lon="23.51255">
        <ele>573.366531</ele>
        <time>2022-03-09T10:46:04.400Z</time>
      </trkpt>
      <trkpt lat="42.68343" lon="23.51241">
        <ele>573.174425</ele>
        <time>2022-03-09T10:46:07.409Z</time>
      </trkpt>
      <trkpt lat="42.68348" lon="23.51228">
        <ele>572.979442</ele>
        <time>2022-03-09T10:46:10.417Z</time>
      </trkpt>
      <trkpt lat="42.68353" lon="23.51215">
        <ele>572.791899</ele>
        <time>2022-03-09T10:46:13.405Z</time>
      </trkpt>
      <trkpt lat="42.68358" lon="23.51202">
        <ele>572.60781</ele>
        <time>2022-03-09T10:46:16.418Z</time>
      </trkpt>
      <trkpt lat="42.68363" lon="23.51189">
        <ele>572.428664</ele>
        <time>2022-03-09T10:46:19.443Z</time>
      </trkpt>
      <trkpt lat="42.68367" lon="23.51177">
        <ele>572.248721</ele>
        <time>2022-03-09T10:46:22.401Z</time>
      </trkpt>
      <trkpt lat="42.68373" lon="23.51163">
        <ele>572.047793</ele>
        <time>2022-03-09T10:46:25.445Z</time>
      </trkpt>
      <trkpt lat="42.68379" lon="23.5115">
        <ele>571.849771</ele>
        <time>2022-03-09T10:46:28.401Z</time>
      </trkpt>
      <trkpt lat="42.68384" lon="23.51137">
        <ele>571.661697</ele>
        <time>2022-03-09T10:46:31.405Z</time>
      </trkpt>
      <trkpt lat="42.6839" lon="23.51123">
        <ele>571.459316</ele>
        <time>2022-03-09T10:46:34.408Z</time>
      </trkpt>
      <trkpt lat="42.68396" lon="23.51112">
        <ele>571.28533</ele>
        <time>2022-03-09T10:46:37.390Z</time>
      </trkpt>
      <trkpt lat="42.68403" lon="23.511">
        <ele>571.090865</ele>
        <time>2022-03-09T10:46:40.395Z</time>
      </trkpt>
      <trkpt lat="42.6841" lon="23.51089">
        <ele>570.898497</ele>
        <time>2022-03-09T10:46:43.417Z</time>
      </trkpt>
      <trkpt lat="42.68418" lon="23.51078">
        <ele>570.706352</ele>
        <time>2022-03-09T10:46:46.399Z</time>
      </trkpt>
      <trkpt lat="42.68425" lon="23.51067">
        <ele>570.524071</ele>
        <time>2022-03-09T10:46:49.405Z</time>
      </trkpt>
      <trkpt lat="42.68431" lon="23.51056">
        <ele>570.341911</ele>
        <time>2022-03-09T10:46:52.391Z</time>
      </trkpt>
      <trkpt lat="42.68438" lon="23.51045">
        <ele>570.320299</ele>
        <time>2022-03-09T10:46:55.397Z</time>
      </trkpt>
      <trkpt lat="42.68444" lon="23.51034">
        <ele>570.304543</ele>
        <time>2022-03-09T10:46:58.401Z</time>
      </trkpt>
      <trkpt lat="42.68451" lon="23.51023">
        <ele>570.287867</ele>
        <time>2022-03-09T10:47:01.404Z</time>
      </trkpt>
      <trkpt lat="42.68458" lon="23.51012">
        <ele>570.270712</ele>
        <time>2022-03-09T10:47:04.390Z</time>
      </trkpt>
      <trkpt lat="42.68465" lon="23.51">
        <ele>570.253757</ele>
        <time>2022-03-09T10:47:07.414Z</time>
      </trkpt>
      <trkpt lat="42.68472" lon="23.5099">
        <ele>570.237222</ele>
        <time>2022-03-09T10:47:10.448Z</time>
      </trkpt>
      <trkpt lat="42.68478" lon="23.50979">
        <ele>570.221157</ele>
        <time>2022-03-09T10:47:13.410Z</time>
      </trkpt>
      <trkpt lat="42.68485" lon="23.50968">
        <ele>570.204652</ele>
        <time>2022-03-09T10:47:16.396Z</time>
      </trkpt>
      <trkpt lat="42.68491" lon="23.50958">
        <ele>570.188536</ele>
        <time>2022-03-09T10:47:19.393Z</time>
      </trkpt>
      <trkpt lat="42.68499" lon="23.50947">
        <ele>570.171426</ele>
        <time>2022-03-09T10:47:22.407Z</time>
      </trkpt>
      <trkpt lat="42.68505" lon="23.50937">
        <ele>570.155879</ele>
        <time>2022-03-09T10:47:25.385Z</time>
      </trkpt>
      <trkpt lat="42.68513" lon="23.50926">
        <ele>570.13862</ele>
        <time>2022-03-09T10:47:28.398Z</time>
      </trkpt>
      <trkpt lat="42.6852" lon="23.50915">
        <ele>570.122276</ele>
        <time>2022-03-09T10:47:31.397Z</time>
      </trkpt>
      <trkpt lat="42.68527" lon="23.50904">
        <ele>570.104848</ele>
        <time>2022-03-09T10:47:34.428Z</time>
      </trkpt>
      <trkpt lat="42.68534" lon="23.50896">
        <ele>570.090049</ele>
        <time>2022-03-09T10:47:37.413Z</time>
      </trkpt>
      <trkpt lat="42.68542" lon="23.50883">
        <ele>570.070738</ele>
        <time>2022-03-09T10:47:41.394Z</time>
      </trkpt>
      <trkpt lat="42.68549" lon="23.50871">
        <ele>570.053329</ele>
        <time>2022-03-09T10:47:45.419Z</time>
      </trkpt>
      <trkpt lat="42.68555" lon="23.50859">
        <ele>570.076398</ele>
        <time>2022-03-09T10:47:49.401Z</time>
      </trkpt>
      <trkpt lat="42.68562" lon="23.50848">
        <ele>570.101495</ele>
        <time>2022-03-09T10:47:53.428Z</time>
      </trkpt>
      <trkpt lat="42.6857" lon="23.50836">
        <ele>570.128296</ele>
        <time>2022-03-09T10:47:57.401Z</time>
      </trkpt>
      <trkpt lat="42.68576" lon="23.50826">
        <ele>570.148757</ele>
        <time>2022-03-09T10:48:00.398Z</time>
      </trkpt>
      <trkpt lat="42.68582" lon="23.50816">
        <ele>570.16981</ele>
        <time>2022-03-09T10:48:03.409Z</time>
      </trkpt>
      <trkpt lat="42.68588" lon="23.50807">
        <ele>570.190147</ele>
        <time>2022-03-09T10:48:06.403Z</time>
      </trkpt>
      <trkpt lat="42.68596" lon="23.50795">
        <ele>570.216922</ele>
        <time>2022-03-09T10:48:10.397Z</time>
      </trkpt>
      <trkpt lat="42.68603" lon="23.50784">
        <ele>570.242349</ele>
        <time>2022-03-09T10:48:14.412Z</time>
      </trkpt>
      <trkpt lat="42.68611" lon="23.50771">
        <ele>570.268937</ele>
        <time>2022-03-09T10:48:18.395Z</time>
      </trkpt>
      <trkpt lat="42.68617" lon="23.50761">
        <ele>570.2904</ele>
        <time>2022-03-09T10:48:21.404Z</time>
      </trkpt>
      <trkpt lat="42.68622" lon="23.50751">
        <ele>570.312384</ele>
        <time>2022-03-09T10:48:24.402Z</time>
      </trkpt>
      <trkpt lat="42.68628" lon="23.50741">
        <ele>570.333568</ele>
        <time>2022-03-09T10:48:27.433Z</time>
      </trkpt>
      <trkpt lat="42.68634" lon="23.50731">
        <ele>570.354932</ele>
        <time>2022-03-09T10:48:30.403Z</time>
      </trkpt>
      <trkpt lat="42.6864" lon="23.50721">
        <ele>570.376151</ele>
        <time>2022-03-09T10:48:33.456Z</time>
      </trkpt>
      <trkpt lat="42.68647" lon="23.5071">
        <ele>570.399409</ele>
        <time>2022-03-09T10:48:36.402Z</time>
      </trkpt>
      <trkpt lat="42.68653" lon="23.50701">
        <ele>570.420394</ele>
        <time>2022-03-09T10:48:39.391Z</time>
      </trkpt>
      <trkpt lat="42.68659" lon="23.50691">
        <ele>570.441654</ele>
        <time>2022-03-09T10:48:42.398Z</time>
      </trkpt>
      <trkpt lat="42.68667" lon="23.5068">
        <ele>570.484444</ele>
        <time>2022-03-09T10:48:45.426Z</time>
      </trkpt>
      <trkpt lat="42.68673" lon="23.5067">
        <ele>570.557668</ele>
        <time>2022-03-09T10:48:48.384Z</time>
      </trkpt>
      <trkpt lat="42.68679" lon="23.5066">
        <ele>570.627108</ele>
        <time>2022-03-09T10:48:51.409Z</time>
      </trkpt>
      <trkpt lat="42.68687" lon="23.50648">
        <ele>570.712179</ele>
        <time>2022-03-09T10:48:55.400Z</time>
      </trkpt>
      <trkpt lat="42.68693" lon="23.50639">
        <ele>570.780089</ele>
        <time>2022-03-09T10:48:58.407Z</time>
      </trkpt>
      <trkpt lat="42.68699" lon="23.5063">
        <ele>570.849899</ele>
        <time>2022-03-09T10:49:01.428Z</time>
      </trkpt>
      <trkpt lat="42.68706" lon="23.5062">
        <ele>570.9207</ele>
        <time>2022-03-09T10:49:04.411Z</time>
      </trkpt>
      <trkpt lat="42.68712" lon="23.5061">
        <ele>570.990411</ele>
        <time>2022-03-09T10:49:07.408Z</time>
      </trkpt>
      <trkpt lat="42.68719" lon="23.50601">
        <ele>571.063565</ele>
        <time>2022-03-09T10:49:10.419Z</time>
      </trkpt>
      <trkpt lat="42.68725" lon="23.5059">
        <ele>571.139195</ele>
        <time>2022-03-09T10:49:13.398Z</time>
      </trkpt>
      <trkpt lat="42.68732" lon="23.50579">
        <ele>571.213042</ele>
        <time>2022-03-09T10:49:16.408Z</time>
      </trkpt>
      <trkpt lat="42.68738" lon="23.50569">
        <ele>571.28708</ele>
        <time>2022-03-09T10:49:19.406Z</time>
      </trkpt>
      <trkpt lat="42.68745" lon="23.5056">
        <ele>571.358811</ele>
        <time>2022-03-09T10:49:22.400Z</time>
      </trkpt>
      <trkpt lat="42.68752" lon="23.50549">
        <ele>571.435809</ele>
        <time>2022-03-09T10:49:25.396Z</time>
      </trkpt>
      <trkpt lat="42.68757" lon="23.50539">
        <ele>571.504325</ele>
        <time>2022-03-09T10:49:28.411Z</time>
      </trkpt>
      <trkpt lat="42.68763" lon="23.50529">
        <ele>571.572451</ele>
        <time>2022-03-09T10:49:31.441Z</time>
      </trkpt>
      <trkpt lat="42.6877" lon="23.50518">
        <ele>571.652402</ele>
        <time>2022-03-09T10:49:34.408Z</time>
      </trkpt>
      <trkpt lat="42.68776" lon="23.50507">
        <ele>571.731501</ele>
        <time>2022-03-09T10:49:37.401Z</time>
      </trkpt>
      <trkpt lat="42.68783" lon="23.50496">
        <ele>571.778297</ele>
        <time>2022-03-09T10:49:40.407Z</time>
      </trkpt>
      <trkpt lat="42.6879" lon="23.50484">
        <ele>571.695782</ele>
        <time>2022-03-09T10:49:43.384Z</time>
      </trkpt>
      <trkpt lat="42.68797" lon="23.50473">
        <ele>571.617469</ele>
        <time>2022-03-09T10:49:46.424Z</time>
      </trkpt>
      <trkpt lat="42.68803" lon="23.50462">
        <ele>571.541552</ele>
        <time>2022-03-09T10:49:49.412Z</time>
      </trkpt>
      <trkpt lat="42.6881" lon="23.50452">
        <ele>571.467647</ele>
        <time>2022-03-09T10:49:52.393Z</time>
      </trkpt>
      <trkpt lat="42.68816" lon="23.50442">
        <ele>571.395458</ele>
        <time>2022-03-09T10:49:55.397Z</time>
      </trkpt>
      <trkpt lat="42.68823" lon="23.50433">
        <ele>571.325802</ele>
        <time>2022-03-09T10:49:58.395Z</time>
      </trkpt>
      <trkpt lat="42.6883" lon="23.50422">
        <ele>571.24863</ele>
        <time>2022-03-09T10:50:01.389Z</time>
      </trkpt>
      <trkpt lat="42.68837" lon="23.50412">
        <ele>571.170959</ele>
        <time>2022-03-09T10:50:04.412Z</time>
      </trkpt>
      <trkpt lat="42.68843" lon="23.50401">
        <ele>571.097241</ele>
        <time>2022-03-09T10:50:07.405Z</time>
      </trkpt>
      <trkpt lat="42.68849" lon="23.5039">
        <ele>571.023975</ele>
        <time>2022-03-09T10:50:10.402Z</time>
      </trkpt>
      <trkpt lat="42.68855" lon="23.5038">
        <ele>570.951076</ele>
        <time>2022-03-09T10:50:13.396Z</time>
      </trkpt>
      <trkpt lat="42.68862" lon="23.50369">
        <ele>570.873815</ele>
        <time>2022-03-09T10:50:16.442Z</time>
      </trkpt>
      <trkpt lat="42.68868" lon="23.50358">
        <ele>570.796585</ele>
        <time>2022-03-09T10:50:19.387Z</time>
      </trkpt>
      <trkpt lat="42.68873" lon="23.50347">
        <ele>570.72807</ele>
        <time>2022-03-09T10:50:22.408Z</time>
      </trkpt>
      <trkpt lat="42.68879" lon="23.50337">
        <ele>570.657325</ele>
        <time>2022-03-09T10:50:25.420Z</time>
      </trkpt>
      <trkpt lat="42.68886" lon="23.50327">
        <ele>570.582026</ele>
        <time>2022-03-09T10:50:28.416Z</time>
      </trkpt>
      <trkpt lat="42.68894" lon="23.50316">
        <ele>570.500041</ele>
        <time>2022-03-09T10:50:31.400Z</time>
      </trkpt>
      <trkpt lat="42.68901" lon="23.50306">
        <ele>570.450139</ele>
        <time>2022-03-09T10:50:34.398Z</time>
      </trkpt>
      <trkpt lat="42.68908" lon="23.50294">
        <ele>570.426068</ele>
        <time>2022-03-09T10:50:37.414Z</time>
      </trkpt>
      <trkpt lat="42.68915" lon="23.50283">
        <ele>570.401646</ele>
        <time>2022-03-09T10:50:40.412Z</time>
      </trkpt>
      <trkpt lat="42.68922" lon="23.50273">
        <ele>570.380125</ele>
        <time>2022-03-09T10:50:43.399Z</time>
      </trkpt>
      <trkpt lat="42.68929" lon="23.50262">
        <ele>570.358452</ele>
        <time>2022-03-09T10:50:46.395Z</time>
      </trkpt>
      <trkpt lat="42.68936" lon="23.50253">
        <ele>570.336931</ele>
        <time>2022-03-09T10:50:49.404Z</time>
      </trkpt>
      <trkpt lat="42.68942" lon="23.50243">
        <ele>570.316573</ele>
        <time>2022-03-09T10:50:52.428Z</time>
      </trkpt>
      <trkpt lat="42.68949" lon="23.50234">
        <ele>570.296129</ele>
        <time>2022-03-09T10:50:55.436Z</time>
      </trkpt>
      <trkpt lat="42.68955" lon="23.50224">
        <ele>570.275999</ele>
        <time>2022-03-09T10:50:58.404Z</time>
      </trkpt>
      <trkpt lat="42.68962" lon="23.50213">
        <ele>570.252647</ele>
        <time>2022-03-09T10:51:02.397Z</time>
      </trkpt>
      <trkpt lat="42.68969" lon="23.50201">
        <ele>570.228622</ele>
        <time>2022-03-09T10:51:06.449Z</time>
      </trkpt>
      <trkpt lat="42.68975" lon="23.50189">
        <ele>570.206124</ele>
        <time>2022-03-09T10:51:10.396Z</time>
      </trkpt>
      <trkpt lat="42.6898" lon="23.50179">
        <ele>570.186672</ele>
        <time>2022-03-09T10:51:13.407Z</time>
      </trkpt>
      <trkpt lat="42.68986" lon="23.50166">
        <ele>570.161809</ele>
        <time>2022-03-09T10:51:17.428Z</time>
      </trkpt>
      <trkpt lat="42.68991" lon="23.50155">
        <ele>570.142296</ele>
        <time>2022-03-09T10:51:20.399Z</time>
      </trkpt>
      <trkpt lat="42.68995" lon="23.50141">
        <ele>570.117673</ele>
        <time>2022-03-09T10:51:24.419Z</time>
      </trkpt>
      <trkpt lat="42.69" lon="23.50126">
        <ele>570.092648</ele>
        <time>2022-03-09T10:51:28.410Z</time>
      </trkpt>
      <trkpt lat="42.69004" lon="23.50115">
        <ele>570.071803</ele>
        <time>2022-03-09T10:51:31.409Z</time>
      </trkpt>
      <trkpt lat="42.69008" lon="23.50103">
        <ele>570.042305</ele>
        <time>2022-03-09T10:51:34.410Z</time>
      </trkpt>
      <trkpt lat="42.69012" lon="23.50091">
        <ele>570.0135</ele>
        <time>2022-03-09T10:51:37.391Z</time>
      </trkpt>
      <trkpt lat="42.69017" lon="23.5008">
        <ele>569.984964</ele>
        <time>2022-03-09T10:51:40.400Z</time>
      </trkpt>
      <trkpt lat="42.6902" lon="23.50068">
        <ele>569.957058</ele>
        <time>2022-03-09T10:51:43.415Z</time>
      </trkpt>
      <trkpt lat="42.69024" lon="23.50057">
        <ele>569.929563</ele>
        <time>2022-03-09T10:51:46.394Z</time>
      </trkpt>
      <trkpt lat="42.69028" lon="23.50045">
        <ele>569.901027</ele>
        <time>2022-03-09T10:51:49.409Z</time>
      </trkpt>
      <trkpt lat="42.69032" lon="23.50034">
        <ele>569.873487</ele>
        <time>2022-03-09T10:51:52.406Z</time>
      </trkpt>
      <trkpt lat="42.69035" lon="23.50022">
        <ele>569.84493</ele>
        <time>2022-03-09T10:51:55.398Z</time>
      </trkpt>
      <trkpt lat="42.69039" lon="23.5001">
        <ele>569.814288</ele>
        <time>2022-03-09T10:51:58.394Z</time>
      </trkpt>
      <trkpt lat="42.69044" lon="23.49997">
        <ele>569.782706</ele>
        <time>2022-03-09T10:52:01.406Z</time>
      </trkpt>
      <trkpt lat="42.69048" lon="23.49985">
        <ele>569.751615</ele>
        <time>2022-03-09T10:52:04.415Z</time>
      </trkpt>
      <trkpt lat="42.69052" lon="23.49972">
        <ele>569.721913</ele>
        <time>2022-03-09T10:52:07.432Z</time>
      </trkpt>
      <trkpt lat="42.69056" lon="23.4996">
        <ele>569.691802</ele>
        <time>2022-03-09T10:52:10.400Z</time>
      </trkpt>
      <trkpt lat="42.6906" lon="23.49949">
        <ele>569.664335</ele>
        <time>2022-03-09T10:52:13.410Z</time>
      </trkpt>
      <trkpt lat="42.69064" lon="23.49937">
        <ele>569.636513</ele>
        <time>2022-03-09T10:52:16.404Z</time>
      </trkpt>
      <trkpt lat="42.69068" lon="23.49924">
        <ele>569.604447</ele>
        <time>2022-03-09T10:52:19.395Z</time>
      </trkpt>
      <trkpt lat="42.69072" lon="23.49911">
        <ele>569.571353</ele>
        <time>2022-03-09T10:52:22.396Z</time>
      </trkpt>
      <trkpt lat="42.69077" lon="23.49898">
        <ele>569.540404</ele>
        <time>2022-03-09T10:52:25.431Z</time>
      </trkpt>
      <trkpt lat="42.69081" lon="23.49887">
        <ele>569.521983</ele>
        <time>2022-03-09T10:52:28.399Z</time>
      </trkpt>
      <trkpt lat="42.69085" lon="23.49875">
        <ele>569.510359</ele>
        <time>2022-03-09T10:52:31.411Z</time>
      </trkpt>
      <trkpt lat="42.69089" lon="23.49864">
        <ele>569.49932</ele>
        <time>2022-03-09T10:52:34.400Z</time>
      </trkpt>
      <trkpt lat="42.69094" lon="23.49853">
        <ele>569.488109</ele>
        <time>2022-03-09T10:52:37.393Z</time>
      </trkpt>
      <trkpt lat="42.69099" lon="23.49842">
        <ele>569.47647</ele>
        <time>2022-03-09T10:52:40.433Z</time>
      </trkpt>
      <trkpt lat="42.69106" lon="23.49829">
        <ele>569.462247</ele>
        <time>2022-03-09T10:52:44.393Z</time>
      </trkpt>
      <trkpt lat="42.69111" lon="23.49819">
        <ele>569.451105</ele>
        <time>2022-03-09T10:52:47.409Z</time>
      </trkpt>
      <trkpt lat="42.69116" lon="23.49809">
        <ele>569.439906</ele>
        <time>2022-03-09T10:52:50.385Z</time>
      </trkpt>
      <trkpt lat="42.69121" lon="23.49798">
        <ele>569.428839</ele>
        <time>2022-03-09T10:52:53.408Z</time>
      </trkpt>
      <trkpt lat="42.69128" lon="23.49785">
        <ele>569.414372</ele>
        <time>2022-03-09T10:52:57.417Z</time>
      </trkpt>
      <trkpt lat="42.69133" lon="23.49773">
        <ele>569.402702</ele>
        <time>2022-03-09T10:53:00.415Z</time>
      </trkpt>
      <trkpt lat="42.69138" lon="23.49761">
        <ele>569.389913</ele>
        <time>2022-03-09T10:53:03.411Z</time>
      </trkpt>
      <trkpt lat="42.69144" lon="23.4975">
        <ele>569.378207</ele>
        <time>2022-03-09T10:53:06.398Z</time>
      </trkpt>
      <trkpt lat="42.69149" lon="23.49739">
        <ele>569.365855</ele>
        <time>2022-03-09T10:53:09.395Z</time>
      </trkpt>
      <trkpt lat="42.69156" lon="23.49727">
        <ele>569.352792</ele>
        <time>2022-03-09T10:53:12.392Z</time>
      </trkpt>
      <trkpt lat="42.69162" lon="23.49715">
        <ele>569.339229</ele>
        <time>2022-03-09T10:53:15.397Z</time>
      </trkpt>
      <trkpt lat="42.69168" lon="23.49703">
        <ele>569.326241</ele>
        <time>2022-03-09T10:53:18.409Z</time>
      </trkpt>
      <trkpt lat="42.69174" lon="23.49692">
        <ele>569.314042</ele>
        <time>2022-03-09T10:53:21.397Z</time>
      </trkpt>
      <trkpt lat="42.6918" lon="23.49681">
        <ele>569.296259</ele>
        <time>2022-03-09T10:53:24.462Z</time>
      </trkpt>
      <trkpt lat="42.69185" lon="23.4967">
        <ele>569.27563</ele>
        <time>2022-03-09T10:53:27.404Z</time>
      </trkpt>
      <trkpt lat="42.69191" lon="23.49659">
        <ele>569.256134</ele>
        <time>2022-03-09T10:53:30.395Z</time>
      </trkpt>
      <trkpt lat="42.69196" lon="23.49649">
        <ele>569.236124</ele>
        <time>2022-03-09T10:53:33.390Z</time>
      </trkpt>
      <trkpt lat="42.69202" lon="23.49637">
        <ele>569.21427</ele>
        <time>2022-03-09T10:53:37.419Z</time>
      </trkpt>
      <trkpt lat="42.69208" lon="23.49626">
        <ele>569.192778</ele>
        <time>2022-03-09T10:53:40.441Z</time>
      </trkpt>
      <trkpt lat="42.69214" lon="23.49614">
        <ele>569.170531</ele>
        <time>2022-03-09T10:53:43.387Z</time>
      </trkpt>
      <trkpt lat="42.69219" lon="23.49602">
        <ele>569.150075</ele>
        <time>2022-03-09T10:53:46.384Z</time>
      </trkpt>
      <trkpt lat="42.69225" lon="23.49591">
        <ele>569.129455</ele>
        <time>2022-03-09T10:53:49.409Z</time>
      </trkpt>
      <trkpt lat="42.6923" lon="23.49581">
        <ele>569.110446</ele>
        <time>2022-03-09T10:53:52.446Z</time>
      </trkpt>
      <trkpt lat="42.69235" lon="23.4957">
        <ele>569.090405</ele>
        <time>2022-03-09T10:53:55.407Z</time>
      </trkpt>
      <trkpt lat="42.6924" lon="23.49559">
        <ele>569.070277</ele>
        <time>2022-03-09T10:53:58.402Z</time>
      </trkpt>
      <trkpt lat="42.69245" lon="23.49549">
        <ele>569.050895</ele>
        <time>2022-03-09T10:54:01.408Z</time>
      </trkpt>
      <trkpt lat="42.69251" lon="23.49538">
        <ele>569.031385</ele>
        <time>2022-03-09T10:54:04.408Z</time>
      </trkpt>
      <trkpt lat="42.69256" lon="23.49526">
        <ele>569.009679</ele>
        <time>2022-03-09T10:54:07.412Z</time>
      </trkpt>
      <trkpt lat="42.69262" lon="23.49513">
        <ele>568.986114</ele>
        <time>2022-03-09T10:54:10.404Z</time>
      </trkpt>
      <trkpt lat="42.69267" lon="23.49502">
        <ele>568.964995</ele>
        <time>2022-03-09T10:54:13.404Z</time>
      </trkpt>
      <trkpt lat="42.69274" lon="23.4949">
        <ele>568.942518</ele>
        <time>2022-03-09T10:54:16.408Z</time>
      </trkpt>
      <trkpt lat="42.69279" lon="23.49477">
        <ele>568.945953</ele>
        <time>2022-03-09T10:54:19.393Z</time>
      </trkpt>
      <trkpt lat="42.69284" lon="23.49466">
        <ele>568.965223</ele>
        <time>2022-03-09T10:54:22.395Z</time>
      </trkpt>
      <trkpt lat="42.69289" lon="23.49455">
        <ele>568.985097</ele>
        <time>2022-03-09T10:54:25.434Z</time>
      </trkpt>
      <trkpt lat="42.69295" lon="23.49444">
        <ele>569.004374</ele>
        <time>2022-03-09T10:54:28.402Z</time>
      </trkpt>
      <trkpt lat="42.69302" lon="23.49431">
        <ele>569.029023</ele>
        <time>2022-03-09T10:54:32.412Z</time>
      </trkpt>
      <trkpt lat="42.69308" lon="23.49417">
        <ele>569.052023</ele>
        <time>2022-03-09T10:54:36.427Z</time>
      </trkpt>
      <trkpt lat="42.69315" lon="23.49405">
        <ele>569.074747</ele>
        <time>2022-03-09T10:54:40.392Z</time>
      </trkpt>
      <trkpt lat="42.69321" lon="23.49394">
        <ele>569.095836</ele>
        <time>2022-03-09T10:54:44.409Z</time>
      </trkpt>
      <trkpt lat="42.69329" lon="23.49385">
        <ele>569.116626</ele>
        <time>2022-03-09T10:54:47.411Z</time>
      </trkpt>
      <trkpt lat="42.6934" lon="23.49377">
        <ele>569.140089</ele>
        <time>2022-03-09T10:54:50.398Z</time>
      </trkpt>
      <trkpt lat="42.6935" lon="23.49375">
        <ele>569.16198</ele>
        <time>2022-03-09T10:54:53.453Z</time>
      </trkpt>
      <trkpt lat="42.69361" lon="23.49377">
        <ele>569.183119</ele>
        <time>2022-03-09T10:54:56.404Z</time>
      </trkpt>
      <trkpt lat="42.6937" lon="23.49382">
        <ele>569.202721</ele>
        <time>2022-03-09T10:54:59.411Z</time>
      </trkpt>
      <trkpt lat="42.69379" lon="23.49388">
        <ele>569.221926</ele>
        <time>2022-03-09T10:55:02.389Z</time>
      </trkpt>
      <trkpt lat="42.69387" lon="23.49394">
        <ele>569.24112</ele>
        <time>2022-03-09T10:55:05.413Z</time>
      </trkpt>
      <trkpt lat="42.69397" lon="23.494">
        <ele>569.262526</ele>
        <time>2022-03-09T10:55:08.407Z</time>
      </trkpt>
      <trkpt lat="42.69406" lon="23.49408">
        <ele>569.285503</ele>
        <time>2022-03-09T10:55:11.394Z</time>
      </trkpt>
      <trkpt lat="42.69416" lon="23.49416">
        <ele>569.262935</ele>
        <time>2022-03-09T10:55:14.408Z</time>
      </trkpt>
      <trkpt lat="42.69428" lon="23.49424">
        <ele>569.20934</ele>
        <time>2022-03-09T10:55:17.413Z</time>
      </trkpt>
      <trkpt lat="42.69438" lon="23.49433">
        <ele>569.155618</ele>
        <time>2022-03-09T10:55:20.404Z</time>
      </trkpt>
      <trkpt lat="42.69447" lon="23.49442">
        <ele>569.109742</ele>
        <time>2022-03-09T10:55:23.390Z</time>
      </trkpt>
      <trkpt lat="42.69457" lon="23.49451">
        <ele>569.055118</ele>
        <time>2022-03-09T10:55:26.410Z</time>
      </trkpt>
      <trkpt lat="42.69469" lon="23.49458">
        <ele>569.001279</ele>
        <time>2022-03-09T10:55:29.395Z</time>
      </trkpt>
      <trkpt lat="42.69477" lon="23.49464">
        <ele>568.960889</ele>
        <time>2022-03-09T10:55:31.393Z</time>
      </trkpt>
      <trkpt lat="42.69486" lon="23.49471">
        <ele>568.915202</ele>
        <time>2022-03-09T10:55:33.459Z</time>
      </trkpt>
      <trkpt lat="42.69496" lon="23.49478">
        <ele>568.867755</ele>
        <time>2022-03-09T10:55:35.406Z</time>
      </trkpt>
      <trkpt lat="42.69504" lon="23.49484">
        <ele>568.828139</ele>
        <time>2022-03-09T10:55:37.409Z</time>
      </trkpt>
      <trkpt lat="42.69515" lon="23.49493">
        <ele>568.773662</ele>
        <time>2022-03-09T10:55:40.387Z</time>
      </trkpt>
      <trkpt lat="42.69526" lon="23.495">
        <ele>568.720309</ele>
        <time>2022-03-09T10:55:43.414Z</time>
      </trkpt>
      <trkpt lat="42.69534" lon="23.49506">
        <ele>568.680065</ele>
        <time>2022-03-09T10:55:45.396Z</time>
      </trkpt>
      <trkpt lat="42.69542" lon="23.49512">
        <ele>568.641021</ele>
        <time>2022-03-09T10:55:47.392Z</time>
      </trkpt>
      <trkpt lat="42.6955" lon="23.49518">
        <ele>568.601614</ele>
        <time>2022-03-09T10:55:49.413Z</time>
      </trkpt>
      <trkpt lat="42.69561" lon="23.49528">
        <ele>568.545556</ele>
        <time>2022-03-09T10:55:52.398Z</time>
      </trkpt>
      <trkpt lat="42.69571" lon="23.49535">
        <ele>568.545992</ele>
        <time>2022-03-09T10:55:55.400Z</time>
      </trkpt>
      <trkpt lat="42.69581" lon="23.49544">
        <ele>568.605452</ele>
        <time>2022-03-09T10:55:58.396Z</time>
      </trkpt>
      <trkpt lat="42.6959" lon="23.4955">
        <ele>568.660344</ele>
        <time>2022-03-09T10:56:01.425Z</time>
      </trkpt>
      <trkpt lat="42.69599" lon="23.49558">
        <ele>568.711341</ele>
        <time>2022-03-09T10:56:04.404Z</time>
      </trkpt>
      <trkpt lat="42.69608" lon="23.49564">
        <ele>568.763589</ele>
        <time>2022-03-09T10:56:07.399Z</time>
      </trkpt>
      <trkpt lat="42.69618" lon="23.49572">
        <ele>568.824005</ele>
        <time>2022-03-09T10:56:10.401Z</time>
      </trkpt>
      <trkpt lat="42.69628" lon="23.49579">
        <ele>568.880454</ele>
        <time>2022-03-09T10:56:13.419Z</time>
      </trkpt>
      <trkpt lat="42.69638" lon="23.49585">
        <ele>568.937846</ele>
        <time>2022-03-09T10:56:16.394Z</time>
      </trkpt>
      <trkpt lat="42.6965" lon="23.49592">
        <ele>569.003576</ele>
        <time>2022-03-09T10:56:19.409Z</time>
      </trkpt>
      <trkpt lat="42.69661" lon="23.49595">
        <ele>569.065364</ele>
        <time>2022-03-09T10:56:22.408Z</time>
      </trkpt>
      <trkpt lat="42.69673" lon="23.49598">
        <ele>569.123792</ele>
        <time>2022-03-09T10:56:25.447Z</time>
      </trkpt>
      <trkpt lat="42.69682" lon="23.496">
        <ele>569.17445</ele>
        <time>2022-03-09T10:56:28.412Z</time>
      </trkpt>
      <trkpt lat="42.69694" lon="23.496">
        <ele>569.233014</ele>
        <time>2022-03-09T10:56:31.421Z</time>
      </trkpt>
      <trkpt lat="42.69702" lon="23.4959">
        <ele>569.28983</ele>
        <time>2022-03-09T10:56:35.395Z</time>
      </trkpt>
      <trkpt lat="42.69707" lon="23.49577">
        <ele>569.343596</ele>
        <time>2022-03-09T10:56:38.396Z</time>
      </trkpt>
      <trkpt lat="42.69712" lon="23.49566">
        <ele>569.392364</ele>
        <time>2022-03-09T10:56:41.391Z</time>
      </trkpt>
      <trkpt lat="42.69717" lon="23.49554">
        <ele>569.440016</ele>
        <time>2022-03-09T10:56:44.387Z</time>
      </trkpt>
      <trkpt lat="42.69721" lon="23.4954">
        <ele>569.378949</ele>
        <time>2022-03-09T10:56:47.391Z</time>
      </trkpt>
      <trkpt lat="42.69726" lon="23.49528">
        <ele>569.322939</ele>
        <time>2022-03-09T10:56:50.384Z</time>
      </trkpt>
      <trkpt lat="42.6973" lon="23.49514">
        <ele>569.262145</ele>
        <time>2022-03-09T10:56:53.453Z</time>
      </trkpt>
      <trkpt lat="42.69736" lon="23.495">
        <ele>569.198402</ele>
        <time>2022-03-09T10:56:56.379Z</time>
      </trkpt>
      <trkpt lat="42.6974" lon="23.49485">
        <ele>569.130432</ele>
        <time>2022-03-09T10:56:59.378Z</time>
      </trkpt>
      <trkpt lat="42.69745" lon="23.49469">
        <ele>569.060483</ele>
        <time>2022-03-09T10:57:02.382Z</time>
      </trkpt>
      <trkpt lat="42.69752" lon="23.49455">
        <ele>568.989974</ele>
        <time>2022-03-09T10:57:05.385Z</time>
      </trkpt>
      <trkpt lat="42.69761" lon="23.49442">
        <ele>568.919081</ele>
        <time>2022-03-09T10:57:08.390Z</time>
      </trkpt>
      <trkpt lat="42.69768" lon="23.49428">
        <ele>568.851249</ele>
        <time>2022-03-09T10:57:11.385Z</time>
      </trkpt>
      <trkpt lat="42.69775" lon="23.49415">
        <ele>568.78602</ele>
        <time>2022-03-09T10:57:14.391Z</time>
      </trkpt>
      <trkpt lat="42.69782" lon="23.494">
        <ele>568.714864</ele>
        <time>2022-03-09T10:57:17.383Z</time>
      </trkpt>
      <trkpt lat="42.6979" lon="23.49386">
        <ele>568.642434</ele>
        <time>2022-03-09T10:57:20.382Z</time>
      </trkpt>
      <trkpt lat="42.69797" lon="23.49373">
        <ele>568.573628</ele>
        <time>2022-03-09T10:57:23.443Z</time>
      </trkpt>
      <trkpt lat="42.69804" lon="23.4936">
        <ele>568.509737</ele>
        <time>2022-03-09T10:57:26.403Z</time>
      </trkpt>
      <trkpt lat="42.69811" lon="23.49351">
        <ele>568.455644</ele>
        <time>2022-03-09T10:57:29.401Z</time>
      </trkpt>
      <trkpt lat="42.69819" lon="23.4934">
        <ele>568.454102</ele>
        <time>2022-03-09T10:57:32.413Z</time>
      </trkpt>
      <trkpt lat="42.69826" lon="23.4933">
        <ele>568.461159</ele>
        <time>2022-03-09T10:57:35.388Z</time>
      </trkpt>
      <trkpt lat="42.69834" lon="23.49321">
        <ele>568.468227</ele>
        <time>2022-03-09T10:57:38.401Z</time>
      </trkpt>
      <trkpt lat="42.69843" lon="23.49311">
        <ele>568.476214</ele>
        <time>2022-03-09T10:57:41.397Z</time>
      </trkpt>
      <trkpt lat="42.6985" lon="23.49301">
        <ele>568.483375</ele>
        <time>2022-03-09T10:57:44.386Z</time>
      </trkpt>
      <trkpt lat="42.69857" lon="23.49291">
        <ele>568.490057</ele>
        <time>2022-03-09T10:57:47.392Z</time>
      </trkpt>
      <trkpt lat="42.69864" lon="23.49283">
        <ele>568.49637</ele>
        <time>2022-03-09T10:57:50.448Z</time>
      </trkpt>
      <trkpt lat="42.69871" lon="23.49274">
        <ele>568.502669</ele>
        <time>2022-03-09T10:57:53.391Z</time>
      </trkpt>
      <trkpt lat="42.69879" lon="23.49268">
        <ele>568.508932</ele>
        <time>2022-03-09T10:57:56.431Z</time>
      </trkpt>
      <trkpt lat="42.69887" lon="23.4926">
        <ele>568.515811</ele>
        <time>2022-03-09T10:57:59.411Z</time>
      </trkpt>
      <trkpt lat="42.69894" lon="23.49251">
        <ele>568.52231</ele>
        <time>2022-03-09T10:58:02.402Z</time>
      </trkpt>
      <trkpt lat="42.69901" lon="23.49243">
        <ele>568.528555</ele>
        <time>2022-03-09T10:58:05.399Z</time>
      </trkpt>
      <trkpt lat="42.6991" lon="23.49235">
        <ele>568.535435</ele>
        <time>2022-03-09T10:58:08.429Z</time>
      </trkpt>
      <trkpt lat="42.69919" lon="23.49227">
        <ele>568.542823</ele>
        <time>2022-03-09T10:58:11.400Z</time>
      </trkpt>
      <trkpt lat="42.69928" lon="23.49221">
        <ele>568.549702</ele>
        <time>2022-03-09T10:58:14.391Z</time>
      </trkpt>
      <trkpt lat="42.69938" lon="23.49218">
        <ele>568.556942</ele>
        <time>2022-03-09T10:58:17.417Z</time>
      </trkpt>
      <trkpt lat="42.69948" lon="23.49215">
        <ele>568.563925</ele>
        <time>2022-03-09T10:58:20.403Z</time>
      </trkpt>
      <trkpt lat="42.69959" lon="23.49213">
        <ele>568.534885</ele>
        <time>2022-03-09T10:58:23.406Z</time>
      </trkpt>
      <trkpt lat="42.6997" lon="23.49213">
        <ele>568.253198</ele>
        <time>2022-03-09T10:58:26.389Z</time>
      </trkpt>
      <trkpt lat="42.69983" lon="23.49214">
        <ele>567.954076</ele>
        <time>2022-03-09T10:58:29.447Z</time>
      </trkpt>
      <trkpt lat="42.69994" lon="23.49219">
        <ele>567.670198</ele>
        <time>2022-03-09T10:58:32.394Z</time>
      </trkpt>
      <trkpt lat="42.70003" lon="23.49228">
        <ele>567.404248</ele>
        <time>2022-03-09T10:58:35.396Z</time>
      </trkpt>
      <trkpt lat="42.70013" lon="23.49236">
        <ele>567.112956</ele>
        <time>2022-03-09T10:58:38.410Z</time>
      </trkpt>
      <trkpt lat="42.70021" lon="23.49243">
        <ele>566.889461</ele>
        <time>2022-03-09T10:58:40.421Z</time>
      </trkpt>
      <trkpt lat="42.70032" lon="23.4925">
        <ele>566.596102</ele>
        <time>2022-03-09T10:58:43.408Z</time>
      </trkpt>
      <trkpt lat="42.70042" lon="23.49259">
        <ele>566.295799</ele>
        <time>2022-03-09T10:58:46.396Z</time>
      </trkpt>
      <trkpt lat="42.70053" lon="23.49266">
        <ele>565.997291</ele>
        <time>2022-03-09T10:58:49.411Z</time>
      </trkpt>
      <trkpt lat="42.70062" lon="23.49268">
        <ele>565.778595</ele>
        <time>2022-03-09T10:58:51.416Z</time>
      </trkpt>
      <trkpt lat="42.70072" lon="23.49271">
        <ele>565.538659</ele>
        <time>2022-03-09T10:58:53.409Z</time>
      </trkpt>
      <trkpt lat="42.70081" lon="23.49273">
        <ele>565.299638</ele>
        <time>2022-03-09T10:58:55.404Z</time>
      </trkpt>
      <trkpt lat="42.70091" lon="23.49276">
        <ele>565.059978</ele>
        <time>2022-03-09T10:58:57.427Z</time>
      </trkpt>
      <trkpt lat="42.70102" lon="23.49279">
        <ele>564.800328</ele>
        <time>2022-03-09T10:58:59.416Z</time>
      </trkpt>
      <trkpt lat="42.70115" lon="23.49283">
        <ele>564.47638</ele>
        <time>2022-03-09T10:59:02.408Z</time>
      </trkpt>
      <trkpt lat="42.70125" lon="23.49287">
        <ele>564.220122</ele>
        <time>2022-03-09T10:59:04.405Z</time>
      </trkpt>
      <trkpt lat="42.70135" lon="23.4929">
        <ele>564.2624</ele>
        <time>2022-03-09T10:59:06.408Z</time>
      </trkpt>
      <trkpt lat="42.70145" lon="23.49292">
        <ele>564.323274</ele>
        <time>2022-03-09T10:59:08.390Z</time>
      </trkpt>
      <trkpt lat="42.70154" lon="23.49294">
        <ele>564.383068</ele>
        <time>2022-03-09T10:59:10.405Z</time>
      </trkpt>
      <trkpt lat="42.70167" lon="23.49295">
        <ele>564.46309</ele>
        <time>2022-03-09T10:59:13.434Z</time>
      </trkpt>
      <trkpt lat="42.70181" lon="23.49296">
        <ele>564.543721</ele>
        <time>2022-03-09T10:59:16.412Z</time>
      </trkpt>
      <trkpt lat="42.70193" lon="23.49298">
        <ele>564.618948</ele>
        <time>2022-03-09T10:59:19.400Z</time>
      </trkpt>
      <trkpt lat="42.70205" lon="23.49299">
        <ele>564.690427</ele>
        <time>2022-03-09T10:59:22.399Z</time>
      </trkpt>
      <trkpt lat="42.70214" lon="23.49299">
        <ele>564.745891</ele>
        <time>2022-03-09T10:59:24.454Z</time>
      </trkpt>
      <trkpt lat="42.70227" lon="23.49298">
        <ele>564.826466</ele>
        <time>2022-03-09T10:59:27.411Z</time>
      </trkpt>
      <trkpt lat="42.7024" lon="23.49297">
        <ele>564.903881</ele>
        <time>2022-03-09T10:59:30.399Z</time>
      </trkpt>
      <trkpt lat="42.70252" lon="23.49296">
        <ele>564.977792</ele>
        <time>2022-03-09T10:59:33.444Z</time>
      </trkpt>
      <trkpt lat="42.70264" lon="23.49296">
        <ele>565.055201</ele>
        <time>2022-03-09T10:59:36.401Z</time>
      </trkpt>
      <trkpt lat="42.70274" lon="23.49296">
        <ele>565.112499</ele>
        <time>2022-03-09T10:59:38.410Z</time>
      </trkpt>
      <trkpt lat="42.70284" lon="23.49296">
        <ele>565.171619</ele>
        <time>2022-03-09T10:59:40.389Z</time>
      </trkpt>
      <trkpt lat="42.70297" lon="23.49295">
        <ele>565.252171</ele>
        <time>2022-03-09T10:59:43.399Z</time>
      </trkpt>
      <trkpt lat="42.7031" lon="23.49294">
        <ele>565.329769</ele>
        <time>2022-03-09T10:59:46.436Z</time>
      </trkpt>
      <trkpt lat="42.70323" lon="23.49293">
        <ele>565.402874</ele>
        <time>2022-03-09T10:59:49.405Z</time>
      </trkpt>
      <trkpt lat="42.70332" lon="23.49293">
        <ele>565.4543</ele>
        <time>2022-03-09T10:59:51.399Z</time>
      </trkpt>
      <trkpt lat="42.70345" lon="23.49292">
        <ele>565.526215</ele>
        <time>2022-03-09T10:59:54.407Z</time>
      </trkpt>
      <trkpt lat="42.70358" lon="23.4929">
        <ele>565.59458</ele>
        <time>2022-03-09T10:59:57.388Z</time>
      </trkpt>
      <trkpt lat="42.70369" lon="23.49287">
        <ele>565.66091</ele>
        <time>2022-03-09T11:00:00.394Z</time>
      </trkpt>
      <trkpt lat="42.70381" lon="23.49282">
        <ele>565.725841</ele>
        <time>2022-03-09T11:00:03.423Z</time>
      </trkpt>
      <trkpt lat="42.70392" lon="23.49277">
        <ele>565.792239</ele>
        <time>2022-03-09T11:00:06.481Z</time>
      </trkpt>
      <trkpt lat="42.70402" lon="23.49271">
        <ele>565.853526</ele>
        <time>2022-03-09T11:00:09.398Z</time>
      </trkpt>
      <trkpt lat="42.70413" lon="23.49266">
        <ele>565.918189</ele>
        <time>2022-03-09T11:00:12.406Z</time>
      </trkpt>
      <trkpt lat="42.70424" lon="23.49262">
        <ele>565.980212</ele>
        <time>2022-03-09T11:00:15.411Z</time>
      </trkpt>
      <trkpt lat="42.70436" lon="23.49258">
        <ele>566.045964</ele>
        <time>2022-03-09T11:00:18.409Z</time>
      </trkpt>
      <trkpt lat="42.70447" lon="23.49252">
        <ele>566.115909</ele>
        <time>2022-03-09T11:00:21.414Z</time>
      </trkpt>
      <trkpt lat="42.70456" lon="23.49244">
        <ele>566.174479</ele>
        <time>2022-03-09T11:00:24.401Z</time>
      </trkpt>
      <trkpt lat="42.70464" lon="23.49235">
        <ele>566.228407</ele>
        <time>2022-03-09T11:00:27.408Z</time>
      </trkpt>
      <trkpt lat="42.70471" lon="23.49224">
        <ele>566.291497</ele>
        <time>2022-03-09T11:00:30.408Z</time>
      </trkpt>
      <trkpt lat="42.70476" lon="23.49211">
        <ele>566.501624</ele>
        <time>2022-03-09T11:00:33.394Z</time>
      </trkpt>
      <trkpt lat="42.70482" lon="23.49195">
        <ele>566.763863</ele>
        <time>2022-03-09T11:00:36.401Z</time>
      </trkpt>
      <trkpt lat="42.70488" lon="23.49181">
        <ele>567.012956</ele>
        <time>2022-03-09T11:00:39.397Z</time>
      </trkpt>
      <trkpt lat="42.70494" lon="23.49166">
        <ele>567.266393</ele>
        <time>2022-03-09T11:00:42.414Z</time>
      </trkpt>
      <trkpt lat="42.70501" lon="23.49152">
        <ele>567.509238</ele>
        <time>2022-03-09T11:00:45.399Z</time>
      </trkpt>
      <trkpt lat="42.70506" lon="23.49139">
        <ele>567.728353</ele>
        <time>2022-03-09T11:00:48.385Z</time>
      </trkpt>
      <trkpt lat="42.70508" lon="23.49125">
        <ele>567.940629</ele>
        <time>2022-03-09T11:00:51.414Z</time>
      </trkpt>
      <trkpt lat="42.70509" lon="23.49112">
        <ele>568.139483</ele>
        <time>2022-03-09T11:00:54.396Z</time>
      </trkpt>
      <trkpt lat="42.70508" lon="23.491">
        <ele>568.331422</ele>
        <time>2022-03-09T11:00:57.533Z</time>
      </trkpt>
      <trkpt lat="42.70508" lon="23.49086">
        <ele>568.527682</ele>
        <time>2022-03-09T11:01:00.439Z</time>
      </trkpt>
      <trkpt lat="42.70509" lon="23.49072">
        <ele>568.745683</ele>
        <time>2022-03-09T11:01:03.400Z</time>
      </trkpt>
      <trkpt lat="42.70509" lon="23.49057">
        <ele>568.971721</ele>
        <time>2022-03-09T11:01:06.398Z</time>
      </trkpt>
      <trkpt lat="42.70511" lon="23.49042">
        <ele>569.191411</ele>
        <time>2022-03-09T11:01:09.388Z</time>
      </trkpt>
      <trkpt lat="42.70512" lon="23.49027">
        <ele>569.422462</ele>
        <time>2022-03-09T11:01:12.416Z</time>
      </trkpt>
      <trkpt lat="42.70513" lon="23.49012">
        <ele>569.645952</ele>
        <time>2022-03-09T11:01:15.399Z</time>
      </trkpt>
      <trkpt lat="42.70513" lon="23.48998">
        <ele>569.852882</ele>
        <time>2022-03-09T11:01:18.396Z</time>
      </trkpt>
      <trkpt lat="42.70515" lon="23.48984">
        <ele>569.913346</ele>
        <time>2022-03-09T11:01:21.394Z</time>
      </trkpt>
      <trkpt lat="42.70515" lon="23.4897">
        <ele>569.821728</ele>
        <time>2022-03-09T11:01:24.414Z</time>
      </trkpt>
      <trkpt lat="42.70516" lon="23.48956">
        <ele>569.732977</ele>
        <time>2022-03-09T11:01:27.398Z</time>
      </trkpt>
      <trkpt lat="42.70518" lon="23.48943">
        <ele>569.650987</ele>
        <time>2022-03-09T11:01:30.383Z</time>
      </trkpt>
      <trkpt lat="42.70518" lon="23.48929">
        <ele>569.562284</ele>
        <time>2022-03-09T11:01:33.466Z</time>
      </trkpt>
      <trkpt lat="42.70519" lon="23.48915">
        <ele>569.468361</ele>
        <time>2022-03-09T11:01:36.409Z</time>
      </trkpt>
      <trkpt lat="42.7052" lon="23.489">
        <ele>569.375621</ele>
        <time>2022-03-09T11:01:39.384Z</time>
      </trkpt>
      <trkpt lat="42.70521" lon="23.48886">
        <ele>569.286535</ele>
        <time>2022-03-09T11:01:42.430Z</time>
      </trkpt>
      <trkpt lat="42.70522" lon="23.48871">
        <ele>569.190787</ele>
        <time>2022-03-09T11:01:45.397Z</time>
      </trkpt>
      <trkpt lat="42.70523" lon="23.48858">
        <ele>569.109526</ele>
        <time>2022-03-09T11:01:48.392Z</time>
      </trkpt>
      <trkpt lat="42.70524" lon="23.48845">
        <ele>569.022904</ele>
        <time>2022-03-09T11:01:51.407Z</time>
      </trkpt>
      <trkpt lat="42.70525" lon="23.48831">
        <ele>568.934593</ele>
        <time>2022-03-09T11:01:54.465Z</time>
      </trkpt>
      <trkpt lat="42.70525" lon="23.48817">
        <ele>568.844185</ele>
        <time>2022-03-09T11:01:57.393Z</time>
      </trkpt>
      <trkpt lat="42.70526" lon="23.48802">
        <ele>568.750519</ele>
        <time>2022-03-09T11:02:00.393Z</time>
      </trkpt>
      <trkpt lat="42.70527" lon="23.48789">
        <ele>568.665687</ele>
        <time>2022-03-09T11:02:03.402Z</time>
      </trkpt>
      <trkpt lat="42.70528" lon="23.48773">
        <ele>568.566529</ele>
        <time>2022-03-09T11:02:07.397Z</time>
      </trkpt>
      <trkpt lat="42.70529" lon="23.48758">
        <ele>568.470098</ele>
        <time>2022-03-09T11:02:12.457Z</time>
      </trkpt>
      <trkpt lat="42.70533" lon="23.48746">
        <ele>568.406328</ele>
        <time>2022-03-09T11:02:17.415Z</time>
      </trkpt>
      <trkpt lat="42.70541" lon="23.48742">
        <ele>568.43279</ele>
        <time>2022-03-09T11:02:23.395Z</time>
      </trkpt>
      <trkpt lat="42.70557" lon="23.48736">
        <ele>568.479288</ele>
        <time>2022-03-09T11:02:41.418Z</time>
      </trkpt>
      <trkpt lat="42.70563" lon="23.48723">
        <ele>568.512419</ele>
        <time>2022-03-09T11:02:45.411Z</time>
      </trkpt>
      <trkpt lat="42.70562" lon="23.48708">
        <ele>568.544559</ele>
        <time>2022-03-09T11:02:48.435Z</time>
      </trkpt>
      <trkpt lat="42.7056" lon="23.48692">
        <ele>568.577538</ele>
        <time>2022-03-09T11:02:51.418Z</time>
      </trkpt>
      <trkpt lat="42.70559" lon="23.48677">
        <ele>568.609638</ele>
        <time>2022-03-09T11:02:54.394Z</time>
      </trkpt>
      <trkpt lat="42.70559" lon="23.48663">
        <ele>568.640243</ele>
        <time>2022-03-09T11:02:57.404Z</time>
      </trkpt>
      <trkpt lat="42.70558" lon="23.48649">
        <ele>568.669591</ele>
        <time>2022-03-09T11:03:00.404Z</time>
      </trkpt>
      <trkpt lat="42.70557" lon="23.48634">
        <ele>568.701075</ele>
        <time>2022-03-09T11:03:03.407Z</time>
      </trkpt>
      <trkpt lat="42.70557" lon="23.48618">
        <ele>568.736529</ele>
        <time>2022-03-09T11:03:06.388Z</time>
      </trkpt>
      <trkpt lat="42.70557" lon="23.48602">
        <ele>568.769466</ele>
        <time>2022-03-09T11:03:09.400Z</time>
      </trkpt>
      <trkpt lat="42.70557" lon="23.48586">
        <ele>568.804495</ele>
        <time>2022-03-09T11:03:12.410Z</time>
      </trkpt>
      <trkpt lat="42.70557" lon="23.48568">
        <ele>568.84101</ele>
        <time>2022-03-09T11:03:15.407Z</time>
      </trkpt>
      <trkpt lat="42.70557" lon="23.48552">
        <ele>568.875857</ele>
        <time>2022-03-09T11:03:18.407Z</time>
      </trkpt>
      <trkpt lat="42.70558" lon="23.48536">
        <ele>568.90941</ele>
        <time>2022-03-09T11:03:21.437Z</time>
      </trkpt>
      <trkpt lat="42.70559" lon="23.4852">
        <ele>568.653273</ele>
        <time>2022-03-09T11:03:24.400Z</time>
      </trkpt>
      <trkpt lat="42.70561" lon="23.48503">
        <ele>568.247358</ele>
        <time>2022-03-09T11:03:27.416Z</time>
      </trkpt>
      <trkpt lat="42.70563" lon="23.48485">
        <ele>567.839637</ele>
        <time>2022-03-09T11:03:30.402Z</time>
      </trkpt>
      <trkpt lat="42.70564" lon="23.48468">
        <ele>567.427472</ele>
        <time>2022-03-09T11:03:33.398Z</time>
      </trkpt>
      <trkpt lat="42.70566" lon="23.48451">
        <ele>567.02624</ele>
        <time>2022-03-09T11:03:36.399Z</time>
      </trkpt>
      <trkpt lat="42.70567" lon="23.48437">
        <ele>566.684268</ele>
        <time>2022-03-09T11:03:39.403Z</time>
      </trkpt>
      <trkpt lat="42.70568" lon="23.4842">
        <ele>566.283804</ele>
        <time>2022-03-09T11:03:42.396Z</time>
      </trkpt>
      <trkpt lat="42.70569" lon="23.48403">
        <ele>565.879612</ele>
        <time>2022-03-09T11:03:45.395Z</time>
      </trkpt>
      <trkpt lat="42.7057" lon="23.48385">
        <ele>565.468645</ele>
        <time>2022-03-09T11:03:48.416Z</time>
      </trkpt>
      <trkpt lat="42.70571" lon="23.48368">
        <ele>565.064719</ele>
        <time>2022-03-09T11:03:51.416Z</time>
      </trkpt>
      <trkpt lat="42.70572" lon="23.48351">
        <ele>564.6561</ele>
        <time>2022-03-09T11:03:54.407Z</time>
      </trkpt>
      <trkpt lat="42.70572" lon="23.48334">
        <ele>564.265103</ele>
        <time>2022-03-09T11:03:57.432Z</time>
      </trkpt>
      <trkpt lat="42.70573" lon="23.48318">
        <ele>563.875734</ele>
        <time>2022-03-09T11:04:00.403Z</time>
      </trkpt>
      <trkpt lat="42.70575" lon="23.483">
        <ele>563.461519</ele>
        <time>2022-03-09T11:04:03.428Z</time>
      </trkpt>
      <trkpt lat="42.70575" lon="23.48285">
        <ele>563.068512</ele>
        <time>2022-03-09T11:04:06.432Z</time>
      </trkpt>
      <trkpt lat="42.70575" lon="23.48269">
        <ele>562.393488</ele>
        <time>2022-03-09T11:04:09.398Z</time>
      </trkpt>
      <trkpt lat="42.70575" lon="23.48251">
        <ele>561.657484</ele>
        <time>2022-03-09T11:04:12.437Z</time>
      </trkpt>
      <trkpt lat="42.70576" lon="23.48234">
        <ele>560.996009</ele>
        <time>2022-03-09T11:04:15.403Z</time>
      </trkpt>
      <trkpt lat="42.70578" lon="23.48218">
        <ele>560.337032</ele>
        <time>2022-03-09T11:04:18.400Z</time>
      </trkpt>
      <trkpt lat="42.70579" lon="23.48202">
        <ele>559.666364</ele>
        <time>2022-03-09T11:04:21.393Z</time>
      </trkpt>
      <trkpt lat="42.70581" lon="23.48185">
        <ele>558.970203</ele>
        <time>2022-03-09T11:04:24.398Z</time>
      </trkpt>
      <trkpt lat="42.70583" lon="23.48168">
        <ele>558.27187</ele>
        <time>2022-03-09T11:04:27.475Z</time>
      </trkpt>
      <trkpt lat="42.70584" lon="23.48151">
        <ele>557.577493</ele>
        <time>2022-03-09T11:04:30.402Z</time>
      </trkpt>
      <trkpt lat="42.70585" lon="23.48134">
        <ele>556.905168</ele>
        <time>2022-03-09T11:04:33.408Z</time>
      </trkpt>
      <trkpt lat="42.70586" lon="23.48118">
        <ele>556.214285</ele>
        <time>2022-03-09T11:04:36.406Z</time>
      </trkpt>
      <trkpt lat="42.70587" lon="23.48101">
        <ele>555.553737</ele>
        <time>2022-03-09T11:04:39.393Z</time>
      </trkpt>
      <trkpt lat="42.70588" lon="23.48085">
        <ele>554.905351</ele>
        <time>2022-03-09T11:04:42.392Z</time>
      </trkpt>
      <trkpt lat="42.70589" lon="23.4807">
        <ele>554.26867</ele>
        <time>2022-03-09T11:04:45.445Z</time>
      </trkpt>
      <trkpt lat="42.7059" lon="23.48054">
        <ele>553.629685</ele>
        <time>2022-03-09T11:04:48.497Z</time>
      </trkpt>
      <trkpt lat="42.70591" lon="23.48038">
        <ele>553.230587</ele>
        <time>2022-03-09T11:04:51.395Z</time>
      </trkpt>
      <trkpt lat="42.70592" lon="23.48023">
        <ele>553.295752</ele>
        <time>2022-03-09T11:04:54.411Z</time>
      </trkpt>
      <trkpt lat="42.70592" lon="23.48007">
        <ele>553.364125</ele>
        <time>2022-03-09T11:04:57.440Z</time>
      </trkpt>
      <trkpt lat="42.70593" lon="23.47991">
        <ele>553.431803</ele>
        <time>2022-03-09T11:05:00.399Z</time>
      </trkpt>
      <trkpt lat="42.70593" lon="23.47975">
        <ele>553.500613</ele>
        <time>2022-03-09T11:05:03.378Z</time>
      </trkpt>
      <trkpt lat="42.70594" lon="23.47958">
        <ele>553.57477</ele>
        <time>2022-03-09T11:05:06.488Z</time>
      </trkpt>
      <trkpt lat="42.70595" lon="23.47941">
        <ele>553.644774</ele>
        <time>2022-03-09T11:05:09.393Z</time>
      </trkpt>
      <trkpt lat="42.70596" lon="23.47925">
        <ele>553.714352</ele>
        <time>2022-03-09T11:05:12.400Z</time>
      </trkpt>
      <trkpt lat="42.70598" lon="23.47909">
        <ele>553.782292</ele>
        <time>2022-03-09T11:05:15.401Z</time>
      </trkpt>
      <trkpt lat="42.70599" lon="23.47893">
        <ele>553.851717</ele>
        <time>2022-03-09T11:05:18.419Z</time>
      </trkpt>
      <trkpt lat="42.706" lon="23.47876">
        <ele>553.925549</ele>
        <time>2022-03-09T11:05:21.413Z</time>
      </trkpt>
      <trkpt lat="42.70601" lon="23.47859">
        <ele>554.000088</ele>
        <time>2022-03-09T11:05:24.411Z</time>
      </trkpt>
      <trkpt lat="42.70602" lon="23.47842">
        <ele>554.072276</ele>
        <time>2022-03-09T11:05:27.401Z</time>
      </trkpt>
      <trkpt lat="42.70603" lon="23.47825">
        <ele>554.145377</ele>
        <time>2022-03-09T11:05:30.408Z</time>
      </trkpt>
      <trkpt lat="42.70604" lon="23.47807">
        <ele>554.221035</ele>
        <time>2022-03-09T11:05:33.409Z</time>
      </trkpt>
      <trkpt lat="42.70604" lon="23.4779">
        <ele>554.283997</ele>
        <time>2022-03-09T11:05:36.415Z</time>
      </trkpt>
      <trkpt lat="42.70605" lon="23.47773">
        <ele>554.340898</ele>
        <time>2022-03-09T11:05:39.389Z</time>
      </trkpt>
      <trkpt lat="42.70606" lon="23.47755">
        <ele>554.398404</ele>
        <time>2022-03-09T11:05:42.399Z</time>
      </trkpt>
      <trkpt lat="42.70606" lon="23.47743">
        <ele>554.438802</ele>
        <time>2022-03-09T11:05:44.400Z</time>
      </trkpt>
      <trkpt lat="42.70607" lon="23.4773">
        <ele>554.482571</ele>
        <time>2022-03-09T11:05:46.395Z</time>
      </trkpt>
      <trkpt lat="42.70608" lon="23.47716">
        <ele>554.52635</ele>
        <time>2022-03-09T11:05:48.413Z</time>
      </trkpt>
      <trkpt lat="42.70609" lon="23.47704">
        <ele>554.56818</ele>
        <time>2022-03-09T11:05:50.409Z</time>
      </trkpt>
      <trkpt lat="42.7061" lon="23.47691">
        <ele>554.610715</ele>
        <time>2022-03-09T11:05:52.394Z</time>
      </trkpt>
      <trkpt lat="42.70611" lon="23.47678">
        <ele>554.651834</ele>
        <time>2022-03-09T11:05:54.549Z</time>
      </trkpt>
      <trkpt lat="42.70612" lon="23.47666">
        <ele>554.692694</ele>
        <time>2022-03-09T11:05:56.390Z</time>
      </trkpt>
      <trkpt lat="42.70613" lon="23.47648">
        <ele>554.751916</ele>
        <time>2022-03-09T11:05:59.409Z</time>
      </trkpt>
      <trkpt lat="42.70613" lon="23.47629">
        <ele>554.813012</ele>
        <time>2022-03-09T11:06:02.409Z</time>
      </trkpt>
      <trkpt lat="42.70614" lon="23.47611">
        <ele>554.873516</ele>
        <time>2022-03-09T11:06:05.384Z</time>
      </trkpt>
      <trkpt lat="42.70615" lon="23.47593">
        <ele>554.934194</ele>
        <time>2022-03-09T11:06:08.401Z</time>
      </trkpt>
      <trkpt lat="42.70616" lon="23.4758">
        <ele>554.975708</ele>
        <time>2022-03-09T11:06:10.405Z</time>
      </trkpt>
      <trkpt lat="42.70617" lon="23.47568">
        <ele>555.016437</ele>
        <time>2022-03-09T11:06:12.399Z</time>
      </trkpt>
      <trkpt lat="42.70618" lon="23.47555">
        <ele>555.058146</ele>
        <time>2022-03-09T11:06:14.412Z</time>
      </trkpt>
      <trkpt lat="42.70619" lon="23.47537">
        <ele>555.131231</ele>
        <time>2022-03-09T11:06:17.416Z</time>
      </trkpt>
      <trkpt lat="42.7062" lon="23.47524">
        <ele>555.18056</ele>
        <time>2022-03-09T11:06:19.419Z</time>
      </trkpt>
      <trkpt lat="42.70621" lon="23.47512">
        <ele>555.230233</ele>
        <time>2022-03-09T11:06:21.400Z</time>
      </trkpt>
      <trkpt lat="42.70623" lon="23.47494">
        <ele>555.301294</ele>
        <time>2022-03-09T11:06:24.411Z</time>
      </trkpt>
      <trkpt lat="42.70625" lon="23.47477">
        <ele>555.369453</ele>
        <time>2022-03-09T11:06:27.413Z</time>
      </trkpt>
      <trkpt lat="42.70625" lon="23.4746">
        <ele>555.43765</ele>
        <time>2022-03-09T11:06:30.400Z</time>
      </trkpt>
      <trkpt lat="42.70626" lon="23.47442">
        <ele>555.50695</ele>
        <time>2022-03-09T11:06:33.411Z</time>
      </trkpt>
      <trkpt lat="42.70627" lon="23.47425">
        <ele>555.5753</ele>
        <time>2022-03-09T11:06:36.393Z</time>
      </trkpt>
      <trkpt lat="42.70628" lon="23.47409">
        <ele>555.638919</ele>
        <time>2022-03-09T11:06:39.396Z</time>
      </trkpt>
      <trkpt lat="42.70629" lon="23.47393">
        <ele>555.705664</ele>
        <time>2022-03-09T11:06:42.399Z</time>
      </trkpt>
      <trkpt lat="42.7063" lon="23.47376">
        <ele>555.773019</ele>
        <time>2022-03-09T11:06:45.429Z</time>
      </trkpt>
      <trkpt lat="42.7063" lon="23.47358">
        <ele>555.841146</ele>
        <time>2022-03-09T11:06:48.408Z</time>
      </trkpt>
      <trkpt lat="42.70631" lon="23.47342">
        <ele>555.904966</ele>
        <time>2022-03-09T11:06:51.437Z</time>
      </trkpt>
      <trkpt lat="42.70632" lon="23.4733">
        <ele>555.953113</ele>
        <time>2022-03-09T11:06:53.399Z</time>
      </trkpt>
      <trkpt lat="42.70633" lon="23.47317">
        <ele>556.006948</ele>
        <time>2022-03-09T11:06:55.402Z</time>
      </trkpt>
      <trkpt lat="42.70634" lon="23.47304">
        <ele>556.123304</ele>
        <time>2022-03-09T11:06:57.414Z</time>
      </trkpt>
      <trkpt lat="42.70635" lon="23.47291">
        <ele>556.270959</ele>
        <time>2022-03-09T11:06:59.402Z</time>
      </trkpt>
      <trkpt lat="42.70636" lon="23.47273">
        <ele>556.480111</ele>
        <time>2022-03-09T11:07:02.453Z</time>
      </trkpt>
      <trkpt lat="42.70637" lon="23.47261">
        <ele>556.62862</ele>
        <time>2022-03-09T11:07:04.398Z</time>
      </trkpt>
      <trkpt lat="42.70637" lon="23.47248">
        <ele>556.773517</ele>
        <time>2022-03-09T11:07:06.406Z</time>
      </trkpt>
      <trkpt lat="42.70638" lon="23.4723">
        <ele>556.983615</ele>
        <time>2022-03-09T11:07:09.390Z</time>
      </trkpt>
      <trkpt lat="42.70639" lon="23.47212">
        <ele>557.191152</ele>
        <time>2022-03-09T11:07:12.437Z</time>
      </trkpt>
      <trkpt lat="42.7064" lon="23.47195">
        <ele>557.392604</ele>
        <time>2022-03-09T11:07:15.406Z</time>
      </trkpt>
      <trkpt lat="42.70641" lon="23.47177">
        <ele>557.601757</ele>
        <time>2022-03-09T11:07:18.401Z</time>
      </trkpt>
      <trkpt lat="42.70643" lon="23.4716">
        <ele>557.802595</ele>
        <time>2022-03-09T11:07:21.407Z</time>
      </trkpt>
      <trkpt lat="42.70643" lon="23.47143">
        <ele>558.003391</ele>
        <time>2022-03-09T11:07:24.420Z</time>
      </trkpt>
      <trkpt lat="42.70644" lon="23.47125">
        <ele>558.208599</ele>
        <time>2022-03-09T11:07:27.437Z</time>
      </trkpt>
      <trkpt lat="42.70645" lon="23.47113">
        <ele>558.351172</ele>
        <time>2022-03-09T11:07:29.385Z</time>
      </trkpt>
      <trkpt lat="42.70647" lon="23.47095">
        <ele>558.563768</ele>
        <time>2022-03-09T11:07:32.396Z</time>
      </trkpt>
      <trkpt lat="42.70649" lon="23.47078">
        <ele>558.770894</ele>
        <time>2022-03-09T11:07:35.439Z</time>
      </trkpt>
      <trkpt lat="42.70651" lon="23.47061">
        <ele>558.992162</ele>
        <time>2022-03-09T11:07:38.405Z</time>
      </trkpt>
      <trkpt lat="42.70655" lon="23.47045">
        <ele>559.237997</ele>
        <time>2022-03-09T11:07:41.404Z</time>
      </trkpt>
      <trkpt lat="42.70659" lon="23.47029">
        <ele>559.484188</ele>
        <time>2022-03-09T11:07:44.431Z</time>
      </trkpt>
      <trkpt lat="42.70663" lon="23.47014">
        <ele>559.717568</ele>
        <time>2022-03-09T11:07:47.400Z</time>
      </trkpt>
      <trkpt lat="42.70669" lon="23.47">
        <ele>559.95443</ele>
        <time>2022-03-09T11:07:50.420Z</time>
      </trkpt>
      <trkpt lat="42.70674" lon="23.46984">
        <ele>560.202694</ele>
        <time>2022-03-09T11:07:53.396Z</time>
      </trkpt>
      <trkpt lat="42.70681" lon="23.4697">
        <ele>560.453505</ele>
        <time>2022-03-09T11:07:56.433Z</time>
      </trkpt>
      <trkpt lat="42.70688" lon="23.46958">
        <ele>560.676671</ele>
        <time>2022-03-09T11:07:59.410Z</time>
      </trkpt>
      <trkpt lat="42.70695" lon="23.46946">
        <ele>560.901059</ele>
        <time>2022-03-09T11:08:02.408Z</time>
      </trkpt>
      <trkpt lat="42.70702" lon="23.46934">
        <ele>561.116043</ele>
        <time>2022-03-09T11:08:05.398Z</time>
      </trkpt>
      <trkpt lat="42.7071" lon="23.46923">
        <ele>561.344355</ele>
        <time>2022-03-09T11:08:08.411Z</time>
      </trkpt>
      <trkpt lat="42.70718" lon="23.46913">
        <ele>561.561293</ele>
        <time>2022-03-09T11:08:11.397Z</time>
      </trkpt>
      <trkpt lat="42.70727" lon="23.46902">
        <ele>561.802432</ele>
        <time>2022-03-09T11:08:14.411Z</time>
      </trkpt>
      <trkpt lat="42.70736" lon="23.46893">
        <ele>562.028813</ele>
        <time>2022-03-09T11:08:17.434Z</time>
      </trkpt>
      <trkpt lat="42.70746" lon="23.46883">
        <ele>562.268362</ele>
        <time>2022-03-09T11:08:20.405Z</time>
      </trkpt>
      <trkpt lat="42.70756" lon="23.46874">
        <ele>562.562651</ele>
        <time>2022-03-09T11:08:23.409Z</time>
      </trkpt>
      <trkpt lat="42.70765" lon="23.46865">
        <ele>563.019008</ele>
        <time>2022-03-09T11:08:26.416Z</time>
      </trkpt>
      <trkpt lat="42.70774" lon="23.46857">
        <ele>563.455552</ele>
        <time>2022-03-09T11:08:29.450Z</time>
      </trkpt>
      <trkpt lat="42.70783" lon="23.46849">
        <ele>563.883924</ele>
        <time>2022-03-09T11:08:32.422Z</time>
      </trkpt>
      <trkpt lat="42.70792" lon="23.46842">
        <ele>564.27762</ele>
        <time>2022-03-09T11:08:35.410Z</time>
      </trkpt>
      <trkpt lat="42.708" lon="23.46834">
        <ele>564.679406</ele>
        <time>2022-03-09T11:08:38.400Z</time>
      </trkpt>
      <trkpt lat="42.70809" lon="23.46825">
        <ele>565.144249</ele>
        <time>2022-03-09T11:08:42.414Z</time>
      </trkpt>
      <trkpt lat="42.70818" lon="23.46816">
        <ele>565.59944</ele>
        <time>2022-03-09T11:08:46.412Z</time>
      </trkpt>
      <trkpt lat="42.70827" lon="23.46807">
        <ele>566.030208</ele>
        <time>2022-03-09T11:08:50.414Z</time>
      </trkpt>
      <trkpt lat="42.70836" lon="23.46799">
        <ele>566.442137</ele>
        <time>2022-03-09T11:08:54.418Z</time>
      </trkpt>
      <trkpt lat="42.70844" lon="23.46791">
        <ele>566.862112</ele>
        <time>2022-03-09T11:08:58.395Z</time>
      </trkpt>
      <trkpt lat="42.70853" lon="23.46783">
        <ele>567.269125</ele>
        <time>2022-03-09T11:09:02.454Z</time>
      </trkpt>
      <trkpt lat="42.70861" lon="23.46775">
        <ele>567.689137</ele>
        <time>2022-03-09T11:09:06.403Z</time>
      </trkpt>
      <trkpt lat="42.70868" lon="23.46767">
        <ele>568.060368</ele>
        <time>2022-03-09T11:09:10.431Z</time>
      </trkpt>
      <trkpt lat="42.70876" lon="23.4676">
        <ele>568.424169</ele>
        <time>2022-03-09T11:09:14.396Z</time>
      </trkpt>
      <trkpt lat="42.70883" lon="23.46753">
        <ele>568.785478</ele>
        <time>2022-03-09T11:09:18.403Z</time>
      </trkpt>
      <trkpt lat="42.70892" lon="23.46744">
        <ele>569.203927</ele>
        <time>2022-03-09T11:09:22.414Z</time>
      </trkpt>
      <trkpt lat="42.709" lon="23.46736">
        <ele>569.599557</ele>
        <time>2022-03-09T11:09:26.397Z</time>
      </trkpt>
      <trkpt lat="42.70909" lon="23.46727">
        <ele>569.083605</ele>
        <time>2022-03-09T11:09:30.441Z</time>
      </trkpt>
      <trkpt lat="42.70916" lon="23.46718">
        <ele>568.564147</ele>
        <time>2022-03-09T11:09:34.393Z</time>
      </trkpt>
      <trkpt lat="42.70924" lon="23.46708">
        <ele>567.990138</ele>
        <time>2022-03-09T11:09:38.396Z</time>
      </trkpt>
      <trkpt lat="42.70932" lon="23.46697">
        <ele>567.40229</ele>
        <time>2022-03-09T11:09:42.411Z</time>
      </trkpt>
      <trkpt lat="42.7094" lon="23.46685">
        <ele>566.816509</ele>
        <time>2022-03-09T11:09:46.404Z</time>
      </trkpt>
      <trkpt lat="42.70946" lon="23.46675">
        <ele>566.270731</ele>
        <time>2022-03-09T11:09:50.443Z</time>
      </trkpt>
      <trkpt lat="42.70952" lon="23.46665">
        <ele>565.797522</ele>
        <time>2022-03-09T11:09:53.427Z</time>
      </trkpt>
      <trkpt lat="42.70959" lon="23.46652">
        <ele>565.175754</ele>
        <time>2022-03-09T11:09:57.436Z</time>
      </trkpt>
      <trkpt lat="42.70964" lon="23.4664">
        <ele>564.660308</ele>
        <time>2022-03-09T11:10:00.445Z</time>
      </trkpt>
      <trkpt lat="42.70968" lon="23.46628">
        <ele>564.142235</ele>
        <time>2022-03-09T11:10:03.411Z</time>
      </trkpt>
      <trkpt lat="42.70973" lon="23.46614">
        <ele>563.566375</ele>
        <time>2022-03-09T11:10:06.438Z</time>
      </trkpt>
      <trkpt lat="42.70977" lon="23.46598">
        <ele>562.901615</ele>
        <time>2022-03-09T11:10:09.390Z</time>
      </trkpt>
      <trkpt lat="42.7098" lon="23.46581">
        <ele>562.219454</ele>
        <time>2022-03-09T11:10:12.400Z</time>
      </trkpt>
      <trkpt lat="42.70982" lon="23.46568">
        <ele>561.727402</ele>
        <time>2022-03-09T11:10:14.396Z</time>
      </trkpt>
      <trkpt lat="42.70984" lon="23.46554">
        <ele>561.169756</ele>
        <time>2022-03-09T11:10:16.497Z</time>
      </trkpt>
      <trkpt lat="42.70986" lon="23.46538">
        <ele>560.550735</ele>
        <time>2022-03-09T11:10:18.392Z</time>
      </trkpt>
      <trkpt lat="42.70987" lon="23.46523">
        <ele>560.066126</ele>
        <time>2022-03-09T11:10:20.403Z</time>
      </trkpt>
      <trkpt lat="42.70988" lon="23.46509">
        <ele>559.672851</ele>
        <time>2022-03-09T11:10:22.433Z</time>
      </trkpt>
      <trkpt lat="42.70988" lon="23.46494">
        <ele>559.270529</ele>
        <time>2022-03-09T11:10:24.404Z</time>
      </trkpt>
      <trkpt lat="42.70987" lon="23.46477">
        <ele>558.839782</ele>
        <time>2022-03-09T11:10:26.438Z</time>
      </trkpt>
      <trkpt lat="42.70986" lon="23.46461">
        <ele>558.396083</ele>
        <time>2022-03-09T11:10:28.440Z</time>
      </trkpt>
      <trkpt lat="42.70984" lon="23.46444">
        <ele>557.938218</ele>
        <time>2022-03-09T11:10:30.411Z</time>
      </trkpt>
      <trkpt lat="42.7098" lon="23.46427">
        <ele>557.476778</ele>
        <time>2022-03-09T11:10:32.401Z</time>
      </trkpt>
      <trkpt lat="42.70976" lon="23.46411">
        <ele>557.020336</ele>
        <time>2022-03-09T11:10:34.427Z</time>
      </trkpt>
      <trkpt lat="42.70972" lon="23.46396">
        <ele>556.586935</ele>
        <time>2022-03-09T11:10:36.411Z</time>
      </trkpt>
      <trkpt lat="42.70966" lon="23.46382">
        <ele>556.158628</ele>
        <time>2022-03-09T11:10:38.397Z</time>
      </trkpt>
      <trkpt lat="42.7096" lon="23.46368">
        <ele>555.728158</ele>
        <time>2022-03-09T11:10:40.412Z</time>
      </trkpt>
      <trkpt lat="42.70954" lon="23.46354">
        <ele>555.312753</ele>
        <time>2022-03-09T11:10:42.429Z</time>
      </trkpt>
      <trkpt lat="42.70948" lon="23.46342">
        <ele>554.923419</ele>
        <time>2022-03-09T11:10:44.408Z</time>
      </trkpt>
      <trkpt lat="42.70942" lon="23.46331">
        <ele>554.545591</ele>
        <time>2022-03-09T11:10:46.429Z</time>
      </trkpt>
      <trkpt lat="42.70936" lon="23.46321">
        <ele>554.210371</ele>
        <time>2022-03-09T11:10:48.432Z</time>
      </trkpt>
      <trkpt lat="42.7093" lon="23.46312">
        <ele>553.877819</ele>
        <time>2022-03-09T11:10:50.424Z</time>
      </trkpt>
      <trkpt lat="42.70923" lon="23.46303">
        <ele>553.650189</ele>
        <time>2022-03-09T11:10:52.401Z</time>
      </trkpt>
      <trkpt lat="42.70916" lon="23.46294">
        <ele>553.513559</ele>
        <time>2022-03-09T11:10:54.417Z</time>
      </trkpt>
      <trkpt lat="42.70908" lon="23.46285">
        <ele>553.377885</ele>
        <time>2022-03-09T11:10:56.448Z</time>
      </trkpt>
      <trkpt lat="42.70901" lon="23.46276">
        <ele>553.251599</ele>
        <time>2022-03-09T11:10:58.411Z</time>
      </trkpt>
      <trkpt lat="42.70894" lon="23.46268">
        <ele>553.128544</ele>
        <time>2022-03-09T11:11:00.434Z</time>
      </trkpt>
      <trkpt lat="42.70887" lon="23.46261">
        <ele>553.006121</ele>
        <time>2022-03-09T11:11:02.441Z</time>
      </trkpt>
      <trkpt lat="42.70877" lon="23.46249">
        <ele>552.82561</ele>
        <time>2022-03-09T11:11:05.410Z</time>
      </trkpt>
      <trkpt lat="42.70867" lon="23.46238">
        <ele>552.654539</ele>
        <time>2022-03-09T11:11:08.430Z</time>
      </trkpt>
      <trkpt lat="42.70857" lon="23.46226">
        <ele>552.471314</ele>
        <time>2022-03-09T11:11:11.414Z</time>
      </trkpt>
      <trkpt lat="42.7085" lon="23.46218">
        <ele>552.347711</ele>
        <time>2022-03-09T11:11:13.451Z</time>
      </trkpt>
      <trkpt lat="42.7084" lon="23.46206">
        <ele>552.16861</ele>
        <time>2022-03-09T11:11:16.423Z</time>
      </trkpt>
      <trkpt lat="42.70834" lon="23.46196">
        <ele>552.042641</ele>
        <time>2022-03-09T11:11:18.412Z</time>
      </trkpt>
      <trkpt lat="42.70828" lon="23.46187">
        <ele>551.91896</ele>
        <time>2022-03-09T11:11:20.408Z</time>
      </trkpt>
      <trkpt lat="42.70822" lon="23.46177">
        <ele>551.791255</ele>
        <time>2022-03-09T11:11:22.405Z</time>
      </trkpt>
      <trkpt lat="42.70813" lon="23.46163">
        <ele>551.60882</ele>
        <time>2022-03-09T11:11:25.413Z</time>
      </trkpt>
      <trkpt lat="42.70805" lon="23.46149">
        <ele>551.433331</ele>
        <time>2022-03-09T11:11:28.416Z</time>
      </trkpt>
      <trkpt lat="42.70799" lon="23.46135">
        <ele>551.393032</ele>
        <time>2022-03-09T11:11:31.415Z</time>
      </trkpt>
      <trkpt lat="42.70793" lon="23.4612">
        <ele>552.192971</ele>
        <time>2022-03-09T11:11:34.403Z</time>
      </trkpt>
      <trkpt lat="42.7079" lon="23.46107">
        <ele>552.909625</ele>
        <time>2022-03-09T11:11:37.415Z</time>
      </trkpt>
      <trkpt lat="42.70787" lon="23.46093">
        <ele>553.595498</ele>
        <time>2022-03-09T11:11:40.409Z</time>
      </trkpt>
      <trkpt lat="42.70784" lon="23.46079">
        <ele>554.325673</ele>
        <time>2022-03-09T11:11:43.415Z</time>
      </trkpt>
      <trkpt lat="42.7078" lon="23.46064">
        <ele>555.077661</ele>
        <time>2022-03-09T11:11:46.447Z</time>
      </trkpt>
      <trkpt lat="42.70778" lon="23.4605">
        <ele>555.800956</ele>
        <time>2022-03-09T11:11:49.410Z</time>
      </trkpt>
      <trkpt lat="42.70776" lon="23.46035">
        <ele>556.553967</ele>
        <time>2022-03-09T11:11:52.408Z</time>
      </trkpt>
      <trkpt lat="42.70775" lon="23.46019">
        <ele>557.347728</ele>
        <time>2022-03-09T11:11:55.409Z</time>
      </trkpt>
      <trkpt lat="42.70773" lon="23.46003">
        <ele>558.1172</ele>
        <time>2022-03-09T11:11:58.404Z</time>
      </trkpt>
      <trkpt lat="42.70772" lon="23.45989">
        <ele>558.848282</ele>
        <time>2022-03-09T11:12:01.404Z</time>
      </trkpt>
      <trkpt lat="42.7077" lon="23.45975">
        <ele>559.542943</ele>
        <time>2022-03-09T11:12:04.432Z</time>
      </trkpt>
      <trkpt lat="42.7077" lon="23.45961">
        <ele>560.210696</ele>
        <time>2022-03-09T11:12:07.421Z</time>
      </trkpt>
      <trkpt lat="42.7077" lon="23.45947">
        <ele>560.898219</ele>
        <time>2022-03-09T11:12:10.478Z</time>
      </trkpt>
      <trkpt lat="42.70769" lon="23.45932">
        <ele>561.631294</ele>
        <time>2022-03-09T11:12:13.419Z</time>
      </trkpt>
      <trkpt lat="42.70769" lon="23.45916">
        <ele>562.412091</ele>
        <time>2022-03-09T11:12:16.409Z</time>
      </trkpt>
      <trkpt lat="42.70768" lon="23.45901">
        <ele>563.152241</ele>
        <time>2022-03-09T11:12:19.409Z</time>
      </trkpt>
      <trkpt lat="42.70767" lon="23.45886">
        <ele>564.30229</ele>
        <time>2022-03-09T11:12:22.435Z</time>
      </trkpt>
      <trkpt lat="42.70766" lon="23.45872">
        <ele>565.520553</ele>
        <time>2022-03-09T11:12:25.480Z</time>
      </trkpt>
      <trkpt lat="42.70765" lon="23.45857">
        <ele>566.747911</ele>
        <time>2022-03-09T11:12:28.409Z</time>
      </trkpt>
      <trkpt lat="42.70765" lon="23.45843">
        <ele>567.898988</ele>
        <time>2022-03-09T11:12:31.471Z</time>
      </trkpt>
      <trkpt lat="42.70764" lon="23.4583">
        <ele>568.987357</ele>
        <time>2022-03-09T11:12:34.415Z</time>
      </trkpt>
      <trkpt lat="42.70763" lon="23.45816">
        <ele>570.199009</ele>
        <time>2022-03-09T11:12:38.409Z</time>
      </trkpt>
      <trkpt lat="42.70764" lon="23.45803">
        <ele>571.24932</ele>
        <time>2022-03-09T11:12:42.413Z</time>
      </trkpt>
      <trkpt lat="42.70773" lon="23.45796">
        <ele>572.422552</ele>
        <time>2022-03-09T11:12:46.417Z</time>
      </trkpt>
      <trkpt lat="42.70782" lon="23.45792">
        <ele>573.465819</ele>
        <time>2022-03-09T11:12:49.409Z</time>
      </trkpt>
      <trkpt lat="42.70791" lon="23.45789">
        <ele>574.519456</ele>
        <time>2022-03-09T11:12:52.406Z</time>
      </trkpt>
      <trkpt lat="42.708" lon="23.45785">
        <ele>575.566524</ele>
        <time>2022-03-09T11:12:56.408Z</time>
      </trkpt>
      <trkpt lat="42.70786" lon="23.45802">
        <ele>577.695353</ele>
        <time>2022-03-09T11:40:55.431Z</time>
      </trkpt>
      <trkpt lat="42.70781" lon="23.45791">
        <ele>578.739196</ele>
        <time>2022-03-09T11:44:59.445Z</time>
      </trkpt>
      <trkpt lat="42.7077" lon="23.45793">
        <ele>579.934688</ele>
        <time>2022-03-09T11:45:05.434Z</time>
      </trkpt>
      <trkpt lat="42.70761" lon="23.45793">
        <ele>581.033863</ele>
        <time>2022-03-09T11:45:10.439Z</time>
      </trkpt>
      <trkpt lat="42.70758" lon="23.45781">
        <ele>582.050377</ele>
        <time>2022-03-09T11:45:13.447Z</time>
      </trkpt>
      <trkpt lat="42.70755" lon="23.45766">
        <ele>583.307794</ele>
        <time>2022-03-09T11:45:16.413Z</time>
      </trkpt>
      <trkpt lat="42.70754" lon="23.45751">
        <ele>583.055221</ele>
        <time>2022-03-09T11:45:19.413Z</time>
      </trkpt>
      <trkpt lat="42.70753" lon="23.45735">
        <ele>582.122877</ele>
        <time>2022-03-09T11:45:22.404Z</time>
      </trkpt>
      <trkpt lat="42.70752" lon="23.45718">
        <ele>581.067796</ele>
        <time>2022-03-09T11:45:25.421Z</time>
      </trkpt>
      <trkpt lat="42.70752" lon="23.45701">
        <ele>580.061893</ele>
        <time>2022-03-09T11:45:28.426Z</time>
      </trkpt>
      <trkpt lat="42.70753" lon="23.45683">
        <ele>579.030913</ele>
        <time>2022-03-09T11:45:31.423Z</time>
      </trkpt>
      <trkpt lat="42.70754" lon="23.45667">
        <ele>578.046136</ele>
        <time>2022-03-09T11:45:34.438Z</time>
      </trkpt>
      <trkpt lat="42.70754" lon="23.4565">
        <ele>577.085531</ele>
        <time>2022-03-09T11:45:37.413Z</time>
      </trkpt>
      <trkpt lat="42.70754" lon="23.45634">
        <ele>576.103292</ele>
        <time>2022-03-09T11:45:40.425Z</time>
      </trkpt>
      <trkpt lat="42.70754" lon="23.45618">
        <ele>575.192144</ele>
        <time>2022-03-09T11:45:43.426Z</time>
      </trkpt>
      <trkpt lat="42.70755" lon="23.45603">
        <ele>574.262028</ele>
        <time>2022-03-09T11:45:46.499Z</time>
      </trkpt>
      <trkpt lat="42.70756" lon="23.45586">
        <ele>573.277251</ele>
        <time>2022-03-09T11:45:49.408Z</time>
      </trkpt>
      <trkpt lat="42.70757" lon="23.45569">
        <ele>572.274772</ele>
        <time>2022-03-09T11:45:52.421Z</time>
      </trkpt>
      <trkpt lat="42.70758" lon="23.45553">
        <ele>571.309725</ele>
        <time>2022-03-09T11:45:55.412Z</time>
      </trkpt>
      <trkpt lat="42.7076" lon="23.45537">
        <ele>570.344994</ele>
        <time>2022-03-09T11:45:58.414Z</time>
      </trkpt>
      <trkpt lat="42.70761" lon="23.4552">
        <ele>569.326123</ele>
        <time>2022-03-09T11:46:01.404Z</time>
      </trkpt>
      <trkpt lat="42.70763" lon="23.45504">
        <ele>568.995956</ele>
        <time>2022-03-09T11:46:04.455Z</time>
      </trkpt>
      <trkpt lat="42.70765" lon="23.45488">
        <ele>568.754103</ele>
        <time>2022-03-09T11:46:07.434Z</time>
      </trkpt>
      <trkpt lat="42.70766" lon="23.45471">
        <ele>568.504503</ele>
        <time>2022-03-09T11:46:10.400Z</time>
      </trkpt>
      <trkpt lat="42.70767" lon="23.45454">
        <ele>568.253592</ele>
        <time>2022-03-09T11:46:13.424Z</time>
      </trkpt>
      <trkpt lat="42.70768" lon="23.45437">
        <ele>567.999867</ele>
        <time>2022-03-09T11:46:16.419Z</time>
      </trkpt>
      <trkpt lat="42.70769" lon="23.4542">
        <ele>567.749112</ele>
        <time>2022-03-09T11:46:19.406Z</time>
      </trkpt>
      <trkpt lat="42.70769" lon="23.45403">
        <ele>567.495525</ele>
        <time>2022-03-09T11:46:22.419Z</time>
      </trkpt>
      <trkpt lat="42.7077" lon="23.45387">
        <ele>567.248112</ele>
        <time>2022-03-09T11:46:25.449Z</time>
      </trkpt>
      <trkpt lat="42.7077" lon="23.4537">
        <ele>566.995035</ele>
        <time>2022-03-09T11:46:28.418Z</time>
      </trkpt>
      <trkpt lat="42.7077" lon="23.45352">
        <ele>566.72556</ele>
        <time>2022-03-09T11:46:31.419Z</time>
      </trkpt>
      <trkpt lat="42.70771" lon="23.45334">
        <ele>566.454015</ele>
        <time>2022-03-09T11:46:34.429Z</time>
      </trkpt>
      <trkpt lat="42.70773" lon="23.45316">
        <ele>566.190017</ele>
        <time>2022-03-09T11:46:37.484Z</time>
      </trkpt>
      <trkpt lat="42.70774" lon="23.45299">
        <ele>565.942496</ele>
        <time>2022-03-09T11:46:40.406Z</time>
      </trkpt>
      <trkpt lat="42.70774" lon="23.45282">
        <ele>565.684452</ele>
        <time>2022-03-09T11:46:43.413Z</time>
      </trkpt>
      <trkpt lat="42.70775" lon="23.45265">
        <ele>565.494727</ele>
        <time>2022-03-09T11:46:46.425Z</time>
      </trkpt>
      <trkpt lat="42.70777" lon="23.45248">
        <ele>565.36381</ele>
        <time>2022-03-09T11:46:49.414Z</time>
      </trkpt>
      <trkpt lat="42.70777" lon="23.45231">
        <ele>565.230874</ele>
        <time>2022-03-09T11:46:52.406Z</time>
      </trkpt>
      <trkpt lat="42.70778" lon="23.45214">
        <ele>565.097162</ele>
        <time>2022-03-09T11:46:55.439Z</time>
      </trkpt>
      <trkpt lat="42.70779" lon="23.45197">
        <ele>564.965658</ele>
        <time>2022-03-09T11:46:58.429Z</time>
      </trkpt>
      <trkpt lat="42.7078" lon="23.4518">
        <ele>564.834001</ele>
        <time>2022-03-09T11:47:01.407Z</time>
      </trkpt>
      <trkpt lat="42.7078" lon="23.45163">
        <ele>564.69882</ele>
        <time>2022-03-09T11:47:04.460Z</time>
      </trkpt>
      <trkpt lat="42.70781" lon="23.45145">
        <ele>564.558016</ele>
        <time>2022-03-09T11:47:07.415Z</time>
      </trkpt>
      <trkpt lat="42.70782" lon="23.45128">
        <ele>564.423854</ele>
        <time>2022-03-09T11:47:10.460Z</time>
      </trkpt>
      <trkpt lat="42.70784" lon="23.45111">
        <ele>564.29321</ele>
        <time>2022-03-09T11:47:13.417Z</time>
      </trkpt>
      <trkpt lat="42.70785" lon="23.45095">
        <ele>564.16873</ele>
        <time>2022-03-09T11:47:16.414Z</time>
      </trkpt>
      <trkpt lat="42.70787" lon="23.45078">
        <ele>564.033966</ele>
        <time>2022-03-09T11:47:19.413Z</time>
      </trkpt>
      <trkpt lat="42.70789" lon="23.4506">
        <ele>563.893244</ele>
        <time>2022-03-09T11:47:22.412Z</time>
      </trkpt>
      <trkpt lat="42.70792" lon="23.45047">
        <ele>563.791166</ele>
        <time>2022-03-09T11:47:24.427Z</time>
      </trkpt>
      <trkpt lat="42.70793" lon="23.45034">
        <ele>563.689909</ele>
        <time>2022-03-09T11:47:26.426Z</time>
      </trkpt>
      <trkpt lat="42.70794" lon="23.45021">
        <ele>563.687384</ele>
        <time>2022-03-09T11:47:28.435Z</time>
      </trkpt>
      <trkpt lat="42.70794" lon="23.45009">
        <ele>563.721268</ele>
        <time>2022-03-09T11:47:30.428Z</time>
      </trkpt>
      <trkpt lat="42.70795" lon="23.44996">
        <ele>563.754705</ele>
        <time>2022-03-09T11:47:32.419Z</time>
      </trkpt>
      <trkpt lat="42.70796" lon="23.4498">
        <ele>563.799533</ele>
        <time>2022-03-09T11:47:35.435Z</time>
      </trkpt>
      <trkpt lat="42.70794" lon="23.44964">
        <ele>563.840824</ele>
        <time>2022-03-09T11:47:38.423Z</time>
      </trkpt>
      <trkpt lat="42.70792" lon="23.44947">
        <ele>563.888597</ele>
        <time>2022-03-09T11:47:41.420Z</time>
      </trkpt>
      <trkpt lat="42.70794" lon="23.4493">
        <ele>563.933839</ele>
        <time>2022-03-09T11:47:43.425Z</time>
      </trkpt>
      <trkpt lat="42.70795" lon="23.44911">
        <ele>563.984548</ele>
        <time>2022-03-09T11:47:45.426Z</time>
      </trkpt>
      <trkpt lat="42.70796" lon="23.44894">
        <ele>564.030821</ele>
        <time>2022-03-09T11:47:47.409Z</time>
      </trkpt>
      <trkpt lat="42.70797" lon="23.44879">
        <ele>564.070705</ele>
        <time>2022-03-09T11:47:49.425Z</time>
      </trkpt>
      <trkpt lat="42.70798" lon="23.44865">
        <ele>564.109022</ele>
        <time>2022-03-09T11:47:51.428Z</time>
      </trkpt>
      <trkpt lat="42.708" lon="23.44852">
        <ele>564.145717</ele>
        <time>2022-03-09T11:47:53.425Z</time>
      </trkpt>
      <trkpt lat="42.70802" lon="23.44838">
        <ele>564.183131</ele>
        <time>2022-03-09T11:47:55.424Z</time>
      </trkpt>
      <trkpt lat="42.70803" lon="23.44824">
        <ele>564.22068</ele>
        <time>2022-03-09T11:47:57.407Z</time>
      </trkpt>
      <trkpt lat="42.70805" lon="23.44811">
        <ele>564.256951</ele>
        <time>2022-03-09T11:47:59.424Z</time>
      </trkpt>
      <trkpt lat="42.70806" lon="23.44797">
        <ele>564.293176</ele>
        <time>2022-03-09T11:48:01.411Z</time>
      </trkpt>
      <trkpt lat="42.70807" lon="23.44784">
        <ele>564.328556</ele>
        <time>2022-03-09T11:48:03.419Z</time>
      </trkpt>
      <trkpt lat="42.70808" lon="23.44771">
        <ele>564.361495</ele>
        <time>2022-03-09T11:48:05.527Z</time>
      </trkpt>
      <trkpt lat="42.70809" lon="23.44757">
        <ele>564.394065</ele>
        <time>2022-03-09T11:48:07.422Z</time>
      </trkpt>
      <trkpt lat="42.70811" lon="23.44744">
        <ele>564.426067</ele>
        <time>2022-03-09T11:48:09.431Z</time>
      </trkpt>
      <trkpt lat="42.70811" lon="23.44732">
        <ele>564.457269</ele>
        <time>2022-03-09T11:48:11.437Z</time>
      </trkpt>
      <trkpt lat="42.70812" lon="23.44719">
        <ele>564.487498</ele>
        <time>2022-03-09T11:48:13.442Z</time>
      </trkpt>
      <trkpt lat="42.70813" lon="23.44707">
        <ele>564.517483</ele>
        <time>2022-03-09T11:48:15.427Z</time>
      </trkpt>
      <trkpt lat="42.70814" lon="23.44695">
        <ele>564.547365</ele>
        <time>2022-03-09T11:48:17.404Z</time>
      </trkpt>
      <trkpt lat="42.70816" lon="23.44677">
        <ele>564.590784</ele>
        <time>2022-03-09T11:48:20.430Z</time>
      </trkpt>
      <trkpt lat="42.70818" lon="23.4466">
        <ele>564.634882</ele>
        <time>2022-03-09T11:48:23.412Z</time>
      </trkpt>
      <trkpt lat="42.70818" lon="23.44647">
        <ele>564.666229</ele>
        <time>2022-03-09T11:48:25.443Z</time>
      </trkpt>
      <trkpt lat="42.70819" lon="23.44634">
        <ele>564.69782</ele>
        <time>2022-03-09T11:48:27.442Z</time>
      </trkpt>
      <trkpt lat="42.70819" lon="23.44621">
        <ele>564.729941</ele>
        <time>2022-03-09T11:48:29.427Z</time>
      </trkpt>
      <trkpt lat="42.70821" lon="23.44607">
        <ele>564.763448</ele>
        <time>2022-03-09T11:48:31.427Z</time>
      </trkpt>
      <trkpt lat="42.70823" lon="23.44594">
        <ele>564.79626</ele>
        <time>2022-03-09T11:48:33.413Z</time>
      </trkpt>
      <trkpt lat="42.70823" lon="23.4458">
        <ele>564.829546</ele>
        <time>2022-03-09T11:48:35.406Z</time>
      </trkpt>
      <trkpt lat="42.70823" lon="23.44567">
        <ele>564.863539</ele>
        <time>2022-03-09T11:48:37.422Z</time>
      </trkpt>
      <trkpt lat="42.70823" lon="23.44553">
        <ele>564.896324</ele>
        <time>2022-03-09T11:48:39.405Z</time>
      </trkpt>
      <trkpt lat="42.70824" lon="23.44539">
        <ele>564.92789</ele>
        <time>2022-03-09T11:48:41.422Z</time>
      </trkpt>
      <trkpt lat="42.70824" lon="23.44525">
        <ele>564.954378</ele>
        <time>2022-03-09T11:48:43.413Z</time>
      </trkpt>
      <trkpt lat="42.70825" lon="23.44512">
        <ele>564.979927</ele>
        <time>2022-03-09T11:48:45.421Z</time>
      </trkpt>
      <trkpt lat="42.70825" lon="23.44498">
        <ele>565.005507</ele>
        <time>2022-03-09T11:48:47.422Z</time>
      </trkpt>
      <trkpt lat="42.70826" lon="23.44485">
        <ele>565.030707</ele>
        <time>2022-03-09T11:48:49.444Z</time>
      </trkpt>
      <trkpt lat="42.70827" lon="23.44472">
        <ele>565.056497</ele>
        <time>2022-03-09T11:48:51.409Z</time>
      </trkpt>
      <trkpt lat="42.70828" lon="23.44459">
        <ele>565.081299</ele>
        <time>2022-03-09T11:48:53.402Z</time>
      </trkpt>
      <trkpt lat="42.70828" lon="23.44446">
        <ele>565.10612</ele>
        <time>2022-03-09T11:48:55.401Z</time>
      </trkpt>
      <trkpt lat="42.70829" lon="23.44432">
        <ele>565.13172</ele>
        <time>2022-03-09T11:48:57.417Z</time>
      </trkpt>
      <trkpt lat="42.7083" lon="23.44419">
        <ele>565.157853</ele>
        <time>2022-03-09T11:48:59.408Z</time>
      </trkpt>
      <trkpt lat="42.7083" lon="23.44406">
        <ele>565.182293</ele>
        <time>2022-03-09T11:49:01.412Z</time>
      </trkpt>
      <trkpt lat="42.70832" lon="23.44387">
        <ele>565.217302</ele>
        <time>2022-03-09T11:49:04.401Z</time>
      </trkpt>
      <trkpt lat="42.70832" lon="23.44375">
        <ele>565.240414</ele>
        <time>2022-03-09T11:49:06.419Z</time>
      </trkpt>
      <trkpt lat="42.70833" lon="23.44357">
        <ele>565.275186</ele>
        <time>2022-03-09T11:49:09.406Z</time>
      </trkpt>
      <trkpt lat="42.70835" lon="23.44339">
        <ele>565.310384</ele>
        <time>2022-03-09T11:49:12.404Z</time>
      </trkpt>
      <trkpt lat="42.70836" lon="23.44326">
        <ele>565.334612</ele>
        <time>2022-03-09T11:49:14.408Z</time>
      </trkpt>
      <trkpt lat="42.70837" lon="23.44313">
        <ele>565.358883</ele>
        <time>2022-03-09T11:49:16.451Z</time>
      </trkpt>
      <trkpt lat="42.70837" lon="23.44296">
        <ele>565.391572</ele>
        <time>2022-03-09T11:49:19.421Z</time>
      </trkpt>
      <trkpt lat="42.70839" lon="23.44279">
        <ele>565.425527</ele>
        <time>2022-03-09T11:49:22.416Z</time>
      </trkpt>
      <trkpt lat="42.7084" lon="23.44266">
        <ele>565.448853</ele>
        <time>2022-03-09T11:49:24.407Z</time>
      </trkpt>
      <trkpt lat="42.70841" lon="23.44253">
        <ele>565.4731</ele>
        <time>2022-03-09T11:49:26.395Z</time>
      </trkpt>
      <trkpt lat="42.70842" lon="23.44241">
        <ele>565.496507</ele>
        <time>2022-03-09T11:49:28.408Z</time>
      </trkpt>
      <trkpt lat="42.70844" lon="23.44223">
        <ele>565.530227</ele>
        <time>2022-03-09T11:49:31.386Z</time>
      </trkpt>
      <trkpt lat="42.70845" lon="23.44206">
        <ele>565.563271</ele>
        <time>2022-03-09T11:49:34.424Z</time>
      </trkpt>
      <trkpt lat="42.70847" lon="23.44189">
        <ele>565.595053</ele>
        <time>2022-03-09T11:49:37.413Z</time>
      </trkpt>
      <trkpt lat="42.70847" lon="23.44174">
        <ele>565.623777</ele>
        <time>2022-03-09T11:49:40.434Z</time>
      </trkpt>
      <trkpt lat="42.70846" lon="23.44156">
        <ele>565.657543</ele>
        <time>2022-03-09T11:49:43.405Z</time>
      </trkpt>
      <trkpt lat="42.70846" lon="23.44144">
        <ele>565.681913</ele>
        <time>2022-03-09T11:49:45.403Z</time>
      </trkpt>
      <trkpt lat="42.70846" lon="23.4413">
        <ele>565.707436</ele>
        <time>2022-03-09T11:49:47.409Z</time>
      </trkpt>
      <trkpt lat="42.70848" lon="23.44117">
        <ele>565.732937</ele>
        <time>2022-03-09T11:49:49.457Z</time>
      </trkpt>
      <trkpt lat="42.70848" lon="23.44104">
        <ele>565.757528</ele>
        <time>2022-03-09T11:49:51.391Z</time>
      </trkpt>
      <trkpt lat="42.70849" lon="23.4409">
        <ele>565.782905</ele>
        <time>2022-03-09T11:49:53.411Z</time>
      </trkpt>
      <trkpt lat="42.70849" lon="23.44077">
        <ele>565.808051</ele>
        <time>2022-03-09T11:49:55.416Z</time>
      </trkpt>
      <trkpt lat="42.70849" lon="23.44064">
        <ele>565.832809</ele>
        <time>2022-03-09T11:49:57.419Z</time>
      </trkpt>
      <trkpt lat="42.7085" lon="23.4405">
        <ele>565.7816</ele>
        <time>2022-03-09T11:49:59.400Z</time>
      </trkpt>
      <trkpt lat="42.7085" lon="23.44037">
        <ele>565.650341</ele>
        <time>2022-03-09T11:50:01.403Z</time>
      </trkpt>
      <trkpt lat="42.70851" lon="23.44024">
        <ele>565.520984</ele>
        <time>2022-03-09T11:50:03.400Z</time>
      </trkpt>
      <trkpt lat="42.70852" lon="23.44012">
        <ele>565.394093</ele>
        <time>2022-03-09T11:50:05.430Z</time>
      </trkpt>
      <trkpt lat="42.70853" lon="23.43999">
        <ele>565.263633</ele>
        <time>2022-03-09T11:50:07.410Z</time>
      </trkpt>
      <trkpt lat="42.70854" lon="23.43986">
        <ele>565.136038</ele>
        <time>2022-03-09T11:50:09.408Z</time>
      </trkpt>
      <trkpt lat="42.70855" lon="23.43974">
        <ele>565.012425</ele>
        <time>2022-03-09T11:50:11.438Z</time>
      </trkpt>
      <trkpt lat="42.70856" lon="23.43961">
        <ele>564.886682</ele>
        <time>2022-03-09T11:50:13.412Z</time>
      </trkpt>
      <trkpt lat="42.70857" lon="23.43949">
        <ele>564.757955</ele>
        <time>2022-03-09T11:50:15.417Z</time>
      </trkpt>
      <trkpt lat="42.70858" lon="23.4393">
        <ele>564.576213</ele>
        <time>2022-03-09T11:50:18.412Z</time>
      </trkpt>
      <trkpt lat="42.70859" lon="23.43913">
        <ele>564.396195</ele>
        <time>2022-03-09T11:50:21.428Z</time>
      </trkpt>
      <trkpt lat="42.7086" lon="23.43896">
        <ele>564.227638</ele>
        <time>2022-03-09T11:50:24.419Z</time>
      </trkpt>
      <trkpt lat="42.70861" lon="23.4388">
        <ele>564.067262</ele>
        <time>2022-03-09T11:50:27.411Z</time>
      </trkpt>
      <trkpt lat="42.70861" lon="23.43867">
        <ele>563.936249</ele>
        <time>2022-03-09T11:50:29.404Z</time>
      </trkpt>
      <trkpt lat="42.70862" lon="23.43854">
        <ele>563.804793</ele>
        <time>2022-03-09T11:50:31.405Z</time>
      </trkpt>
      <trkpt lat="42.70863" lon="23.43841">
        <ele>563.679315</ele>
        <time>2022-03-09T11:50:33.423Z</time>
      </trkpt>
      <trkpt lat="42.70864" lon="23.43828">
        <ele>563.548961</ele>
        <time>2022-03-09T11:50:35.407Z</time>
      </trkpt>
      <trkpt lat="42.70864" lon="23.43815">
        <ele>563.41761</ele>
        <time>2022-03-09T11:50:37.421Z</time>
      </trkpt>
      <trkpt lat="42.70865" lon="23.43802">
        <ele>563.457488</ele>
        <time>2022-03-09T11:50:39.419Z</time>
      </trkpt>
      <trkpt lat="42.70865" lon="23.4379">
        <ele>563.527446</ele>
        <time>2022-03-09T11:50:41.416Z</time>
      </trkpt>
      <trkpt lat="42.70866" lon="23.43778">
        <ele>563.597901</ele>
        <time>2022-03-09T11:50:43.419Z</time>
      </trkpt>
      <trkpt lat="42.70867" lon="23.43765">
        <ele>563.66774</ele>
        <time>2022-03-09T11:50:45.440Z</time>
      </trkpt>
      <trkpt lat="42.70869" lon="23.43747">
        <ele>563.769277</ele>
        <time>2022-03-09T11:50:48.414Z</time>
      </trkpt>
      <trkpt lat="42.7087" lon="23.43735">
        <ele>563.838268</ele>
        <time>2022-03-09T11:50:50.413Z</time>
      </trkpt>
      <trkpt lat="42.70872" lon="23.43717">
        <ele>563.941283</ele>
        <time>2022-03-09T11:50:53.405Z</time>
      </trkpt>
      <trkpt lat="42.70873" lon="23.43699">
        <ele>564.041114</ele>
        <time>2022-03-09T11:50:56.409Z</time>
      </trkpt>
      <trkpt lat="42.70874" lon="23.43681">
        <ele>564.143323</ele>
        <time>2022-03-09T11:50:59.410Z</time>
      </trkpt>
      <trkpt lat="42.70876" lon="23.43664">
        <ele>564.242176</ele>
        <time>2022-03-09T11:51:02.420Z</time>
      </trkpt>
      <trkpt lat="42.70877" lon="23.43646">
        <ele>564.344828</ele>
        <time>2022-03-09T11:51:05.425Z</time>
      </trkpt>
      <trkpt lat="42.70879" lon="23.43628">
        <ele>564.44273</ele>
        <time>2022-03-09T11:51:08.455Z</time>
      </trkpt>
      <trkpt lat="42.7088" lon="23.43612">
        <ele>564.537284</ele>
        <time>2022-03-09T11:51:11.410Z</time>
      </trkpt>
      <trkpt lat="42.70881" lon="23.43594">
        <ele>564.636493</ele>
        <time>2022-03-09T11:51:14.420Z</time>
      </trkpt>
      <trkpt lat="42.70882" lon="23.43581">
        <ele>564.706948</ele>
        <time>2022-03-09T11:51:16.453Z</time>
      </trkpt>
      <trkpt lat="42.70883" lon="23.43569">
        <ele>564.781617</ele>
        <time>2022-03-09T11:51:18.402Z</time>
      </trkpt>
      <trkpt lat="42.70884" lon="23.43556">
        <ele>564.89479</ele>
        <time>2022-03-09T11:51:20.412Z</time>
      </trkpt>
      <trkpt lat="42.70885" lon="23.43539">
        <ele>565.058765</ele>
        <time>2022-03-09T11:51:23.425Z</time>
      </trkpt>
      <trkpt lat="42.70886" lon="23.4352">
        <ele>565.226023</ele>
        <time>2022-03-09T11:51:26.417Z</time>
      </trkpt>
      <trkpt lat="42.70886" lon="23.43508">
        <ele>565.339106</ele>
        <time>2022-03-09T11:51:28.418Z</time>
      </trkpt>
      <trkpt lat="42.70888" lon="23.43491">
        <ele>565.501792</ele>
        <time>2022-03-09T11:51:31.405Z</time>
      </trkpt>
      <trkpt lat="42.70889" lon="23.43474">
        <ele>565.652657</ele>
        <time>2022-03-09T11:51:34.432Z</time>
      </trkpt>
      <trkpt lat="42.70889" lon="23.43456">
        <ele>565.820608</ele>
        <time>2022-03-09T11:51:37.418Z</time>
      </trkpt>
      <trkpt lat="42.7089" lon="23.43438">
        <ele>565.985388</ele>
        <time>2022-03-09T11:51:40.415Z</time>
      </trkpt>
      <trkpt lat="42.70892" lon="23.43422">
        <ele>566.134274</ele>
        <time>2022-03-09T11:51:43.428Z</time>
      </trkpt>
      <trkpt lat="42.70895" lon="23.43405">
        <ele>566.291771</ele>
        <time>2022-03-09T11:51:46.415Z</time>
      </trkpt>
      <trkpt lat="42.70895" lon="23.43389">
        <ele>566.442471</ele>
        <time>2022-03-09T11:51:49.411Z</time>
      </trkpt>
      <trkpt lat="42.70896" lon="23.43373">
        <ele>566.591214</ele>
        <time>2022-03-09T11:51:52.420Z</time>
      </trkpt>
      <trkpt lat="42.70896" lon="23.43357">
        <ele>566.733453</ele>
        <time>2022-03-09T11:51:55.414Z</time>
      </trkpt>
      <trkpt lat="42.70897" lon="23.43341">
        <ele>566.88317</ele>
        <time>2022-03-09T11:51:58.449Z</time>
      </trkpt>
      <trkpt lat="42.70897" lon="23.43325">
        <ele>567.034465</ele>
        <time>2022-03-09T11:52:01.412Z</time>
      </trkpt>
      <trkpt lat="42.70898" lon="23.43308">
        <ele>567.254349</ele>
        <time>2022-03-09T11:52:04.425Z</time>
      </trkpt>
      <trkpt lat="42.709" lon="23.4329">
        <ele>567.487604</ele>
        <time>2022-03-09T11:52:07.418Z</time>
      </trkpt>
      <trkpt lat="42.70901" lon="23.43272">
        <ele>567.70997</ele>
        <time>2022-03-09T11:52:10.422Z</time>
      </trkpt>
      <trkpt lat="42.70903" lon="23.43255">
        <ele>567.930517</ele>
        <time>2022-03-09T11:52:13.414Z</time>
      </trkpt>
      <trkpt lat="42.70905" lon="23.43239">
        <ele>568.141436</ele>
        <time>2022-03-09T11:52:16.427Z</time>
      </trkpt>
      <trkpt lat="42.70905" lon="23.43223">
        <ele>568.343074</ele>
        <time>2022-03-09T11:52:19.401Z</time>
      </trkpt>
      <trkpt lat="42.70905" lon="23.43208">
        <ele>568.541883</ele>
        <time>2022-03-09T11:52:22.419Z</time>
      </trkpt>
      <trkpt lat="42.70906" lon="23.43192">
        <ele>568.742035</ele>
        <time>2022-03-09T11:52:25.403Z</time>
      </trkpt>
      <trkpt lat="42.70907" lon="23.43177">
        <ele>568.943401</ele>
        <time>2022-03-09T11:52:28.408Z</time>
      </trkpt>
      <trkpt lat="42.7091" lon="23.4316">
        <ele>569.164348</ele>
        <time>2022-03-09T11:52:31.436Z</time>
      </trkpt>
      <trkpt lat="42.70913" lon="23.43147">
        <ele>569.33125</ele>
        <time>2022-03-09T11:52:34.404Z</time>
      </trkpt>
      <trkpt lat="42.70907" lon="23.43125">
        <ele>569.642493</ele>
        <time>2022-03-09T11:52:57.407Z</time>
      </trkpt>
      <trkpt lat="42.70906" lon="23.43112">
        <ele>569.807983</ele>
        <time>2022-03-09T11:53:05.438Z</time>
      </trkpt>
      <trkpt lat="42.70892" lon="23.43116">
        <ele>570.073253</ele>
        <time>2022-03-09T11:53:24.425Z</time>
      </trkpt>
      <trkpt lat="42.70889" lon="23.43133">
        <ele>569.98765</ele>
        <time>2022-03-09T11:53:27.423Z</time>
      </trkpt>
      <trkpt lat="42.70887" lon="23.4315">
        <ele>569.704913</ele>
        <time>2022-03-09T11:53:30.426Z</time>
      </trkpt>
      <trkpt lat="42.70886" lon="23.43167">
        <ele>569.4275</ele>
        <time>2022-03-09T11:53:33.464Z</time>
      </trkpt>
      <trkpt lat="42.70885" lon="23.43184">
        <ele>569.151892</ele>
        <time>2022-03-09T11:53:36.428Z</time>
      </trkpt>
      <trkpt lat="42.70884" lon="23.43201">
        <ele>568.878075</ele>
        <time>2022-03-09T11:53:39.421Z</time>
      </trkpt>
      <trkpt lat="42.70883" lon="23.43219">
        <ele>568.591669</ele>
        <time>2022-03-09T11:53:42.412Z</time>
      </trkpt>
      <trkpt lat="42.70882" lon="23.43236">
        <ele>568.308982</ele>
        <time>2022-03-09T11:53:45.393Z</time>
      </trkpt>
      <trkpt lat="42.70877" lon="23.43252">
        <ele>568.023985</ele>
        <time>2022-03-09T11:53:48.416Z</time>
      </trkpt>
      <trkpt lat="42.70867" lon="23.43258">
        <ele>567.793605</ele>
        <time>2022-03-09T11:53:50.406Z</time>
      </trkpt>
      <trkpt lat="42.70857" lon="23.43263">
        <ele>567.55694</ele>
        <time>2022-03-09T11:53:52.453Z</time>
      </trkpt>
      <trkpt lat="42.70848" lon="23.43267">
        <ele>567.335766</ele>
        <time>2022-03-09T11:53:54.421Z</time>
      </trkpt>
      <trkpt lat="42.70838" lon="23.43269">
        <ele>567.127478</ele>
        <time>2022-03-09T11:53:56.424Z</time>
      </trkpt>
      <trkpt lat="42.70826" lon="23.43273">
        <ele>566.849985</ele>
        <time>2022-03-09T11:53:59.548Z</time>
      </trkpt>
      <trkpt lat="42.70814" lon="23.43277">
        <ele>566.574135</ele>
        <time>2022-03-09T11:54:02.421Z</time>
      </trkpt>
      <trkpt lat="42.70803" lon="23.43282">
        <ele>566.308666</ele>
        <time>2022-03-09T11:54:05.403Z</time>
      </trkpt>
      <trkpt lat="42.70792" lon="23.43286">
        <ele>566.167424</ele>
        <time>2022-03-09T11:54:08.411Z</time>
      </trkpt>
      <trkpt lat="42.70783" lon="23.43292">
        <ele>566.143049</ele>
        <time>2022-03-09T11:54:11.416Z</time>
      </trkpt>
      <trkpt lat="42.70774" lon="23.43297">
        <ele>566.120435</ele>
        <time>2022-03-09T11:54:14.397Z</time>
      </trkpt>
      <trkpt lat="42.70765" lon="23.43301">
        <ele>566.096134</ele>
        <time>2022-03-09T11:54:17.420Z</time>
      </trkpt>
      <trkpt lat="42.70755" lon="23.43304">
        <ele>566.070822</ele>
        <time>2022-03-09T11:54:20.405Z</time>
      </trkpt>
      <trkpt lat="42.70744" lon="23.43307">
        <ele>566.044408</ele>
        <time>2022-03-09T11:54:23.406Z</time>
      </trkpt>
      <trkpt lat="42.70734" lon="23.4331">
        <ele>566.01783</ele>
        <time>2022-03-09T11:54:26.403Z</time>
      </trkpt>
      <trkpt lat="42.70723" lon="23.43313">
        <ele>565.991263</ele>
        <time>2022-03-09T11:54:29.441Z</time>
      </trkpt>
      <trkpt lat="42.70712" lon="23.43315">
        <ele>565.964481</ele>
        <time>2022-03-09T11:54:32.409Z</time>
      </trkpt>
      <trkpt lat="42.70701" lon="23.43318">
        <ele>565.938459</ele>
        <time>2022-03-09T11:54:35.447Z</time>
      </trkpt>
      <trkpt lat="42.70692" lon="23.43323">
        <ele>565.913067</ele>
        <time>2022-03-09T11:54:38.407Z</time>
      </trkpt>
      <trkpt lat="42.70681" lon="23.43327">
        <ele>565.88658</ele>
        <time>2022-03-09T11:54:41.434Z</time>
      </trkpt>
      <trkpt lat="42.70671" lon="23.43332">
        <ele>565.859287</ele>
        <time>2022-03-09T11:54:44.408Z</time>
      </trkpt>
      <trkpt lat="42.7066" lon="23.43337">
        <ele>565.831016</ele>
        <time>2022-03-09T11:54:47.455Z</time>
      </trkpt>
      <trkpt lat="42.70649" lon="23.43343">
        <ele>565.80435</ele>
        <time>2022-03-09T11:54:50.411Z</time>
      </trkpt>
      <trkpt lat="42.70639" lon="23.43347">
        <ele>565.778264</ele>
        <time>2022-03-09T11:54:53.417Z</time>
      </trkpt>
      <trkpt lat="42.70629" lon="23.43352">
        <ele>565.752122</ele>
        <time>2022-03-09T11:54:56.412Z</time>
      </trkpt>
      <trkpt lat="42.70619" lon="23.43357">
        <ele>565.719361</ele>
        <time>2022-03-09T11:54:59.400Z</time>
      </trkpt>
      <trkpt lat="42.70609" lon="23.43363">
        <ele>565.684694</ele>
        <time>2022-03-09T11:55:02.415Z</time>
      </trkpt>
      <trkpt lat="42.70601" lon="23.4337">
        <ele>565.649123</ele>
        <time>2022-03-09T11:55:05.414Z</time>
      </trkpt>
      <trkpt lat="42.70591" lon="23.43379">
        <ele>565.611196</ele>
        <time>2022-03-09T11:55:08.400Z</time>
      </trkpt>
      <trkpt lat="42.70582" lon="23.43387">
        <ele>565.573826</ele>
        <time>2022-03-09T11:55:11.418Z</time>
      </trkpt>
      <trkpt lat="42.70574" lon="23.43396">
        <ele>565.537517</ele>
        <time>2022-03-09T11:55:14.416Z</time>
      </trkpt>
      <trkpt lat="42.70566" lon="23.43405">
        <ele>565.503333</ele>
        <time>2022-03-09T11:55:17.403Z</time>
      </trkpt>
      <trkpt lat="42.70558" lon="23.43414">
        <ele>565.467712</ele>
        <time>2022-03-09T11:55:20.449Z</time>
      </trkpt>
      <trkpt lat="42.70551" lon="23.43424">
        <ele>565.434046</ele>
        <time>2022-03-09T11:55:23.411Z</time>
      </trkpt>
      <trkpt lat="42.70544" lon="23.43434">
        <ele>565.400992</ele>
        <time>2022-03-09T11:55:26.419Z</time>
      </trkpt>
      <trkpt lat="42.70537" lon="23.43443">
        <ele>565.367976</ele>
        <time>2022-03-09T11:55:29.408Z</time>
      </trkpt>
      <trkpt lat="42.7053" lon="23.43451">
        <ele>565.336035</ele>
        <time>2022-03-09T11:55:32.413Z</time>
      </trkpt>
      <trkpt lat="42.70524" lon="23.43461">
        <ele>565.30413</ele>
        <time>2022-03-09T11:55:35.424Z</time>
      </trkpt>
      <trkpt lat="42.70519" lon="23.43473">
        <ele>565.271562</ele>
        <time>2022-03-09T11:55:38.415Z</time>
      </trkpt>
      <trkpt lat="42.70513" lon="23.43483">
        <ele>565.236778</ele>
        <time>2022-03-09T11:55:41.408Z</time>
      </trkpt>
      <trkpt lat="42.70506" lon="23.43493">
        <ele>565.203563</ele>
        <time>2022-03-09T11:55:44.421Z</time>
      </trkpt>
      <trkpt lat="42.70498" lon="23.43502">
        <ele>565.169888</ele>
        <time>2022-03-09T11:55:47.403Z</time>
      </trkpt>
      <trkpt lat="42.7049" lon="23.43509">
        <ele>565.136279</ele>
        <time>2022-03-09T11:55:50.450Z</time>
      </trkpt>
      <trkpt lat="42.70482" lon="23.43518">
        <ele>565.252543</ele>
        <time>2022-03-09T11:55:53.458Z</time>
      </trkpt>
      <trkpt lat="42.70475" lon="23.43527">
        <ele>565.375719</ele>
        <time>2022-03-09T11:55:56.408Z</time>
      </trkpt>
      <trkpt lat="42.70468" lon="23.43537">
        <ele>565.492718</ele>
        <time>2022-03-09T11:55:59.466Z</time>
      </trkpt>
      <trkpt lat="42.70461" lon="23.43546">
        <ele>565.61702</ele>
        <time>2022-03-09T11:56:02.416Z</time>
      </trkpt>
      <trkpt lat="42.70454" lon="23.43556">
        <ele>565.744625</ele>
        <time>2022-03-09T11:56:05.406Z</time>
      </trkpt>
      <trkpt lat="42.70447" lon="23.43567">
        <ele>565.878791</ele>
        <time>2022-03-09T11:56:08.413Z</time>
      </trkpt>
      <trkpt lat="42.70439" lon="23.43578">
        <ele>566.013131</ele>
        <time>2022-03-09T11:56:11.419Z</time>
      </trkpt>
      <trkpt lat="42.70431" lon="23.43589">
        <ele>566.155074</ele>
        <time>2022-03-09T11:56:14.412Z</time>
      </trkpt>
      <trkpt lat="42.70424" lon="23.436">
        <ele>566.290204</ele>
        <time>2022-03-09T11:56:17.412Z</time>
      </trkpt>
      <trkpt lat="42.70417" lon="23.43613">
        <ele>566.436088</ele>
        <time>2022-03-09T11:56:20.418Z</time>
      </trkpt>
      <trkpt lat="42.70411" lon="23.43624">
        <ele>566.571048</ele>
        <time>2022-03-09T11:56:23.407Z</time>
      </trkpt>
      <trkpt lat="42.70404" lon="23.43636">
        <ele>566.708927</ele>
        <time>2022-03-09T11:56:26.410Z</time>
      </trkpt>
      <trkpt lat="42.70397" lon="23.43648">
        <ele>566.850412</ele>
        <time>2022-03-09T11:56:29.412Z</time>
      </trkpt>
      <trkpt lat="42.7039" lon="23.4366">
        <ele>566.987651</ele>
        <time>2022-03-09T11:56:32.407Z</time>
      </trkpt>
      <trkpt lat="42.70383" lon="23.43673">
        <ele>567.132073</ele>
        <time>2022-03-09T11:56:35.417Z</time>
      </trkpt>
      <trkpt lat="42.70376" lon="23.43686">
        <ele>567.275792</ele>
        <time>2022-03-09T11:56:38.450Z</time>
      </trkpt>
      <trkpt lat="42.70369" lon="23.43697">
        <ele>567.403026</ele>
        <time>2022-03-09T11:56:41.401Z</time>
      </trkpt>
      <trkpt lat="42.70362" lon="23.43709">
        <ele>567.498026</ele>
        <time>2022-03-09T11:56:44.420Z</time>
      </trkpt>
      <trkpt lat="42.70355" lon="23.43721">
        <ele>567.595502</ele>
        <time>2022-03-09T11:56:47.410Z</time>
      </trkpt>
      <trkpt lat="42.70348" lon="23.43734">
        <ele>567.700178</ele>
        <time>2022-03-09T11:56:50.411Z</time>
      </trkpt>
      <trkpt lat="42.70341" lon="23.43748">
        <ele>567.804404</ele>
        <time>2022-03-09T11:56:53.399Z</time>
      </trkpt>
      <trkpt lat="42.70333" lon="23.43762">
        <ele>567.915257</ele>
        <time>2022-03-09T11:56:56.423Z</time>
      </trkpt>
      <trkpt lat="42.70325" lon="23.43776">
        <ele>568.028682</ele>
        <time>2022-03-09T11:56:59.418Z</time>
      </trkpt>
      <trkpt lat="42.70317" lon="23.4379">
        <ele>568.143614</ele>
        <time>2022-03-09T11:57:02.432Z</time>
      </trkpt>
      <trkpt lat="42.70308" lon="23.43802">
        <ele>568.255781</ele>
        <time>2022-03-09T11:57:05.405Z</time>
      </trkpt>
      <trkpt lat="42.70299" lon="23.43815">
        <ele>568.369609</ele>
        <time>2022-03-09T11:57:08.412Z</time>
      </trkpt>
      <trkpt lat="42.70291" lon="23.43829">
        <ele>568.480463</ele>
        <time>2022-03-09T11:57:11.418Z</time>
      </trkpt>
      <trkpt lat="42.70283" lon="23.43842">
        <ele>568.58952</ele>
        <time>2022-03-09T11:57:14.399Z</time>
      </trkpt>
      <trkpt lat="42.70275" lon="23.43855">
        <ele>568.697888</ele>
        <time>2022-03-09T11:57:17.451Z</time>
      </trkpt>
      <trkpt lat="42.70267" lon="23.43868">
        <ele>568.807915</ele>
        <time>2022-03-09T11:57:20.410Z</time>
      </trkpt>
      <trkpt lat="42.70259" lon="23.43882">
        <ele>568.919805</ele>
        <time>2022-03-09T11:57:23.398Z</time>
      </trkpt>
      <trkpt lat="42.70251" lon="23.43896">
        <ele>568.937636</ele>
        <time>2022-03-09T11:57:26.416Z</time>
      </trkpt>
      <trkpt lat="42.70243" lon="23.4391">
        <ele>568.946731</ele>
        <time>2022-03-09T11:57:29.417Z</time>
      </trkpt>
      <trkpt lat="42.70234" lon="23.43925">
        <ele>568.956026</ele>
        <time>2022-03-09T11:57:32.409Z</time>
      </trkpt>
      <trkpt lat="42.70226" lon="23.43938">
        <ele>568.96517</ele>
        <time>2022-03-09T11:57:35.425Z</time>
      </trkpt>
      <trkpt lat="42.70218" lon="23.43952">
        <ele>568.974221</ele>
        <time>2022-03-09T11:57:38.418Z</time>
      </trkpt>
      <trkpt lat="42.70209" lon="23.43966">
        <ele>568.983378</ele>
        <time>2022-03-09T11:57:41.424Z</time>
      </trkpt>
      <trkpt lat="42.70202" lon="23.4398">
        <ele>568.992421</ele>
        <time>2022-03-09T11:57:44.411Z</time>
      </trkpt>
      <trkpt lat="42.70193" lon="23.43993">
        <ele>569.001526</ele>
        <time>2022-03-09T11:57:47.408Z</time>
      </trkpt>
      <trkpt lat="42.70185" lon="23.44008">
        <ele>569.010859</ele>
        <time>2022-03-09T11:57:50.405Z</time>
      </trkpt>
      <trkpt lat="42.70177" lon="23.44022">
        <ele>569.019904</ele>
        <time>2022-03-09T11:57:53.437Z</time>
      </trkpt>
      <trkpt lat="42.70172" lon="23.44032">
        <ele>569.026305</ele>
        <time>2022-03-09T11:57:55.425Z</time>
      </trkpt>
      <trkpt lat="42.70163" lon="23.44046">
        <ele>569.035647</ele>
        <time>2022-03-09T11:57:58.418Z</time>
      </trkpt>
      <trkpt lat="42.70157" lon="23.44056">
        <ele>569.041989</ele>
        <time>2022-03-09T11:58:00.414Z</time>
      </trkpt>
      <trkpt lat="42.70152" lon="23.44065">
        <ele>569.048268</ele>
        <time>2022-03-09T11:58:02.404Z</time>
      </trkpt>
      <trkpt lat="42.70143" lon="23.44079">
        <ele>569.083481</ele>
        <time>2022-03-09T11:58:05.413Z</time>
      </trkpt>
      <trkpt lat="42.70138" lon="23.44089">
        <ele>569.142102</ele>
        <time>2022-03-09T11:58:07.406Z</time>
      </trkpt>
      <trkpt lat="42.7013" lon="23.44104">
        <ele>569.228857</ele>
        <time>2022-03-09T11:58:10.414Z</time>
      </trkpt>
      <trkpt lat="42.70121" lon="23.44117">
        <ele>569.313622</ele>
        <time>2022-03-09T11:58:13.412Z</time>
      </trkpt>
      <trkpt lat="42.70113" lon="23.44131">
        <ele>569.399777</ele>
        <time>2022-03-09T11:58:16.418Z</time>
      </trkpt>
      <trkpt lat="42.70102" lon="23.44142">
        <ele>569.486636</ele>
        <time>2022-03-09T11:58:19.400Z</time>
      </trkpt>
      <trkpt lat="42.70091" lon="23.44152">
        <ele>569.575493</ele>
        <time>2022-03-09T11:58:22.402Z</time>
      </trkpt>
      <trkpt lat="42.70083" lon="23.44159">
        <ele>569.63555</ele>
        <time>2022-03-09T11:58:24.405Z</time>
      </trkpt>
      <trkpt lat="42.70072" lon="23.44168">
        <ele>569.72065</ele>
        <time>2022-03-09T11:58:27.421Z</time>
      </trkpt>
      <trkpt lat="42.70061" lon="23.44176">
        <ele>569.80084</ele>
        <time>2022-03-09T11:58:30.421Z</time>
      </trkpt>
      <trkpt lat="42.70049" lon="23.44184">
        <ele>569.886094</ele>
        <time>2022-03-09T11:58:33.413Z</time>
      </trkpt>
      <trkpt lat="42.70038" lon="23.44192">
        <ele>569.968101</ele>
        <time>2022-03-09T11:58:36.445Z</time>
      </trkpt>
      <trkpt lat="42.70027" lon="23.442">
        <ele>570.050237</ele>
        <time>2022-03-09T11:58:39.410Z</time>
      </trkpt>
      <trkpt lat="42.70016" lon="23.44207">
        <ele>570.126537</ele>
        <time>2022-03-09T11:58:42.425Z</time>
      </trkpt>
      <trkpt lat="42.70006" lon="23.44214">
        <ele>570.204325</ele>
        <time>2022-03-09T11:58:45.407Z</time>
      </trkpt>
      <trkpt lat="42.69995" lon="23.44222">
        <ele>570.360308</ele>
        <time>2022-03-09T11:58:48.408Z</time>
      </trkpt>
      <trkpt lat="42.69984" lon="23.4423">
        <ele>570.540411</ele>
        <time>2022-03-09T11:58:51.400Z</time>
      </trkpt>
      <trkpt lat="42.69974" lon="23.44238">
        <ele>570.720249</ele>
        <time>2022-03-09T11:58:54.445Z</time>
      </trkpt>
      <trkpt lat="42.69963" lon="23.44246">
        <ele>570.899031</ele>
        <time>2022-03-09T11:58:57.433Z</time>
      </trkpt>
      <trkpt lat="42.69953" lon="23.44253">
        <ele>571.075634</ele>
        <time>2022-03-09T11:59:00.412Z</time>
      </trkpt>
      <trkpt lat="42.69942" lon="23.44259">
        <ele>571.251759</ele>
        <time>2022-03-09T11:59:03.420Z</time>
      </trkpt>
      <trkpt lat="42.69933" lon="23.44267">
        <ele>571.417906</ele>
        <time>2022-03-09T11:59:06.410Z</time>
      </trkpt>
      <trkpt lat="42.69923" lon="23.44275">
        <ele>571.591223</ele>
        <time>2022-03-09T11:59:09.411Z</time>
      </trkpt>
      <trkpt lat="42.69912" lon="23.44282">
        <ele>571.760619</ele>
        <time>2022-03-09T11:59:12.408Z</time>
      </trkpt>
      <trkpt lat="42.69903" lon="23.44288">
        <ele>571.926841</ele>
        <time>2022-03-09T11:59:15.425Z</time>
      </trkpt>
      <trkpt lat="42.69892" lon="23.44296">
        <ele>572.106149</ele>
        <time>2022-03-09T11:59:18.407Z</time>
      </trkpt>
      <trkpt lat="42.69883" lon="23.44304">
        <ele>572.269479</ele>
        <time>2022-03-09T11:59:21.419Z</time>
      </trkpt>
      <trkpt lat="42.69874" lon="23.44311">
        <ele>572.422824</ele>
        <time>2022-03-09T11:59:24.409Z</time>
      </trkpt>
      <trkpt lat="42.69864" lon="23.44318">
        <ele>572.585557</ele>
        <time>2022-03-09T11:59:27.402Z</time>
      </trkpt>
      <trkpt lat="42.69854" lon="23.44325">
        <ele>572.760959</ele>
        <time>2022-03-09T11:59:30.409Z</time>
      </trkpt>
      <trkpt lat="42.69843" lon="23.44333">
        <ele>572.921848</ele>
        <time>2022-03-09T11:59:33.413Z</time>
      </trkpt>
      <trkpt lat="42.69831" lon="23.44341">
        <ele>572.924436</ele>
        <time>2022-03-09T11:59:36.416Z</time>
      </trkpt>
      <trkpt lat="42.69821" lon="23.44348">
        <ele>572.926434</ele>
        <time>2022-03-09T11:59:38.408Z</time>
      </trkpt>
      <trkpt lat="42.69812" lon="23.44355">
        <ele>572.928494</ele>
        <time>2022-03-09T11:59:40.399Z</time>
      </trkpt>
      <trkpt lat="42.69802" lon="23.44361">
        <ele>572.930536</ele>
        <time>2022-03-09T11:59:42.415Z</time>
      </trkpt>
      <trkpt lat="42.69793" lon="23.44368">
        <ele>572.93251</ele>
        <time>2022-03-09T11:59:44.420Z</time>
      </trkpt>
      <trkpt lat="42.69783" lon="23.44375">
        <ele>572.934481</ele>
        <time>2022-03-09T11:59:46.409Z</time>
      </trkpt>
      <trkpt lat="42.69774" lon="23.44381">
        <ele>572.936421</ele>
        <time>2022-03-09T11:59:48.403Z</time>
      </trkpt>
      <trkpt lat="42.69765" lon="23.44387">
        <ele>572.938283</ele>
        <time>2022-03-09T11:59:50.417Z</time>
      </trkpt>
      <trkpt lat="42.69757" lon="23.44394">
        <ele>572.940058</ele>
        <time>2022-03-09T11:59:52.426Z</time>
      </trkpt>
      <trkpt lat="42.69749" lon="23.444">
        <ele>572.94175</ele>
        <time>2022-03-09T11:59:54.425Z</time>
      </trkpt>
      <trkpt lat="42.69742" lon="23.44406">
        <ele>572.943435</ele>
        <time>2022-03-09T11:59:56.405Z</time>
      </trkpt>
      <trkpt lat="42.69734" lon="23.44413">
        <ele>572.945167</ele>
        <time>2022-03-09T11:59:58.426Z</time>
      </trkpt>
      <trkpt lat="42.69726" lon="23.44419">
        <ele>572.946884</ele>
        <time>2022-03-09T12:00:00.403Z</time>
      </trkpt>
      <trkpt lat="42.69718" lon="23.44425">
        <ele>572.948602</ele>
        <time>2022-03-09T12:00:02.443Z</time>
      </trkpt>
      <trkpt lat="42.69706" lon="23.44433">
        <ele>572.951092</ele>
        <time>2022-03-09T12:00:05.409Z</time>
      </trkpt>
      <trkpt lat="42.69694" lon="23.44442">
        <ele>572.95357</ele>
        <time>2022-03-09T12:00:08.421Z</time>
      </trkpt>
      <trkpt lat="42.69683" lon="23.44451">
        <ele>572.933822</ele>
        <time>2022-03-09T12:00:11.413Z</time>
      </trkpt>
      <trkpt lat="42.69671" lon="23.44459">
        <ele>572.861216</ele>
        <time>2022-03-09T12:00:14.412Z</time>
      </trkpt>
      <trkpt lat="42.6966" lon="23.44468">
        <ele>572.790414</ele>
        <time>2022-03-09T12:00:17.417Z</time>
      </trkpt>
      <trkpt lat="42.69648" lon="23.44477">
        <ele>572.718741</ele>
        <time>2022-03-09T12:00:20.402Z</time>
      </trkpt>
      <trkpt lat="42.69637" lon="23.44486">
        <ele>572.648136</ele>
        <time>2022-03-09T12:00:23.432Z</time>
      </trkpt>
      <trkpt lat="42.69627" lon="23.44493">
        <ele>572.584608</ele>
        <time>2022-03-09T12:00:26.425Z</time>
      </trkpt>
      <trkpt lat="42.69616" lon="23.445">
        <ele>572.521998</ele>
        <time>2022-03-09T12:00:29.442Z</time>
      </trkpt>
      <trkpt lat="42.69605" lon="23.44507">
        <ele>572.455468</ele>
        <time>2022-03-09T12:00:32.416Z</time>
      </trkpt>
      <trkpt lat="42.69594" lon="23.44515">
        <ele>572.387895</ele>
        <time>2022-03-09T12:00:35.421Z</time>
      </trkpt>
      <trkpt lat="42.69583" lon="23.44523">
        <ele>572.316808</ele>
        <time>2022-03-09T12:00:38.424Z</time>
      </trkpt>
      <trkpt lat="42.69572" lon="23.44531">
        <ele>572.248872</ele>
        <time>2022-03-09T12:00:41.424Z</time>
      </trkpt>
      <trkpt lat="42.6956" lon="23.44539">
        <ele>572.179119</ele>
        <time>2022-03-09T12:00:44.418Z</time>
      </trkpt>
      <trkpt lat="42.69549" lon="23.44547">
        <ele>572.108699</ele>
        <time>2022-03-09T12:00:47.416Z</time>
      </trkpt>
      <trkpt lat="42.69538" lon="23.44555">
        <ele>572.040014</ele>
        <time>2022-03-09T12:00:50.423Z</time>
      </trkpt>
      <trkpt lat="42.69526" lon="23.44564">
        <ele>571.977098</ele>
        <time>2022-03-09T12:00:53.421Z</time>
      </trkpt>
      <trkpt lat="42.69515" lon="23.44574">
        <ele>571.976231</ele>
        <time>2022-03-09T12:00:56.416Z</time>
      </trkpt>
      <trkpt lat="42.69504" lon="23.44583">
        <ele>571.975345</ele>
        <time>2022-03-09T12:00:59.426Z</time>
      </trkpt>
      <trkpt lat="42.69496" lon="23.44589">
        <ele>571.974718</ele>
        <time>2022-03-09T12:01:01.425Z</time>
      </trkpt>
      <trkpt lat="42.69487" lon="23.44595">
        <ele>571.974095</ele>
        <time>2022-03-09T12:01:03.417Z</time>
      </trkpt>
      <trkpt lat="42.69479" lon="23.44601">
        <ele>571.97347</ele>
        <time>2022-03-09T12:01:05.423Z</time>
      </trkpt>
      <trkpt lat="42.69471" lon="23.44607">
        <ele>571.972844</ele>
        <time>2022-03-09T12:01:07.426Z</time>
      </trkpt>
      <trkpt lat="42.69462" lon="23.44613">
        <ele>571.972223</ele>
        <time>2022-03-09T12:01:09.425Z</time>
      </trkpt>
      <trkpt lat="42.69454" lon="23.44619">
        <ele>571.971582</ele>
        <time>2022-03-09T12:01:11.447Z</time>
      </trkpt>
      <trkpt lat="42.69445" lon="23.44625">
        <ele>571.97095</ele>
        <time>2022-03-09T12:01:13.421Z</time>
      </trkpt>
      <trkpt lat="42.69437" lon="23.44631">
        <ele>571.970317</ele>
        <time>2022-03-09T12:01:15.433Z</time>
      </trkpt>
      <trkpt lat="42.69424" lon="23.44636">
        <ele>571.969428</ele>
        <time>2022-03-09T12:01:18.419Z</time>
      </trkpt>
      <trkpt lat="42.69415" lon="23.44639">
        <ele>571.968822</ele>
        <time>2022-03-09T12:01:20.411Z</time>
      </trkpt>
      <trkpt lat="42.69403" lon="23.44643">
        <ele>571.967979</ele>
        <time>2022-03-09T12:01:23.398Z</time>
      </trkpt>
      <trkpt lat="42.69391" lon="23.44646">
        <ele>571.967182</ele>
        <time>2022-03-09T12:01:26.412Z</time>
      </trkpt>
      <trkpt lat="42.69379" lon="23.44648">
        <ele>571.966372</ele>
        <time>2022-03-09T12:01:29.414Z</time>
      </trkpt>
      <trkpt lat="42.69367" lon="23.4465">
        <ele>571.965557</ele>
        <time>2022-03-09T12:01:32.417Z</time>
      </trkpt>
      <trkpt lat="42.69355" lon="23.44652">
        <ele>571.97493</ele>
        <time>2022-03-09T12:01:35.406Z</time>
      </trkpt>
      <trkpt lat="42.69344" lon="23.44655">
        <ele>571.990716</ele>
        <time>2022-03-09T12:01:38.414Z</time>
      </trkpt>
      <trkpt lat="42.69333" lon="23.44658">
        <ele>572.006421</ele>
        <time>2022-03-09T12:01:41.406Z</time>
      </trkpt>
      <trkpt lat="42.69322" lon="23.4466">
        <ele>572.02293</ele>
        <time>2022-03-09T12:01:44.406Z</time>
      </trkpt>
      <trkpt lat="42.69309" lon="23.44662">
        <ele>572.041347</ele>
        <time>2022-03-09T12:01:47.420Z</time>
      </trkpt>
      <trkpt lat="42.69296" lon="23.44665">
        <ele>572.05999</ele>
        <time>2022-03-09T12:01:50.422Z</time>
      </trkpt>
      <trkpt lat="42.69284" lon="23.44667">
        <ele>572.077885</ele>
        <time>2022-03-09T12:01:53.451Z</time>
      </trkpt>
      <trkpt lat="42.69271" lon="23.4467">
        <ele>572.09586</ele>
        <time>2022-03-09T12:01:56.427Z</time>
      </trkpt>
      <trkpt lat="42.69259" lon="23.44673">
        <ele>572.113752</ele>
        <time>2022-03-09T12:01:59.428Z</time>
      </trkpt>
      <trkpt lat="42.69247" lon="23.44677">
        <ele>572.130829</ele>
        <time>2022-03-09T12:02:02.420Z</time>
      </trkpt>
      <trkpt lat="42.69235" lon="23.4468">
        <ele>572.147811</ele>
        <time>2022-03-09T12:02:05.407Z</time>
      </trkpt>
      <trkpt lat="42.69224" lon="23.44686">
        <ele>572.164957</ele>
        <time>2022-03-09T12:02:08.425Z</time>
      </trkpt>
      <trkpt lat="42.69214" lon="23.44693">
        <ele>572.181199</ele>
        <time>2022-03-09T12:02:11.423Z</time>
      </trkpt>
      <trkpt lat="42.69205" lon="23.44703">
        <ele>572.197548</ele>
        <time>2022-03-09T12:02:14.408Z</time>
      </trkpt>
      <trkpt lat="42.69196" lon="23.44715">
        <ele>572.215154</ele>
        <time>2022-03-09T12:02:17.417Z</time>
      </trkpt>
      <trkpt lat="42.69187" lon="23.44726">
        <ele>572.141082</ele>
        <time>2022-03-09T12:02:20.411Z</time>
      </trkpt>
      <trkpt lat="42.69178" lon="23.44738">
        <ele>572.036263</ele>
        <time>2022-03-09T12:02:23.416Z</time>
      </trkpt>
      <trkpt lat="42.69169" lon="23.44749">
        <ele>571.930366</ele>
        <time>2022-03-09T12:02:26.430Z</time>
      </trkpt>
      <trkpt lat="42.69161" lon="23.44761">
        <ele>571.823438</ele>
        <time>2022-03-09T12:02:29.417Z</time>
      </trkpt>
      <trkpt lat="42.69152" lon="23.44773">
        <ele>571.714045</ele>
        <time>2022-03-09T12:02:32.489Z</time>
      </trkpt>
      <trkpt lat="42.69143" lon="23.44785">
        <ele>571.605157</ele>
        <time>2022-03-09T12:02:35.415Z</time>
      </trkpt>
      <trkpt lat="42.69135" lon="23.44796">
        <ele>571.502044</ele>
        <time>2022-03-09T12:02:38.407Z</time>
      </trkpt>
      <trkpt lat="42.69126" lon="23.44807">
        <ele>571.395956</ele>
        <time>2022-03-09T12:02:41.413Z</time>
      </trkpt>
      <trkpt lat="42.69117" lon="23.44819">
        <ele>571.28898</ele>
        <time>2022-03-09T12:02:44.410Z</time>
      </trkpt>
      <trkpt lat="42.69108" lon="23.4483">
        <ele>571.180965</ele>
        <time>2022-03-09T12:02:47.412Z</time>
      </trkpt>
      <trkpt lat="42.69098" lon="23.44841">
        <ele>571.071178</ele>
        <time>2022-03-09T12:02:50.405Z</time>
      </trkpt>
      <trkpt lat="42.6909" lon="23.44853">
        <ele>570.964647</ele>
        <time>2022-03-09T12:02:53.415Z</time>
      </trkpt>
      <trkpt lat="42.69081" lon="23.44862">
        <ele>570.865758</ele>
        <time>2022-03-09T12:02:56.397Z</time>
      </trkpt>
      <trkpt lat="42.69071" lon="23.44875">
        <ele>570.749259</ele>
        <time>2022-03-09T12:02:59.413Z</time>
      </trkpt>
      <trkpt lat="42.69064" lon="23.44884">
        <ele>570.66266</ele>
        <time>2022-03-09T12:03:01.420Z</time>
      </trkpt>
      <trkpt lat="42.69057" lon="23.44894">
        <ele>570.529437</ele>
        <time>2022-03-09T12:03:03.413Z</time>
      </trkpt>
      <trkpt lat="42.69051" lon="23.44904">
        <ele>570.389026</ele>
        <time>2022-03-09T12:03:05.452Z</time>
      </trkpt>
      <trkpt lat="42.69044" lon="23.44912">
        <ele>570.248947</ele>
        <time>2022-03-09T12:03:07.417Z</time>
      </trkpt>
      <trkpt lat="42.69037" lon="23.44921">
        <ele>570.115896</ele>
        <time>2022-03-09T12:03:09.423Z</time>
      </trkpt>
      <trkpt lat="42.6903" lon="23.4493">
        <ele>569.981812</ele>
        <time>2022-03-09T12:03:11.420Z</time>
      </trkpt>
      <trkpt lat="42.69024" lon="23.44939">
        <ele>569.848261</ele>
        <time>2022-03-09T12:03:13.426Z</time>
      </trkpt>
      <trkpt lat="42.69015" lon="23.44952">
        <ele>569.657331</ele>
        <time>2022-03-09T12:03:16.448Z</time>
      </trkpt>
      <trkpt lat="42.69006" lon="23.44964">
        <ele>569.470963</ele>
        <time>2022-03-09T12:03:19.430Z</time>
      </trkpt>
      <trkpt lat="42.68996" lon="23.44978">
        <ele>569.27394</ele>
        <time>2022-03-09T12:03:22.415Z</time>
      </trkpt>
      <trkpt lat="42.68987" lon="23.4499">
        <ele>569.080395</ele>
        <time>2022-03-09T12:03:25.419Z</time>
      </trkpt>
      <trkpt lat="42.6898" lon="23.44998">
        <ele>568.94911</ele>
        <time>2022-03-09T12:03:27.441Z</time>
      </trkpt>
      <trkpt lat="42.68973" lon="23.45006">
        <ele>568.813978</ele>
        <time>2022-03-09T12:03:29.406Z</time>
      </trkpt>
      <trkpt lat="42.68967" lon="23.45015">
        <ele>568.681647</ele>
        <time>2022-03-09T12:03:31.453Z</time>
      </trkpt>
      <trkpt lat="42.6896" lon="23.45024">
        <ele>568.547841</ele>
        <time>2022-03-09T12:03:33.424Z</time>
      </trkpt>
      <trkpt lat="42.68954" lon="23.45034">
        <ele>568.413308</ele>
        <time>2022-03-09T12:03:35.414Z</time>
      </trkpt>
      <trkpt lat="42.68948" lon="23.45043">
        <ele>568.280375</ele>
        <time>2022-03-09T12:03:37.404Z</time>
      </trkpt>
      <trkpt lat="42.68941" lon="23.45052">
        <ele>568.147587</ele>
        <time>2022-03-09T12:03:39.404Z</time>
      </trkpt>
      <trkpt lat="42.68935" lon="23.45061">
        <ele>568.056167</ele>
        <time>2022-03-09T12:03:41.422Z</time>
      </trkpt>
      <trkpt lat="42.68926" lon="23.45074">
        <ele>568.30133</ele>
        <time>2022-03-09T12:03:44.423Z</time>
      </trkpt>
      <trkpt lat="42.68919" lon="23.45082">
        <ele>568.468469</ele>
        <time>2022-03-09T12:03:46.405Z</time>
      </trkpt>
      <trkpt lat="42.6891" lon="23.45095">
        <ele>568.710413</ele>
        <time>2022-03-09T12:03:49.452Z</time>
      </trkpt>
      <trkpt lat="42.68901" lon="23.45106">
        <ele>568.936679</ele>
        <time>2022-03-09T12:03:52.406Z</time>
      </trkpt>
      <trkpt lat="42.68892" lon="23.45118">
        <ele>569.165763</ele>
        <time>2022-03-09T12:03:55.538Z</time>
      </trkpt>
      <trkpt lat="42.68883" lon="23.4513">
        <ele>569.39511</ele>
        <time>2022-03-09T12:03:58.410Z</time>
      </trkpt>
      <trkpt lat="42.68875" lon="23.45143">
        <ele>569.628973</ele>
        <time>2022-03-09T12:04:01.424Z</time>
      </trkpt>
      <trkpt lat="42.68865" lon="23.45154">
        <ele>569.863395</ele>
        <time>2022-03-09T12:04:04.411Z</time>
      </trkpt>
      <trkpt lat="42.68858" lon="23.45162">
        <ele>570.029114</ele>
        <time>2022-03-09T12:04:06.443Z</time>
      </trkpt>
      <trkpt lat="42.6885" lon="23.45169">
        <ele>570.202288</ele>
        <time>2022-03-09T12:04:08.411Z</time>
      </trkpt>
      <trkpt lat="42.68841" lon="23.45174">
        <ele>570.382697</ele>
        <time>2022-03-09T12:04:10.427Z</time>
      </trkpt>
      <trkpt lat="42.68832" lon="23.45176">
        <ele>570.549692</ele>
        <time>2022-03-09T12:04:12.458Z</time>
      </trkpt>
      <trkpt lat="42.68823" lon="23.45178">
        <ele>570.719013</ele>
        <time>2022-03-09T12:04:14.414Z</time>
      </trkpt>
      <trkpt lat="42.68812" lon="23.4518">
        <ele>570.934731</ele>
        <time>2022-03-09T12:04:17.401Z</time>
      </trkpt>
      <trkpt lat="42.68801" lon="23.45182">
        <ele>571.133017</ele>
        <time>2022-03-09T12:04:20.404Z</time>
      </trkpt>
      <trkpt lat="42.68792" lon="23.45183">
        <ele>571.299473</ele>
        <time>2022-03-09T12:04:23.439Z</time>
      </trkpt>
      <trkpt lat="42.68781" lon="23.45185">
        <ele>571.686195</ele>
        <time>2022-03-09T12:04:27.444Z</time>
      </trkpt>
      <trkpt lat="42.68772" lon="23.45186">
        <ele>572.060653</ele>
        <time>2022-03-09T12:04:31.423Z</time>
      </trkpt>
      <trkpt lat="42.68762" lon="23.45189">
        <ele>572.476637</ele>
        <time>2022-03-09T12:04:36.414Z</time>
      </trkpt>
      <trkpt lat="42.68751" lon="23.45192">
        <ele>572.927249</ele>
        <time>2022-03-09T12:04:41.417Z</time>
      </trkpt>
      <trkpt lat="42.68742" lon="23.45195">
        <ele>573.29577</ele>
        <time>2022-03-09T12:04:45.468Z</time>
      </trkpt>
      <trkpt lat="42.68732" lon="23.452">
        <ele>573.692713</ele>
        <time>2022-03-09T12:04:50.400Z</time>
      </trkpt>
      <trkpt lat="42.68722" lon="23.45206">
        <ele>574.141163</ele>
        <time>2022-03-09T12:04:55.402Z</time>
      </trkpt>
      <trkpt lat="42.68713" lon="23.45213">
        <ele>574.555562</ele>
        <time>2022-03-09T12:05:00.423Z</time>
      </trkpt>
      <trkpt lat="42.68705" lon="23.45222">
        <ele>574.975502</ele>
        <time>2022-03-09T12:05:05.411Z</time>
      </trkpt>
      <trkpt lat="42.68697" lon="23.45232">
        <ele>575.407333</ele>
        <time>2022-03-09T12:05:10.413Z</time>
      </trkpt>
      <trkpt lat="42.6869" lon="23.45243">
        <ele>575.828298</ele>
        <time>2022-03-09T12:05:15.413Z</time>
      </trkpt>
      <trkpt lat="42.68684" lon="23.45255">
        <ele>576.260923</ele>
        <time>2022-03-09T12:05:20.446Z</time>
      </trkpt>
      <trkpt lat="42.68679" lon="23.45267">
        <ele>576.668262</ele>
        <time>2022-03-09T12:05:24.401Z</time>
      </trkpt>
      <trkpt lat="42.68675" lon="23.45279">
        <ele>577.06282</ele>
        <time>2022-03-09T12:05:28.432Z</time>
      </trkpt>
      <trkpt lat="42.68672" lon="23.45293">
        <ele>577.482666</ele>
        <time>2022-03-09T12:05:32.419Z</time>
      </trkpt>
      <trkpt lat="42.6867" lon="23.45305">
        <ele>577.858953</ele>
        <time>2022-03-09T12:05:36.422Z</time>
      </trkpt>
      <trkpt lat="42.68667" lon="23.45319">
        <ele>578.301385</ele>
        <time>2022-03-09T12:05:40.416Z</time>
      </trkpt>
      <trkpt lat="42.68662" lon="23.45334">
        <ele>578.438684</ele>
        <time>2022-03-09T12:05:44.420Z</time>
      </trkpt>
      <trkpt lat="42.68658" lon="23.45346">
        <ele>578.181623</ele>
        <time>2022-03-09T12:05:47.428Z</time>
      </trkpt>
      <trkpt lat="42.68654" lon="23.45358">
        <ele>577.925863</ele>
        <time>2022-03-09T12:05:50.419Z</time>
      </trkpt>
      <trkpt lat="42.68651" lon="23.45372">
        <ele>577.65073</ele>
        <time>2022-03-09T12:05:53.413Z</time>
      </trkpt>
      <trkpt lat="42.68648" lon="23.45386">
        <ele>577.360979</ele>
        <time>2022-03-09T12:05:56.412Z</time>
      </trkpt>
      <trkpt lat="42.68645" lon="23.45402">
        <ele>577.041967</ele>
        <time>2022-03-09T12:05:59.449Z</time>
      </trkpt>
      <trkpt lat="42.68642" lon="23.45415">
        <ele>576.794059</ele>
        <time>2022-03-09T12:06:01.414Z</time>
      </trkpt>
      <trkpt lat="42.68638" lon="23.45428">
        <ele>576.523252</ele>
        <time>2022-03-09T12:06:03.415Z</time>
      </trkpt>
      <trkpt lat="42.68635" lon="23.45441">
        <ele>576.258746</ele>
        <time>2022-03-09T12:06:05.413Z</time>
      </trkpt>
      <trkpt lat="42.6863" lon="23.45454">
        <ele>575.983295</ele>
        <time>2022-03-09T12:06:07.426Z</time>
      </trkpt>
      <trkpt lat="42.68623" lon="23.45467">
        <ele>575.663532</ele>
        <time>2022-03-09T12:06:09.393Z</time>
      </trkpt>
      <trkpt lat="42.68615" lon="23.45482">
        <ele>575.312752</ele>
        <time>2022-03-09T12:06:11.399Z</time>
      </trkpt>
      <trkpt lat="42.68607" lon="23.45497">
        <ele>574.949699</ele>
        <time>2022-03-09T12:06:13.410Z</time>
      </trkpt>
      <trkpt lat="42.68598" lon="23.45512">
        <ele>574.581808</ele>
        <time>2022-03-09T12:06:15.440Z</time>
      </trkpt>
      <trkpt lat="42.68588" lon="23.45527">
        <ele>574.203437</ele>
        <time>2022-03-09T12:06:17.432Z</time>
      </trkpt>
      <trkpt lat="42.68578" lon="23.45542">
        <ele>573.823651</ele>
        <time>2022-03-09T12:06:19.401Z</time>
      </trkpt>
      <trkpt lat="42.68567" lon="23.45556">
        <ele>573.516701</ele>
        <time>2022-03-09T12:06:21.454Z</time>
      </trkpt>
      <trkpt lat="42.68556" lon="23.45571">
        <ele>573.197177</ele>
        <time>2022-03-09T12:06:23.428Z</time>
      </trkpt>
      <trkpt lat="42.68544" lon="23.45586">
        <ele>572.868179</ele>
        <time>2022-03-09T12:06:25.413Z</time>
      </trkpt>
      <trkpt lat="42.68533" lon="23.45601">
        <ele>572.539629</ele>
        <time>2022-03-09T12:06:27.468Z</time>
      </trkpt>
      <trkpt lat="42.68521" lon="23.45616">
        <ele>572.205588</ele>
        <time>2022-03-09T12:06:29.416Z</time>
      </trkpt>
      <trkpt lat="42.6851" lon="23.45631">
        <ele>571.885012</ele>
        <time>2022-03-09T12:06:31.420Z</time>
      </trkpt>
      <trkpt lat="42.68499" lon="23.45645">
        <ele>571.588858</ele>
        <time>2022-03-09T12:06:33.409Z</time>
      </trkpt>
      <trkpt lat="42.68489" lon="23.45659">
        <ele>571.297636</ele>
        <time>2022-03-09T12:06:35.429Z</time>
      </trkpt>
      <trkpt lat="42.6848" lon="23.45672">
        <ele>571.024013</ele>
        <time>2022-03-09T12:06:37.423Z</time>
      </trkpt>
      <trkpt lat="42.68471" lon="23.45684">
        <ele>570.762946</ele>
        <time>2022-03-09T12:06:39.418Z</time>
      </trkpt>
      <trkpt lat="42.68462" lon="23.45696">
        <ele>570.505454</ele>
        <time>2022-03-09T12:06:41.411Z</time>
      </trkpt>
      <trkpt lat="42.68453" lon="23.45708">
        <ele>570.253648</ele>
        <time>2022-03-09T12:06:43.415Z</time>
      </trkpt>
      <trkpt lat="42.68445" lon="23.45719">
        <ele>570.366596</ele>
        <time>2022-03-09T12:06:45.425Z</time>
      </trkpt>
      <trkpt lat="42.68437" lon="23.45729">
        <ele>570.587124</ele>
        <time>2022-03-09T12:06:47.414Z</time>
      </trkpt>
      <trkpt lat="42.6843" lon="23.45739">
        <ele>570.79155</ele>
        <time>2022-03-09T12:06:49.420Z</time>
      </trkpt>
      <trkpt lat="42.68423" lon="23.45748">
        <ele>570.986761</ele>
        <time>2022-03-09T12:06:51.405Z</time>
      </trkpt>
      <trkpt lat="42.68417" lon="23.45756">
        <ele>571.175347</ele>
        <time>2022-03-09T12:06:53.428Z</time>
      </trkpt>
      <trkpt lat="42.68407" lon="23.45769">
        <ele>571.449084</ele>
        <time>2022-03-09T12:06:56.423Z</time>
      </trkpt>
      <trkpt lat="42.68401" lon="23.45779">
        <ele>571.643135</ele>
        <time>2022-03-09T12:06:58.405Z</time>
      </trkpt>
      <trkpt lat="42.68394" lon="23.45788">
        <ele>571.846119</ele>
        <time>2022-03-09T12:07:00.424Z</time>
      </trkpt>
      <trkpt lat="42.68387" lon="23.45798">
        <ele>572.04842</ele>
        <time>2022-03-09T12:07:02.441Z</time>
      </trkpt>
      <trkpt lat="42.68381" lon="23.45807">
        <ele>572.235113</ele>
        <time>2022-03-09T12:07:04.415Z</time>
      </trkpt>
      <trkpt lat="42.68374" lon="23.45822">
        <ele>572.496036</ele>
        <time>2022-03-09T12:07:07.417Z</time>
      </trkpt>
      <trkpt lat="42.68369" lon="23.45838">
        <ele>572.747943</ele>
        <time>2022-03-09T12:07:10.419Z</time>
      </trkpt>
      <trkpt lat="42.68365" lon="23.45854">
        <ele>573.01499</ele>
        <time>2022-03-09T12:07:13.410Z</time>
      </trkpt>
      <trkpt lat="42.68361" lon="23.45866">
        <ele>573.199065</ele>
        <time>2022-03-09T12:07:15.423Z</time>
      </trkpt>
      <trkpt lat="42.68358" lon="23.45877">
        <ele>573.385787</ele>
        <time>2022-03-09T12:07:17.417Z</time>
      </trkpt>
      <trkpt lat="42.68355" lon="23.45889">
        <ele>573.580246</ele>
        <time>2022-03-09T12:07:19.438Z</time>
      </trkpt>
      <trkpt lat="42.68352" lon="23.45901">
        <ele>573.771187</ele>
        <time>2022-03-09T12:07:21.410Z</time>
      </trkpt>
      <trkpt lat="42.68348" lon="23.45918">
        <ele>573.853921</ele>
        <time>2022-03-09T12:07:24.408Z</time>
      </trkpt>
      <trkpt lat="42.68344" lon="23.45935">
        <ele>573.834844</ele>
        <time>2022-03-09T12:07:27.414Z</time>
      </trkpt>
      <trkpt lat="42.68339" lon="23.45952">
        <ele>573.816178</ele>
        <time>2022-03-09T12:07:30.489Z</time>
      </trkpt>
      <trkpt lat="42.68335" lon="23.45967">
        <ele>573.798492</ele>
        <time>2022-03-09T12:07:33.422Z</time>
      </trkpt>
      <trkpt lat="42.68329" lon="23.45983">
        <ele>573.779505</ele>
        <time>2022-03-09T12:07:36.412Z</time>
      </trkpt>
      <trkpt lat="42.68324" lon="23.45994">
        <ele>573.766266</ele>
        <time>2022-03-09T12:07:38.405Z</time>
      </trkpt>
      <trkpt lat="42.68321" lon="23.46005">
        <ele>573.753242</ele>
        <time>2022-03-09T12:07:40.447Z</time>
      </trkpt>
      <trkpt lat="42.68317" lon="23.46018">
        <ele>573.738588</ele>
        <time>2022-03-09T12:07:42.425Z</time>
      </trkpt>
      <trkpt lat="42.68312" lon="23.46031">
        <ele>573.723914</ele>
        <time>2022-03-09T12:07:44.400Z</time>
      </trkpt>
      <trkpt lat="42.68308" lon="23.46042">
        <ele>573.710228</ele>
        <time>2022-03-09T12:07:46.404Z</time>
      </trkpt>
      <trkpt lat="42.68305" lon="23.46054">
        <ele>573.696687</ele>
        <time>2022-03-09T12:07:48.416Z</time>
      </trkpt>
      <trkpt lat="42.68302" lon="23.46066">
        <ele>573.68354</ele>
        <time>2022-03-09T12:07:50.457Z</time>
      </trkpt>
      <trkpt lat="42.68298" lon="23.46083">
        <ele>573.664765</ele>
        <time>2022-03-09T12:07:53.418Z</time>
      </trkpt>
      <trkpt lat="42.68292" lon="23.46099">
        <ele>573.645414</ele>
        <time>2022-03-09T12:07:56.412Z</time>
      </trkpt>
      <trkpt lat="42.68287" lon="23.46116">
        <ele>573.626441</ele>
        <time>2022-03-09T12:07:59.399Z</time>
      </trkpt>
      <trkpt lat="42.68284" lon="23.46127">
        <ele>573.613348</ele>
        <time>2022-03-09T12:08:01.411Z</time>
      </trkpt>
      <trkpt lat="42.68281" lon="23.4614">
        <ele>573.517528</ele>
        <time>2022-03-09T12:08:03.421Z</time>
      </trkpt>
      <trkpt lat="42.68277" lon="23.46157">
        <ele>573.2887</ele>
        <time>2022-03-09T12:08:06.408Z</time>
      </trkpt>
      <trkpt lat="42.68274" lon="23.46169">
        <ele>573.131743</ele>
        <time>2022-03-09T12:08:08.418Z</time>
      </trkpt>
      <trkpt lat="42.68271" lon="23.46181">
        <ele>572.968683</ele>
        <time>2022-03-09T12:08:10.421Z</time>
      </trkpt>
      <trkpt lat="42.68267" lon="23.46193">
        <ele>572.80353</ele>
        <time>2022-03-09T12:08:12.425Z</time>
      </trkpt>
      <trkpt lat="42.68264" lon="23.46204">
        <ele>572.642877</ele>
        <time>2022-03-09T12:08:14.405Z</time>
      </trkpt>
      <trkpt lat="42.6826" lon="23.46216">
        <ele>572.481207</ele>
        <time>2022-03-09T12:08:16.425Z</time>
      </trkpt>
      <trkpt lat="42.68254" lon="23.46225">
        <ele>572.323169</ele>
        <time>2022-03-09T12:08:18.413Z</time>
      </trkpt>
      <trkpt lat="42.68245" lon="23.46237">
        <ele>572.102615</ele>
        <time>2022-03-09T12:08:21.420Z</time>
      </trkpt>
      <trkpt lat="42.68233" lon="23.46246">
        <ele>571.874261</ele>
        <time>2022-03-09T12:08:24.428Z</time>
      </trkpt>
      <trkpt lat="42.68223" lon="23.46254">
        <ele>571.665658</ele>
        <time>2022-03-09T12:08:27.397Z</time>
      </trkpt>
      <trkpt lat="42.68212" lon="23.46263">
        <ele>571.438807</ele>
        <time>2022-03-09T12:08:30.443Z</time>
      </trkpt>
      <trkpt lat="42.68201" lon="23.46272">
        <ele>571.212945</ele>
        <time>2022-03-09T12:08:33.420Z</time>
      </trkpt>
      <trkpt lat="42.6819" lon="23.46281">
        <ele>570.993556</ele>
        <time>2022-03-09T12:08:36.408Z</time>
      </trkpt>
      <trkpt lat="42.68179" lon="23.4629">
        <ele>570.771193</ele>
        <time>2022-03-09T12:08:39.438Z</time>
      </trkpt>
      <trkpt lat="42.68169" lon="23.463">
        <ele>570.548398</ele>
        <time>2022-03-09T12:08:42.418Z</time>
      </trkpt>
      <trkpt lat="42.68158" lon="23.4631">
        <ele>570.580528</ele>
        <time>2022-03-09T12:08:45.415Z</time>
      </trkpt>
      <trkpt lat="42.68149" lon="23.46319">
        <ele>570.751674</ele>
        <time>2022-03-09T12:08:48.423Z</time>
      </trkpt>
      <trkpt lat="42.68137" lon="23.46328">
        <ele>570.936584</ele>
        <time>2022-03-09T12:08:51.421Z</time>
      </trkpt>
      <trkpt lat="42.68129" lon="23.46335">
        <ele>571.066962</ele>
        <time>2022-03-09T12:08:53.429Z</time>
      </trkpt>
      <trkpt lat="42.68122" lon="23.46342">
        <ele>571.196045</ele>
        <time>2022-03-09T12:08:55.410Z</time>
      </trkpt>
      <trkpt lat="42.68115" lon="23.4635">
        <ele>571.326671</ele>
        <time>2022-03-09T12:08:57.402Z</time>
      </trkpt>
      <trkpt lat="42.68106" lon="23.46357">
        <ele>571.466324</ele>
        <time>2022-03-09T12:08:59.424Z</time>
      </trkpt>
      <trkpt lat="42.68098" lon="23.46365">
        <ele>571.610535</ele>
        <time>2022-03-09T12:09:01.419Z</time>
      </trkpt>
      <trkpt lat="42.6809" lon="23.46372">
        <ele>571.748923</ele>
        <time>2022-03-09T12:09:03.405Z</time>
      </trkpt>
      <trkpt lat="42.68082" lon="23.4638">
        <ele>571.880905</ele>
        <time>2022-03-09T12:09:05.413Z</time>
      </trkpt>
      <trkpt lat="42.68075" lon="23.46388">
        <ele>572.016784</ele>
        <time>2022-03-09T12:09:07.417Z</time>
      </trkpt>
      <trkpt lat="42.68068" lon="23.46396">
        <ele>572.151033</ele>
        <time>2022-03-09T12:09:09.449Z</time>
      </trkpt>
      <trkpt lat="42.68061" lon="23.46405">
        <ele>572.284929</ele>
        <time>2022-03-09T12:09:11.413Z</time>
      </trkpt>
      <trkpt lat="42.68053" lon="23.46413">
        <ele>572.414262</ele>
        <time>2022-03-09T12:09:13.409Z</time>
      </trkpt>
      <trkpt lat="42.68047" lon="23.46421">
        <ele>572.541896</ele>
        <time>2022-03-09T12:09:15.409Z</time>
      </trkpt>
      <trkpt lat="42.68038" lon="23.46433">
        <ele>572.716266</ele>
        <time>2022-03-09T12:09:18.427Z</time>
      </trkpt>
      <trkpt lat="42.68029" lon="23.46444">
        <ele>572.883567</ele>
        <time>2022-03-09T12:09:21.428Z</time>
      </trkpt>
      <trkpt lat="42.6802" lon="23.46456">
        <ele>573.121797</ele>
        <time>2022-03-09T12:09:24.421Z</time>
      </trkpt>
      <trkpt lat="42.68009" lon="23.46465">
        <ele>573.480477</ele>
        <time>2022-03-09T12:09:27.423Z</time>
      </trkpt>
      <trkpt lat="42.68" lon="23.4647">
        <ele>573.736423</ele>
        <time>2022-03-09T12:09:29.408Z</time>
      </trkpt>
      <trkpt lat="42.67988" lon="23.46475">
        <ele>574.098336</ele>
        <time>2022-03-09T12:09:32.419Z</time>
      </trkpt>
      <trkpt lat="42.67976" lon="23.46477">
        <ele>574.428638</ele>
        <time>2022-03-09T12:09:35.451Z</time>
      </trkpt>
      <trkpt lat="42.67965" lon="23.46478">
        <ele>574.729801</ele>
        <time>2022-03-09T12:09:38.413Z</time>
      </trkpt>
      <trkpt lat="42.67953" lon="23.4648">
        <ele>575.07598</ele>
        <time>2022-03-09T12:09:41.420Z</time>
      </trkpt>
      <trkpt lat="42.6794" lon="23.4648">
        <ele>575.420468</ele>
        <time>2022-03-09T12:09:44.420Z</time>
      </trkpt>
      <trkpt lat="42.67928" lon="23.4648">
        <ele>575.773241</ele>
        <time>2022-03-09T12:09:47.449Z</time>
      </trkpt>
      <trkpt lat="42.67916" lon="23.4648">
        <ele>576.098334</ele>
        <time>2022-03-09T12:09:50.393Z</time>
      </trkpt>
      <trkpt lat="42.67904" lon="23.4648">
        <ele>576.431713</ele>
        <time>2022-03-09T12:09:53.404Z</time>
      </trkpt>
      <trkpt lat="42.67892" lon="23.46479">
        <ele>576.762769</ele>
        <time>2022-03-09T12:09:56.420Z</time>
      </trkpt>
      <trkpt lat="42.6788" lon="23.46478">
        <ele>577.093944</ele>
        <time>2022-03-09T12:09:59.429Z</time>
      </trkpt>
      <trkpt lat="42.67868" lon="23.46477">
        <ele>577.436478</ele>
        <time>2022-03-09T12:10:02.421Z</time>
      </trkpt>
      <trkpt lat="42.67856" lon="23.46476">
        <ele>577.751313</ele>
        <time>2022-03-09T12:10:05.414Z</time>
      </trkpt>
      <trkpt lat="42.67847" lon="23.46475">
        <ele>578.001438</ele>
        <time>2022-03-09T12:10:07.419Z</time>
      </trkpt>
      <trkpt lat="42.67835" lon="23.46475">
        <ele>578.367383</ele>
        <time>2022-03-09T12:10:10.417Z</time>
      </trkpt>
      <trkpt lat="42.67823" lon="23.46474">
        <ele>578.707553</ele>
        <time>2022-03-09T12:10:13.434Z</time>
      </trkpt>
      <trkpt lat="42.67811" lon="23.46473">
        <ele>579.062078</ele>
        <time>2022-03-09T12:10:16.412Z</time>
      </trkpt>
      <trkpt lat="42.67798" lon="23.46473">
        <ele>579.428366</ele>
        <time>2022-03-09T12:10:19.407Z</time>
      </trkpt>
      <trkpt lat="42.67786" lon="23.46472">
        <ele>579.777862</ele>
        <time>2022-03-09T12:10:22.419Z</time>
      </trkpt>
      <trkpt lat="42.67774" lon="23.46471">
        <ele>580.135648</ele>
        <time>2022-03-09T12:10:25.414Z</time>
      </trkpt>
      <trkpt lat="42.67762" lon="23.4647">
        <ele>580.499485</ele>
        <time>2022-03-09T12:10:28.425Z</time>
      </trkpt>
      <trkpt lat="42.67749" lon="23.46468">
        <ele>580.861276</ele>
        <time>2022-03-09T12:10:31.441Z</time>
      </trkpt>
      <trkpt lat="42.67737" lon="23.46467">
        <ele>581.228478</ele>
        <time>2022-03-09T12:10:34.413Z</time>
      </trkpt>
      <trkpt lat="42.67724" lon="23.46465">
        <ele>581.581032</ele>
        <time>2022-03-09T12:10:37.415Z</time>
      </trkpt>
      <trkpt lat="42.67712" lon="23.46464">
        <ele>581.956464</ele>
        <time>2022-03-09T12:10:40.425Z</time>
      </trkpt>
      <trkpt lat="42.677" lon="23.46465">
        <ele>582.293732</ele>
        <time>2022-03-09T12:10:43.408Z</time>
      </trkpt>
      <trkpt lat="42.67687" lon="23.46464">
        <ele>582.666266</ele>
        <time>2022-03-09T12:10:46.419Z</time>
      </trkpt>
      <trkpt lat="42.67675" lon="23.46461">
        <ele>583.026895</ele>
        <time>2022-03-09T12:10:49.420Z</time>
      </trkpt>
      <trkpt lat="42.67664" lon="23.4646">
        <ele>583.2127</ele>
        <time>2022-03-09T12:10:52.416Z</time>
      </trkpt>
      <trkpt lat="42.67653" lon="23.46461">
        <ele>583.168968</ele>
        <time>2022-03-09T12:10:55.412Z</time>
      </trkpt>
      <trkpt lat="42.67642" lon="23.46461">
        <ele>583.121406</ele>
        <time>2022-03-09T12:10:58.418Z</time>
      </trkpt>
      <trkpt lat="42.6763" lon="23.46463">
        <ele>583.06909</ele>
        <time>2022-03-09T12:11:01.425Z</time>
      </trkpt>
      <trkpt lat="42.67617" lon="23.46464">
        <ele>583.016773</ele>
        <time>2022-03-09T12:11:04.417Z</time>
      </trkpt>
      <trkpt lat="42.67605" lon="23.46465">
        <ele>582.963738</ele>
        <time>2022-03-09T12:11:07.403Z</time>
      </trkpt>
      <trkpt lat="42.67593" lon="23.46466">
        <ele>582.912768</ele>
        <time>2022-03-09T12:11:10.468Z</time>
      </trkpt>
      <trkpt lat="42.67581" lon="23.46468">
        <ele>582.865648</ele>
        <time>2022-03-09T12:11:13.405Z</time>
      </trkpt>
      <trkpt lat="42.67571" lon="23.46472">
        <ele>582.821009</ele>
        <time>2022-03-09T12:11:16.440Z</time>
      </trkpt>
      <trkpt lat="42.67562" lon="23.46476">
        <ele>582.781598</ele>
        <time>2022-03-09T12:11:19.411Z</time>
      </trkpt>
      <trkpt lat="42.67551" lon="23.46482">
        <ele>582.731802</ele>
        <time>2022-03-09T12:11:23.413Z</time>
      </trkpt>
      <trkpt lat="42.67542" lon="23.46487">
        <ele>582.691547</ele>
        <time>2022-03-09T12:11:26.401Z</time>
      </trkpt>
      <trkpt lat="42.67533" lon="23.46491">
        <ele>582.650226</ele>
        <time>2022-03-09T12:11:29.408Z</time>
      </trkpt>
      <trkpt lat="42.67523" lon="23.46497">
        <ele>582.605651</ele>
        <time>2022-03-09T12:11:32.416Z</time>
      </trkpt>
      <trkpt lat="42.67513" lon="23.46501">
        <ele>582.557845</ele>
        <time>2022-03-09T12:11:35.413Z</time>
      </trkpt>
      <trkpt lat="42.675" lon="23.46506">
        <ele>582.50485</ele>
        <time>2022-03-09T12:11:38.413Z</time>
      </trkpt>
      <trkpt lat="42.67488" lon="23.46512">
        <ele>582.396097</ele>
        <time>2022-03-09T12:11:41.425Z</time>
      </trkpt>
      <trkpt lat="42.67476" lon="23.46518">
        <ele>582.212915</ele>
        <time>2022-03-09T12:11:44.409Z</time>
      </trkpt>
      <trkpt lat="42.67465" lon="23.46524">
        <ele>582.050738</ele>
        <time>2022-03-09T12:11:47.448Z</time>
      </trkpt>
      <trkpt lat="42.67455" lon="23.4653">
        <ele>581.894768</ele>
        <time>2022-03-09T12:11:50.452Z</time>
      </trkpt>
      <trkpt lat="42.67445" lon="23.46536">
        <ele>581.746545</ele>
        <time>2022-03-09T12:11:53.424Z</time>
      </trkpt>
      <trkpt lat="42.67433" lon="23.4654">
        <ele>581.574588</ele>
        <time>2022-03-09T12:11:56.412Z</time>
      </trkpt>
      <trkpt lat="42.67421" lon="23.46545">
        <ele>581.403267</ele>
        <time>2022-03-09T12:11:59.407Z</time>
      </trkpt>
      <trkpt lat="42.6741" lon="23.4655">
        <ele>581.232957</ele>
        <time>2022-03-09T12:12:02.426Z</time>
      </trkpt>
      <trkpt lat="42.67398" lon="23.46556">
        <ele>581.062646</ele>
        <time>2022-03-09T12:12:05.421Z</time>
      </trkpt>
      <trkpt lat="42.67387" lon="23.4656">
        <ele>580.900539</ele>
        <time>2022-03-09T12:12:08.418Z</time>
      </trkpt>
      <trkpt lat="42.67377" lon="23.46565">
        <ele>580.748967</ele>
        <time>2022-03-09T12:12:11.429Z</time>
      </trkpt>
      <trkpt lat="42.67367" lon="23.4657">
        <ele>580.602028</ele>
        <time>2022-03-09T12:12:14.431Z</time>
      </trkpt>
      <trkpt lat="42.67358" lon="23.46574">
        <ele>580.462416</ele>
        <time>2022-03-09T12:12:17.406Z</time>
      </trkpt>
      <trkpt lat="42.67347" lon="23.46579">
        <ele>580.305971</ele>
        <time>2022-03-09T12:12:20.409Z</time>
      </trkpt>
      <trkpt lat="42.67336" lon="23.46584">
        <ele>580.149527</ele>
        <time>2022-03-09T12:12:23.422Z</time>
      </trkpt>
      <trkpt lat="42.67326" lon="23.46586">
        <ele>579.999636</ele>
        <time>2022-03-09T12:12:26.406Z</time>
      </trkpt>
      <trkpt lat="42.67315" lon="23.46584">
        <ele>580.131609</ele>
        <time>2022-03-09T12:12:29.445Z</time>
      </trkpt>
      <trkpt lat="42.67304" lon="23.46579">
        <ele>580.373668</ele>
        <time>2022-03-09T12:12:32.416Z</time>
      </trkpt>
      <trkpt lat="42.67293" lon="23.46573">
        <ele>580.613365</ele>
        <time>2022-03-09T12:12:35.450Z</time>
      </trkpt>
      <trkpt lat="42.67283" lon="23.46566">
        <ele>580.859243</ele>
        <time>2022-03-09T12:12:38.464Z</time>
      </trkpt>
      <trkpt lat="42.67272" lon="23.4656">
        <ele>581.100739</ele>
        <time>2022-03-09T12:12:41.453Z</time>
      </trkpt>
      <trkpt lat="42.6726" lon="23.46553">
        <ele>581.36921</ele>
        <time>2022-03-09T12:12:44.411Z</time>
      </trkpt>
      <trkpt lat="42.67249" lon="23.46546">
        <ele>581.617037</ele>
        <time>2022-03-09T12:12:47.432Z</time>
      </trkpt>
      <trkpt lat="42.67238" lon="23.46539">
        <ele>581.864219</ele>
        <time>2022-03-09T12:12:50.413Z</time>
      </trkpt>
      <trkpt lat="42.67227" lon="23.46533">
        <ele>582.112362</ele>
        <time>2022-03-09T12:12:53.415Z</time>
      </trkpt>
      <trkpt lat="42.67217" lon="23.46527">
        <ele>582.347662</ele>
        <time>2022-03-09T12:12:56.417Z</time>
      </trkpt>
      <trkpt lat="42.67206" lon="23.46521">
        <ele>582.587281</ele>
        <time>2022-03-09T12:12:59.413Z</time>
      </trkpt>
      <trkpt lat="42.67196" lon="23.46515">
        <ele>582.81999</ele>
        <time>2022-03-09T12:13:02.417Z</time>
      </trkpt>
      <trkpt lat="42.67185" lon="23.46508">
        <ele>583.056484</ele>
        <time>2022-03-09T12:13:05.420Z</time>
      </trkpt>
      <trkpt lat="42.67175" lon="23.46502">
        <ele>583.294203</ele>
        <time>2022-03-09T12:13:08.424Z</time>
      </trkpt>
      <trkpt lat="42.67164" lon="23.46495">
        <ele>583.528794</ele>
        <time>2022-03-09T12:13:11.422Z</time>
      </trkpt>
      <trkpt lat="42.67154" lon="23.46488">
        <ele>583.768034</ele>
        <time>2022-03-09T12:13:14.437Z</time>
      </trkpt>
      <trkpt lat="42.67144" lon="23.46482">
        <ele>583.985614</ele>
        <time>2022-03-09T12:13:17.413Z</time>
      </trkpt>
      <trkpt lat="42.67134" lon="23.46476">
        <ele>584.205595</ele>
        <time>2022-03-09T12:13:20.489Z</time>
      </trkpt>
      <trkpt lat="42.67123" lon="23.4647">
        <ele>584.436616</ele>
        <time>2022-03-09T12:13:23.432Z</time>
      </trkpt>
      <trkpt lat="42.67112" lon="23.46464">
        <ele>584.677186</ele>
        <time>2022-03-09T12:13:26.421Z</time>
      </trkpt>
      <trkpt lat="42.671" lon="23.46459">
        <ele>584.922428</ele>
        <time>2022-03-09T12:13:29.417Z</time>
      </trkpt>
      <trkpt lat="42.67089" lon="23.46455">
        <ele>585.154725</ele>
        <time>2022-03-09T12:13:32.444Z</time>
      </trkpt>
      <trkpt lat="42.67077" lon="23.4645">
        <ele>585.403238</ele>
        <time>2022-03-09T12:13:35.422Z</time>
      </trkpt>
      <trkpt lat="42.67066" lon="23.46446">
        <ele>585.64268</ele>
        <time>2022-03-09T12:13:38.404Z</time>
      </trkpt>
      <trkpt lat="42.67054" lon="23.46444">
        <ele>585.86856</ele>
        <time>2022-03-09T12:13:41.428Z</time>
      </trkpt>
      <trkpt lat="42.67043" lon="23.46442">
        <ele>586.104126</ele>
        <time>2022-03-09T12:13:44.420Z</time>
      </trkpt>
      <trkpt lat="42.67031" lon="23.46438">
        <ele>586.336127</ele>
        <time>2022-03-09T12:13:47.426Z</time>
      </trkpt>
      <trkpt lat="42.6702" lon="23.46436">
        <ele>586.564649</ele>
        <time>2022-03-09T12:13:50.404Z</time>
      </trkpt>
      <trkpt lat="42.67009" lon="23.46433">
        <ele>586.789475</ele>
        <time>2022-03-09T12:13:53.447Z</time>
      </trkpt>
      <trkpt lat="42.66997" lon="23.4643">
        <ele>587.029366</ele>
        <time>2022-03-09T12:13:56.428Z</time>
      </trkpt>
      <trkpt lat="42.66986" lon="23.46427">
        <ele>587.264034</ele>
        <time>2022-03-09T12:13:59.408Z</time>
      </trkpt>
      <trkpt lat="42.66975" lon="23.46425">
        <ele>587.148947</ele>
        <time>2022-03-09T12:14:02.421Z</time>
      </trkpt>
      <trkpt lat="42.66963" lon="23.46422">
        <ele>587.017118</ele>
        <time>2022-03-09T12:14:05.401Z</time>
      </trkpt>
      <trkpt lat="42.66952" lon="23.4642">
        <ele>586.887838</ele>
        <time>2022-03-09T12:14:08.422Z</time>
      </trkpt>
      <trkpt lat="42.66941" lon="23.46418">
        <ele>586.755288</ele>
        <time>2022-03-09T12:14:11.430Z</time>
      </trkpt>
      <trkpt lat="42.66929" lon="23.46416">
        <ele>586.620933</ele>
        <time>2022-03-09T12:14:14.419Z</time>
      </trkpt>
      <trkpt lat="42.66917" lon="23.46414">
        <ele>586.484755</ele>
        <time>2022-03-09T12:14:17.415Z</time>
      </trkpt>
      <trkpt lat="42.66906" lon="23.46412">
        <ele>586.349804</ele>
        <time>2022-03-09T12:14:20.500Z</time>
      </trkpt>
      <trkpt lat="42.66895" lon="23.46409">
        <ele>586.222051</ele>
        <time>2022-03-09T12:14:23.420Z</time>
      </trkpt>
      <trkpt lat="42.66884" lon="23.46408">
        <ele>586.098452</ele>
        <time>2022-03-09T12:14:26.415Z</time>
      </trkpt>
      <trkpt lat="42.66873" lon="23.46405">
        <ele>585.972427</ele>
        <time>2022-03-09T12:14:29.396Z</time>
      </trkpt>
      <trkpt lat="42.66862" lon="23.46403">
        <ele>585.838072</ele>
        <time>2022-03-09T12:14:32.421Z</time>
      </trkpt>
      <trkpt lat="42.6685" lon="23.464">
        <ele>585.697562</ele>
        <time>2022-03-09T12:14:35.422Z</time>
      </trkpt>
      <trkpt lat="42.66838" lon="23.46396">
        <ele>585.564507</ele>
        <time>2022-03-09T12:14:38.422Z</time>
      </trkpt>
      <trkpt lat="42.66827" lon="23.46391">
        <ele>585.431506</ele>
        <time>2022-03-09T12:14:41.414Z</time>
      </trkpt>
      <trkpt lat="42.66817" lon="23.46385">
        <ele>585.299464</ele>
        <time>2022-03-09T12:14:44.428Z</time>
      </trkpt>
      <trkpt lat="42.66807" lon="23.46379">
        <ele>585.282536</ele>
        <time>2022-03-09T12:14:47.418Z</time>
      </trkpt>
      <trkpt lat="42.66798" lon="23.46372">
        <ele>585.597908</ele>
        <time>2022-03-09T12:14:50.424Z</time>
      </trkpt>
      <trkpt lat="42.66789" lon="23.46365">
        <ele>585.914789</ele>
        <time>2022-03-09T12:14:53.425Z</time>
      </trkpt>
      <trkpt lat="42.6678" lon="23.46358">
        <ele>586.231752</ele>
        <time>2022-03-09T12:14:56.426Z</time>
      </trkpt>
      <trkpt lat="42.66771" lon="23.4635">
        <ele>586.54736</ele>
        <time>2022-03-09T12:14:59.468Z</time>
      </trkpt>
      <trkpt lat="42.66762" lon="23.46342">
        <ele>586.86165</ele>
        <time>2022-03-09T12:15:02.420Z</time>
      </trkpt>
      <trkpt lat="42.66753" lon="23.46336">
        <ele>587.168466</ele>
        <time>2022-03-09T12:15:05.435Z</time>
      </trkpt>
      <trkpt lat="42.66744" lon="23.46329">
        <ele>587.475282</ele>
        <time>2022-03-09T12:15:08.401Z</time>
      </trkpt>
      <trkpt lat="42.66735" lon="23.46321">
        <ele>587.799572</ele>
        <time>2022-03-09T12:15:11.402Z</time>
      </trkpt>
      <trkpt lat="42.66726" lon="23.46313">
        <ele>588.120506</ele>
        <time>2022-03-09T12:15:14.397Z</time>
      </trkpt>
      <trkpt lat="42.66718" lon="23.46307">
        <ele>588.420546</ele>
        <time>2022-03-09T12:15:17.422Z</time>
      </trkpt>
      <trkpt lat="42.66709" lon="23.46299">
        <ele>588.742929</ele>
        <time>2022-03-09T12:15:20.451Z</time>
      </trkpt>
      <trkpt lat="42.667" lon="23.46292">
        <ele>589.057557</ele>
        <time>2022-03-09T12:15:23.445Z</time>
      </trkpt>
      <trkpt lat="42.6669" lon="23.46284">
        <ele>589.38853</ele>
        <time>2022-03-09T12:15:26.421Z</time>
      </trkpt>
      <trkpt lat="42.66681" lon="23.46276">
        <ele>589.720652</ele>
        <time>2022-03-09T12:15:29.421Z</time>
      </trkpt>
      <trkpt lat="42.66672" lon="23.46268">
        <ele>590.053744</ele>
        <time>2022-03-09T12:15:32.419Z</time>
      </trkpt>
      <trkpt lat="42.66662" lon="23.4626">
        <ele>590.390573</ele>
        <time>2022-03-09T12:15:35.410Z</time>
      </trkpt>
      <trkpt lat="42.66653" lon="23.46252">
        <ele>590.659887</ele>
        <time>2022-03-09T12:15:38.425Z</time>
      </trkpt>
      <trkpt lat="42.66642" lon="23.46244">
        <ele>590.758813</ele>
        <time>2022-03-09T12:15:41.429Z</time>
      </trkpt>
      <trkpt lat="42.66632" lon="23.46239">
        <ele>590.856597</ele>
        <time>2022-03-09T12:15:44.424Z</time>
      </trkpt>
      <trkpt lat="42.66622" lon="23.46233">
        <ele>590.951499</ele>
        <time>2022-03-09T12:15:47.413Z</time>
      </trkpt>
      <trkpt lat="42.66611" lon="23.46228">
        <ele>591.047119</ele>
        <time>2022-03-09T12:15:50.430Z</time>
      </trkpt>
      <trkpt lat="42.66601" lon="23.46224">
        <ele>591.143989</ele>
        <time>2022-03-09T12:15:53.422Z</time>
      </trkpt>
      <trkpt lat="42.6659" lon="23.4622">
        <ele>591.242638</ele>
        <time>2022-03-09T12:15:56.407Z</time>
      </trkpt>
      <trkpt lat="42.66579" lon="23.46215">
        <ele>591.337955</ele>
        <time>2022-03-09T12:15:59.393Z</time>
      </trkpt>
      <trkpt lat="42.6657" lon="23.46212">
        <ele>591.421613</ele>
        <time>2022-03-09T12:16:02.432Z</time>
      </trkpt>
      <trkpt lat="42.6656" lon="23.46208">
        <ele>591.511767</ele>
        <time>2022-03-09T12:16:05.400Z</time>
      </trkpt>
      <trkpt lat="42.66549" lon="23.46205">
        <ele>591.606264</ele>
        <time>2022-03-09T12:16:08.417Z</time>
      </trkpt>
      <trkpt lat="42.66538" lon="23.46201">
        <ele>591.707936</ele>
        <time>2022-03-09T12:16:11.416Z</time>
      </trkpt>
      <trkpt lat="42.66527" lon="23.46198">
        <ele>591.805228</ele>
        <time>2022-03-09T12:16:14.402Z</time>
      </trkpt>
      <trkpt lat="42.66515" lon="23.46195">
        <ele>591.907978</ele>
        <time>2022-03-09T12:16:17.410Z</time>
      </trkpt>
      <trkpt lat="42.66503" lon="23.46193">
        <ele>592.008512</ele>
        <time>2022-03-09T12:16:20.412Z</time>
      </trkpt>
      <trkpt lat="42.66492" lon="23.4619">
        <ele>592.108192</ele>
        <time>2022-03-09T12:16:23.420Z</time>
      </trkpt>
      <trkpt lat="42.66482" lon="23.46188">
        <ele>592.225417</ele>
        <time>2022-03-09T12:16:26.449Z</time>
      </trkpt>
      <trkpt lat="42.66472" lon="23.46184">
        <ele>592.479979</ele>
        <time>2022-03-09T12:16:29.413Z</time>
      </trkpt>
      <trkpt lat="42.66462" lon="23.46182">
        <ele>592.714786</ele>
        <time>2022-03-09T12:16:32.428Z</time>
      </trkpt>
      <trkpt lat="42.66453" lon="23.46178">
        <ele>592.946818</ele>
        <time>2022-03-09T12:16:35.479Z</time>
      </trkpt>
      <trkpt lat="42.66444" lon="23.46173">
        <ele>593.192925</ele>
        <time>2022-03-09T12:16:38.426Z</time>
      </trkpt>
      <trkpt lat="42.66437" lon="23.4616">
        <ele>593.488719</ele>
        <time>2022-03-09T12:16:41.421Z</time>
      </trkpt>
      <trkpt lat="42.66437" lon="23.46144">
        <ele>593.781021</ele>
        <time>2022-03-09T12:16:44.427Z</time>
      </trkpt>
      <trkpt lat="42.66442" lon="23.46132">
        <ele>594.029787</ele>
        <time>2022-03-09T12:16:47.408Z</time>
      </trkpt>
      <trkpt lat="42.66447" lon="23.46118">
        <ele>594.315174</ele>
        <time>2022-03-09T12:16:50.440Z</time>
      </trkpt>
      <trkpt lat="42.66453" lon="23.46104">
        <ele>594.626306</ele>
        <time>2022-03-09T12:16:53.413Z</time>
      </trkpt>
      <trkpt lat="42.6646" lon="23.46089">
        <ele>594.943143</ele>
        <time>2022-03-09T12:16:56.408Z</time>
      </trkpt>
      <trkpt lat="42.66467" lon="23.46076">
        <ele>595.228789</ele>
        <time>2022-03-09T12:16:59.432Z</time>
      </trkpt>
      <trkpt lat="42.66473" lon="23.46064">
        <ele>595.507239</ele>
        <time>2022-03-09T12:17:02.408Z</time>
      </trkpt>
      <trkpt lat="42.66479" lon="23.46051">
        <ele>595.777458</ele>
        <time>2022-03-09T12:17:05.444Z</time>
      </trkpt>
      <trkpt lat="42.66485" lon="23.46039">
        <ele>596.038106</ele>
        <time>2022-03-09T12:17:08.424Z</time>
      </trkpt>
      <trkpt lat="42.66488" lon="23.46024">
        <ele>596.325577</ele>
        <time>2022-03-09T12:17:11.422Z</time>
      </trkpt>
      <trkpt lat="42.66489" lon="23.46009">
        <ele>596.607762</ele>
        <time>2022-03-09T12:17:14.406Z</time>
      </trkpt>
      <trkpt lat="42.66489" lon="23.45994">
        <ele>597.031524</ele>
        <time>2022-03-09T12:17:17.405Z</time>
      </trkpt>
      <trkpt lat="42.66491" lon="23.45979">
        <ele>597.497086</ele>
        <time>2022-03-09T12:17:20.415Z</time>
      </trkpt>
      <trkpt lat="42.66493" lon="23.45964">
        <ele>597.974459</ele>
        <time>2022-03-09T12:17:23.425Z</time>
      </trkpt>
      <trkpt lat="42.66496" lon="23.4595">
        <ele>598.435152</ele>
        <time>2022-03-09T12:17:26.403Z</time>
      </trkpt>
      <trkpt lat="42.66498" lon="23.45934">
        <ele>598.929479</ele>
        <time>2022-03-09T12:17:30.407Z</time>
      </trkpt>
      <trkpt lat="42.66499" lon="23.45921">
        <ele>599.346879</ele>
        <time>2022-03-09T12:17:33.470Z</time>
      </trkpt>
      <trkpt lat="42.66499" lon="23.45906">
        <ele>599.792679</ele>
        <time>2022-03-09T12:17:37.422Z</time>
      </trkpt>
      <trkpt lat="42.66501" lon="23.45893">
        <ele>600.193068</ele>
        <time>2022-03-09T12:17:41.429Z</time>
      </trkpt>
      <trkpt lat="42.66504" lon="23.45881">
        <ele>600.607142</ele>
        <time>2022-03-09T12:17:45.422Z</time>
      </trkpt>
      <trkpt lat="42.66505" lon="23.45868">
        <ele>600.990059</ele>
        <time>2022-03-09T12:17:49.421Z</time>
      </trkpt>
      <trkpt lat="42.66508" lon="23.45857">
        <ele>601.372627</ele>
        <time>2022-03-09T12:17:53.422Z</time>
      </trkpt>
      <trkpt lat="42.66506" lon="23.45844">
        <ele>601.774694</ele>
        <time>2022-03-09T12:17:58.420Z</time>
      </trkpt>
      <trkpt lat="42.66505" lon="23.45832">
        <ele>602.156603</ele>
        <time>2022-03-09T12:18:03.404Z</time>
      </trkpt>
      <trkpt lat="42.66509" lon="23.45818">
        <ele>602.588077</ele>
        <time>2022-03-09T12:18:09.410Z</time>
      </trkpt>
      <trkpt lat="42.66505" lon="23.45805">
        <ele>603.04025</ele>
        <time>2022-03-09T12:18:16.420Z</time>
      </trkpt>
      <trkpt lat="42.66506" lon="23.4579">
        <ele>603.492397</ele>
        <time>2022-03-09T12:18:22.425Z</time>
      </trkpt>
      <trkpt lat="42.66508" lon="23.45777">
        <ele>603.903312</ele>
        <time>2022-03-09T12:18:27.404Z</time>
      </trkpt>
      <trkpt lat="42.66508" lon="23.45764">
        <ele>604.243337</ele>
        <time>2022-03-09T12:18:32.406Z</time>
      </trkpt>
      <trkpt lat="42.66508" lon="23.4575">
        <ele>604.332661</ele>
        <time>2022-03-09T12:18:37.425Z</time>
      </trkpt>
      <trkpt lat="42.66508" lon="23.45736">
        <ele>604.422631</ele>
        <time>2022-03-09T12:18:42.422Z</time>
      </trkpt>
      <trkpt lat="42.66509" lon="23.45722">
        <ele>604.512232</ele>
        <time>2022-03-09T12:18:47.440Z</time>
      </trkpt>
      <trkpt lat="42.66508" lon="23.45709">
        <ele>604.601122</ele>
        <time>2022-03-09T12:18:52.420Z</time>
      </trkpt>
      <trkpt lat="42.66508" lon="23.45696">
        <ele>604.680814</ele>
        <time>2022-03-09T12:18:56.401Z</time>
      </trkpt>
      <trkpt lat="42.66508" lon="23.45682">
        <ele>604.773377</ele>
        <time>2022-03-09T12:19:00.411Z</time>
      </trkpt>
      <trkpt lat="42.66507" lon="23.45666">
        <ele>604.876327</ele>
        <time>2022-03-09T12:19:04.461Z</time>
      </trkpt>
      <trkpt lat="42.66505" lon="23.4565">
        <ele>604.983656</ele>
        <time>2022-03-09T12:19:08.414Z</time>
      </trkpt>
      <trkpt lat="42.66504" lon="23.45634">
        <ele>605.088237</ele>
        <time>2022-03-09T12:19:11.403Z</time>
      </trkpt>
      <trkpt lat="42.66503" lon="23.45615">
        <ele>605.207239</ele>
        <time>2022-03-09T12:19:14.406Z</time>
      </trkpt>
      <trkpt lat="42.66502" lon="23.45603">
        <ele>605.290003</ele>
        <time>2022-03-09T12:19:16.540Z</time>
      </trkpt>
      <trkpt lat="42.665" lon="23.45589">
        <ele>605.380591</ele>
        <time>2022-03-09T12:19:18.413Z</time>
      </trkpt>
      <trkpt lat="42.66499" lon="23.45573">
        <ele>605.482673</ele>
        <time>2022-03-09T12:19:20.401Z</time>
      </trkpt>
      <trkpt lat="42.66497" lon="23.45557">
        <ele>605.591214</ele>
        <time>2022-03-09T12:19:22.418Z</time>
      </trkpt>
      <trkpt lat="42.66495" lon="23.4554">
        <ele>605.70103</ele>
        <time>2022-03-09T12:19:24.432Z</time>
      </trkpt>
      <trkpt lat="42.66493" lon="23.45521">
        <ele>605.729742</ele>
        <time>2022-03-09T12:19:26.408Z</time>
      </trkpt>
      <trkpt lat="42.6649" lon="23.45501">
        <ele>605.100892</ele>
        <time>2022-03-09T12:19:28.403Z</time>
      </trkpt>
      <trkpt lat="42.66488" lon="23.45481">
        <ele>604.456623</ele>
        <time>2022-03-09T12:19:30.449Z</time>
      </trkpt>
      <trkpt lat="42.66487" lon="23.45461">
        <ele>603.836302</ele>
        <time>2022-03-09T12:19:32.409Z</time>
      </trkpt>
      <trkpt lat="42.66485" lon="23.45443">
        <ele>603.251753</ele>
        <time>2022-03-09T12:19:34.417Z</time>
      </trkpt>
      <trkpt lat="42.66485" lon="23.45424">
        <ele>602.655515</ele>
        <time>2022-03-09T12:19:36.425Z</time>
      </trkpt>
      <trkpt lat="42.66485" lon="23.45405">
        <ele>602.078091</ele>
        <time>2022-03-09T12:19:38.447Z</time>
      </trkpt>
      <trkpt lat="42.66486" lon="23.45388">
        <ele>601.527269</ele>
        <time>2022-03-09T12:19:40.437Z</time>
      </trkpt>
      <trkpt lat="42.66487" lon="23.45373">
        <ele>601.062126</ele>
        <time>2022-03-09T12:19:42.436Z</time>
      </trkpt>
      <trkpt lat="42.66488" lon="23.4536">
        <ele>600.652748</ele>
        <time>2022-03-09T12:19:44.453Z</time>
      </trkpt>
      <trkpt lat="42.66489" lon="23.45348">
        <ele>600.254588</ele>
        <time>2022-03-09T12:19:46.419Z</time>
      </trkpt>
      <trkpt lat="42.66492" lon="23.45335">
        <ele>599.848076</ele>
        <time>2022-03-09T12:19:48.422Z</time>
      </trkpt>
      <trkpt lat="42.66493" lon="23.45319">
        <ele>599.339807</ele>
        <time>2022-03-09T12:19:51.432Z</time>
      </trkpt>
      <trkpt lat="42.66495" lon="23.45305">
        <ele>598.89381</ele>
        <time>2022-03-09T12:19:54.422Z</time>
      </trkpt>
      <trkpt lat="42.66498" lon="23.45293">
        <ele>598.498735</ele>
        <time>2022-03-09T12:19:57.409Z</time>
      </trkpt>
      <trkpt lat="42.66501" lon="23.45279">
        <ele>598.034016</ele>
        <time>2022-03-09T12:20:00.419Z</time>
      </trkpt>
      <trkpt lat="42.66506" lon="23.45268">
        <ele>597.558088</ele>
        <time>2022-03-09T12:20:02.416Z</time>
      </trkpt>
      <trkpt lat="42.66511" lon="23.45258">
        <ele>597.107413</ele>
        <time>2022-03-09T12:20:04.411Z</time>
      </trkpt>
      <trkpt lat="42.66517" lon="23.45246">
        <ele>596.603382</ele>
        <time>2022-03-09T12:20:06.449Z</time>
      </trkpt>
      <trkpt lat="42.66522" lon="23.45236">
        <ele>596.146017</ele>
        <time>2022-03-09T12:20:08.394Z</time>
      </trkpt>
      <trkpt lat="42.66528" lon="23.4522">
        <ele>595.499267</ele>
        <time>2022-03-09T12:20:11.413Z</time>
      </trkpt>
      <trkpt lat="42.66533" lon="23.45206">
        <ele>594.901746</ele>
        <time>2022-03-09T12:20:14.406Z</time>
      </trkpt>
      <trkpt lat="42.66537" lon="23.45193">
        <ele>594.383138</ele>
        <time>2022-03-09T12:20:17.449Z</time>
      </trkpt>
      <trkpt lat="42.66542" lon="23.45179">
        <ele>593.845735</ele>
        <time>2022-03-09T12:20:20.411Z</time>
      </trkpt>
      <trkpt lat="42.66546" lon="23.45164">
        <ele>593.256319</ele>
        <time>2022-03-09T12:20:23.409Z</time>
      </trkpt>
      <trkpt lat="42.66551" lon="23.45154">
        <ele>592.806889</ele>
        <time>2022-03-09T12:20:25.420Z</time>
      </trkpt>
      <trkpt lat="42.66557" lon="23.45139">
        <ele>592.185438</ele>
        <time>2022-03-09T12:20:28.447Z</time>
      </trkpt>
      <trkpt lat="42.66562" lon="23.45125">
        <ele>591.606077</ele>
        <time>2022-03-09T12:20:31.422Z</time>
      </trkpt>
      <trkpt lat="42.66569" lon="23.45109">
        <ele>590.93958</ele>
        <time>2022-03-09T12:20:34.424Z</time>
      </trkpt>
      <trkpt lat="42.66575" lon="23.451">
        <ele>590.48494</ele>
        <time>2022-03-09T12:20:36.422Z</time>
      </trkpt>
      <trkpt lat="42.66582" lon="23.45087">
        <ele>589.906514</ele>
        <time>2022-03-09T12:20:39.434Z</time>
      </trkpt>
      <trkpt lat="42.66589" lon="23.45073">
        <ele>589.296733</ele>
        <time>2022-03-09T12:20:42.419Z</time>
      </trkpt>
      <trkpt lat="42.66596" lon="23.45064">
        <ele>588.740926</ele>
        <time>2022-03-09T12:20:44.434Z</time>
      </trkpt>
      <trkpt lat="42.66606" lon="23.45052">
        <ele>587.95172</ele>
        <time>2022-03-09T12:20:47.401Z</time>
      </trkpt>
      <trkpt lat="42.66614" lon="23.45041">
        <ele>587.253676</ele>
        <time>2022-03-09T12:20:50.400Z</time>
      </trkpt>
      <trkpt lat="42.66621" lon="23.45027">
        <ele>586.516545</ele>
        <time>2022-03-09T12:20:53.402Z</time>
      </trkpt>
      <trkpt lat="42.66628" lon="23.45016">
        <ele>585.87513</ele>
        <time>2022-03-09T12:20:56.434Z</time>
      </trkpt>
      <trkpt lat="42.66636" lon="23.45004">
        <ele>585.192012</ele>
        <time>2022-03-09T12:20:59.420Z</time>
      </trkpt>
      <trkpt lat="42.66644" lon="23.44992">
        <ele>584.469293</ele>
        <time>2022-03-09T12:21:02.445Z</time>
      </trkpt>
      <trkpt lat="42.66652" lon="23.44979">
        <ele>583.720097</ele>
        <time>2022-03-09T12:21:05.415Z</time>
      </trkpt>
      <trkpt lat="42.66659" lon="23.44966">
        <ele>583.01159</ele>
        <time>2022-03-09T12:21:08.459Z</time>
      </trkpt>
      <trkpt lat="42.66667" lon="23.44953">
        <ele>582.252284</ele>
        <time>2022-03-09T12:21:11.436Z</time>
      </trkpt>
      <trkpt lat="42.66674" lon="23.4494">
        <ele>581.550432</ele>
        <time>2022-03-09T12:21:14.456Z</time>
      </trkpt>
      <trkpt lat="42.6668" lon="23.44928">
        <ele>580.909273</ele>
        <time>2022-03-09T12:21:17.418Z</time>
      </trkpt>
      <trkpt lat="42.66687" lon="23.44916">
        <ele>580.236025</ele>
        <time>2022-03-09T12:21:20.470Z</time>
      </trkpt>
      <trkpt lat="42.66694" lon="23.44907">
        <ele>579.661382</ele>
        <time>2022-03-09T12:21:22.413Z</time>
      </trkpt>
      <trkpt lat="42.66702" lon="23.44896">
        <ele>579.00937</ele>
        <time>2022-03-09T12:21:24.433Z</time>
      </trkpt>
      <trkpt lat="42.66709" lon="23.44887">
        <ele>578.461682</ele>
        <time>2022-03-09T12:21:26.426Z</time>
      </trkpt>
      <trkpt lat="42.66718" lon="23.44875">
        <ele>579.037198</ele>
        <time>2022-03-09T12:21:29.499Z</time>
      </trkpt>
      <trkpt lat="42.66725" lon="23.44862">
        <ele>579.583276</ele>
        <time>2022-03-09T12:21:32.407Z</time>
      </trkpt>
      <trkpt lat="42.66732" lon="23.44848">
        <ele>580.14359</ele>
        <time>2022-03-09T12:21:35.433Z</time>
      </trkpt>
      <trkpt lat="42.66739" lon="23.44834">
        <ele>580.730707</ele>
        <time>2022-03-09T12:21:38.418Z</time>
      </trkpt>
      <trkpt lat="42.66745" lon="23.44823">
        <ele>581.172848</ele>
        <time>2022-03-09T12:21:40.421Z</time>
      </trkpt>
      <trkpt lat="42.6675" lon="23.44813">
        <ele>581.595735</ele>
        <time>2022-03-09T12:21:42.446Z</time>
      </trkpt>
      <trkpt lat="42.66758" lon="23.448">
        <ele>582.179594</ele>
        <time>2022-03-09T12:21:45.480Z</time>
      </trkpt>
      <trkpt lat="42.66763" lon="23.4479">
        <ele>582.600077</ele>
        <time>2022-03-09T12:21:47.435Z</time>
      </trkpt>
      <trkpt lat="42.6677" lon="23.44779">
        <ele>583.091642</ele>
        <time>2022-03-09T12:21:49.421Z</time>
      </trkpt>
      <trkpt lat="42.66776" lon="23.44768">
        <ele>583.55031</ele>
        <time>2022-03-09T12:21:51.406Z</time>
      </trkpt>
      <trkpt lat="42.66782" lon="23.44757">
        <ele>584.019565</ele>
        <time>2022-03-09T12:21:53.417Z</time>
      </trkpt>
      <trkpt lat="42.66788" lon="23.44747">
        <ele>584.445185</ele>
        <time>2022-03-09T12:21:55.453Z</time>
      </trkpt>
      <trkpt lat="42.66794" lon="23.44733">
        <ele>584.984184</ele>
        <time>2022-03-09T12:21:58.415Z</time>
      </trkpt>
      <trkpt lat="42.66801" lon="23.4472">
        <ele>585.524553</ele>
        <time>2022-03-09T12:22:01.426Z</time>
      </trkpt>
      <trkpt lat="42.66807" lon="23.44708">
        <ele>586.029766</ele>
        <time>2022-03-09T12:22:04.409Z</time>
      </trkpt>
      <trkpt lat="42.66814" lon="23.44694">
        <ele>586.616333</ele>
        <time>2022-03-09T12:22:07.432Z</time>
      </trkpt>
      <trkpt lat="42.6682" lon="23.44684">
        <ele>586.605163</ele>
        <time>2022-03-09T12:22:09.410Z</time>
      </trkpt>
      <trkpt lat="42.66825" lon="23.44673">
        <ele>586.452082</ele>
        <time>2022-03-09T12:22:11.423Z</time>
      </trkpt>
      <trkpt lat="42.66831" lon="23.44662">
        <ele>586.291216</ele>
        <time>2022-03-09T12:22:13.420Z</time>
      </trkpt>
      <trkpt lat="42.66837" lon="23.44652">
        <ele>586.131294</ele>
        <time>2022-03-09T12:22:15.426Z</time>
      </trkpt>
      <trkpt lat="42.66842" lon="23.44642">
        <ele>585.980064</ele>
        <time>2022-03-09T12:22:17.437Z</time>
      </trkpt>
      <trkpt lat="42.66849" lon="23.44627">
        <ele>585.761538</ele>
        <time>2022-03-09T12:22:20.407Z</time>
      </trkpt>
      <trkpt lat="42.66856" lon="23.44613">
        <ele>585.56642</ele>
        <time>2022-03-09T12:22:23.416Z</time>
      </trkpt>
      <trkpt lat="42.66861" lon="23.446">
        <ele>585.379706</ele>
        <time>2022-03-09T12:22:26.423Z</time>
      </trkpt>
      <trkpt lat="42.66868" lon="23.44585">
        <ele>585.176476</ele>
        <time>2022-03-09T12:22:29.414Z</time>
      </trkpt>
      <trkpt lat="42.66874" lon="23.44572">
        <ele>584.983918</ele>
        <time>2022-03-09T12:22:32.418Z</time>
      </trkpt>
      <trkpt lat="42.66882" lon="23.44557">
        <ele>584.755842</ele>
        <time>2022-03-09T12:22:35.420Z</time>
      </trkpt>
      <trkpt lat="42.66889" lon="23.44546">
        <ele>584.58117</ele>
        <time>2022-03-09T12:22:37.420Z</time>
      </trkpt>
      <trkpt lat="42.66897" lon="23.44534">
        <ele>584.3943</ele>
        <time>2022-03-09T12:22:39.452Z</time>
      </trkpt>
      <trkpt lat="42.66903" lon="23.44523">
        <ele>584.224697</ele>
        <time>2022-03-09T12:22:41.412Z</time>
      </trkpt>
      <trkpt lat="42.66908" lon="23.44512">
        <ele>584.076393</ele>
        <time>2022-03-09T12:22:43.418Z</time>
      </trkpt>
      <trkpt lat="42.66914" lon="23.44498">
        <ele>583.869216</ele>
        <time>2022-03-09T12:22:46.415Z</time>
      </trkpt>
      <trkpt lat="42.66922" lon="23.44483">
        <ele>584.007952</ele>
        <time>2022-03-09T12:22:49.404Z</time>
      </trkpt>
      <trkpt lat="42.66928" lon="23.44473">
        <ele>584.390016</ele>
        <time>2022-03-09T12:22:51.435Z</time>
      </trkpt>
      <trkpt lat="42.66933" lon="23.44463">
        <ele>584.750754</ele>
        <time>2022-03-09T12:22:53.415Z</time>
      </trkpt>
      <trkpt lat="42.66939" lon="23.44453">
        <ele>585.116324</ele>
        <time>2022-03-09T12:22:55.410Z</time>
      </trkpt>
      <trkpt lat="42.66944" lon="23.44443">
        <ele>585.46787</ele>
        <time>2022-03-09T12:22:57.414Z</time>
      </trkpt>
      <trkpt lat="42.6695" lon="23.44433">
        <ele>585.838326</ele>
        <time>2022-03-09T12:22:59.414Z</time>
      </trkpt>
      <trkpt lat="42.66957" lon="23.44422">
        <ele>586.227304</ele>
        <time>2022-03-09T12:23:01.404Z</time>
      </trkpt>
      <trkpt lat="42.66963" lon="23.44412">
        <ele>586.606906</ele>
        <time>2022-03-09T12:23:03.409Z</time>
      </trkpt>
      <trkpt lat="42.66971" lon="23.44398">
        <ele>587.113429</ele>
        <time>2022-03-09T12:23:06.451Z</time>
      </trkpt>
      <trkpt lat="42.66976" lon="23.44388">
        <ele>587.467321</ele>
        <time>2022-03-09T12:23:08.401Z</time>
      </trkpt>
      <trkpt lat="42.66982" lon="23.44377">
        <ele>587.863214</ele>
        <time>2022-03-09T12:23:10.421Z</time>
      </trkpt>
      <trkpt lat="42.66988" lon="23.44366">
        <ele>588.242521</ele>
        <time>2022-03-09T12:23:12.409Z</time>
      </trkpt>
      <trkpt lat="42.66995" lon="23.44352">
        <ele>588.751485</ele>
        <time>2022-03-09T12:23:15.423Z</time>
      </trkpt>
      <trkpt lat="42.67003" lon="23.44337">
        <ele>589.274124</ele>
        <time>2022-03-09T12:23:18.410Z</time>
      </trkpt>
      <trkpt lat="42.67008" lon="23.44327">
        <ele>589.627923</ele>
        <time>2022-03-09T12:23:20.421Z</time>
      </trkpt>
      <trkpt lat="42.67016" lon="23.44313">
        <ele>590.139009</ele>
        <time>2022-03-09T12:23:23.424Z</time>
      </trkpt>
      <trkpt lat="42.67023" lon="23.44299">
        <ele>590.62299</ele>
        <time>2022-03-09T12:23:26.420Z</time>
      </trkpt>
      <trkpt lat="42.67031" lon="23.44284">
        <ele>590.370833</ele>
        <time>2022-03-09T12:23:29.421Z</time>
      </trkpt>
      <trkpt lat="42.67038" lon="23.4427">
        <ele>589.786373</ele>
        <time>2022-03-09T12:23:32.425Z</time>
      </trkpt>
      <trkpt lat="42.67046" lon="23.44256">
        <ele>589.225534</ele>
        <time>2022-03-09T12:23:35.420Z</time>
      </trkpt>
      <trkpt lat="42.67054" lon="23.44242">
        <ele>588.648954</ele>
        <time>2022-03-09T12:23:38.407Z</time>
      </trkpt>
      <trkpt lat="42.67061" lon="23.44229">
        <ele>588.106376</ele>
        <time>2022-03-09T12:23:41.427Z</time>
      </trkpt>
      <trkpt lat="42.67068" lon="23.44216">
        <ele>587.574806</ele>
        <time>2022-03-09T12:23:44.421Z</time>
      </trkpt>
      <trkpt lat="42.67075" lon="23.44201">
        <ele>587.021298</ele>
        <time>2022-03-09T12:23:47.412Z</time>
      </trkpt>
      <trkpt lat="42.67082" lon="23.44188">
        <ele>586.463291</ele>
        <time>2022-03-09T12:23:50.466Z</time>
      </trkpt>
      <trkpt lat="42.6709" lon="23.44173">
        <ele>585.881446</ele>
        <time>2022-03-09T12:23:53.432Z</time>
      </trkpt>
      <trkpt lat="42.67097" lon="23.44159">
        <ele>585.310179</ele>
        <time>2022-03-09T12:23:56.412Z</time>
      </trkpt>
      <trkpt lat="42.67104" lon="23.44146">
        <ele>584.778027</ele>
        <time>2022-03-09T12:23:59.427Z</time>
      </trkpt>
      <trkpt lat="42.67111" lon="23.44132">
        <ele>584.227707</ele>
        <time>2022-03-09T12:24:02.444Z</time>
      </trkpt>
      <trkpt lat="42.67118" lon="23.44119">
        <ele>583.70669</ele>
        <time>2022-03-09T12:24:05.406Z</time>
      </trkpt>
      <trkpt lat="42.67125" lon="23.44105">
        <ele>583.132818</ele>
        <time>2022-03-09T12:24:08.415Z</time>
      </trkpt>
      <trkpt lat="42.6713" lon="23.44095">
        <ele>582.779659</ele>
        <time>2022-03-09T12:24:10.424Z</time>
      </trkpt>
      <trkpt lat="42.67136" lon="23.44085">
        <ele>583.260923</ele>
        <time>2022-03-09T12:24:12.446Z</time>
      </trkpt>
      <trkpt lat="42.67142" lon="23.44074">
        <ele>583.754293</ele>
        <time>2022-03-09T12:24:14.417Z</time>
      </trkpt>
      <trkpt lat="42.67147" lon="23.44064">
        <ele>584.226793</ele>
        <time>2022-03-09T12:24:16.392Z</time>
      </trkpt>
      <trkpt lat="42.67153" lon="23.44053">
        <ele>584.711224</ele>
        <time>2022-03-09T12:24:18.426Z</time>
      </trkpt>
      <trkpt lat="42.67158" lon="23.44043">
        <ele>585.186431</ele>
        <time>2022-03-09T12:24:20.411Z</time>
      </trkpt>
      <trkpt lat="42.67164" lon="23.44029">
        <ele>585.79198</ele>
        <time>2022-03-09T12:24:23.456Z</time>
      </trkpt>
      <trkpt lat="42.67171" lon="23.44016">
        <ele>586.418749</ele>
        <time>2022-03-09T12:24:26.421Z</time>
      </trkpt>
      <trkpt lat="42.67177" lon="23.44005">
        <ele>586.918557</ele>
        <time>2022-03-09T12:24:30.432Z</time>
      </trkpt>
      <trkpt lat="42.67185" lon="23.43994">
        <ele>587.480855</ele>
        <time>2022-03-09T12:24:34.457Z</time>
      </trkpt>
      <trkpt lat="42.67189" lon="23.43983">
        <ele>587.953228</ele>
        <time>2022-03-09T12:24:37.413Z</time>
      </trkpt>
      <trkpt lat="42.67195" lon="23.43971">
        <ele>588.498593</ele>
        <time>2022-03-09T12:24:40.466Z</time>
      </trkpt>
      <trkpt lat="42.67201" lon="23.43962">
        <ele>588.966804</ele>
        <time>2022-03-09T12:24:42.416Z</time>
      </trkpt>
      <trkpt lat="42.67207" lon="23.43952">
        <ele>589.44531</ele>
        <time>2022-03-09T12:24:44.444Z</time>
      </trkpt>
      <trkpt lat="42.67214" lon="23.43938">
        <ele>590.072278</ele>
        <time>2022-03-09T12:24:47.430Z</time>
      </trkpt>
      <trkpt lat="42.67221" lon="23.43925">
        <ele>590.674607</ele>
        <time>2022-03-09T12:24:50.435Z</time>
      </trkpt>
      <trkpt lat="42.6723" lon="23.43912">
        <ele>591.325378</ele>
        <time>2022-03-09T12:24:53.422Z</time>
      </trkpt>
      <trkpt lat="42.67237" lon="23.43898">
        <ele>591.952885</ele>
        <time>2022-03-09T12:24:56.416Z</time>
      </trkpt>
      <trkpt lat="42.67242" lon="23.43885">
        <ele>592.062375</ele>
        <time>2022-03-09T12:24:59.416Z</time>
      </trkpt>
      <trkpt lat="42.67247" lon="23.43872">
        <ele>592.171394</ele>
        <time>2022-03-09T12:25:02.413Z</time>
      </trkpt>
      <trkpt lat="42.67255" lon="23.43858">
        <ele>592.302662</ele>
        <time>2022-03-09T12:25:05.404Z</time>
      </trkpt>
      <trkpt lat="42.67264" lon="23.43844">
        <ele>592.439251</ele>
        <time>2022-03-09T12:25:08.425Z</time>
      </trkpt>
      <trkpt lat="42.67272" lon="23.43831">
        <ele>592.561078</ele>
        <time>2022-03-09T12:25:11.407Z</time>
      </trkpt>
      <trkpt lat="42.67277" lon="23.43818">
        <ele>592.673974</ele>
        <time>2022-03-09T12:25:14.456Z</time>
      </trkpt>
      <trkpt lat="42.67283" lon="23.43804">
        <ele>592.791192</ele>
        <time>2022-03-09T12:25:17.451Z</time>
      </trkpt>
      <trkpt lat="42.67289" lon="23.43792">
        <ele>592.90399</ele>
        <time>2022-03-09T12:25:20.462Z</time>
      </trkpt>
      <trkpt lat="42.67296" lon="23.43779">
        <ele>593.023134</ele>
        <time>2022-03-09T12:25:23.409Z</time>
      </trkpt>
      <trkpt lat="42.67302" lon="23.43768">
        <ele>593.121333</ele>
        <time>2022-03-09T12:25:25.421Z</time>
      </trkpt>
      <trkpt lat="42.67308" lon="23.43757">
        <ele>593.220752</ele>
        <time>2022-03-09T12:25:27.429Z</time>
      </trkpt>
      <trkpt lat="42.67315" lon="23.43745">
        <ele>593.336919</ele>
        <time>2022-03-09T12:25:30.413Z</time>
      </trkpt>
      <trkpt lat="42.67321" lon="23.43732">
        <ele>593.451941</ele>
        <time>2022-03-09T12:25:33.426Z</time>
      </trkpt>
      <trkpt lat="42.67329" lon="23.43719">
        <ele>593.576489</ele>
        <time>2022-03-09T12:25:36.429Z</time>
      </trkpt>
      <trkpt lat="42.67334" lon="23.43709">
        <ele>593.668692</ele>
        <time>2022-03-09T12:25:38.412Z</time>
      </trkpt>
      <trkpt lat="42.67342" lon="23.43695">
        <ele>593.941422</ele>
        <time>2022-03-09T12:25:41.434Z</time>
      </trkpt>
      <trkpt lat="42.67348" lon="23.43681">
        <ele>594.419523</ele>
        <time>2022-03-09T12:25:44.424Z</time>
      </trkpt>
      <trkpt lat="42.67354" lon="23.43667">
        <ele>594.928923</ele>
        <time>2022-03-09T12:25:47.412Z</time>
      </trkpt>
      <trkpt lat="42.67361" lon="23.43653">
        <ele>595.431546</ele>
        <time>2022-03-09T12:25:50.409Z</time>
      </trkpt>
      <trkpt lat="42.67367" lon="23.43641">
        <ele>595.902372</ele>
        <time>2022-03-09T12:25:53.426Z</time>
      </trkpt>
      <trkpt lat="42.67375" lon="23.43627">
        <ele>596.43196</ele>
        <time>2022-03-09T12:25:56.421Z</time>
      </trkpt>
      <trkpt lat="42.67381" lon="23.43618">
        <ele>596.837997</ele>
        <time>2022-03-09T12:25:58.412Z</time>
      </trkpt>
      <trkpt lat="42.67387" lon="23.43608">
        <ele>597.219628</ele>
        <time>2022-03-09T12:26:00.422Z</time>
      </trkpt>
      <trkpt lat="42.67394" lon="23.43596">
        <ele>597.67949</ele>
        <time>2022-03-09T12:26:03.432Z</time>
      </trkpt>
      <trkpt lat="42.67398" lon="23.43583">
        <ele>598.132148</ele>
        <time>2022-03-09T12:26:06.422Z</time>
      </trkpt>
      <trkpt lat="42.67405" lon="23.4357">
        <ele>598.621702</ele>
        <time>2022-03-09T12:26:09.456Z</time>
      </trkpt>
      <trkpt lat="42.67412" lon="23.43555">
        <ele>599.177953</ele>
        <time>2022-03-09T12:26:12.415Z</time>
      </trkpt>
      <trkpt lat="42.67421" lon="23.4354">
        <ele>599.766924</ele>
        <time>2022-03-09T12:26:15.431Z</time>
      </trkpt>
      <trkpt lat="42.67427" lon="23.43529">
        <ele>600.174867</ele>
        <time>2022-03-09T12:26:17.413Z</time>
      </trkpt>
      <trkpt lat="42.67433" lon="23.4352">
        <ele>600.564372</ele>
        <time>2022-03-09T12:26:19.415Z</time>
      </trkpt>
      <trkpt lat="42.67442" lon="23.43508">
        <ele>601.096993</ele>
        <time>2022-03-09T12:26:22.436Z</time>
      </trkpt>
      <trkpt lat="42.67451" lon="23.43496">
        <ele>601.46682</ele>
        <time>2022-03-09T12:26:25.428Z</time>
      </trkpt>
      <trkpt lat="42.67458" lon="23.43487">
        <ele>601.653545</ele>
        <time>2022-03-09T12:26:27.453Z</time>
      </trkpt>
      <trkpt lat="42.67466" lon="23.43476">
        <ele>601.890717</ele>
        <time>2022-03-09T12:26:30.408Z</time>
      </trkpt>
      <trkpt lat="42.67475" lon="23.43464">
        <ele>602.139717</ele>
        <time>2022-03-09T12:26:33.401Z</time>
      </trkpt>
      <trkpt lat="42.67483" lon="23.43455">
        <ele>602.355822</ele>
        <time>2022-03-09T12:26:36.425Z</time>
      </trkpt>
      <trkpt lat="42.67491" lon="23.43447">
        <ele>602.54329</ele>
        <time>2022-03-09T12:26:39.424Z</time>
      </trkpt>
      <trkpt lat="42.67498" lon="23.43436">
        <ele>602.762788</ele>
        <time>2022-03-09T12:26:43.424Z</time>
      </trkpt>
      <trkpt lat="42.67505" lon="23.43426">
        <ele>602.971025</ele>
        <time>2022-03-09T12:26:46.429Z</time>
      </trkpt>
      <trkpt lat="42.67513" lon="23.43417">
        <ele>603.17787</ele>
        <time>2022-03-09T12:26:49.411Z</time>
      </trkpt>
      <trkpt lat="42.67522" lon="23.43405">
        <ele>603.427886</ele>
        <time>2022-03-09T12:26:53.422Z</time>
      </trkpt>
      <trkpt lat="42.67531" lon="23.43395">
        <ele>603.659927</ele>
        <time>2022-03-09T12:26:56.485Z</time>
      </trkpt>
      <trkpt lat="42.67538" lon="23.43385">
        <ele>603.865152</ele>
        <time>2022-03-09T12:26:59.393Z</time>
      </trkpt>
      <trkpt lat="42.67546" lon="23.43374">
        <ele>604.08822</ele>
        <time>2022-03-09T12:27:02.416Z</time>
      </trkpt>
      <trkpt lat="42.67554" lon="23.43364">
        <ele>604.317795</ele>
        <time>2022-03-09T12:27:05.420Z</time>
      </trkpt>
      <trkpt lat="42.67562" lon="23.43353">
        <ele>604.540939</ele>
        <time>2022-03-09T12:27:08.413Z</time>
      </trkpt>
      <trkpt lat="42.67572" lon="23.43342">
        <ele>604.798093</ele>
        <time>2022-03-09T12:27:11.413Z</time>
      </trkpt>
      <trkpt lat="42.67581" lon="23.43333">
        <ele>604.660781</ele>
        <time>2022-03-09T12:27:14.401Z</time>
      </trkpt>
      <trkpt lat="42.67589" lon="23.4332">
        <ele>603.976902</ele>
        <time>2022-03-09T12:27:17.422Z</time>
      </trkpt>
      <trkpt lat="42.67594" lon="23.43306">
        <ele>603.402065</ele>
        <time>2022-03-09T12:27:20.456Z</time>
      </trkpt>
      <trkpt lat="42.67593" lon="23.43293">
        <ele>602.86727</ele>
        <time>2022-03-09T12:27:23.420Z</time>
      </trkpt>
      <trkpt lat="42.67587" lon="23.43283">
        <ele>602.358495</ele>
        <time>2022-03-09T12:27:26.418Z</time>
      </trkpt>
      <trkpt lat="42.67578" lon="23.43274">
        <ele>601.737563</ele>
        <time>2022-03-09T12:27:30.472Z</time>
      </trkpt>
      <trkpt lat="42.67571" lon="23.43264">
        <ele>601.17623</ele>
        <time>2022-03-09T12:27:33.427Z</time>
      </trkpt>
      <trkpt lat="42.67562" lon="23.43254">
        <ele>600.551876</ele>
        <time>2022-03-09T12:27:36.427Z</time>
      </trkpt>
      <trkpt lat="42.67552" lon="23.43246">
        <ele>599.928671</ele>
        <time>2022-03-09T12:27:39.429Z</time>
      </trkpt>
      <trkpt lat="42.67543" lon="23.43236">
        <ele>599.302442</ele>
        <time>2022-03-09T12:27:42.426Z</time>
      </trkpt>
      <trkpt lat="42.67534" lon="23.43227">
        <ele>598.716582</ele>
        <time>2022-03-09T12:27:45.459Z</time>
      </trkpt>
      <trkpt lat="42.67527" lon="23.43217">
        <ele>598.132107</ele>
        <time>2022-03-09T12:27:48.438Z</time>
      </trkpt>
      <trkpt lat="42.67518" lon="23.43205">
        <ele>597.487809</ele>
        <time>2022-03-09T12:27:51.423Z</time>
      </trkpt>
      <trkpt lat="42.67511" lon="23.43194">
        <ele>596.869996</ele>
        <time>2022-03-09T12:27:54.414Z</time>
      </trkpt>
      <trkpt lat="42.675" lon="23.43182">
        <ele>596.118719</ele>
        <time>2022-03-09T12:27:57.412Z</time>
      </trkpt>
      <trkpt lat="42.67492" lon="23.43173">
        <ele>595.570891</ele>
        <time>2022-03-09T12:27:59.424Z</time>
      </trkpt>
      <trkpt lat="42.67484" lon="23.43164">
        <ele>595.105391</ele>
        <time>2022-03-09T12:28:01.420Z</time>
      </trkpt>
      <trkpt lat="42.67476" lon="23.43156">
        <ele>594.86529</ele>
        <time>2022-03-09T12:28:03.418Z</time>
      </trkpt>
      <trkpt lat="42.67468" lon="23.43147">
        <ele>594.632344</ele>
        <time>2022-03-09T12:28:05.461Z</time>
      </trkpt>
      <trkpt lat="42.67461" lon="23.43139">
        <ele>594.408972</ele>
        <time>2022-03-09T12:28:07.455Z</time>
      </trkpt>
      <trkpt lat="42.67454" lon="23.4313">
        <ele>594.178545</ele>
        <time>2022-03-09T12:28:09.412Z</time>
      </trkpt>
      <trkpt lat="42.67447" lon="23.43122">
        <ele>593.968568</ele>
        <time>2022-03-09T12:28:11.431Z</time>
      </trkpt>
      <trkpt lat="42.67438" lon="23.4311">
        <ele>593.663465</ele>
        <time>2022-03-09T12:28:14.424Z</time>
      </trkpt>
      <trkpt lat="42.67427" lon="23.43098">
        <ele>593.348239</ele>
        <time>2022-03-09T12:28:17.427Z</time>
      </trkpt>
      <trkpt lat="42.67417" lon="23.43086">
        <ele>593.037336</ele>
        <time>2022-03-09T12:28:20.412Z</time>
      </trkpt>
      <trkpt lat="42.6741" lon="23.43079">
        <ele>592.826167</ele>
        <time>2022-03-09T12:28:22.442Z</time>
      </trkpt>
      <trkpt lat="42.67403" lon="23.43072">
        <ele>592.612503</ele>
        <time>2022-03-09T12:28:24.423Z</time>
      </trkpt>
      <trkpt lat="42.67393" lon="23.43062">
        <ele>592.332426</ele>
        <time>2022-03-09T12:28:27.413Z</time>
      </trkpt>
      <trkpt lat="42.67384" lon="23.43052">
        <ele>592.055264</ele>
        <time>2022-03-09T12:28:30.503Z</time>
      </trkpt>
      <trkpt lat="42.67375" lon="23.43042">
        <ele>591.778515</ele>
        <time>2022-03-09T12:28:33.403Z</time>
      </trkpt>
      <trkpt lat="42.67366" lon="23.4303">
        <ele>591.492336</ele>
        <time>2022-03-09T12:28:36.419Z</time>
      </trkpt>
      <trkpt lat="42.67359" lon="23.43023">
        <ele>591.27673</ele>
        <time>2022-03-09T12:28:38.404Z</time>
      </trkpt>
      <trkpt lat="42.67349" lon="23.43012">
        <ele>590.97203</ele>
        <time>2022-03-09T12:28:41.420Z</time>
      </trkpt>
      <trkpt lat="42.67339" lon="23.43">
        <ele>590.823086</ele>
        <time>2022-03-09T12:28:44.429Z</time>
      </trkpt>
      <trkpt lat="42.6733" lon="23.42988">
        <ele>590.68653</ele>
        <time>2022-03-09T12:28:47.527Z</time>
      </trkpt>
      <trkpt lat="42.67321" lon="23.42976">
        <ele>590.553816</ele>
        <time>2022-03-09T12:28:50.424Z</time>
      </trkpt>
      <trkpt lat="42.67312" lon="23.42965">
        <ele>590.425148</ele>
        <time>2022-03-09T12:28:53.411Z</time>
      </trkpt>
      <trkpt lat="42.67302" lon="23.42954">
        <ele>590.289844</ele>
        <time>2022-03-09T12:28:56.436Z</time>
      </trkpt>
      <trkpt lat="42.67293" lon="23.42943">
        <ele>590.161697</ele>
        <time>2022-03-09T12:28:59.433Z</time>
      </trkpt>
      <trkpt lat="42.67284" lon="23.42933">
        <ele>590.03861</ele>
        <time>2022-03-09T12:29:02.441Z</time>
      </trkpt>
      <trkpt lat="42.67275" lon="23.42922">
        <ele>589.907255</ele>
        <time>2022-03-09T12:29:05.488Z</time>
      </trkpt>
      <trkpt lat="42.67265" lon="23.42912">
        <ele>589.778895</ele>
        <time>2022-03-09T12:29:08.420Z</time>
      </trkpt>
      <trkpt lat="42.67256" lon="23.42902">
        <ele>589.654818</ele>
        <time>2022-03-09T12:29:11.427Z</time>
      </trkpt>
      <trkpt lat="42.67247" lon="23.42891">
        <ele>589.530243</ele>
        <time>2022-03-09T12:29:14.451Z</time>
      </trkpt>
      <trkpt lat="42.67238" lon="23.42882">
        <ele>589.404938</ele>
        <time>2022-03-09T12:29:17.433Z</time>
      </trkpt>
      <trkpt lat="42.67228" lon="23.42872">
        <ele>589.272486</ele>
        <time>2022-03-09T12:29:20.415Z</time>
      </trkpt>
      <trkpt lat="42.67218" lon="23.42862">
        <ele>589.1451</ele>
        <time>2022-03-09T12:29:23.425Z</time>
      </trkpt>
      <trkpt lat="42.6721" lon="23.42853">
        <ele>589.037277</ele>
        <time>2022-03-09T12:29:26.425Z</time>
      </trkpt>
      <trkpt lat="42.67202" lon="23.42843">
        <ele>588.971881</ele>
        <time>2022-03-09T12:29:29.447Z</time>
      </trkpt>
      <trkpt lat="42.67194" lon="23.42834">
        <ele>588.908318</ele>
        <time>2022-03-09T12:29:32.425Z</time>
      </trkpt>
      <trkpt lat="42.67186" lon="23.42825">
        <ele>588.845238</ele>
        <time>2022-03-09T12:29:35.435Z</time>
      </trkpt>
      <trkpt lat="42.67177" lon="23.42817">
        <ele>588.778264</ele>
        <time>2022-03-09T12:29:38.412Z</time>
      </trkpt>
      <trkpt lat="42.67168" lon="23.42808">
        <ele>588.706955</ele>
        <time>2022-03-09T12:29:41.419Z</time>
      </trkpt>
      <trkpt lat="42.67158" lon="23.42799">
        <ele>588.631329</ele>
        <time>2022-03-09T12:29:44.407Z</time>
      </trkpt>
      <trkpt lat="42.67148" lon="23.4279">
        <ele>588.561537</ele>
        <time>2022-03-09T12:29:47.415Z</time>
      </trkpt>
      <trkpt lat="42.67139" lon="23.42781">
        <ele>588.49148</ele>
        <time>2022-03-09T12:29:50.415Z</time>
      </trkpt>
      <trkpt lat="42.6713" lon="23.42771">
        <ele>588.421596</ele>
        <time>2022-03-09T12:29:53.422Z</time>
      </trkpt>
      <trkpt lat="42.67121" lon="23.42762">
        <ele>588.351358</ele>
        <time>2022-03-09T12:29:56.413Z</time>
      </trkpt>
      <trkpt lat="42.67113" lon="23.42752">
        <ele>588.285605</ele>
        <time>2022-03-09T12:29:59.401Z</time>
      </trkpt>
      <trkpt lat="42.67104" lon="23.42743">
        <ele>588.214019</ele>
        <time>2022-03-09T12:30:02.424Z</time>
      </trkpt>
      <trkpt lat="42.67094" lon="23.42734">
        <ele>588.142433</ele>
        <time>2022-03-09T12:30:05.406Z</time>
      </trkpt>
      <trkpt lat="42.67085" lon="23.42724">
        <ele>588.06858</ele>
        <time>2022-03-09T12:30:08.422Z</time>
      </trkpt>
      <trkpt lat="42.67074" lon="23.42715">
        <ele>587.993455</ele>
        <time>2022-03-09T12:30:11.410Z</time>
      </trkpt>
      <trkpt lat="42.67065" lon="23.42706">
        <ele>587.947366</ele>
        <time>2022-03-09T12:30:14.461Z</time>
      </trkpt>
      <trkpt lat="42.67057" lon="23.42698">
        <ele>588.036381</ele>
        <time>2022-03-09T12:30:17.427Z</time>
      </trkpt>
      <trkpt lat="42.67049" lon="23.42688">
        <ele>588.129606</ele>
        <time>2022-03-09T12:30:20.425Z</time>
      </trkpt>
      <trkpt lat="42.67039" lon="23.42679">
        <ele>588.229048</ele>
        <time>2022-03-09T12:30:23.449Z</time>
      </trkpt>
      <trkpt lat="42.6703" lon="23.42669">
        <ele>588.330521</ele>
        <time>2022-03-09T12:30:26.391Z</time>
      </trkpt>
      <trkpt lat="42.6702" lon="23.42659">
        <ele>588.432309</ele>
        <time>2022-03-09T12:30:29.410Z</time>
      </trkpt>
      <trkpt lat="42.67012" lon="23.4265">
        <ele>588.522012</ele>
        <time>2022-03-09T12:30:32.409Z</time>
      </trkpt>
      <trkpt lat="42.67003" lon="23.4264">
        <ele>588.616678</ele>
        <time>2022-03-09T12:30:35.420Z</time>
      </trkpt>
      <trkpt lat="42.66994" lon="23.42631">
        <ele>588.716684</ele>
        <time>2022-03-09T12:30:38.433Z</time>
      </trkpt>
      <trkpt lat="42.66982" lon="23.42623">
        <ele>588.828555</ele>
        <time>2022-03-09T12:30:41.451Z</time>
      </trkpt>
      <trkpt lat="42.66973" lon="23.42614">
        <ele>588.925029</ele>
        <time>2022-03-09T12:30:44.423Z</time>
      </trkpt>
      <trkpt lat="42.66965" lon="23.42605">
        <ele>589.014326</ele>
        <time>2022-03-09T12:30:47.429Z</time>
      </trkpt>
      <trkpt lat="42.66956" lon="23.42596">
        <ele>589.104215</ele>
        <time>2022-03-09T12:30:50.426Z</time>
      </trkpt>
      <trkpt lat="42.66946" lon="23.42588">
        <ele>589.200402</ele>
        <time>2022-03-09T12:30:53.402Z</time>
      </trkpt>
      <trkpt lat="42.66939" lon="23.4258">
        <ele>589.285995</ele>
        <time>2022-03-09T12:30:56.423Z</time>
      </trkpt>
      <trkpt lat="42.6693" lon="23.42571">
        <ele>589.373855</ele>
        <time>2022-03-09T12:30:59.435Z</time>
      </trkpt>
      <trkpt lat="42.66922" lon="23.42562">
        <ele>589.452613</ele>
        <time>2022-03-09T12:31:02.412Z</time>
      </trkpt>
      <trkpt lat="42.66913" lon="23.42554">
        <ele>589.278069</ele>
        <time>2022-03-09T12:31:05.412Z</time>
      </trkpt>
      <trkpt lat="42.66904" lon="23.42546">
        <ele>589.086789</ele>
        <time>2022-03-09T12:31:08.427Z</time>
      </trkpt>
      <trkpt lat="42.66895" lon="23.42536">
        <ele>588.897898</ele>
        <time>2022-03-09T12:31:11.447Z</time>
      </trkpt>
      <trkpt lat="42.66887" lon="23.42527">
        <ele>588.71557</ele>
        <time>2022-03-09T12:31:14.463Z</time>
      </trkpt>
      <trkpt lat="42.66879" lon="23.42518">
        <ele>588.541881</ele>
        <time>2022-03-09T12:31:17.409Z</time>
      </trkpt>
      <trkpt lat="42.6687" lon="23.42509">
        <ele>588.355848</ele>
        <time>2022-03-09T12:31:20.418Z</time>
      </trkpt>
      <trkpt lat="42.66861" lon="23.425">
        <ele>588.171463</ele>
        <time>2022-03-09T12:31:23.425Z</time>
      </trkpt>
      <trkpt lat="42.66852" lon="23.42492">
        <ele>587.990688</ele>
        <time>2022-03-09T12:31:26.446Z</time>
      </trkpt>
      <trkpt lat="42.66842" lon="23.42484">
        <ele>587.793571</ele>
        <time>2022-03-09T12:31:29.444Z</time>
      </trkpt>
      <trkpt lat="42.66835" lon="23.42475">
        <ele>587.623904</ele>
        <time>2022-03-09T12:31:32.421Z</time>
      </trkpt>
      <trkpt lat="42.66827" lon="23.42465">
        <ele>587.442565</ele>
        <time>2022-03-09T12:31:35.425Z</time>
      </trkpt>
      <trkpt lat="42.66818" lon="23.42455">
        <ele>587.249777</ele>
        <time>2022-03-09T12:31:38.415Z</time>
      </trkpt>
      <trkpt lat="42.66809" lon="23.42446">
        <ele>587.062005</ele>
        <time>2022-03-09T12:31:41.483Z</time>
      </trkpt>
      <trkpt lat="42.668" lon="23.42438">
        <ele>586.874817</ele>
        <time>2022-03-09T12:31:44.430Z</time>
      </trkpt>
      <trkpt lat="42.66791" lon="23.4243">
        <ele>586.687044</ele>
        <time>2022-03-09T12:31:47.425Z</time>
      </trkpt>
      <trkpt lat="42.66782" lon="23.4242">
        <ele>586.492953</ele>
        <time>2022-03-09T12:31:50.416Z</time>
      </trkpt>
      <trkpt lat="42.66773" lon="23.4241">
        <ele>586.579022</ele>
        <time>2022-03-09T12:31:53.432Z</time>
      </trkpt>
      <trkpt lat="42.66763" lon="23.42401">
        <ele>586.829326</ele>
        <time>2022-03-09T12:31:56.413Z</time>
      </trkpt>
      <trkpt lat="42.66753" lon="23.42394">
        <ele>587.079983</ele>
        <time>2022-03-09T12:31:59.409Z</time>
      </trkpt>
      <trkpt lat="42.66743" lon="23.42385">
        <ele>587.32144</ele>
        <time>2022-03-09T12:32:02.412Z</time>
      </trkpt>
      <trkpt lat="42.66735" lon="23.42377">
        <ele>587.544635</ele>
        <time>2022-03-09T12:32:05.423Z</time>
      </trkpt>
      <trkpt lat="42.66727" lon="23.42369">
        <ele>587.753606</ele>
        <time>2022-03-09T12:32:08.418Z</time>
      </trkpt>
      <trkpt lat="42.66718" lon="23.42361">
        <ele>587.995451</ele>
        <time>2022-03-09T12:32:11.414Z</time>
      </trkpt>
      <trkpt lat="42.66707" lon="23.42353">
        <ele>588.240108</ele>
        <time>2022-03-09T12:32:14.430Z</time>
      </trkpt>
      <trkpt lat="42.66698" lon="23.42346">
        <ele>588.474286</ele>
        <time>2022-03-09T12:32:17.407Z</time>
      </trkpt>
      <trkpt lat="42.66688" lon="23.42338">
        <ele>588.713742</ele>
        <time>2022-03-09T12:32:20.417Z</time>
      </trkpt>
      <trkpt lat="42.66677" lon="23.4233">
        <ele>588.984695</ele>
        <time>2022-03-09T12:32:23.435Z</time>
      </trkpt>
      <trkpt lat="42.66667" lon="23.42321">
        <ele>589.250339</ele>
        <time>2022-03-09T12:32:26.410Z</time>
      </trkpt>
      <trkpt lat="42.66657" lon="23.42313">
        <ele>589.486702</ele>
        <time>2022-03-09T12:32:29.446Z</time>
      </trkpt>
      <trkpt lat="42.66647" lon="23.42305">
        <ele>589.741767</ele>
        <time>2022-03-09T12:32:32.423Z</time>
      </trkpt>
      <trkpt lat="42.66636" lon="23.42296">
        <ele>590.013956</ele>
        <time>2022-03-09T12:32:35.422Z</time>
      </trkpt>
      <trkpt lat="42.66626" lon="23.42289">
        <ele>590.258994</ele>
        <time>2022-03-09T12:32:38.413Z</time>
      </trkpt>
      <trkpt lat="42.66614" lon="23.4228">
        <ele>591.275457</ele>
        <time>2022-03-09T12:32:41.442Z</time>
      </trkpt>
      <trkpt lat="42.66603" lon="23.42271">
        <ele>592.361275</ele>
        <time>2022-03-09T12:32:44.419Z</time>
      </trkpt>
      <trkpt lat="42.66591" lon="23.42262">
        <ele>593.400516</ele>
        <time>2022-03-09T12:32:47.404Z</time>
      </trkpt>
      <trkpt lat="42.66581" lon="23.42254">
        <ele>594.340527</ele>
        <time>2022-03-09T12:32:50.428Z</time>
      </trkpt>
      <trkpt lat="42.66571" lon="23.42246">
        <ele>595.268567</ele>
        <time>2022-03-09T12:32:53.417Z</time>
      </trkpt>
      <trkpt lat="42.66563" lon="23.42237">
        <ele>596.080188</ele>
        <time>2022-03-09T12:32:56.408Z</time>
      </trkpt>
      <trkpt lat="42.66555" lon="23.42228">
        <ele>596.917538</ele>
        <time>2022-03-09T12:32:59.421Z</time>
      </trkpt>
      <trkpt lat="42.66548" lon="23.42218">
        <ele>597.715214</ele>
        <time>2022-03-09T12:33:02.424Z</time>
      </trkpt>
      <trkpt lat="42.66542" lon="23.42207">
        <ele>598.524271</ele>
        <time>2022-03-09T12:33:05.433Z</time>
      </trkpt>
      <trkpt lat="42.66537" lon="23.42195">
        <ele>599.315473</ele>
        <time>2022-03-09T12:33:08.462Z</time>
      </trkpt>
      <trkpt lat="42.66532" lon="23.42183">
        <ele>600.121146</ele>
        <time>2022-03-09T12:33:11.431Z</time>
      </trkpt>
      <trkpt lat="42.66529" lon="23.42169">
        <ele>600.956839</ele>
        <time>2022-03-09T12:33:14.452Z</time>
      </trkpt>
      <trkpt lat="42.66526" lon="23.42153">
        <ele>601.906139</ele>
        <time>2022-03-09T12:33:18.424Z</time>
      </trkpt>
      <trkpt lat="42.66525" lon="23.42141">
        <ele>602.651363</ele>
        <time>2022-03-09T12:33:21.429Z</time>
      </trkpt>
      <trkpt lat="42.66523" lon="23.42127">
        <ele>603.474143</ele>
        <time>2022-03-09T12:33:24.430Z</time>
      </trkpt>
      <trkpt lat="42.6652" lon="23.42112">
        <ele>604.394917</ele>
        <time>2022-03-09T12:33:27.426Z</time>
      </trkpt>
      <trkpt lat="42.66519" lon="23.42098">
        <ele>604.439327</ele>
        <time>2022-03-09T12:33:30.413Z</time>
      </trkpt>
      <trkpt lat="42.6652" lon="23.42084">
        <ele>604.301342</ele>
        <time>2022-03-09T12:33:33.413Z</time>
      </trkpt>
      <trkpt lat="42.66519" lon="23.4207">
        <ele>604.155579</ele>
        <time>2022-03-09T12:33:36.416Z</time>
      </trkpt>
      <trkpt lat="42.66517" lon="23.42055">
        <ele>604.002029</ele>
        <time>2022-03-09T12:33:39.417Z</time>
      </trkpt>
      <trkpt lat="42.66517" lon="23.4204">
        <ele>603.8467</ele>
        <time>2022-03-09T12:33:42.425Z</time>
      </trkpt>
      <trkpt lat="42.66517" lon="23.42022">
        <ele>603.664171</ele>
        <time>2022-03-09T12:33:45.429Z</time>
      </trkpt>
      <trkpt lat="42.66516" lon="23.42009">
        <ele>603.534048</ele>
        <time>2022-03-09T12:33:47.417Z</time>
      </trkpt>
      <trkpt lat="42.66516" lon="23.41994">
        <ele>603.385978</ele>
        <time>2022-03-09T12:33:49.441Z</time>
      </trkpt>
      <trkpt lat="42.66512" lon="23.41981">
        <ele>603.241312</ele>
        <time>2022-03-09T12:33:51.429Z</time>
      </trkpt>
      <trkpt lat="42.66503" lon="23.41972">
        <ele>603.090818</ele>
        <time>2022-03-09T12:33:53.411Z</time>
      </trkpt>
      <trkpt lat="42.66493" lon="23.41968">
        <ele>602.933168</ele>
        <time>2022-03-09T12:33:55.436Z</time>
      </trkpt>
      <trkpt lat="42.66482" lon="23.41969">
        <ele>602.782019</ele>
        <time>2022-03-09T12:33:57.475Z</time>
      </trkpt>
      <trkpt lat="42.66471" lon="23.41971">
        <ele>602.627368</ele>
        <time>2022-03-09T12:33:59.422Z</time>
      </trkpt>
      <trkpt lat="42.6646" lon="23.41974">
        <ele>602.479045</ele>
        <time>2022-03-09T12:34:01.416Z</time>
      </trkpt>
      <trkpt lat="42.6645" lon="23.41976">
        <ele>602.33724</ele>
        <time>2022-03-09T12:34:03.451Z</time>
      </trkpt>
      <trkpt lat="42.66439" lon="23.41978">
        <ele>602.193334</ele>
        <time>2022-03-09T12:34:05.423Z</time>
      </trkpt>
      <trkpt lat="42.6643" lon="23.41981">
        <ele>601.978946</ele>
        <time>2022-03-09T12:34:07.430Z</time>
      </trkpt>
      <trkpt lat="42.66417" lon="23.41984">
        <ele>600.949356</ele>
        <time>2022-03-09T12:34:10.466Z</time>
      </trkpt>
      <trkpt lat="42.66404" lon="23.41988">
        <ele>599.943695</ele>
        <time>2022-03-09T12:34:13.413Z</time>
      </trkpt>
      <trkpt lat="42.66394" lon="23.4199">
        <ele>599.175495</ele>
        <time>2022-03-09T12:34:15.421Z</time>
      </trkpt>
      <trkpt lat="42.66383" lon="23.41991">
        <ele>598.327766</ele>
        <time>2022-03-09T12:34:17.419Z</time>
      </trkpt>
      <trkpt lat="42.66372" lon="23.41992">
        <ele>597.442553</ele>
        <time>2022-03-09T12:34:19.432Z</time>
      </trkpt>
      <trkpt lat="42.6636" lon="23.41992">
        <ele>596.512247</ele>
        <time>2022-03-09T12:34:21.438Z</time>
      </trkpt>
      <trkpt lat="42.66348" lon="23.4199">
        <ele>595.570369</ele>
        <time>2022-03-09T12:34:23.461Z</time>
      </trkpt>
      <trkpt lat="42.66336" lon="23.41989">
        <ele>594.636211</ele>
        <time>2022-03-09T12:34:25.429Z</time>
      </trkpt>
      <trkpt lat="42.66325" lon="23.41986">
        <ele>593.793244</ele>
        <time>2022-03-09T12:34:27.472Z</time>
      </trkpt>
      <trkpt lat="42.66315" lon="23.41983">
        <ele>593.006067</ele>
        <time>2022-03-09T12:34:29.425Z</time>
      </trkpt>
      <trkpt lat="42.66304" lon="23.4198">
        <ele>592.112595</ele>
        <time>2022-03-09T12:34:32.432Z</time>
      </trkpt>
      <trkpt lat="42.66291" lon="23.41975">
        <ele>591.100733</ele>
        <time>2022-03-09T12:34:35.421Z</time>
      </trkpt>
      <trkpt lat="42.6628" lon="23.41972">
        <ele>590.170152</ele>
        <time>2022-03-09T12:34:38.438Z</time>
      </trkpt>
      <trkpt lat="42.66269" lon="23.41969">
        <ele>589.293088</ele>
        <time>2022-03-09T12:34:41.416Z</time>
      </trkpt>
      <trkpt lat="42.66259" lon="23.41966">
        <ele>588.562264</ele>
        <time>2022-03-09T12:34:44.454Z</time>
      </trkpt>
      <trkpt lat="42.66248" lon="23.41964">
        <ele>588.872313</ele>
        <time>2022-03-09T12:34:48.476Z</time>
      </trkpt>
      <trkpt lat="42.66238" lon="23.41962">
        <ele>590.152084</ele>
        <time>2022-03-09T12:34:51.416Z</time>
      </trkpt>
      <trkpt lat="42.66228" lon="23.41959">
        <ele>591.553725</ele>
        <time>2022-03-09T12:34:54.424Z</time>
      </trkpt>
      <trkpt lat="42.66217" lon="23.41954">
        <ele>592.982416</ele>
        <time>2022-03-09T12:34:57.429Z</time>
      </trkpt>
      <trkpt lat="42.66212" lon="23.41941">
        <ele>594.416319</ele>
        <time>2022-03-09T12:35:01.430Z</time>
      </trkpt>
      <trkpt lat="42.66212" lon="23.41928">
        <ele>595.716815</ele>
        <time>2022-03-09T12:35:04.404Z</time>
      </trkpt>
      <trkpt lat="42.66215" lon="23.41912">
        <ele>597.215735</ele>
        <time>2022-03-09T12:35:07.464Z</time>
      </trkpt>
      <trkpt lat="42.66219" lon="23.419">
        <ele>598.518546</ele>
        <time>2022-03-09T12:35:10.400Z</time>
      </trkpt>
      <trkpt lat="42.66222" lon="23.41884">
        <ele>600.082639</ele>
        <time>2022-03-09T12:35:14.402Z</time>
      </trkpt>
      <trkpt lat="42.66226" lon="23.41872">
        <ele>601.371699</ele>
        <time>2022-03-09T12:35:17.411Z</time>
      </trkpt>
      <trkpt lat="42.6623" lon="23.41859">
        <ele>602.670897</ele>
        <time>2022-03-09T12:35:20.424Z</time>
      </trkpt>
      <trkpt lat="42.66232" lon="23.41847">
        <ele>603.885672</ele>
        <time>2022-03-09T12:35:23.428Z</time>
      </trkpt>
      <trkpt lat="42.66235" lon="23.41835">
        <ele>605.131387</ele>
        <time>2022-03-09T12:35:26.433Z</time>
      </trkpt>
      <trkpt lat="42.66237" lon="23.41822">
        <ele>606.34478</ele>
        <time>2022-03-09T12:35:29.430Z</time>
      </trkpt>
      <trkpt lat="42.66237" lon="23.41807">
        <ele>607.749435</ele>
        <time>2022-03-09T12:35:32.434Z</time>
      </trkpt>
      <trkpt lat="42.66237" lon="23.41792">
        <ele>609.200374</ele>
        <time>2022-03-09T12:35:35.426Z</time>
      </trkpt>
      <trkpt lat="42.66237" lon="23.41776">
        <ele>610.70875</ele>
        <time>2022-03-09T12:35:38.437Z</time>
      </trkpt>
      <trkpt lat="42.66239" lon="23.41762">
        <ele>611.594045</ele>
        <time>2022-03-09T12:35:41.409Z</time>
      </trkpt>
      <trkpt lat="42.66241" lon="23.41748">
        <ele>611.832067</ele>
        <time>2022-03-09T12:35:44.430Z</time>
      </trkpt>
      <trkpt lat="42.66244" lon="23.41732">
        <ele>612.099442</ele>
        <time>2022-03-09T12:35:47.427Z</time>
      </trkpt>
      <trkpt lat="42.66247" lon="23.41719">
        <ele>612.344872</ele>
        <time>2022-03-09T12:35:50.413Z</time>
      </trkpt>
      <trkpt lat="42.6625" lon="23.41704">
        <ele>612.598731</ele>
        <time>2022-03-09T12:35:53.444Z</time>
      </trkpt>
      <trkpt lat="42.66252" lon="23.41691">
        <ele>612.835482</ele>
        <time>2022-03-09T12:35:56.428Z</time>
      </trkpt>
      <trkpt lat="42.66256" lon="23.41676">
        <ele>613.101615</ele>
        <time>2022-03-09T12:35:59.428Z</time>
      </trkpt>
      <trkpt lat="42.66259" lon="23.4166">
        <ele>613.372766</ele>
        <time>2022-03-09T12:36:02.422Z</time>
      </trkpt>
      <trkpt lat="42.66263" lon="23.41646">
        <ele>613.63801</ele>
        <time>2022-03-09T12:36:05.425Z</time>
      </trkpt>
      <trkpt lat="42.66266" lon="23.41632">
        <ele>613.872763</ele>
        <time>2022-03-09T12:36:08.425Z</time>
      </trkpt>
      <trkpt lat="42.66269" lon="23.4162">
        <ele>614.092058</ele>
        <time>2022-03-09T12:36:11.416Z</time>
      </trkpt>
      <trkpt lat="42.66274" lon="23.41606">
        <ele>614.350001</ele>
        <time>2022-03-09T12:36:15.447Z</time>
      </trkpt>
      <trkpt lat="42.66278" lon="23.41591">
        <ele>614.621844</ele>
        <time>2022-03-09T12:36:19.421Z</time>
      </trkpt>
      <trkpt lat="42.66281" lon="23.41577">
        <ele>614.860982</ele>
        <time>2022-03-09T12:36:22.421Z</time>
      </trkpt>
      <trkpt lat="42.6628" lon="23.41561">
        <ele>615.133907</ele>
        <time>2022-03-09T12:36:26.459Z</time>
      </trkpt>
      <trkpt lat="42.66282" lon="23.41547">
        <ele>615.374028</ele>
        <time>2022-03-09T12:36:29.407Z</time>
      </trkpt>
      <trkpt lat="42.66286" lon="23.41532">
        <ele>615.550776</ele>
        <time>2022-03-09T12:36:32.526Z</time>
      </trkpt>
      <trkpt lat="42.66291" lon="23.41517">
        <ele>614.951751</ele>
        <time>2022-03-09T12:36:35.429Z</time>
      </trkpt>
      <trkpt lat="42.66295" lon="23.41502">
        <ele>614.380397</ele>
        <time>2022-03-09T12:36:38.424Z</time>
      </trkpt>
      <trkpt lat="42.66299" lon="23.41488">
        <ele>613.820887</ele>
        <time>2022-03-09T12:36:41.426Z</time>
      </trkpt>
      <trkpt lat="42.66303" lon="23.41474">
        <ele>613.27799</ele>
        <time>2022-03-09T12:36:44.425Z</time>
      </trkpt>
      <trkpt lat="42.66307" lon="23.41462">
        <ele>612.796012</ele>
        <time>2022-03-09T12:36:47.453Z</time>
      </trkpt>
      <trkpt lat="42.66311" lon="23.41447">
        <ele>612.243292</ele>
        <time>2022-03-09T12:36:51.413Z</time>
      </trkpt>
      <trkpt lat="42.66314" lon="23.41435">
        <ele>611.775352</ele>
        <time>2022-03-09T12:36:54.459Z</time>
      </trkpt>
      <trkpt lat="42.66318" lon="23.41422">
        <ele>611.287088</ele>
        <time>2022-03-09T12:36:57.439Z</time>
      </trkpt>
      <trkpt lat="42.6632" lon="23.41407">
        <ele>610.722174</ele>
        <time>2022-03-09T12:37:00.413Z</time>
      </trkpt>
      <trkpt lat="42.66325" lon="23.41394">
        <ele>610.201751</ele>
        <time>2022-03-09T12:37:03.429Z</time>
      </trkpt>
      <trkpt lat="42.6633" lon="23.4138">
        <ele>609.645463</ele>
        <time>2022-03-09T12:37:06.419Z</time>
      </trkpt>
      <trkpt lat="42.66334" lon="23.41366">
        <ele>609.082459</ele>
        <time>2022-03-09T12:37:09.428Z</time>
      </trkpt>
      <trkpt lat="42.66336" lon="23.41352">
        <ele>608.588783</ele>
        <time>2022-03-09T12:37:12.455Z</time>
      </trkpt>
      <trkpt lat="42.66339" lon="23.41339">
        <ele>608.092773</ele>
        <time>2022-03-09T12:37:15.427Z</time>
      </trkpt>
      <trkpt lat="42.66343" lon="23.41325">
        <ele>607.551321</ele>
        <time>2022-03-09T12:37:18.410Z</time>
      </trkpt>
      <trkpt lat="42.66347" lon="23.41312">
        <ele>607.037608</ele>
        <time>2022-03-09T12:37:21.430Z</time>
      </trkpt>
      <trkpt lat="42.66351" lon="23.41298">
        <ele>606.521537</ele>
        <time>2022-03-09T12:37:24.435Z</time>
      </trkpt>
      <trkpt lat="42.66356" lon="23.41283">
        <ele>606.008109</ele>
        <time>2022-03-09T12:37:27.465Z</time>
      </trkpt>
      <trkpt lat="42.6636" lon="23.41267">
        <ele>605.473709</ele>
        <time>2022-03-09T12:37:30.423Z</time>
      </trkpt>
      <trkpt lat="42.66361" lon="23.41251">
        <ele>604.984477</ele>
        <time>2022-03-09T12:37:33.449Z</time>
      </trkpt>
      <trkpt lat="42.66365" lon="23.41238">
        <ele>604.545919</ele>
        <time>2022-03-09T12:37:36.421Z</time>
      </trkpt>
      <trkpt lat="42.66372" lon="23.41224">
        <ele>604.003489</ele>
        <time>2022-03-09T12:37:39.421Z</time>
      </trkpt>
      <trkpt lat="42.66377" lon="23.41208">
        <ele>603.443741</ele>
        <time>2022-03-09T12:37:42.435Z</time>
      </trkpt>
      <trkpt lat="42.66381" lon="23.41191">
        <ele>602.890124</ele>
        <time>2022-03-09T12:37:45.413Z</time>
      </trkpt>
      <trkpt lat="42.66385" lon="23.41175">
        <ele>602.364225</ele>
        <time>2022-03-09T12:37:48.417Z</time>
      </trkpt>
      <trkpt lat="42.66389" lon="23.4116">
        <ele>601.862279</ele>
        <time>2022-03-09T12:37:51.429Z</time>
      </trkpt>
      <trkpt lat="42.66392" lon="23.41147">
        <ele>601.424677</ele>
        <time>2022-03-09T12:37:54.424Z</time>
      </trkpt>
      <trkpt lat="42.66396" lon="23.41133">
        <ele>600.965588</ele>
        <time>2022-03-09T12:37:57.438Z</time>
      </trkpt>
      <trkpt lat="42.66399" lon="23.41117">
        <ele>600.446193</ele>
        <time>2022-03-09T12:38:00.410Z</time>
      </trkpt>
      <trkpt lat="42.66404" lon="23.41103">
        <ele>599.933788</ele>
        <time>2022-03-09T12:38:03.441Z</time>
      </trkpt>
      <trkpt lat="42.6641" lon="23.41088">
        <ele>599.425352</ele>
        <time>2022-03-09T12:38:06.427Z</time>
      </trkpt>
      <trkpt lat="42.66414" lon="23.41073">
        <ele>599.050679</ele>
        <time>2022-03-09T12:38:09.422Z</time>
      </trkpt>
      <trkpt lat="42.66419" lon="23.41057">
        <ele>598.946917</ele>
        <time>2022-03-09T12:38:12.447Z</time>
      </trkpt>
      <trkpt lat="42.66424" lon="23.41042">
        <ele>598.840387</ele>
        <time>2022-03-09T12:38:15.419Z</time>
      </trkpt>
      <trkpt lat="42.66429" lon="23.41027">
        <ele>598.739292</ele>
        <time>2022-03-09T12:38:18.413Z</time>
      </trkpt>
      <trkpt lat="42.66433" lon="23.41012">
        <ele>598.64489</ele>
        <time>2022-03-09T12:38:21.425Z</time>
      </trkpt>
      <trkpt lat="42.66437" lon="23.40997">
        <ele>598.542272</ele>
        <time>2022-03-09T12:38:24.434Z</time>
      </trkpt>
      <trkpt lat="42.66443" lon="23.40981">
        <ele>598.435005</ele>
        <time>2022-03-09T12:38:27.439Z</time>
      </trkpt>
      <trkpt lat="42.66447" lon="23.40966">
        <ele>598.330921</ele>
        <time>2022-03-09T12:38:30.439Z</time>
      </trkpt>
      <trkpt lat="42.66453" lon="23.40951">
        <ele>598.231081</ele>
        <time>2022-03-09T12:38:33.424Z</time>
      </trkpt>
      <trkpt lat="42.66459" lon="23.40937">
        <ele>598.127572</ele>
        <time>2022-03-09T12:38:36.429Z</time>
      </trkpt>
      <trkpt lat="42.66464" lon="23.40922">
        <ele>598.02586</ele>
        <time>2022-03-09T12:38:39.419Z</time>
      </trkpt>
      <trkpt lat="42.66469" lon="23.40906">
        <ele>597.919154</ele>
        <time>2022-03-09T12:38:42.426Z</time>
      </trkpt>
      <trkpt lat="42.66473" lon="23.40895">
        <ele>597.840217</ele>
        <time>2022-03-09T12:38:44.442Z</time>
      </trkpt>
      <trkpt lat="42.66477" lon="23.40883">
        <ele>597.763319</ele>
        <time>2022-03-09T12:38:46.417Z</time>
      </trkpt>
      <trkpt lat="42.66481" lon="23.40872">
        <ele>597.687928</ele>
        <time>2022-03-09T12:38:48.417Z</time>
      </trkpt>
      <trkpt lat="42.66487" lon="23.40858">
        <ele>597.584533</ele>
        <time>2022-03-09T12:38:51.448Z</time>
      </trkpt>
      <trkpt lat="42.66493" lon="23.40842">
        <ele>597.50394</ele>
        <time>2022-03-09T12:38:54.420Z</time>
      </trkpt>
      <trkpt lat="42.665" lon="23.40827">
        <ele>597.426753</ele>
        <time>2022-03-09T12:38:57.433Z</time>
      </trkpt>
      <trkpt lat="42.66506" lon="23.40813">
        <ele>597.356083</ele>
        <time>2022-03-09T12:39:00.433Z</time>
      </trkpt>
      <trkpt lat="42.66514" lon="23.40799">
        <ele>597.280984</ele>
        <time>2022-03-09T12:39:03.431Z</time>
      </trkpt>
      <trkpt lat="42.66521" lon="23.40784">
        <ele>597.202064</ele>
        <time>2022-03-09T12:39:06.425Z</time>
      </trkpt>
      <trkpt lat="42.66528" lon="23.4077">
        <ele>597.128976</ele>
        <time>2022-03-09T12:39:09.425Z</time>
      </trkpt>
      <trkpt lat="42.66534" lon="23.4076">
        <ele>597.075199</ele>
        <time>2022-03-09T12:39:11.438Z</time>
      </trkpt>
      <trkpt lat="42.66538" lon="23.4075">
        <ele>597.022061</ele>
        <time>2022-03-09T12:39:13.426Z</time>
      </trkpt>
      <trkpt lat="42.66542" lon="23.40735">
        <ele>596.9555</ele>
        <time>2022-03-09T12:39:16.429Z</time>
      </trkpt>
      <trkpt lat="42.66548" lon="23.40722">
        <ele>596.887751</ele>
        <time>2022-03-09T12:39:19.422Z</time>
      </trkpt>
      <trkpt lat="42.66555" lon="23.40714">
        <ele>596.833013</ele>
        <time>2022-03-09T12:39:21.417Z</time>
      </trkpt>
      <trkpt lat="42.66562" lon="23.40705">
        <ele>596.778108</ele>
        <time>2022-03-09T12:39:23.428Z</time>
      </trkpt>
      <trkpt lat="42.66568" lon="23.40691">
        <ele>596.704612</ele>
        <time>2022-03-09T12:39:26.441Z</time>
      </trkpt>
      <trkpt lat="42.66574" lon="23.4068">
        <ele>596.648026</ele>
        <time>2022-03-09T12:39:29.434Z</time>
      </trkpt>
      <trkpt lat="42.66582" lon="23.4067">
        <ele>596.58645</ele>
        <time>2022-03-09T12:39:35.443Z</time>
      </trkpt>
      <trkpt lat="42.66588" lon="23.40659">
        <ele>596.524989</ele>
        <time>2022-03-09T12:39:41.463Z</time>
      </trkpt>
      <trkpt lat="42.66593" lon="23.40647">
        <ele>596.270161</ele>
        <time>2022-03-09T12:39:44.425Z</time>
      </trkpt>
      <trkpt lat="42.66601" lon="23.40633">
        <ele>595.890825</ele>
        <time>2022-03-09T12:39:47.431Z</time>
      </trkpt>
      <trkpt lat="42.66608" lon="23.4062">
        <ele>595.523846</ele>
        <time>2022-03-09T12:39:50.438Z</time>
      </trkpt>
      <trkpt lat="42.66615" lon="23.40605">
        <ele>595.149155</ele>
        <time>2022-03-09T12:39:53.428Z</time>
      </trkpt>
      <trkpt lat="42.66622" lon="23.40592">
        <ele>594.783901</ele>
        <time>2022-03-09T12:39:56.437Z</time>
      </trkpt>
      <trkpt lat="42.66629" lon="23.40579">
        <ele>594.420498</ele>
        <time>2022-03-09T12:39:59.419Z</time>
      </trkpt>
      <trkpt lat="42.66637" lon="23.40566">
        <ele>594.058779</ele>
        <time>2022-03-09T12:40:02.414Z</time>
      </trkpt>
      <trkpt lat="42.66644" lon="23.40552">
        <ele>593.698942</ele>
        <time>2022-03-09T12:40:05.423Z</time>
      </trkpt>
      <trkpt lat="42.66651" lon="23.40537">
        <ele>593.292331</ele>
        <time>2022-03-09T12:40:08.437Z</time>
      </trkpt>
      <trkpt lat="42.66656" lon="23.40526">
        <ele>593.01894</ele>
        <time>2022-03-09T12:40:10.460Z</time>
      </trkpt>
      <trkpt lat="42.66663" lon="23.40511">
        <ele>592.614174</ele>
        <time>2022-03-09T12:40:13.400Z</time>
      </trkpt>
      <trkpt lat="42.66669" lon="23.405">
        <ele>592.335462</ele>
        <time>2022-03-09T12:40:15.428Z</time>
      </trkpt>
      <trkpt lat="42.66674" lon="23.4049">
        <ele>592.048108</ele>
        <time>2022-03-09T12:40:17.411Z</time>
      </trkpt>
      <trkpt lat="42.66682" lon="23.40475">
        <ele>591.649125</ele>
        <time>2022-03-09T12:40:20.459Z</time>
      </trkpt>
      <trkpt lat="42.66687" lon="23.40465">
        <ele>591.375753</ele>
        <time>2022-03-09T12:40:22.419Z</time>
      </trkpt>
      <trkpt lat="42.66695" lon="23.40451">
        <ele>591.307525</ele>
        <time>2022-03-09T12:40:25.437Z</time>
      </trkpt>
      <trkpt lat="42.66701" lon="23.40437">
        <ele>591.764703</ele>
        <time>2022-03-09T12:40:28.423Z</time>
      </trkpt>
      <trkpt lat="42.66708" lon="23.40422">
        <ele>592.240225</ele>
        <time>2022-03-09T12:40:31.461Z</time>
      </trkpt>
      <trkpt lat="42.66715" lon="23.40408">
        <ele>592.710764</ele>
        <time>2022-03-09T12:40:34.439Z</time>
      </trkpt>
      <trkpt lat="42.66722" lon="23.40393">
        <ele>593.205129</ele>
        <time>2022-03-09T12:40:37.463Z</time>
      </trkpt>
      <trkpt lat="42.6673" lon="23.40379">
        <ele>593.68613</ele>
        <time>2022-03-09T12:40:40.408Z</time>
      </trkpt>
      <trkpt lat="42.66736" lon="23.40365">
        <ele>594.147231</ele>
        <time>2022-03-09T12:40:43.431Z</time>
      </trkpt>
      <trkpt lat="42.66742" lon="23.40351">
        <ele>594.59258</ele>
        <time>2022-03-09T12:40:46.435Z</time>
      </trkpt>
      <trkpt lat="42.66749" lon="23.40336">
        <ele>595.071273</ele>
        <time>2022-03-09T12:40:49.436Z</time>
      </trkpt>
      <trkpt lat="42.66755" lon="23.40322">
        <ele>595.512864</ele>
        <time>2022-03-09T12:40:52.449Z</time>
      </trkpt>
      <trkpt lat="42.66762" lon="23.40309">
        <ele>595.955925</ele>
        <time>2022-03-09T12:40:55.435Z</time>
      </trkpt>
      <trkpt lat="42.66767" lon="23.40297">
        <ele>596.359657</ele>
        <time>2022-03-09T12:40:58.441Z</time>
      </trkpt>
      <trkpt lat="42.66771" lon="23.40284">
        <ele>596.742891</ele>
        <time>2022-03-09T12:41:01.502Z</time>
      </trkpt>
      <trkpt lat="42.66778" lon="23.40271">
        <ele>597.175159</ele>
        <time>2022-03-09T12:41:04.434Z</time>
      </trkpt>
      <trkpt lat="42.66784" lon="23.4026">
        <ele>597.569262</ele>
        <time>2022-03-09T12:41:07.473Z</time>
      </trkpt>
      <trkpt lat="42.66792" lon="23.40249">
        <ele>597.890312</ele>
        <time>2022-03-09T12:41:11.439Z</time>
      </trkpt>
      <trkpt lat="42.66797" lon="23.40237">
        <ele>597.895667</ele>
        <time>2022-03-09T12:41:16.435Z</time>
      </trkpt>
      <trkpt lat="42.66803" lon="23.40228">
        <ele>597.900473</ele>
        <time>2022-03-09T12:41:19.444Z</time>
      </trkpt>
      <trkpt lat="42.6681" lon="23.40217">
        <ele>597.906263</ele>
        <time>2022-03-09T12:41:22.424Z</time>
      </trkpt>
      <trkpt lat="42.66815" lon="23.40206">
        <ele>597.911564</ele>
        <time>2022-03-09T12:41:25.453Z</time>
      </trkpt>
      <trkpt lat="42.66822" lon="23.40192">
        <ele>597.917943</ele>
        <time>2022-03-09T12:41:29.428Z</time>
      </trkpt>
      <trkpt lat="42.66829" lon="23.4018">
        <ele>597.923754</ele>
        <time>2022-03-09T12:41:32.455Z</time>
      </trkpt>
      <trkpt lat="42.66834" lon="23.40169">
        <ele>597.929186</ele>
        <time>2022-03-09T12:41:35.431Z</time>
      </trkpt>
      <trkpt lat="42.6684" lon="23.40158">
        <ele>597.934394</ele>
        <time>2022-03-09T12:41:38.429Z</time>
      </trkpt>
      <trkpt lat="42.66847" lon="23.40147">
        <ele>597.939989</ele>
        <time>2022-03-09T12:41:41.421Z</time>
      </trkpt>
      <trkpt lat="42.66852" lon="23.40136">
        <ele>597.945133</ele>
        <time>2022-03-09T12:41:44.438Z</time>
      </trkpt>
      <trkpt lat="42.66859" lon="23.40124">
        <ele>597.95116</ele>
        <time>2022-03-09T12:41:47.477Z</time>
      </trkpt>
      <trkpt lat="42.66866" lon="23.40111">
        <ele>597.957566</ele>
        <time>2022-03-09T12:41:50.432Z</time>
      </trkpt>
      <trkpt lat="42.66873" lon="23.40098">
        <ele>597.963846</ele>
        <time>2022-03-09T12:41:53.463Z</time>
      </trkpt>
      <trkpt lat="42.66881" lon="23.40085">
        <ele>597.970486</ele>
        <time>2022-03-09T12:41:56.439Z</time>
      </trkpt>
      <trkpt lat="42.66887" lon="23.40071">
        <ele>597.976832</ele>
        <time>2022-03-09T12:41:59.434Z</time>
      </trkpt>
      <trkpt lat="42.66893" lon="23.40057">
        <ele>597.982883</ele>
        <time>2022-03-09T12:42:02.455Z</time>
      </trkpt>
      <trkpt lat="42.669" lon="23.40044">
        <ele>598.180367</ele>
        <time>2022-03-09T12:42:05.435Z</time>
      </trkpt>
      <trkpt lat="42.66907" lon="23.40032">
        <ele>598.445699</ele>
        <time>2022-03-09T12:42:08.449Z</time>
      </trkpt>
      <trkpt lat="42.66914" lon="23.40019">
        <ele>598.720607</ele>
        <time>2022-03-09T12:42:11.429Z</time>
      </trkpt>
      <trkpt lat="42.66922" lon="23.40004">
        <ele>599.036745</ele>
        <time>2022-03-09T12:42:14.445Z</time>
      </trkpt>
      <trkpt lat="42.6693" lon="23.39989">
        <ele>599.344525</ele>
        <time>2022-03-09T12:42:17.424Z</time>
      </trkpt>
      <trkpt lat="42.66935" lon="23.39979">
        <ele>599.552634</ele>
        <time>2022-03-09T12:42:19.478Z</time>
      </trkpt>
      <trkpt lat="42.6694" lon="23.39969">
        <ele>599.764662</ele>
        <time>2022-03-09T12:42:21.458Z</time>
      </trkpt>
      <trkpt lat="42.66946" lon="23.39959">
        <ele>599.975304</ele>
        <time>2022-03-09T12:42:23.459Z</time>
      </trkpt>
      <trkpt lat="42.66953" lon="23.39946">
        <ele>600.250304</ele>
        <time>2022-03-09T12:42:26.430Z</time>
      </trkpt>
      <trkpt lat="42.66959" lon="23.39932">
        <ele>600.525515</ele>
        <time>2022-03-09T12:42:29.431Z</time>
      </trkpt>
      <trkpt lat="42.66966" lon="23.39918">
        <ele>600.816042</ele>
        <time>2022-03-09T12:42:32.460Z</time>
      </trkpt>
      <trkpt lat="42.66973" lon="23.39904">
        <ele>601.108742</ele>
        <time>2022-03-09T12:42:35.468Z</time>
      </trkpt>
      <trkpt lat="42.66981" lon="23.39889">
        <ele>601.415105</ele>
        <time>2022-03-09T12:42:38.439Z</time>
      </trkpt>
      <trkpt lat="42.66987" lon="23.39878">
        <ele>601.639523</ele>
        <time>2022-03-09T12:42:40.443Z</time>
      </trkpt>
      <trkpt lat="42.66992" lon="23.39868">
        <ele>601.858438</ele>
        <time>2022-03-09T12:42:42.441Z</time>
      </trkpt>
      <trkpt lat="42.66997" lon="23.39857">
        <ele>602.069555</ele>
        <time>2022-03-09T12:42:44.445Z</time>
      </trkpt>
      <trkpt lat="42.67002" lon="23.39847">
        <ele>601.717054</ele>
        <time>2022-03-09T12:42:46.452Z</time>
      </trkpt>
      <trkpt lat="42.67007" lon="23.39836">
        <ele>601.084279</ele>
        <time>2022-03-09T12:42:48.429Z</time>
      </trkpt>
      <trkpt lat="42.67013" lon="23.39821">
        <ele>600.227512</ele>
        <time>2022-03-09T12:42:51.430Z</time>
      </trkpt>
      <trkpt lat="42.67019" lon="23.39808">
        <ele>599.464857</ele>
        <time>2022-03-09T12:42:54.423Z</time>
      </trkpt>
      <trkpt lat="42.67024" lon="23.39797">
        <ele>598.807127</ele>
        <time>2022-03-09T12:42:56.431Z</time>
      </trkpt>
      <trkpt lat="42.6703" lon="23.39784">
        <ele>598.006271</ele>
        <time>2022-03-09T12:42:59.422Z</time>
      </trkpt>
      <trkpt lat="42.67035" lon="23.39772">
        <ele>597.3527</ele>
        <time>2022-03-09T12:43:02.428Z</time>
      </trkpt>
      <trkpt lat="42.67039" lon="23.3976">
        <ele>596.670584</ele>
        <time>2022-03-09T12:43:05.444Z</time>
      </trkpt>
      <trkpt lat="42.67046" lon="23.39749">
        <ele>595.940946</ele>
        <time>2022-03-09T12:43:08.456Z</time>
      </trkpt>
      <trkpt lat="42.67053" lon="23.39736">
        <ele>595.164449</ele>
        <time>2022-03-09T12:43:11.434Z</time>
      </trkpt>
      <trkpt lat="42.6706" lon="23.39722">
        <ele>594.314588</ele>
        <time>2022-03-09T12:43:14.421Z</time>
      </trkpt>
      <trkpt lat="42.67066" lon="23.3971">
        <ele>593.546182</ele>
        <time>2022-03-09T12:43:17.451Z</time>
      </trkpt>
      <trkpt lat="42.67073" lon="23.39697">
        <ele>592.773689</ele>
        <time>2022-03-09T12:43:20.435Z</time>
      </trkpt>
      <trkpt lat="42.6708" lon="23.39683">
        <ele>591.92383</ele>
        <time>2022-03-09T12:43:23.432Z</time>
      </trkpt>
      <trkpt lat="42.67085" lon="23.39673">
        <ele>591.294643</ele>
        <time>2022-03-09T12:43:25.431Z</time>
      </trkpt>
      <trkpt lat="42.6709" lon="23.39662">
        <ele>590.671304</ele>
        <time>2022-03-09T12:43:27.435Z</time>
      </trkpt>
      <trkpt lat="42.67097" lon="23.39648">
        <ele>589.832703</ele>
        <time>2022-03-09T12:43:30.449Z</time>
      </trkpt>
      <trkpt lat="42.67104" lon="23.39634">
        <ele>589.454428</ele>
        <time>2022-03-09T12:43:33.493Z</time>
      </trkpt>
      <trkpt lat="42.67111" lon="23.39619">
        <ele>589.068533</ele>
        <time>2022-03-09T12:43:36.446Z</time>
      </trkpt>
      <trkpt lat="42.67118" lon="23.39604">
        <ele>588.674828</ele>
        <time>2022-03-09T12:43:39.469Z</time>
      </trkpt>
      <trkpt lat="42.67124" lon="23.3959">
        <ele>588.300708</ele>
        <time>2022-03-09T12:43:42.452Z</time>
      </trkpt>
      <trkpt lat="42.67131" lon="23.39574">
        <ele>587.90438</ele>
        <time>2022-03-09T12:43:45.433Z</time>
      </trkpt>
      <trkpt lat="42.67137" lon="23.39558">
        <ele>587.493526</ele>
        <time>2022-03-09T12:43:48.464Z</time>
      </trkpt>
      <trkpt lat="42.67141" lon="23.39546">
        <ele>587.204423</ele>
        <time>2022-03-09T12:43:50.465Z</time>
      </trkpt>
      <trkpt lat="42.67144" lon="23.39533">
        <ele>586.896552</ele>
        <time>2022-03-09T12:43:52.433Z</time>
      </trkpt>
      <trkpt lat="42.67147" lon="23.39521">
        <ele>586.615701</ele>
        <time>2022-03-09T12:43:54.430Z</time>
      </trkpt>
      <trkpt lat="42.6715" lon="23.39504">
        <ele>586.216166</ele>
        <time>2022-03-09T12:43:57.435Z</time>
      </trkpt>
      <trkpt lat="42.67154" lon="23.39488">
        <ele>585.853927</ele>
        <time>2022-03-09T12:44:00.442Z</time>
      </trkpt>
      <trkpt lat="42.67159" lon="23.39472">
        <ele>585.465337</ele>
        <time>2022-03-09T12:44:03.435Z</time>
      </trkpt>
      <trkpt lat="42.67164" lon="23.39457">
        <ele>585.081995</ele>
        <time>2022-03-09T12:44:06.457Z</time>
      </trkpt>
      <trkpt lat="42.67167" lon="23.39444">
        <ele>584.789678</ele>
        <time>2022-03-09T12:44:09.434Z</time>
      </trkpt>
      <trkpt lat="42.67169" lon="23.39429">
        <ele>584.457837</ele>
        <time>2022-03-09T12:44:12.449Z</time>
      </trkpt>
      <trkpt lat="42.67171" lon="23.39417">
        <ele>584.741111</ele>
        <time>2022-03-09T12:44:14.444Z</time>
      </trkpt>
      <trkpt lat="42.67174" lon="23.39405">
        <ele>585.11104</ele>
        <time>2022-03-09T12:44:16.483Z</time>
      </trkpt>
      <trkpt lat="42.67176" lon="23.39392">
        <ele>585.49102</ele>
        <time>2022-03-09T12:44:18.451Z</time>
      </trkpt>
      <trkpt lat="42.67177" lon="23.3938">
        <ele>585.863746</ele>
        <time>2022-03-09T12:44:20.487Z</time>
      </trkpt>
      <trkpt lat="42.67182" lon="23.39364">
        <ele>586.357728</ele>
        <time>2022-03-09T12:44:23.424Z</time>
      </trkpt>
      <trkpt lat="42.67186" lon="23.39347">
        <ele>586.886388</ele>
        <time>2022-03-09T12:44:26.435Z</time>
      </trkpt>
      <trkpt lat="42.67188" lon="23.39331">
        <ele>587.377527</ele>
        <time>2022-03-09T12:44:29.451Z</time>
      </trkpt>
      <trkpt lat="42.6719" lon="23.39315">
        <ele>587.859707</ele>
        <time>2022-03-09T12:44:32.430Z</time>
      </trkpt>
      <trkpt lat="42.67193" lon="23.39298">
        <ele>588.367501</ele>
        <time>2022-03-09T12:44:35.438Z</time>
      </trkpt>
      <trkpt lat="42.67196" lon="23.39282">
        <ele>588.854516</ele>
        <time>2022-03-09T12:44:38.423Z</time>
      </trkpt>
      <trkpt lat="42.67201" lon="23.39266">
        <ele>589.367891</ele>
        <time>2022-03-09T12:44:41.437Z</time>
      </trkpt>
      <trkpt lat="42.67204" lon="23.39252">
        <ele>589.792734</ele>
        <time>2022-03-09T12:44:44.433Z</time>
      </trkpt>
      <trkpt lat="42.67206" lon="23.39234">
        <ele>590.337792</ele>
        <time>2022-03-09T12:44:47.456Z</time>
      </trkpt>
      <trkpt lat="42.67209" lon="23.39217">
        <ele>590.830324</ele>
        <time>2022-03-09T12:44:50.467Z</time>
      </trkpt>
      <trkpt lat="42.67212" lon="23.39202">
        <ele>591.298147</ele>
        <time>2022-03-09T12:44:53.444Z</time>
      </trkpt>
      <trkpt lat="42.67216" lon="23.39188">
        <ele>591.732236</ele>
        <time>2022-03-09T12:44:56.432Z</time>
      </trkpt>
      <trkpt lat="42.67219" lon="23.39174">
        <ele>592.105475</ele>
        <time>2022-03-09T12:44:59.448Z</time>
      </trkpt>
      <trkpt lat="42.67223" lon="23.39158">
        <ele>592.520127</ele>
        <time>2022-03-09T12:45:02.441Z</time>
      </trkpt>
      <trkpt lat="42.67227" lon="23.39141">
        <ele>592.962049</ele>
        <time>2022-03-09T12:45:05.429Z</time>
      </trkpt>
      <trkpt lat="42.67231" lon="23.39124">
        <ele>593.402593</ele>
        <time>2022-03-09T12:45:08.467Z</time>
      </trkpt>
      <trkpt lat="42.67233" lon="23.39107">
        <ele>593.827635</ele>
        <time>2022-03-09T12:45:11.444Z</time>
      </trkpt>
      <trkpt lat="42.67235" lon="23.39093">
        <ele>594.184266</ele>
        <time>2022-03-09T12:45:14.430Z</time>
      </trkpt>
      <trkpt lat="42.67237" lon="23.39078">
        <ele>594.568004</ele>
        <time>2022-03-09T12:45:17.472Z</time>
      </trkpt>
      <trkpt lat="42.6724" lon="23.39063">
        <ele>594.96876</ele>
        <time>2022-03-09T12:45:20.455Z</time>
      </trkpt>
      <trkpt lat="42.67242" lon="23.39048">
        <ele>595.355503</ele>
        <time>2022-03-09T12:45:23.436Z</time>
      </trkpt>
      <trkpt lat="42.67244" lon="23.39032">
        <ele>595.758874</ele>
        <time>2022-03-09T12:45:26.422Z</time>
      </trkpt>
      <trkpt lat="42.67247" lon="23.39016">
        <ele>596.164509</ele>
        <time>2022-03-09T12:45:29.437Z</time>
      </trkpt>
      <trkpt lat="42.6725" lon="23.38999">
        <ele>596.594392</ele>
        <time>2022-03-09T12:45:32.420Z</time>
      </trkpt>
      <trkpt lat="42.67252" lon="23.38983">
        <ele>597.000812</ele>
        <time>2022-03-09T12:45:35.472Z</time>
      </trkpt>
      <trkpt lat="42.67255" lon="23.38966">
        <ele>597.433274</ele>
        <time>2022-03-09T12:45:38.433Z</time>
      </trkpt>
      <trkpt lat="42.67258" lon="23.38949">
        <ele>597.741448</ele>
        <time>2022-03-09T12:45:41.439Z</time>
      </trkpt>
      <trkpt lat="42.6726" lon="23.38933">
        <ele>597.721345</ele>
        <time>2022-03-09T12:45:44.432Z</time>
      </trkpt>
      <trkpt lat="42.67263" lon="23.38917">
        <ele>597.702484</ele>
        <time>2022-03-09T12:45:47.435Z</time>
      </trkpt>
      <trkpt lat="42.67267" lon="23.38902">
        <ele>597.682829</ele>
        <time>2022-03-09T12:45:50.439Z</time>
      </trkpt>
      <trkpt lat="42.6727" lon="23.38886">
        <ele>597.6635</ele>
        <time>2022-03-09T12:45:53.431Z</time>
      </trkpt>
      <trkpt lat="42.67273" lon="23.38874">
        <ele>597.648851</ele>
        <time>2022-03-09T12:45:55.441Z</time>
      </trkpt>
      <trkpt lat="42.67275" lon="23.38856">
        <ele>597.627345</ele>
        <time>2022-03-09T12:45:58.431Z</time>
      </trkpt>
      <trkpt lat="42.67277" lon="23.38843">
        <ele>597.611683</ele>
        <time>2022-03-09T12:46:00.429Z</time>
      </trkpt>
      <trkpt lat="42.67279" lon="23.38827">
        <ele>597.591816</ele>
        <time>2022-03-09T12:46:03.482Z</time>
      </trkpt>
      <trkpt lat="42.6728" lon="23.38811">
        <ele>597.572987</ele>
        <time>2022-03-09T12:46:06.434Z</time>
      </trkpt>
      <trkpt lat="42.67282" lon="23.38797">
        <ele>597.555432</ele>
        <time>2022-03-09T12:46:09.424Z</time>
      </trkpt>
      <trkpt lat="42.67288" lon="23.38783">
        <ele>597.537249</ele>
        <time>2022-03-09T12:46:12.436Z</time>
      </trkpt>
      <trkpt lat="42.67293" lon="23.38769">
        <ele>597.51889</ele>
        <time>2022-03-09T12:46:15.454Z</time>
      </trkpt>
      <trkpt lat="42.67296" lon="23.38756">
        <ele>597.50157</ele>
        <time>2022-03-09T12:46:18.457Z</time>
      </trkpt>
      <trkpt lat="42.67299" lon="23.38744">
        <ele>597.486645</ele>
        <time>2022-03-09T12:46:21.431Z</time>
      </trkpt>
      <trkpt lat="42.673" lon="23.3873">
        <ele>597.47009</ele>
        <time>2022-03-09T12:46:24.435Z</time>
      </trkpt>
      <trkpt lat="42.67301" lon="23.38716">
        <ele>597.432299</ele>
        <time>2022-03-09T12:46:27.474Z</time>
      </trkpt>
      <trkpt lat="42.67303" lon="23.38703">
        <ele>597.291027</ele>
        <time>2022-03-09T12:46:30.433Z</time>
      </trkpt>
      <trkpt lat="42.67305" lon="23.38688">
        <ele>597.136623</ele>
        <time>2022-03-09T12:46:33.457Z</time>
      </trkpt>
      <trkpt lat="42.67308" lon="23.38672">
        <ele>596.976434</ele>
        <time>2022-03-09T12:46:36.435Z</time>
      </trkpt>
      <trkpt lat="42.67311" lon="23.38659">
        <ele>596.835691</ele>
        <time>2022-03-09T12:46:39.445Z</time>
      </trkpt>
      <trkpt lat="42.67314" lon="23.38644">
        <ele>596.678025</ele>
        <time>2022-03-09T12:46:42.461Z</time>
      </trkpt>
      <trkpt lat="42.67317" lon="23.38628">
        <ele>596.510996</ele>
        <time>2022-03-09T12:46:45.439Z</time>
      </trkpt>
      <trkpt lat="42.6732" lon="23.3861">
        <ele>596.330044</ele>
        <time>2022-03-09T12:46:48.465Z</time>
      </trkpt>
      <trkpt lat="42.67323" lon="23.38593">
        <ele>596.152892</ele>
        <time>2022-03-09T12:46:51.442Z</time>
      </trkpt>
      <trkpt lat="42.67326" lon="23.38579">
        <ele>596.002664</ele>
        <time>2022-03-09T12:46:54.465Z</time>
      </trkpt>
      <trkpt lat="42.67329" lon="23.38563">
        <ele>595.837933</ele>
        <time>2022-03-09T12:46:57.430Z</time>
      </trkpt>
      <trkpt lat="42.67332" lon="23.38547">
        <ele>595.666992</ele>
        <time>2022-03-09T12:47:00.437Z</time>
      </trkpt>
      <trkpt lat="42.67334" lon="23.38532">
        <ele>595.515348</ele>
        <time>2022-03-09T12:47:03.447Z</time>
      </trkpt>
      <trkpt lat="42.67337" lon="23.38517">
        <ele>595.358651</ele>
        <time>2022-03-09T12:47:06.439Z</time>
      </trkpt>
      <trkpt lat="42.6734" lon="23.38502">
        <ele>595.200131</ele>
        <time>2022-03-09T12:47:09.438Z</time>
      </trkpt>
      <trkpt lat="42.67343" lon="23.38486">
        <ele>595.033447</ele>
        <time>2022-03-09T12:47:12.432Z</time>
      </trkpt>
      <trkpt lat="42.67346" lon="23.38471">
        <ele>594.67003</ele>
        <time>2022-03-09T12:47:15.462Z</time>
      </trkpt>
      <trkpt lat="42.6735" lon="23.38456">
        <ele>594.219864</ele>
        <time>2022-03-09T12:47:18.443Z</time>
      </trkpt>
      <trkpt lat="42.67353" lon="23.38442">
        <ele>593.827094</ele>
        <time>2022-03-09T12:47:21.421Z</time>
      </trkpt>
      <trkpt lat="42.67355" lon="23.38429">
        <ele>593.447719</ele>
        <time>2022-03-09T12:47:25.439Z</time>
      </trkpt>
      <trkpt lat="42.67356" lon="23.38416">
        <ele>593.080612</ele>
        <time>2022-03-09T12:47:29.439Z</time>
      </trkpt>
      <trkpt lat="42.67358" lon="23.38401">
        <ele>592.630754</ele>
        <time>2022-03-09T12:47:33.435Z</time>
      </trkpt>
      <trkpt lat="42.67361" lon="23.38388">
        <ele>592.261276</ele>
        <time>2022-03-09T12:47:36.431Z</time>
      </trkpt>
      <trkpt lat="42.67363" lon="23.38373">
        <ele>591.839722</ele>
        <time>2022-03-09T12:47:39.457Z</time>
      </trkpt>
      <trkpt lat="42.67365" lon="23.38358">
        <ele>591.413413</ele>
        <time>2022-03-09T12:47:42.430Z</time>
      </trkpt>
      <trkpt lat="42.67367" lon="23.38343">
        <ele>590.981532</ele>
        <time>2022-03-09T12:47:45.445Z</time>
      </trkpt>
      <trkpt lat="42.67368" lon="23.38329">
        <ele>590.569773</ele>
        <time>2022-03-09T12:47:48.423Z</time>
      </trkpt>
      <trkpt lat="42.67371" lon="23.38313">
        <ele>590.109496</ele>
        <time>2022-03-09T12:47:51.423Z</time>
      </trkpt>
      <trkpt lat="42.67373" lon="23.38299">
        <ele>589.708862</ele>
        <time>2022-03-09T12:47:54.472Z</time>
      </trkpt>
      <trkpt lat="42.67374" lon="23.38284">
        <ele>589.29085</ele>
        <time>2022-03-09T12:47:57.438Z</time>
      </trkpt>
      <trkpt lat="42.67375" lon="23.3827">
        <ele>588.87519</ele>
        <time>2022-03-09T12:48:00.466Z</time>
      </trkpt>
      <trkpt lat="42.67376" lon="23.38255">
        <ele>588.47119</ele>
        <time>2022-03-09T12:48:03.440Z</time>
      </trkpt>
      <trkpt lat="42.67378" lon="23.38243">
        <ele>588.119884</ele>
        <time>2022-03-09T12:48:06.414Z</time>
      </trkpt>
      <trkpt lat="42.67381" lon="23.38232">
        <ele>588.021287</ele>
        <time>2022-03-09T12:48:09.446Z</time>
      </trkpt>
      <trkpt lat="42.67383" lon="23.38216">
        <ele>587.93705</ele>
        <time>2022-03-09T12:48:13.488Z</time>
      </trkpt>
      <trkpt lat="42.67386" lon="23.38203">
        <ele>587.861298</ele>
        <time>2022-03-09T12:48:18.422Z</time>
      </trkpt>
      <trkpt lat="42.67398" lon="23.38187">
        <ele>587.734888</ele>
        <time>2022-03-09T12:48:45.432Z</time>
      </trkpt>
      <trkpt lat="42.67402" lon="23.38175">
        <ele>587.665541</ele>
        <time>2022-03-09T12:48:58.448Z</time>
      </trkpt>
      <trkpt lat="42.67412" lon="23.3817">
        <ele>587.583058</ele>
        <time>2022-03-09T12:49:03.465Z</time>
      </trkpt>
      <trkpt lat="42.67423" lon="23.3817">
        <ele>587.504058</ele>
        <time>2022-03-09T12:49:06.419Z</time>
      </trkpt>
      <trkpt lat="42.67434" lon="23.38172">
        <ele>587.421589</ele>
        <time>2022-03-09T12:49:09.417Z</time>
      </trkpt>
      <trkpt lat="42.67446" lon="23.38175">
        <ele>587.332536</ele>
        <time>2022-03-09T12:49:12.445Z</time>
      </trkpt>
      <trkpt lat="42.67457" lon="23.38178">
        <ele>587.245459</ele>
        <time>2022-03-09T12:49:15.430Z</time>
      </trkpt>
      <trkpt lat="42.67469" lon="23.38181">
        <ele>587.15724</ele>
        <time>2022-03-09T12:49:18.422Z</time>
      </trkpt>
      <trkpt lat="42.6748" lon="23.38184">
        <ele>587.078444</ele>
        <time>2022-03-09T12:49:21.435Z</time>
      </trkpt>
      <trkpt lat="42.67489" lon="23.38188">
        <ele>587.006751</ele>
        <time>2022-03-09T12:49:26.429Z</time>
      </trkpt>
      <trkpt lat="42.67499" lon="23.38192">
        <ele>586.927103</ele>
        <time>2022-03-09T12:49:32.457Z</time>
      </trkpt>
      <trkpt lat="42.6751" lon="23.38193">
        <ele>586.850564</ele>
        <time>2022-03-09T12:49:35.421Z</time>
      </trkpt>
      <trkpt lat="42.6752" lon="23.38195">
        <ele>586.77243</ele>
        <time>2022-03-09T12:49:38.438Z</time>
      </trkpt>
      <trkpt lat="42.67531" lon="23.38197">
        <ele>586.969165</ele>
        <time>2022-03-09T12:49:41.447Z</time>
      </trkpt>
      <trkpt lat="42.67543" lon="23.38194">
        <ele>587.30321</ele>
        <time>2022-03-09T12:49:44.496Z</time>
      </trkpt>
      <trkpt lat="42.67556" lon="23.38195">
        <ele>587.665011</ele>
        <time>2022-03-09T12:49:47.437Z</time>
      </trkpt>
      <trkpt lat="42.67565" lon="23.38198">
        <ele>587.915773</ele>
        <time>2022-03-09T12:49:49.434Z</time>
      </trkpt>
      <trkpt lat="42.67574" lon="23.382">
        <ele>588.166592</ele>
        <time>2022-03-09T12:49:51.426Z</time>
      </trkpt>
      <trkpt lat="42.67587" lon="23.38199">
        <ele>588.533609</ele>
        <time>2022-03-09T12:49:54.415Z</time>
      </trkpt>
      <trkpt lat="42.67596" lon="23.38194">
        <ele>588.800536</ele>
        <time>2022-03-09T12:49:56.410Z</time>
      </trkpt>
      <trkpt lat="42.67605" lon="23.38182">
        <ele>589.145765</ele>
        <time>2022-03-09T12:49:59.451Z</time>
      </trkpt>
      <trkpt lat="42.67608" lon="23.38168">
        <ele>589.4439</ele>
        <time>2022-03-09T12:50:02.481Z</time>
      </trkpt>
      <trkpt lat="42.6761" lon="23.38152">
        <ele>589.76977</ele>
        <time>2022-03-09T12:50:05.429Z</time>
      </trkpt>
      <trkpt lat="42.67612" lon="23.38137">
        <ele>590.079823</ele>
        <time>2022-03-09T12:50:08.456Z</time>
      </trkpt>
      <trkpt lat="42.67614" lon="23.38122">
        <ele>590.375959</ele>
        <time>2022-03-09T12:50:11.429Z</time>
      </trkpt>
      <trkpt lat="42.67614" lon="23.38107">
        <ele>590.681624</ele>
        <time>2022-03-09T12:50:14.446Z</time>
      </trkpt>
      <trkpt lat="42.67614" lon="23.38093">
        <ele>590.9773</ele>
        <time>2022-03-09T12:50:17.423Z</time>
      </trkpt>
      <trkpt lat="42.67614" lon="23.38078">
        <ele>591.267296</ele>
        <time>2022-03-09T12:50:20.447Z</time>
      </trkpt>
      <trkpt lat="42.67612" lon="23.38063">
        <ele>591.58075</ele>
        <time>2022-03-09T12:50:23.438Z</time>
      </trkpt>
      <trkpt lat="42.6761" lon="23.38047">
        <ele>591.281204</ele>
        <time>2022-03-09T12:50:26.443Z</time>
      </trkpt>
      <trkpt lat="42.67609" lon="23.38029">
        <ele>590.685171</ele>
        <time>2022-03-09T12:50:29.438Z</time>
      </trkpt>
      <trkpt lat="42.67613" lon="23.38014">
        <ele>590.145979</ele>
        <time>2022-03-09T12:50:32.415Z</time>
      </trkpt>
      <trkpt lat="42.6762" lon="23.38005">
        <ele>589.695574</ele>
        <time>2022-03-09T12:50:34.412Z</time>
      </trkpt>
      <trkpt lat="42.67632" lon="23.37998">
        <ele>589.097549</ele>
        <time>2022-03-09T12:50:37.454Z</time>
      </trkpt>
      <trkpt lat="42.67643" lon="23.3799">
        <ele>588.529156</ele>
        <time>2022-03-09T12:50:40.445Z</time>
      </trkpt>
      <trkpt lat="42.67654" lon="23.37983">
        <ele>587.967235</ele>
        <time>2022-03-09T12:50:43.432Z</time>
      </trkpt>
      <trkpt lat="42.67665" lon="23.37976">
        <ele>587.401103</ele>
        <time>2022-03-09T12:50:46.433Z</time>
      </trkpt>
      <trkpt lat="42.67676" lon="23.3797">
        <ele>586.890546</ele>
        <time>2022-03-09T12:50:49.432Z</time>
      </trkpt>
      <trkpt lat="42.67685" lon="23.37962">
        <ele>586.395947</ele>
        <time>2022-03-09T12:50:52.441Z</time>
      </trkpt>
      <trkpt lat="42.67694" lon="23.37956">
        <ele>585.92121</ele>
        <time>2022-03-09T12:50:55.427Z</time>
      </trkpt>
      <trkpt lat="42.67705" lon="23.37949">
        <ele>585.377411</ele>
        <time>2022-03-09T12:50:58.444Z</time>
      </trkpt>
      <trkpt lat="42.67716" lon="23.37942">
        <ele>584.836024</ele>
        <time>2022-03-09T12:51:01.455Z</time>
      </trkpt>
      <trkpt lat="42.67726" lon="23.37935">
        <ele>584.319851</ele>
        <time>2022-03-09T12:51:04.432Z</time>
      </trkpt>
      <trkpt lat="42.67735" lon="23.37927">
        <ele>583.816522</ele>
        <time>2022-03-09T12:51:07.442Z</time>
      </trkpt>
      <trkpt lat="42.67745" lon="23.3792">
        <ele>583.546098</ele>
        <time>2022-03-09T12:51:10.518Z</time>
      </trkpt>
      <trkpt lat="42.67756" lon="23.37913">
        <ele>583.868743</ele>
        <time>2022-03-09T12:51:13.457Z</time>
      </trkpt>
      <trkpt lat="42.67767" lon="23.37906">
        <ele>584.204515</ele>
        <time>2022-03-09T12:51:16.430Z</time>
      </trkpt>
      <trkpt lat="42.67777" lon="23.379">
        <ele>584.490944</ele>
        <time>2022-03-09T12:51:19.433Z</time>
      </trkpt>
      <trkpt lat="42.67788" lon="23.37892">
        <ele>584.823273</ele>
        <time>2022-03-09T12:51:22.447Z</time>
      </trkpt>
      <trkpt lat="42.67799" lon="23.37885">
        <ele>585.153196</ele>
        <time>2022-03-09T12:51:25.439Z</time>
      </trkpt>
      <trkpt lat="42.67809" lon="23.3788">
        <ele>585.459581</ele>
        <time>2022-03-09T12:51:28.448Z</time>
      </trkpt>
      <trkpt lat="42.67819" lon="23.37874">
        <ele>585.733624</ele>
        <time>2022-03-09T12:51:31.432Z</time>
      </trkpt>
      <trkpt lat="42.67827" lon="23.37867">
        <ele>586.012242</ele>
        <time>2022-03-09T12:51:34.448Z</time>
      </trkpt>
      <trkpt lat="42.67837" lon="23.37861">
        <ele>586.306176</ele>
        <time>2022-03-09T12:51:37.449Z</time>
      </trkpt>
      <trkpt lat="42.67846" lon="23.37854">
        <ele>586.579483</ele>
        <time>2022-03-09T12:51:40.437Z</time>
      </trkpt>
      <trkpt lat="42.67855" lon="23.3785">
        <ele>586.829701</ele>
        <time>2022-03-09T12:51:43.528Z</time>
      </trkpt>
      <trkpt lat="42.67868" lon="23.37848">
        <ele>587.194822</ele>
        <time>2022-03-09T12:51:46.426Z</time>
      </trkpt>
      <trkpt lat="42.67877" lon="23.37848">
        <ele>587.444541</ele>
        <time>2022-03-09T12:51:48.403Z</time>
      </trkpt>
      <trkpt lat="42.67887" lon="23.37848">
        <ele>587.694157</ele>
        <time>2022-03-09T12:51:50.440Z</time>
      </trkpt>
      <trkpt lat="42.67896" lon="23.3785">
        <ele>587.964116</ele>
        <time>2022-03-09T12:51:52.524Z</time>
      </trkpt>
      <trkpt lat="42.67905" lon="23.37852">
        <ele>588.211258</ele>
        <time>2022-03-09T12:51:54.431Z</time>
      </trkpt>
      <trkpt lat="42.67915" lon="23.37854">
        <ele>588.364809</ele>
        <time>2022-03-09T12:51:56.427Z</time>
      </trkpt>
      <trkpt lat="42.67927" lon="23.3786">
        <ele>588.456031</ele>
        <time>2022-03-09T12:51:59.441Z</time>
      </trkpt>
      <trkpt lat="42.6794" lon="23.37863">
        <ele>588.543374</ele>
        <time>2022-03-09T12:52:02.482Z</time>
      </trkpt>
      <trkpt lat="42.67949" lon="23.37867">
        <ele>588.609773</ele>
        <time>2022-03-09T12:52:04.453Z</time>
      </trkpt>
      <trkpt lat="42.67958" lon="23.3787">
        <ele>588.673211</ele>
        <time>2022-03-09T12:52:06.428Z</time>
      </trkpt>
      <trkpt lat="42.67971" lon="23.3787">
        <ele>588.765342</ele>
        <time>2022-03-09T12:52:09.452Z</time>
      </trkpt>
      <trkpt lat="42.67979" lon="23.37866">
        <ele>588.829431</ele>
        <time>2022-03-09T12:52:11.431Z</time>
      </trkpt>
      <trkpt lat="42.6799" lon="23.37856">
        <ele>588.916284</ele>
        <time>2022-03-09T12:52:14.421Z</time>
      </trkpt>
      <trkpt lat="42.67993" lon="23.37843">
        <ele>588.987866</ele>
        <time>2022-03-09T12:52:17.411Z</time>
      </trkpt>
      <trkpt lat="42.67995" lon="23.37828">
        <ele>589.067848</ele>
        <time>2022-03-09T12:52:20.463Z</time>
      </trkpt>
      <trkpt lat="42.67998" lon="23.37813">
        <ele>589.147105</ele>
        <time>2022-03-09T12:52:23.437Z</time>
      </trkpt>
      <trkpt lat="42.68" lon="23.37794">
        <ele>589.243038</ele>
        <time>2022-03-09T12:52:26.435Z</time>
      </trkpt>
      <trkpt lat="42.68001" lon="23.37782">
        <ele>589.308377</ele>
        <time>2022-03-09T12:52:28.440Z</time>
      </trkpt>
      <trkpt lat="42.68003" lon="23.37765">
        <ele>589.394409</ele>
        <time>2022-03-09T12:52:31.475Z</time>
      </trkpt>
      <trkpt lat="42.68006" lon="23.37751">
        <ele>589.470325</ele>
        <time>2022-03-09T12:52:34.441Z</time>
      </trkpt>
      <trkpt lat="42.68009" lon="23.37738">
        <ele>589.543171</ele>
        <time>2022-03-09T12:52:37.440Z</time>
      </trkpt>
      <trkpt lat="42.68012" lon="23.37723">
        <ele>589.781795</ele>
        <time>2022-03-09T12:52:40.433Z</time>
      </trkpt>
      <trkpt lat="42.68014" lon="23.37707">
        <ele>590.247071</ele>
        <time>2022-03-09T12:52:43.436Z</time>
      </trkpt>
      <trkpt lat="42.68016" lon="23.37692">
        <ele>590.684448</ele>
        <time>2022-03-09T12:52:46.431Z</time>
      </trkpt>
      <trkpt lat="42.68019" lon="23.37675">
        <ele>591.157627</ele>
        <time>2022-03-09T12:52:49.483Z</time>
      </trkpt>
      <trkpt lat="42.68024" lon="23.3766">
        <ele>591.628739</ele>
        <time>2022-03-09T12:52:53.462Z</time>
      </trkpt>
      <trkpt lat="42.68026" lon="23.37643">
        <ele>592.129039</ele>
        <time>2022-03-09T12:52:56.460Z</time>
      </trkpt>
      <trkpt lat="42.68026" lon="23.3763">
        <ele>592.493227</ele>
        <time>2022-03-09T12:52:58.444Z</time>
      </trkpt>
      <trkpt lat="42.68027" lon="23.37617">
        <ele>592.854911</ele>
        <time>2022-03-09T12:53:00.426Z</time>
      </trkpt>
      <trkpt lat="42.68029" lon="23.37602">
        <ele>593.282225</ele>
        <time>2022-03-09T12:53:03.431Z</time>
      </trkpt>
      <trkpt lat="42.6803" lon="23.37589">
        <ele>593.64145</ele>
        <time>2022-03-09T12:53:06.422Z</time>
      </trkpt>
      <trkpt lat="42.68031" lon="23.37575">
        <ele>594.037573</ele>
        <time>2022-03-09T12:53:09.410Z</time>
      </trkpt>
      <trkpt lat="42.68033" lon="23.37557">
        <ele>594.563498</ele>
        <time>2022-03-09T12:53:12.430Z</time>
      </trkpt>
      <trkpt lat="42.68034" lon="23.37543">
        <ele>594.950436</ele>
        <time>2022-03-09T12:53:14.455Z</time>
      </trkpt>
      <trkpt lat="42.68035" lon="23.3753">
        <ele>595.318449</ele>
        <time>2022-03-09T12:53:16.423Z</time>
      </trkpt>
      <trkpt lat="42.68039" lon="23.37514">
        <ele>595.791485</ele>
        <time>2022-03-09T12:53:19.433Z</time>
      </trkpt>
      <trkpt lat="42.68041" lon="23.37501">
        <ele>596.168148</ele>
        <time>2022-03-09T12:53:21.440Z</time>
      </trkpt>
      <trkpt lat="42.68041" lon="23.37487">
        <ele>596.530915</ele>
        <time>2022-03-09T12:53:23.458Z</time>
      </trkpt>
      <trkpt lat="42.68041" lon="23.37473">
        <ele>596.815066</ele>
        <time>2022-03-09T12:53:25.441Z</time>
      </trkpt>
      <trkpt lat="42.68041" lon="23.3746">
        <ele>597.082906</ele>
        <time>2022-03-09T12:53:27.444Z</time>
      </trkpt>
      <trkpt lat="42.6804" lon="23.37448">
        <ele>597.340536</ele>
        <time>2022-03-09T12:53:29.474Z</time>
      </trkpt>
      <trkpt lat="42.6804" lon="23.3743">
        <ele>597.700032</ele>
        <time>2022-03-09T12:53:32.440Z</time>
      </trkpt>
      <trkpt lat="42.6804" lon="23.37414">
        <ele>598.022515</ele>
        <time>2022-03-09T12:53:35.424Z</time>
      </trkpt>
      <trkpt lat="42.6804" lon="23.37398">
        <ele>598.343005</ele>
        <time>2022-03-09T12:53:38.481Z</time>
      </trkpt>
      <trkpt lat="42.6804" lon="23.37383">
        <ele>598.653503</ele>
        <time>2022-03-09T12:53:41.436Z</time>
      </trkpt>
      <trkpt lat="42.6804" lon="23.37368">
        <ele>598.957921</ele>
        <time>2022-03-09T12:53:44.431Z</time>
      </trkpt>
      <trkpt lat="42.6804" lon="23.37351">
        <ele>599.298645</ele>
        <time>2022-03-09T12:53:47.425Z</time>
      </trkpt>
      <trkpt lat="42.6804" lon="23.37337">
        <ele>599.58089</ele>
        <time>2022-03-09T12:53:50.452Z</time>
      </trkpt>
      <trkpt lat="42.68043" lon="23.37324">
        <ele>599.850766</ele>
        <time>2022-03-09T12:53:53.463Z</time>
      </trkpt>
      <trkpt lat="42.68045" lon="23.37309">
        <ele>600.16607</ele>
        <time>2022-03-09T12:53:56.448Z</time>
      </trkpt>
      <trkpt lat="42.68049" lon="23.37296">
        <ele>600.459387</ele>
        <time>2022-03-09T12:53:59.429Z</time>
      </trkpt>
      <trkpt lat="42.68054" lon="23.37283">
        <ele>600.757331</ele>
        <time>2022-03-09T12:54:02.481Z</time>
      </trkpt>
      <trkpt lat="42.68058" lon="23.37271">
        <ele>601.021949</ele>
        <time>2022-03-09T12:54:05.460Z</time>
      </trkpt>
      <trkpt lat="42.68057" lon="23.37258">
        <ele>601.274176</ele>
        <time>2022-03-09T12:54:09.434Z</time>
      </trkpt>
      <trkpt lat="42.68058" lon="23.37245">
        <ele>601.48714</ele>
        <time>2022-03-09T12:54:15.471Z</time>
      </trkpt>
      <trkpt lat="42.68069" lon="23.37212">
        <ele>601.870761</ele>
        <time>2022-03-09T12:54:41.444Z</time>
      </trkpt>
      <trkpt lat="42.68074" lon="23.37198">
        <ele>602.036167</ele>
        <time>2022-03-09T12:54:45.481Z</time>
      </trkpt>
      <trkpt lat="42.68078" lon="23.37183">
        <ele>602.20255</ele>
        <time>2022-03-09T12:54:48.420Z</time>
      </trkpt>
      <trkpt lat="42.68083" lon="23.37172">
        <ele>602.346885</ele>
        <time>2022-03-09T12:54:51.426Z</time>
      </trkpt>
      <trkpt lat="42.68088" lon="23.37161">
        <ele>602.481466</ele>
        <time>2022-03-09T12:54:54.433Z</time>
      </trkpt>
      <trkpt lat="42.68093" lon="23.3715">
        <ele>602.616186</ele>
        <time>2022-03-09T12:54:57.450Z</time>
      </trkpt>
      <trkpt lat="42.68099" lon="23.37136">
        <ele>602.783565</ele>
        <time>2022-03-09T12:55:01.466Z</time>
      </trkpt>
      <trkpt lat="42.68103" lon="23.37124">
        <ele>602.919332</ele>
        <time>2022-03-09T12:55:04.439Z</time>
      </trkpt>
      <trkpt lat="42.68107" lon="23.37112">
        <ele>603.057678</ele>
        <time>2022-03-09T12:55:07.451Z</time>
      </trkpt>
      <trkpt lat="42.6811" lon="23.37097">
        <ele>603.224955</ele>
        <time>2022-03-09T12:55:11.438Z</time>
      </trkpt>
      <trkpt lat="42.68112" lon="23.37082">
        <ele>603.384664</ele>
        <time>2022-03-09T12:55:15.439Z</time>
      </trkpt>
      <trkpt lat="42.68116" lon="23.3707">
        <ele>603.522047</ele>
        <time>2022-03-09T12:55:19.439Z</time>
      </trkpt>
      <trkpt lat="42.68118" lon="23.37057">
        <ele>603.661682</ele>
        <time>2022-03-09T12:55:22.420Z</time>
      </trkpt>
      <trkpt lat="42.68124" lon="23.37045">
        <ele>603.822359</ele>
        <time>2022-03-09T12:55:26.444Z</time>
      </trkpt>
      <trkpt lat="42.68131" lon="23.37036">
        <ele>603.952</ele>
        <time>2022-03-09T12:55:30.428Z</time>
      </trkpt>
      <trkpt lat="42.68136" lon="23.37024">
        <ele>604.452892</ele>
        <time>2022-03-09T12:55:35.434Z</time>
      </trkpt>
      <trkpt lat="42.68141" lon="23.37012">
        <ele>605.227148</ele>
        <time>2022-03-09T12:55:41.447Z</time>
      </trkpt>
      <trkpt lat="42.68148" lon="23.37002">
        <ele>605.977973</ele>
        <time>2022-03-09T12:55:46.430Z</time>
      </trkpt>
      <trkpt lat="42.68155" lon="23.36994">
        <ele>606.694541</ele>
        <time>2022-03-09T12:55:51.463Z</time>
      </trkpt>
      <trkpt lat="42.6816" lon="23.36983">
        <ele>607.393992</ele>
        <time>2022-03-09T12:55:58.441Z</time>
      </trkpt>
      <trkpt lat="42.68163" lon="23.3697">
        <ele>608.126251</ele>
        <time>2022-03-09T12:56:04.429Z</time>
      </trkpt>
      <trkpt lat="42.68167" lon="23.36958">
        <ele>608.855905</ele>
        <time>2022-03-09T12:56:10.460Z</time>
      </trkpt>
      <trkpt lat="42.6817" lon="23.36945">
        <ele>609.58097</ele>
        <time>2022-03-09T12:56:16.437Z</time>
      </trkpt>
      <trkpt lat="42.68171" lon="23.36933">
        <ele>610.252215</ele>
        <time>2022-03-09T12:56:20.443Z</time>
      </trkpt>
      <trkpt lat="42.68171" lon="23.3692">
        <ele>610.964057</ele>
        <time>2022-03-09T12:56:26.454Z</time>
      </trkpt>
      <trkpt lat="42.68174" lon="23.36908">
        <ele>611.678345</ele>
        <time>2022-03-09T12:56:33.447Z</time>
      </trkpt>
      <trkpt lat="42.68182" lon="23.369">
        <ele>612.442463</ele>
        <time>2022-03-09T12:56:37.456Z</time>
      </trkpt>
      <trkpt lat="42.68185" lon="23.36888">
        <ele>613.13547</ele>
        <time>2022-03-09T12:56:44.451Z</time>
      </trkpt>
      <trkpt lat="42.68191" lon="23.36878">
        <ele>613.860031</ele>
        <time>2022-03-09T12:56:50.441Z</time>
      </trkpt>
      <trkpt lat="42.68197" lon="23.36868">
        <ele>614.58459</ele>
        <time>2022-03-09T12:56:55.457Z</time>
      </trkpt>
      <trkpt lat="42.68201" lon="23.36856">
        <ele>615.268861</ele>
        <time>2022-03-09T12:57:01.431Z</time>
      </trkpt>
      <trkpt lat="42.68207" lon="23.36844">
        <ele>616.050109</ele>
        <time>2022-03-09T12:57:06.455Z</time>
      </trkpt>
      <trkpt lat="42.68211" lon="23.36832">
        <ele>616.796441</ele>
        <time>2022-03-09T12:57:12.456Z</time>
      </trkpt>
      <trkpt lat="42.68216" lon="23.36822">
        <ele>617.452957</ele>
        <time>2022-03-09T12:57:17.441Z</time>
      </trkpt>
      <trkpt lat="42.68221" lon="23.36811">
        <ele>617.913213</ele>
        <time>2022-03-09T12:57:24.435Z</time>
      </trkpt>
      <trkpt lat="42.68224" lon="23.36799">
        <ele>618.369308</ele>
        <time>2022-03-09T12:57:31.423Z</time>
      </trkpt>
      <trkpt lat="42.6823" lon="23.3679">
        <ele>618.806528</ele>
        <time>2022-03-09T12:57:36.449Z</time>
      </trkpt>
      <trkpt lat="42.68235" lon="23.36779">
        <ele>619.265563</ele>
        <time>2022-03-09T12:57:40.433Z</time>
      </trkpt>
      <trkpt lat="42.68236" lon="23.36764">
        <ele>619.797338</ele>
        <time>2022-03-09T12:57:45.444Z</time>
      </trkpt>
      <trkpt lat="42.6824" lon="23.36749">
        <ele>620.358698</ele>
        <time>2022-03-09T12:57:49.430Z</time>
      </trkpt>
      <trkpt lat="42.68242" lon="23.36734">
        <ele>620.897132</ele>
        <time>2022-03-09T12:57:53.441Z</time>
      </trkpt>
      <trkpt lat="42.68248" lon="23.36722">
        <ele>621.417683</ele>
        <time>2022-03-09T12:57:57.453Z</time>
      </trkpt>
      <trkpt lat="42.6825" lon="23.36709">
        <ele>621.885573</ele>
        <time>2022-03-09T12:58:01.437Z</time>
      </trkpt>
      <trkpt lat="42.68251" lon="23.36695">
        <ele>622.377628</ele>
        <time>2022-03-09T12:58:05.440Z</time>
      </trkpt>
      <trkpt lat="42.68252" lon="23.36682">
        <ele>622.85579</ele>
        <time>2022-03-09T12:58:08.431Z</time>
      </trkpt>
      <trkpt lat="42.68252" lon="23.36668">
        <ele>623.347368</ele>
        <time>2022-03-09T12:58:11.449Z</time>
      </trkpt>
      <trkpt lat="42.68254" lon="23.36655">
        <ele>623.814728</ele>
        <time>2022-03-09T12:58:14.439Z</time>
      </trkpt>
      <trkpt lat="42.68256" lon="23.36643">
        <ele>624.264254</ele>
        <time>2022-03-09T12:58:17.436Z</time>
      </trkpt>
      <trkpt lat="42.68259" lon="23.3663">
        <ele>624.750711</ele>
        <time>2022-03-09T12:58:20.455Z</time>
      </trkpt>
      <trkpt lat="42.68261" lon="23.36616">
        <ele>625.236461</ele>
        <time>2022-03-09T12:58:23.453Z</time>
      </trkpt>
      <trkpt lat="42.68264" lon="23.36602">
        <ele>625.779392</ele>
        <time>2022-03-09T12:58:26.429Z</time>
      </trkpt>
      <trkpt lat="42.68265" lon="23.36589">
        <ele>626.201281</ele>
        <time>2022-03-09T12:58:29.425Z</time>
      </trkpt>
      <trkpt lat="42.68266" lon="23.36576">
        <ele>626.543469</ele>
        <time>2022-03-09T12:58:32.442Z</time>
      </trkpt>
      <trkpt lat="42.68267" lon="23.36562">
        <ele>626.930267</ele>
        <time>2022-03-09T12:58:36.452Z</time>
      </trkpt>
      <trkpt lat="42.68269" lon="23.36549">
        <ele>627.299152</ele>
        <time>2022-03-09T12:58:39.435Z</time>
      </trkpt>
      <trkpt lat="42.68271" lon="23.36533">
        <ele>627.725862</ele>
        <time>2022-03-09T12:58:42.442Z</time>
      </trkpt>
      <trkpt lat="42.68272" lon="23.36519">
        <ele>628.103757</ele>
        <time>2022-03-09T12:58:45.448Z</time>
      </trkpt>
      <trkpt lat="42.68274" lon="23.36506">
        <ele>628.460044</ele>
        <time>2022-03-09T12:58:48.445Z</time>
      </trkpt>
      <trkpt lat="42.68276" lon="23.36494">
        <ele>628.79787</ele>
        <time>2022-03-09T12:58:51.446Z</time>
      </trkpt>
      <trkpt lat="42.68278" lon="23.3648">
        <ele>629.186742</ele>
        <time>2022-03-09T12:58:54.429Z</time>
      </trkpt>
      <trkpt lat="42.6828" lon="23.36465">
        <ele>629.59754</ele>
        <time>2022-03-09T12:58:57.463Z</time>
      </trkpt>
      <trkpt lat="42.68284" lon="23.36451">
        <ele>630.007834</ele>
        <time>2022-03-09T12:59:00.464Z</time>
      </trkpt>
      <trkpt lat="42.6829" lon="23.36438">
        <ele>630.421644</ele>
        <time>2022-03-09T12:59:03.426Z</time>
      </trkpt>
      <trkpt lat="42.68294" lon="23.36426">
        <ele>630.794617</ele>
        <time>2022-03-09T12:59:06.432Z</time>
      </trkpt>
      <trkpt lat="42.68296" lon="23.36413">
        <ele>631.145543</ele>
        <time>2022-03-09T12:59:09.438Z</time>
      </trkpt>
      <trkpt lat="42.68298" lon="23.36399">
        <ele>631.522097</ele>
        <time>2022-03-09T12:59:12.433Z</time>
      </trkpt>
      <trkpt lat="42.68295" lon="23.36386">
        <ele>631.880898</ele>
        <time>2022-03-09T12:59:15.439Z</time>
      </trkpt>
      <trkpt lat="42.68294" lon="23.36373">
        <ele>632.244614</ele>
        <time>2022-03-09T12:59:20.442Z</time>
      </trkpt>
      <trkpt lat="42.68296" lon="23.3636">
        <ele>632.599115</ele>
        <time>2022-03-09T12:59:24.431Z</time>
      </trkpt>
      <trkpt lat="42.68298" lon="23.36347">
        <ele>632.337105</ele>
        <time>2022-03-09T12:59:27.446Z</time>
      </trkpt>
      <trkpt lat="42.68296" lon="23.36333">
        <ele>631.684158</ele>
        <time>2022-03-09T12:59:31.438Z</time>
      </trkpt>
      <trkpt lat="42.68298" lon="23.3632">
        <ele>631.08306</ele>
        <time>2022-03-09T12:59:37.464Z</time>
      </trkpt>
      <trkpt lat="42.68302" lon="23.36304">
        <ele>630.322647</ele>
        <time>2022-03-09T12:59:41.441Z</time>
      </trkpt>
      <trkpt lat="42.68306" lon="23.3629">
        <ele>629.651052</ele>
        <time>2022-03-09T12:59:44.442Z</time>
      </trkpt>
      <trkpt lat="42.6831" lon="23.36278">
        <ele>629.062201</ele>
        <time>2022-03-09T12:59:47.429Z</time>
      </trkpt>
      <trkpt lat="42.68314" lon="23.36263">
        <ele>628.348361</ele>
        <time>2022-03-09T12:59:51.440Z</time>
      </trkpt>
      <trkpt lat="42.6832" lon="23.36251">
        <ele>627.670335</ele>
        <time>2022-03-09T12:59:54.446Z</time>
      </trkpt>
      <trkpt lat="42.68326" lon="23.36239">
        <ele>627.026705</ele>
        <time>2022-03-09T12:59:57.433Z</time>
      </trkpt>
      <trkpt lat="42.68332" lon="23.36227">
        <ele>626.339219</ele>
        <time>2022-03-09T13:00:01.450Z</time>
      </trkpt>
      <trkpt lat="42.6834" lon="23.36214">
        <ele>625.585907</ele>
        <time>2022-03-09T13:00:06.445Z</time>
      </trkpt>
      <trkpt lat="42.68344" lon="23.36201">
        <ele>624.957044</ele>
        <time>2022-03-09T13:00:09.435Z</time>
      </trkpt>
      <trkpt lat="42.68348" lon="23.36189">
        <ele>624.357928</ele>
        <time>2022-03-09T13:00:12.468Z</time>
      </trkpt>
      <trkpt lat="42.68353" lon="23.36177">
        <ele>623.729903</ele>
        <time>2022-03-09T13:00:16.460Z</time>
      </trkpt>
      <trkpt lat="42.68355" lon="23.36164">
        <ele>623.137578</ele>
        <time>2022-03-09T13:00:20.430Z</time>
      </trkpt>
      <trkpt lat="42.68357" lon="23.36148">
        <ele>622.406558</ele>
        <time>2022-03-09T13:00:23.427Z</time>
      </trkpt>
      <trkpt lat="42.6836" lon="23.36135">
        <ele>621.766467</ele>
        <time>2022-03-09T13:00:26.449Z</time>
      </trkpt>
      <trkpt lat="42.68365" lon="23.36123">
        <ele>622.042218</ele>
        <time>2022-03-09T13:00:29.450Z</time>
      </trkpt>
      <trkpt lat="42.68369" lon="23.3611">
        <ele>622.593901</ele>
        <time>2022-03-09T13:00:32.433Z</time>
      </trkpt>
      <trkpt lat="42.68372" lon="23.36093">
        <ele>623.278018</ele>
        <time>2022-03-09T13:00:35.442Z</time>
      </trkpt>
      <trkpt lat="42.68377" lon="23.3608">
        <ele>623.83654</ele>
        <time>2022-03-09T13:00:38.453Z</time>
      </trkpt>
      <trkpt lat="42.68382" lon="23.36067">
        <ele>624.435032</ele>
        <time>2022-03-09T13:00:41.428Z</time>
      </trkpt>
      <trkpt lat="42.68386" lon="23.36052">
        <ele>625.04614</ele>
        <time>2022-03-09T13:00:44.438Z</time>
      </trkpt>
      <trkpt lat="42.6839" lon="23.36037">
        <ele>625.673101</ele>
        <time>2022-03-09T13:00:47.437Z</time>
      </trkpt>
      <trkpt lat="42.68394" lon="23.36021">
        <ele>626.357901</ele>
        <time>2022-03-09T13:00:50.446Z</time>
      </trkpt>
      <trkpt lat="42.68398" lon="23.36006">
        <ele>626.965045</ele>
        <time>2022-03-09T13:00:53.443Z</time>
      </trkpt>
      <trkpt lat="42.68403" lon="23.35994">
        <ele>627.497751</ele>
        <time>2022-03-09T13:00:56.431Z</time>
      </trkpt>
      <trkpt lat="42.68409" lon="23.35983">
        <ele>628.028552</ele>
        <time>2022-03-09T13:00:59.442Z</time>
      </trkpt>
      <trkpt lat="42.68414" lon="23.35973">
        <ele>628.512045</ele>
        <time>2022-03-09T13:01:02.458Z</time>
      </trkpt>
      <trkpt lat="42.68421" lon="23.35962">
        <ele>629.058902</ele>
        <time>2022-03-09T13:01:05.445Z</time>
      </trkpt>
      <trkpt lat="42.68426" lon="23.35951">
        <ele>629.595495</ele>
        <time>2022-03-09T13:01:08.471Z</time>
      </trkpt>
      <trkpt lat="42.68432" lon="23.35938">
        <ele>630.200542</ele>
        <time>2022-03-09T13:01:12.446Z</time>
      </trkpt>
      <trkpt lat="42.68437" lon="23.35927">
        <ele>630.695271</ele>
        <time>2022-03-09T13:01:15.483Z</time>
      </trkpt>
      <trkpt lat="42.68441" lon="23.35915">
        <ele>631.204649</ele>
        <time>2022-03-09T13:01:18.429Z</time>
      </trkpt>
      <trkpt lat="42.68444" lon="23.35902">
        <ele>631.342826</ele>
        <time>2022-03-09T13:01:21.462Z</time>
      </trkpt>
      <trkpt lat="42.68447" lon="23.35886">
        <ele>631.492765</ele>
        <time>2022-03-09T13:01:24.432Z</time>
      </trkpt>
      <trkpt lat="42.68451" lon="23.35873">
        <ele>631.630307</ele>
        <time>2022-03-09T13:01:27.437Z</time>
      </trkpt>
      <trkpt lat="42.68455" lon="23.3586">
        <ele>631.75572</ele>
        <time>2022-03-09T13:01:30.457Z</time>
      </trkpt>
      <trkpt lat="42.68461" lon="23.35845">
        <ele>631.915214</ele>
        <time>2022-03-09T13:01:34.460Z</time>
      </trkpt>
      <trkpt lat="42.68465" lon="23.35831">
        <ele>632.056605</ele>
        <time>2022-03-09T13:01:37.436Z</time>
      </trkpt>
      <trkpt lat="42.6847" lon="23.35818">
        <ele>632.187916</ele>
        <time>2022-03-09T13:01:40.434Z</time>
      </trkpt>
      <trkpt lat="42.68474" lon="23.35806">
        <ele>632.312474</ele>
        <time>2022-03-09T13:01:43.431Z</time>
      </trkpt>
      <trkpt lat="42.68476" lon="23.35791">
        <ele>632.457306</ele>
        <time>2022-03-09T13:01:47.443Z</time>
      </trkpt>
      <trkpt lat="42.68479" lon="23.35779">
        <ele>632.575156</ele>
        <time>2022-03-09T13:01:50.453Z</time>
      </trkpt>
      <trkpt lat="42.68483" lon="23.35767">
        <ele>632.698217</ele>
        <time>2022-03-09T13:01:53.444Z</time>
      </trkpt>
      <trkpt lat="42.68486" lon="23.35752">
        <ele>632.836403</ele>
        <time>2022-03-09T13:01:56.440Z</time>
      </trkpt>
      <trkpt lat="42.68488" lon="23.35738">
        <ele>632.973109</ele>
        <time>2022-03-09T13:02:00.448Z</time>
      </trkpt>
      <trkpt lat="42.68494" lon="23.35725">
        <ele>633.110558</ele>
        <time>2022-03-09T13:02:04.431Z</time>
      </trkpt>
      <trkpt lat="42.68501" lon="23.35716">
        <ele>633.227664</ele>
        <time>2022-03-09T13:02:07.462Z</time>
      </trkpt>
      <trkpt lat="42.68506" lon="23.35703">
        <ele>633.365741</ele>
        <time>2022-03-09T13:02:10.431Z</time>
      </trkpt>
      <trkpt lat="42.68511" lon="23.35687">
        <ele>633.479513</ele>
        <time>2022-03-09T13:02:13.445Z</time>
      </trkpt>
      <trkpt lat="42.68514" lon="23.35675">
        <ele>633.432057</ele>
        <time>2022-03-09T13:02:16.437Z</time>
      </trkpt>
      <trkpt lat="42.68518" lon="23.3566">
        <ele>633.375446</ele>
        <time>2022-03-09T13:02:19.472Z</time>
      </trkpt>
      <trkpt lat="42.68522" lon="23.35646">
        <ele>633.321163</ele>
        <time>2022-03-09T13:02:22.449Z</time>
      </trkpt>
      <trkpt lat="42.68527" lon="23.35632">
        <ele>633.267796</ele>
        <time>2022-03-09T13:02:25.445Z</time>
      </trkpt>
      <trkpt lat="42.68532" lon="23.35619">
        <ele>633.215253</ele>
        <time>2022-03-09T13:02:28.435Z</time>
      </trkpt>
      <trkpt lat="42.68534" lon="23.35607">
        <ele>633.169416</ele>
        <time>2022-03-09T13:02:30.427Z</time>
      </trkpt>
      <trkpt lat="42.68537" lon="23.35594">
        <ele>633.122771</ele>
        <time>2022-03-09T13:02:32.434Z</time>
      </trkpt>
      <trkpt lat="42.6854" lon="23.35579">
        <ele>633.066201</ele>
        <time>2022-03-09T13:02:35.439Z</time>
      </trkpt>
      <trkpt lat="42.68545" lon="23.35568">
        <ele>633.021816</ele>
        <time>2022-03-09T13:02:37.455Z</time>
      </trkpt>
      <trkpt lat="42.68551" lon="23.35554">
        <ele>632.964182</ele>
        <time>2022-03-09T13:02:40.435Z</time>
      </trkpt>
      <trkpt lat="42.68558" lon="23.35545">
        <ele>632.91964</ele>
        <time>2022-03-09T13:02:42.425Z</time>
      </trkpt>
      <trkpt lat="42.68563" lon="23.35536">
        <ele>632.87637</ele>
        <time>2022-03-09T13:02:44.443Z</time>
      </trkpt>
      <trkpt lat="42.68569" lon="23.35521">
        <ele>632.816778</ele>
        <time>2022-03-09T13:02:47.444Z</time>
      </trkpt>
      <trkpt lat="42.68573" lon="23.3551">
        <ele>632.772801</ele>
        <time>2022-03-09T13:02:49.432Z</time>
      </trkpt>
      <trkpt lat="42.6858" lon="23.35498">
        <ele>632.719885</ele>
        <time>2022-03-09T13:02:51.431Z</time>
      </trkpt>
      <trkpt lat="42.68587" lon="23.35487">
        <ele>632.668801</ele>
        <time>2022-03-09T13:02:53.465Z</time>
      </trkpt>
      <trkpt lat="42.68592" lon="23.35475">
        <ele>632.587361</ele>
        <time>2022-03-09T13:02:55.465Z</time>
      </trkpt>
      <trkpt lat="42.68596" lon="23.35463">
        <ele>632.07311</ele>
        <time>2022-03-09T13:02:57.434Z</time>
      </trkpt>
      <trkpt lat="42.686" lon="23.35451">
        <ele>631.558931</ele>
        <time>2022-03-09T13:02:59.389Z</time>
      </trkpt>
      <trkpt lat="42.68605" lon="23.3544">
        <ele>631.056431</ele>
        <time>2022-03-09T13:03:01.430Z</time>
      </trkpt>
      <trkpt lat="42.68609" lon="23.35428">
        <ele>630.550506</ele>
        <time>2022-03-09T13:03:03.427Z</time>
      </trkpt>
      <trkpt lat="42.68616" lon="23.35415">
        <ele>629.926979</ele>
        <time>2022-03-09T13:03:05.453Z</time>
      </trkpt>
      <trkpt lat="42.68623" lon="23.35402">
        <ele>629.303315</ele>
        <time>2022-03-09T13:03:07.467Z</time>
      </trkpt>
      <trkpt lat="42.68628" lon="23.3539">
        <ele>628.780277</ele>
        <time>2022-03-09T13:03:09.447Z</time>
      </trkpt>
      <trkpt lat="42.68633" lon="23.35373">
        <ele>628.095563</ele>
        <time>2022-03-09T13:03:12.421Z</time>
      </trkpt>
      <trkpt lat="42.68635" lon="23.35356">
        <ele>627.430888</ele>
        <time>2022-03-09T13:03:15.446Z</time>
      </trkpt>
      <trkpt lat="42.68641" lon="23.35342">
        <ele>626.796936</ele>
        <time>2022-03-09T13:03:18.427Z</time>
      </trkpt>
      <trkpt lat="42.68648" lon="23.35328">
        <ele>626.135824</ele>
        <time>2022-03-09T13:03:21.434Z</time>
      </trkpt>
      <trkpt lat="42.68656" lon="23.35315">
        <ele>625.507557</ele>
        <time>2022-03-09T13:03:23.434Z</time>
      </trkpt>
      <trkpt lat="42.68663" lon="23.35304">
        <ele>624.924322</ele>
        <time>2022-03-09T13:03:25.431Z</time>
      </trkpt>
      <trkpt lat="42.68669" lon="23.35294">
        <ele>624.449678</ele>
        <time>2022-03-09T13:03:27.477Z</time>
      </trkpt>
      <trkpt lat="42.68673" lon="23.35283">
        <ele>623.939786</ele>
        <time>2022-03-09T13:03:29.458Z</time>
      </trkpt>
      <trkpt lat="42.68679" lon="23.35271">
        <ele>623.41516</ele>
        <time>2022-03-09T13:03:31.463Z</time>
      </trkpt>
      <trkpt lat="42.68685" lon="23.35261">
        <ele>622.500619</ele>
        <time>2022-03-09T13:03:33.493Z</time>
      </trkpt>
      <trkpt lat="42.68689" lon="23.35247">
        <ele>621.116759</ele>
        <time>2022-03-09T13:03:36.420Z</time>
      </trkpt>
      <trkpt lat="42.68694" lon="23.35235">
        <ele>619.842743</ele>
        <time>2022-03-09T13:03:41.447Z</time>
      </trkpt>
      <trkpt lat="42.68702" lon="23.35213">
        <ele>617.495552</ele>
        <time>2022-03-09T13:04:56.481Z</time>
      </trkpt>
      <trkpt lat="42.687" lon="23.35197">
        <ele>616.01456</ele>
        <time>2022-03-09T13:05:01.426Z</time>
      </trkpt>
      <trkpt lat="42.68693" lon="23.35184">
        <ele>614.548965</ele>
        <time>2022-03-09T13:05:04.439Z</time>
      </trkpt>
      <trkpt lat="42.68686" lon="23.3517">
        <ele>612.977911</ele>
        <time>2022-03-09T13:05:07.411Z</time>
      </trkpt>
      <trkpt lat="42.68676" lon="23.35159">
        <ele>611.352597</ele>
        <time>2022-03-09T13:05:10.405Z</time>
      </trkpt>
      <trkpt lat="42.68666" lon="23.35149">
        <ele>609.801633</ele>
        <time>2022-03-09T13:05:13.426Z</time>
      </trkpt>
      <trkpt lat="42.68656" lon="23.35139">
        <ele>608.239605</ele>
        <time>2022-03-09T13:05:16.442Z</time>
      </trkpt>
      <trkpt lat="42.68646" lon="23.35129">
        <ele>606.714458</ele>
        <time>2022-03-09T13:05:19.484Z</time>
      </trkpt>
      <trkpt lat="42.68638" lon="23.35119">
        <ele>605.323643</ele>
        <time>2022-03-09T13:05:22.428Z</time>
      </trkpt>
      <trkpt lat="42.6863" lon="23.35111">
        <ele>604.060165</ele>
        <time>2022-03-09T13:05:25.454Z</time>
      </trkpt>
      <trkpt lat="42.68623" lon="23.351">
        <ele>602.718385</ele>
        <time>2022-03-09T13:05:28.427Z</time>
      </trkpt>
      <trkpt lat="42.68617" lon="23.35088">
        <ele>601.320151</ele>
        <time>2022-03-09T13:05:31.438Z</time>
      </trkpt>
      <trkpt lat="42.6861" lon="23.35076">
        <ele>600.562008</ele>
        <time>2022-03-09T13:05:34.438Z</time>
      </trkpt>
      <trkpt lat="42.68602" lon="23.35066">
        <ele>600.725756</ele>
        <time>2022-03-09T13:05:37.428Z</time>
      </trkpt>
      <trkpt lat="42.68594" lon="23.35055">
        <ele>600.883157</ele>
        <time>2022-03-09T13:05:40.467Z</time>
      </trkpt>
      <trkpt lat="42.68587" lon="23.35045">
        <ele>601.03903</ele>
        <time>2022-03-09T13:05:43.429Z</time>
      </trkpt>
      <trkpt lat="42.68587" lon="23.35029">
        <ele>601.211738</ele>
        <time>2022-03-09T13:05:46.417Z</time>
      </trkpt>
      <trkpt lat="42.68591" lon="23.35017">
        <ele>601.349594</ele>
        <time>2022-03-09T13:05:48.430Z</time>
      </trkpt>
      <trkpt lat="42.68596" lon="23.35007">
        <ele>601.480298</ele>
        <time>2022-03-09T13:05:50.475Z</time>
      </trkpt>
      <trkpt lat="42.68603" lon="23.34992">
        <ele>601.668505</ele>
        <time>2022-03-09T13:05:53.437Z</time>
      </trkpt>
      <trkpt lat="42.68608" lon="23.34981">
        <ele>601.805355</ele>
        <time>2022-03-09T13:05:55.428Z</time>
      </trkpt>
      <trkpt lat="42.68613" lon="23.34969">
        <ele>601.954919</ele>
        <time>2022-03-09T13:05:57.427Z</time>
      </trkpt>
      <trkpt lat="42.68621" lon="23.34955">
        <ele>602.139661</ele>
        <time>2022-03-09T13:05:59.427Z</time>
      </trkpt>
      <trkpt lat="42.68629" lon="23.34944">
        <ele>602.303404</ele>
        <time>2022-03-09T13:06:01.431Z</time>
      </trkpt>
      <trkpt lat="42.68636" lon="23.34934">
        <ele>602.447308</ele>
        <time>2022-03-09T13:06:03.427Z</time>
      </trkpt>
      <trkpt lat="42.68642" lon="23.34921">
        <ele>602.615806</ele>
        <time>2022-03-09T13:06:05.440Z</time>
      </trkpt>
      <trkpt lat="42.68647" lon="23.34907">
        <ele>602.786213</ele>
        <time>2022-03-09T13:06:07.446Z</time>
      </trkpt>
      <trkpt lat="42.68653" lon="23.34894">
        <ele>602.94548</ele>
        <time>2022-03-09T13:06:09.422Z</time>
      </trkpt>
      <trkpt lat="42.68659" lon="23.34885">
        <ele>603.079156</ele>
        <time>2022-03-09T13:06:11.462Z</time>
      </trkpt>
      <trkpt lat="42.68668" lon="23.34877">
        <ele>603.158744</ele>
        <time>2022-03-09T13:06:15.430Z</time>
      </trkpt>
      <trkpt lat="42.68675" lon="23.34868">
        <ele>603.212411</ele>
        <time>2022-03-09T13:06:18.435Z</time>
      </trkpt>
      <trkpt lat="42.68682" lon="23.34859">
        <ele>603.265321</ele>
        <time>2022-03-09T13:06:21.440Z</time>
      </trkpt>
      <trkpt lat="42.68688" lon="23.34847">
        <ele>603.32999</ele>
        <time>2022-03-09T13:06:25.453Z</time>
      </trkpt>
      <trkpt lat="42.68692" lon="23.34833">
        <ele>603.389937</ele>
        <time>2022-03-09T13:06:28.433Z</time>
      </trkpt>
      <trkpt lat="42.68699" lon="23.34823">
        <ele>603.450495</ele>
        <time>2022-03-09T13:06:33.418Z</time>
      </trkpt>
      <trkpt lat="42.68707" lon="23.34812">
        <ele>603.513033</ele>
        <time>2022-03-09T13:06:38.449Z</time>
      </trkpt>
      <trkpt lat="42.68713" lon="23.34802">
        <ele>603.567196</ele>
        <time>2022-03-09T13:06:42.439Z</time>
      </trkpt>
      <trkpt lat="42.68718" lon="23.34793">
        <ele>603.618683</ele>
        <time>2022-03-09T13:06:46.437Z</time>
      </trkpt>
      <trkpt lat="42.68725" lon="23.34783">
        <ele>603.673377</ele>
        <time>2022-03-09T13:06:50.463Z</time>
      </trkpt>
      <trkpt lat="42.68731" lon="23.34773">
        <ele>603.727647</ele>
        <time>2022-03-09T13:06:54.465Z</time>
      </trkpt>
      <trkpt lat="42.68736" lon="23.34763">
        <ele>603.780141</ele>
        <time>2022-03-09T13:06:58.421Z</time>
      </trkpt>
      <trkpt lat="42.68739" lon="23.34751">
        <ele>603.832233</ele>
        <time>2022-03-09T13:07:01.458Z</time>
      </trkpt>
      <trkpt lat="42.68744" lon="23.34739">
        <ele>603.888157</ele>
        <time>2022-03-09T13:07:05.453Z</time>
      </trkpt>
      <trkpt lat="42.6875" lon="23.3473">
        <ele>603.940775</ele>
        <time>2022-03-09T13:07:09.413Z</time>
      </trkpt>
      <trkpt lat="42.68758" lon="23.34722">
        <ele>603.997771</ele>
        <time>2022-03-09T13:07:14.463Z</time>
      </trkpt>
      <trkpt lat="42.68763" lon="23.34708">
        <ele>604.062017</ele>
        <time>2022-03-09T13:07:18.449Z</time>
      </trkpt>
      <trkpt lat="42.68771" lon="23.34699">
        <ele>604.12031</ele>
        <time>2022-03-09T13:07:22.444Z</time>
      </trkpt>
      <trkpt lat="42.68781" lon="23.34692">
        <ele>604.559394</ele>
        <time>2022-03-09T13:07:27.478Z</time>
      </trkpt>
      <trkpt lat="42.68789" lon="23.3468">
        <ele>605.14649</ele>
        <time>2022-03-09T13:07:31.441Z</time>
      </trkpt>
      <trkpt lat="42.68795" lon="23.34667">
        <ele>605.695474</ele>
        <time>2022-03-09T13:07:35.439Z</time>
      </trkpt>
      <trkpt lat="42.68803" lon="23.34658">
        <ele>606.189472</ele>
        <time>2022-03-09T13:07:39.461Z</time>
      </trkpt>
      <trkpt lat="42.68809" lon="23.34646">
        <ele>606.715757</ele>
        <time>2022-03-09T13:07:44.427Z</time>
      </trkpt>
      <trkpt lat="42.68813" lon="23.34633">
        <ele>607.216387</ele>
        <time>2022-03-09T13:07:48.429Z</time>
      </trkpt>
      <trkpt lat="42.68818" lon="23.34622">
        <ele>607.691184</ele>
        <time>2022-03-09T13:07:52.423Z</time>
      </trkpt>
      <trkpt lat="42.68823" lon="23.34609">
        <ele>608.216744</ele>
        <time>2022-03-09T13:07:56.438Z</time>
      </trkpt>
      <trkpt lat="42.68829" lon="23.34596">
        <ele>608.755568</ele>
        <time>2022-03-09T13:08:00.436Z</time>
      </trkpt>
      <trkpt lat="42.68836" lon="23.34585">
        <ele>609.315022</ele>
        <time>2022-03-09T13:08:04.439Z</time>
      </trkpt>
      <trkpt lat="42.68846" lon="23.34581">
        <ele>609.793222</ele>
        <time>2022-03-09T13:08:09.453Z</time>
      </trkpt>
      <trkpt lat="42.6885" lon="23.34592">
        <ele>610.252435</ele>
        <time>2022-03-09T13:08:15.428Z</time>
      </trkpt>
      <trkpt lat="42.68853" lon="23.34604">
        <ele>610.694991</ele>
        <time>2022-03-09T13:08:22.450Z</time>
      </trkpt>
      <trkpt lat="42.68862" lon="23.34611">
        <ele>611.216625</ele>
        <time>2022-03-09T13:08:26.452Z</time>
      </trkpt>
      <trkpt lat="42.6887" lon="23.3462">
        <ele>611.737726</ele>
        <time>2022-03-09T13:08:30.451Z</time>
      </trkpt>
      <trkpt lat="42.68879" lon="23.34623">
        <ele>612.201554</ele>
        <time>2022-03-09T13:08:34.483Z</time>
      </trkpt>
      <trkpt lat="42.68889" lon="23.34628">
        <ele>612.700558</ele>
        <time>2022-03-09T13:08:41.461Z</time>
      </trkpt>
      <trkpt lat="42.68896" lon="23.34639">
        <ele>612.801586</ele>
        <time>2022-03-09T13:08:46.441Z</time>
      </trkpt>
      <trkpt lat="42.68904" lon="23.34645">
        <ele>612.537758</ele>
        <time>2022-03-09T13:08:51.426Z</time>
      </trkpt>
      <trkpt lat="42.68909" lon="23.34657">
        <ele>612.262736</ele>
        <time>2022-03-09T13:08:56.418Z</time>
      </trkpt>
      <trkpt lat="42.68916" lon="23.34665">
        <ele>612.008894</ele>
        <time>2022-03-09T13:09:00.419Z</time>
      </trkpt>
      <trkpt lat="42.68925" lon="23.34671">
        <ele>611.717757</ele>
        <time>2022-03-09T13:09:05.418Z</time>
      </trkpt>
      <trkpt lat="42.68934" lon="23.34678">
        <ele>611.414081</ele>
        <time>2022-03-09T13:09:10.411Z</time>
      </trkpt>
      <trkpt lat="42.68944" lon="23.3467">
        <ele>611.101913</ele>
        <time>2022-03-09T13:09:15.417Z</time>
      </trkpt>
      <trkpt lat="42.68951" lon="23.34659">
        <ele>610.792838</ele>
        <time>2022-03-09T13:09:19.422Z</time>
      </trkpt>
      <trkpt lat="42.68958" lon="23.34649">
        <ele>610.500552</ele>
        <time>2022-03-09T13:09:23.433Z</time>
      </trkpt>
      <trkpt lat="42.68966" lon="23.3464">
        <ele>610.227452</ele>
        <time>2022-03-09T13:09:26.453Z</time>
      </trkpt>
      <trkpt lat="42.68972" lon="23.34631">
        <ele>609.957599</ele>
        <time>2022-03-09T13:09:29.439Z</time>
      </trkpt>
      <trkpt lat="42.68979" lon="23.3462">
        <ele>609.657589</ele>
        <time>2022-03-09T13:09:32.433Z</time>
      </trkpt>
      <trkpt lat="42.68985" lon="23.34606">
        <ele>609.341285</ele>
        <time>2022-03-09T13:09:35.430Z</time>
      </trkpt>
      <trkpt lat="42.68991" lon="23.34591">
        <ele>608.975001</ele>
        <time>2022-03-09T13:09:39.481Z</time>
      </trkpt>
      <trkpt lat="42.68998" lon="23.34578">
        <ele>608.644285</ele>
        <time>2022-03-09T13:09:42.429Z</time>
      </trkpt>
      <trkpt lat="42.69003" lon="23.34568">
        <ele>608.388695</ele>
        <time>2022-03-09T13:09:45.441Z</time>
      </trkpt>
      <trkpt lat="42.6901" lon="23.34558">
        <ele>608.118525</ele>
        <time>2022-03-09T13:09:49.441Z</time>
      </trkpt>
      <trkpt lat="42.69011" lon="23.34545">
        <ele>607.794775</ele>
        <time>2022-03-09T13:09:54.420Z</time>
      </trkpt>
      <trkpt lat="42.69002" lon="23.34535">
        <ele>607.188993</ele>
        <time>2022-03-09T13:09:59.419Z</time>
      </trkpt>
      <trkpt lat="42.68996" lon="23.34525">
        <ele>606.681387</ele>
        <time>2022-03-09T13:10:03.424Z</time>
      </trkpt>
      <trkpt lat="42.68987" lon="23.34517">
        <ele>606.081755</ele>
        <time>2022-03-09T13:10:08.433Z</time>
      </trkpt>
      <trkpt lat="42.68979" lon="23.34508">
        <ele>605.516533</ele>
        <time>2022-03-09T13:10:13.419Z</time>
      </trkpt>
      <trkpt lat="42.68971" lon="23.34501">
        <ele>605.026648</ele>
        <time>2022-03-09T13:10:17.414Z</time>
      </trkpt>
      <trkpt lat="42.68964" lon="23.34491">
        <ele>604.493158</ele>
        <time>2022-03-09T13:10:21.460Z</time>
      </trkpt>
      <trkpt lat="42.68957" lon="23.34482">
        <ele>603.937324</ele>
        <time>2022-03-09T13:10:25.432Z</time>
      </trkpt>
      <trkpt lat="42.68948" lon="23.34475">
        <ele>603.405559</ele>
        <time>2022-03-09T13:10:29.432Z</time>
      </trkpt>
      <trkpt lat="42.68942" lon="23.34465">
        <ele>602.883652</ele>
        <time>2022-03-09T13:10:33.442Z</time>
      </trkpt>
      <trkpt lat="42.68933" lon="23.34459">
        <ele>602.352872</ele>
        <time>2022-03-09T13:10:38.438Z</time>
      </trkpt>
      <trkpt lat="42.68925" lon="23.3445">
        <ele>601.810232</ele>
        <time>2022-03-09T13:10:43.507Z</time>
      </trkpt>
      <trkpt lat="42.68916" lon="23.34444">
        <ele>601.26071</ele>
        <time>2022-03-09T13:10:48.440Z</time>
      </trkpt>
      <trkpt lat="42.68912" lon="23.34432">
        <ele>600.709427</ele>
        <time>2022-03-09T13:10:54.423Z</time>
      </trkpt>
      <trkpt lat="42.68912" lon="23.34419">
        <ele>600.189481</ele>
        <time>2022-03-09T13:10:58.412Z</time>
      </trkpt>
      <trkpt lat="42.68915" lon="23.34406">
        <ele>599.679387</ele>
        <time>2022-03-09T13:11:03.431Z</time>
      </trkpt>
      <trkpt lat="42.68918" lon="23.34391">
        <ele>599.071645</ele>
        <time>2022-03-09T13:11:08.442Z</time>
      </trkpt>
      <trkpt lat="42.68923" lon="23.3438">
        <ele>598.525202</ele>
        <time>2022-03-09T13:11:12.428Z</time>
      </trkpt>
      <trkpt lat="42.68928" lon="23.34366">
        <ele>598.439736</ele>
        <time>2022-03-09T13:11:16.414Z</time>
      </trkpt>
      <trkpt lat="42.68931" lon="23.34352">
        <ele>598.952227</ele>
        <time>2022-03-09T13:11:19.407Z</time>
      </trkpt>
      <trkpt lat="42.68939" lon="23.34341">
        <ele>599.494934</ele>
        <time>2022-03-09T13:11:23.417Z</time>
      </trkpt>
      <trkpt lat="42.68945" lon="23.3433">
        <ele>599.982791</ele>
        <time>2022-03-09T13:11:31.414Z</time>
      </trkpt>
      <trkpt lat="42.68948" lon="23.34317">
        <ele>600.438612</ele>
        <time>2022-03-09T13:11:35.418Z</time>
      </trkpt>
      <trkpt lat="42.68951" lon="23.34304">
        <ele>600.931305</ele>
        <time>2022-03-09T13:11:39.408Z</time>
      </trkpt>
      <trkpt lat="42.68954" lon="23.34291">
        <ele>601.405089</ele>
        <time>2022-03-09T13:11:44.437Z</time>
      </trkpt>
      <trkpt lat="42.68957" lon="23.34278">
        <ele>601.881129</ele>
        <time>2022-03-09T13:11:47.419Z</time>
      </trkpt>
      <trkpt lat="42.68959" lon="23.34264">
        <ele>602.408439</ele>
        <time>2022-03-09T13:11:51.420Z</time>
      </trkpt>
      <trkpt lat="42.68964" lon="23.34253">
        <ele>602.859002</ele>
        <time>2022-03-09T13:11:54.424Z</time>
      </trkpt>
      <trkpt lat="42.68971" lon="23.34241">
        <ele>603.369249</ele>
        <time>2022-03-09T13:11:58.436Z</time>
      </trkpt>
      <trkpt lat="42.68978" lon="23.3423">
        <ele>603.904755</ele>
        <time>2022-03-09T13:12:03.438Z</time>
      </trkpt>
      <trkpt lat="42.6898" lon="23.34218">
        <ele>604.337541</ele>
        <time>2022-03-09T13:12:06.423Z</time>
      </trkpt>
      <trkpt lat="42.68985" lon="23.34206">
        <ele>604.836618</ele>
        <time>2022-03-09T13:12:11.433Z</time>
      </trkpt>
      <trkpt lat="42.68988" lon="23.3419">
        <ele>605.379007</ele>
        <time>2022-03-09T13:12:15.461Z</time>
      </trkpt>
      <trkpt lat="42.68992" lon="23.34179">
        <ele>605.842249</ele>
        <time>2022-03-09T13:12:19.437Z</time>
      </trkpt>
      <trkpt lat="42.69" lon="23.34165">
        <ele>606.454916</ele>
        <time>2022-03-09T13:12:23.427Z</time>
      </trkpt>
      <trkpt lat="42.69002" lon="23.34153">
        <ele>606.881137</ele>
        <time>2022-03-09T13:12:28.473Z</time>
      </trkpt>
      <trkpt lat="42.69002" lon="23.34138">
        <ele>607.35182</ele>
        <time>2022-03-09T13:12:33.433Z</time>
      </trkpt>
      <trkpt lat="42.69003" lon="23.34126">
        <ele>607.738052</ele>
        <time>2022-03-09T13:12:37.420Z</time>
      </trkpt>
      <trkpt lat="42.69004" lon="23.34113">
        <ele>608.13976</ele>
        <time>2022-03-09T13:12:43.413Z</time>
      </trkpt>
      <trkpt lat="42.69007" lon="23.341">
        <ele>608.563235</ele>
        <time>2022-03-09T13:12:47.418Z</time>
      </trkpt>
      <trkpt lat="42.69012" lon="23.34086">
        <ele>609.045829</ele>
        <time>2022-03-09T13:12:51.459Z</time>
      </trkpt>
      <trkpt lat="42.69015" lon="23.34071">
        <ele>609.527483</ele>
        <time>2022-03-09T13:12:55.458Z</time>
      </trkpt>
      <trkpt lat="42.6902" lon="23.34059">
        <ele>609.945493</ele>
        <time>2022-03-09T13:13:00.434Z</time>
      </trkpt>
      <trkpt lat="42.69021" lon="23.34045">
        <ele>610.38084</ele>
        <time>2022-03-09T13:13:04.460Z</time>
      </trkpt>
      <trkpt lat="42.69023" lon="23.34033">
        <ele>610.77047</ele>
        <time>2022-03-09T13:13:07.447Z</time>
      </trkpt>
      <trkpt lat="42.69025" lon="23.34019">
        <ele>611.210476</ele>
        <time>2022-03-09T13:13:10.420Z</time>
      </trkpt>
      <trkpt lat="42.69028" lon="23.34006">
        <ele>611.649479</ele>
        <time>2022-03-09T13:13:15.412Z</time>
      </trkpt>
      <trkpt lat="42.69031" lon="23.33993">
        <ele>612.050481</ele>
        <time>2022-03-09T13:13:22.421Z</time>
      </trkpt>
      <trkpt lat="42.6903" lon="23.33979">
        <ele>612.49866</ele>
        <time>2022-03-09T13:13:28.424Z</time>
      </trkpt>
      <trkpt lat="42.69028" lon="23.33967">
        <ele>612.891846</ele>
        <time>2022-03-09T13:13:34.424Z</time>
      </trkpt>
      <trkpt lat="42.69028" lon="23.33952">
        <ele>613.340788</ele>
        <time>2022-03-09T13:13:39.403Z</time>
      </trkpt>
      <trkpt lat="42.69028" lon="23.33936">
        <ele>613.839685</ele>
        <time>2022-03-09T13:13:43.415Z</time>
      </trkpt>
      <trkpt lat="42.69032" lon="23.33925">
        <ele>614.233432</ele>
        <time>2022-03-09T13:13:48.457Z</time>
      </trkpt>
      <trkpt lat="42.69033" lon="23.33911">
        <ele>613.550918</ele>
        <time>2022-03-09T13:13:53.407Z</time>
      </trkpt>
      <trkpt lat="42.69035" lon="23.33898">
        <ele>612.178202</ele>
        <time>2022-03-09T13:13:58.428Z</time>
      </trkpt>
      <trkpt lat="42.69039" lon="23.33885">
        <ele>610.552492</ele>
        <time>2022-03-09T13:14:03.460Z</time>
      </trkpt>
      <trkpt lat="42.69042" lon="23.3387">
        <ele>608.848148</ele>
        <time>2022-03-09T13:14:07.428Z</time>
      </trkpt>
      <trkpt lat="42.69046" lon="23.33856">
        <ele>607.177849</ele>
        <time>2022-03-09T13:14:10.425Z</time>
      </trkpt>
      <trkpt lat="42.69046" lon="23.33841">
        <ele>605.470462</ele>
        <time>2022-03-09T13:14:14.447Z</time>
      </trkpt>
      <trkpt lat="42.69047" lon="23.33828">
        <ele>604.004473</ele>
        <time>2022-03-09T13:14:18.428Z</time>
      </trkpt>
      <trkpt lat="42.69052" lon="23.33814">
        <ele>602.318575</ele>
        <time>2022-03-09T13:14:23.465Z</time>
      </trkpt>
      <trkpt lat="42.69058" lon="23.33804">
        <ele>600.794672</ele>
        <time>2022-03-09T13:14:26.433Z</time>
      </trkpt>
      <trkpt lat="42.69064" lon="23.33791">
        <ele>599.098692</ele>
        <time>2022-03-09T13:14:29.427Z</time>
      </trkpt>
      <trkpt lat="42.69069" lon="23.33777">
        <ele>597.339384</ele>
        <time>2022-03-09T13:14:32.421Z</time>
      </trkpt>
      <trkpt lat="42.69075" lon="23.33764">
        <ele>595.656521</ele>
        <time>2022-03-09T13:14:35.435Z</time>
      </trkpt>
      <trkpt lat="42.69081" lon="23.33752">
        <ele>594.037962</ele>
        <time>2022-03-09T13:14:39.488Z</time>
      </trkpt>
      <trkpt lat="42.69085" lon="23.3374">
        <ele>592.639228</ele>
        <time>2022-03-09T13:14:44.436Z</time>
      </trkpt>
      <trkpt lat="42.69075" lon="23.33717">
        <ele>589.684841</ele>
        <time>2022-03-09T13:15:07.439Z</time>
      </trkpt>
      <trkpt lat="42.6907" lon="23.33707">
        <ele>588.264321</ele>
        <time>2022-03-09T13:15:10.433Z</time>
      </trkpt>
      <trkpt lat="42.69065" lon="23.33695">
        <ele>587.123195</ele>
        <time>2022-03-09T13:15:13.435Z</time>
      </trkpt>
      <trkpt lat="42.69059" lon="23.33684">
        <ele>587.044459</ele>
        <time>2022-03-09T13:15:16.448Z</time>
      </trkpt>
      <trkpt lat="42.69052" lon="23.33673">
        <ele>586.965577</ele>
        <time>2022-03-09T13:15:19.468Z</time>
      </trkpt>
      <trkpt lat="42.69045" lon="23.33662">
        <ele>586.886371</ele>
        <time>2022-03-09T13:15:22.430Z</time>
      </trkpt>
      <trkpt lat="42.69037" lon="23.3365">
        <ele>586.79827</ele>
        <time>2022-03-09T13:15:26.466Z</time>
      </trkpt>
      <trkpt lat="42.69031" lon="23.33638">
        <ele>586.71417</ele>
        <time>2022-03-09T13:15:29.472Z</time>
      </trkpt>
      <trkpt lat="42.69023" lon="23.33625">
        <ele>586.621008</ele>
        <time>2022-03-09T13:15:32.443Z</time>
      </trkpt>
      <trkpt lat="42.69015" lon="23.33611">
        <ele>586.525242</ele>
        <time>2022-03-09T13:15:35.433Z</time>
      </trkpt>
      <trkpt lat="42.69007" lon="23.33599">
        <ele>586.43281</ele>
        <time>2022-03-09T13:15:38.433Z</time>
      </trkpt>
      <trkpt lat="42.68999" lon="23.33587">
        <ele>586.345018</ele>
        <time>2022-03-09T13:15:41.440Z</time>
      </trkpt>
      <trkpt lat="42.68991" lon="23.33576">
        <ele>586.259505</ele>
        <time>2022-03-09T13:15:44.468Z</time>
      </trkpt>
      <trkpt lat="42.68984" lon="23.33566">
        <ele>586.17809</ele>
        <time>2022-03-09T13:15:47.451Z</time>
      </trkpt>
      <trkpt lat="42.68977" lon="23.33555">
        <ele>586.098454</ele>
        <time>2022-03-09T13:15:50.443Z</time>
      </trkpt>
      <trkpt lat="42.68971" lon="23.33544">
        <ele>586.023428</ele>
        <time>2022-03-09T13:15:53.452Z</time>
      </trkpt>
      <trkpt lat="42.68964" lon="23.33535">
        <ele>585.954028</ele>
        <time>2022-03-09T13:15:56.438Z</time>
      </trkpt>
      <trkpt lat="42.68957" lon="23.33526">
        <ele>585.873281</ele>
        <time>2022-03-09T13:16:00.454Z</time>
      </trkpt>
      <trkpt lat="42.6895" lon="23.33516">
        <ele>585.80174</ele>
        <time>2022-03-09T13:16:05.449Z</time>
      </trkpt>
      <trkpt lat="42.68945" lon="23.33505">
        <ele>585.737833</ele>
        <time>2022-03-09T13:16:11.432Z</time>
      </trkpt>
      <trkpt lat="42.68938" lon="23.33495">
        <ele>585.674922</ele>
        <time>2022-03-09T13:16:15.431Z</time>
      </trkpt>
      <trkpt lat="42.68933" lon="23.33484">
        <ele>585.611798</ele>
        <time>2022-03-09T13:16:18.433Z</time>
      </trkpt>
      <trkpt lat="42.68924" lon="23.33473">
        <ele>585.537062</ele>
        <time>2022-03-09T13:16:21.427Z</time>
      </trkpt>
      <trkpt lat="42.68916" lon="23.33462">
        <ele>585.464001</ele>
        <time>2022-03-09T13:16:24.429Z</time>
      </trkpt>
      <trkpt lat="42.68909" lon="23.33451">
        <ele>585.394974</ele>
        <time>2022-03-09T13:16:27.449Z</time>
      </trkpt>
      <trkpt lat="42.68903" lon="23.3344">
        <ele>585.331227</ele>
        <time>2022-03-09T13:16:30.435Z</time>
      </trkpt>
      <trkpt lat="42.68896" lon="23.3343">
        <ele>585.268045</ele>
        <time>2022-03-09T13:16:33.452Z</time>
      </trkpt>
      <trkpt lat="42.6889" lon="23.3342">
        <ele>585.203098</ele>
        <time>2022-03-09T13:16:36.440Z</time>
      </trkpt>
      <trkpt lat="42.68883" lon="23.3341">
        <ele>585.142797</ele>
        <time>2022-03-09T13:16:39.473Z</time>
      </trkpt>
      <trkpt lat="42.68878" lon="23.33399">
        <ele>585.080744</ele>
        <time>2022-03-09T13:16:42.459Z</time>
      </trkpt>
      <trkpt lat="42.68877" lon="23.33386">
        <ele>585.019427</ele>
        <time>2022-03-09T13:16:45.419Z</time>
      </trkpt>
      <trkpt lat="42.68881" lon="23.33374">
        <ele>584.957774</ele>
        <time>2022-03-09T13:16:48.451Z</time>
      </trkpt>
      <trkpt lat="42.68887" lon="23.33363">
        <ele>584.893515</ele>
        <time>2022-03-09T13:16:51.453Z</time>
      </trkpt>
      <trkpt lat="42.68891" lon="23.33351">
        <ele>584.832821</ele>
        <time>2022-03-09T13:16:54.437Z</time>
      </trkpt>
      <trkpt lat="42.68897" lon="23.33341">
        <ele>584.771564</ele>
        <time>2022-03-09T13:16:57.455Z</time>
      </trkpt>
      <trkpt lat="42.68901" lon="23.33329">
        <ele>584.708235</ele>
        <time>2022-03-09T13:17:00.464Z</time>
      </trkpt>
      <trkpt lat="42.68907" lon="23.33318">
        <ele>584.648119</ele>
        <time>2022-03-09T13:17:03.445Z</time>
      </trkpt>
      <trkpt lat="42.68912" lon="23.33307">
        <ele>585.026576</ele>
        <time>2022-03-09T13:17:06.431Z</time>
      </trkpt>
      <trkpt lat="42.6892" lon="23.33297">
        <ele>585.562512</ele>
        <time>2022-03-09T13:17:09.434Z</time>
      </trkpt>
      <trkpt lat="42.68928" lon="23.33288">
        <ele>586.141811</ele>
        <time>2022-03-09T13:17:12.464Z</time>
      </trkpt>
      <trkpt lat="42.68934" lon="23.33278">
        <ele>586.617758</ele>
        <time>2022-03-09T13:17:15.442Z</time>
      </trkpt>
      <trkpt lat="42.68941" lon="23.33267">
        <ele>587.153787</ele>
        <time>2022-03-09T13:17:18.463Z</time>
      </trkpt>
      <trkpt lat="42.68946" lon="23.33256">
        <ele>587.678676</ele>
        <time>2022-03-09T13:17:21.449Z</time>
      </trkpt>
      <trkpt lat="42.68953" lon="23.33242">
        <ele>588.305639</ele>
        <time>2022-03-09T13:17:25.441Z</time>
      </trkpt>
      <trkpt lat="42.68959" lon="23.33233">
        <ele>588.783941</ele>
        <time>2022-03-09T13:17:28.442Z</time>
      </trkpt>
      <trkpt lat="42.68967" lon="23.3322">
        <ele>589.390537</ele>
        <time>2022-03-09T13:17:32.447Z</time>
      </trkpt>
      <trkpt lat="42.68975" lon="23.33209">
        <ele>589.981695</ele>
        <time>2022-03-09T13:17:36.436Z</time>
      </trkpt>
      <trkpt lat="42.68982" lon="23.33199">
        <ele>590.517229</ele>
        <time>2022-03-09T13:17:40.438Z</time>
      </trkpt>
      <trkpt lat="42.68985" lon="23.33185">
        <ele>591.08312</ele>
        <time>2022-03-09T13:17:45.428Z</time>
      </trkpt>
      <trkpt lat="42.6899" lon="23.33175">
        <ele>591.554501</ele>
        <time>2022-03-09T13:17:49.440Z</time>
      </trkpt>
      <trkpt lat="42.68999" lon="23.33168">
        <ele>592.065629</ele>
        <time>2022-03-09T13:17:54.461Z</time>
      </trkpt>
      <trkpt lat="42.69005" lon="23.33158">
        <ele>592.536785</ele>
        <time>2022-03-09T13:18:06.439Z</time>
      </trkpt>
      <trkpt lat="42.69009" lon="23.33145">
        <ele>593.095768</ele>
        <time>2022-03-09T13:18:10.454Z</time>
      </trkpt>
      <trkpt lat="42.69015" lon="23.33134">
        <ele>593.591246</ele>
        <time>2022-03-09T13:18:13.438Z</time>
      </trkpt>
      <trkpt lat="42.69022" lon="23.33122">
        <ele>593.922556</ele>
        <time>2022-03-09T13:18:16.437Z</time>
      </trkpt>
      <trkpt lat="42.69029" lon="23.3311">
        <ele>593.922556</ele>
        <time>2022-03-09T13:18:19.442Z</time>
      </trkpt>
      <trkpt lat="42.69037" lon="23.33101">
        <ele>593.922556</ele>
        <time>2022-03-09T13:18:22.432Z</time>
      </trkpt>
      <trkpt lat="42.69042" lon="23.33091">
        <ele>593.922556</ele>
        <time>2022-03-09T13:18:25.440Z</time>
      </trkpt>
      <trkpt lat="42.69048" lon="23.3308">
        <ele>593.922556</ele>
        <time>2022-03-09T13:18:28.438Z</time>
      </trkpt>
      <trkpt lat="42.69049" lon="23.33067">
        <ele>593.922556</ele>
        <time>2022-03-09T13:18:31.432Z</time>
      </trkpt>
      <trkpt lat="42.69052" lon="23.33055">
        <ele>593.922556</ele>
        <time>2022-03-09T13:18:34.436Z</time>
      </trkpt>
      <trkpt lat="42.69058" lon="23.33042">
        <ele>593.922556</ele>
        <time>2022-03-09T13:18:38.432Z</time>
      </trkpt>
      <trkpt lat="42.69063" lon="23.33031">
        <ele>593.922556</ele>
        <time>2022-03-09T13:18:42.464Z</time>
      </trkpt>
      <trkpt lat="42.69069" lon="23.33018">
        <ele>593.922556</ele>
        <time>2022-03-09T13:18:46.444Z</time>
      </trkpt>
      <trkpt lat="42.69075" lon="23.33005">
        <ele>593.922556</ele>
        <time>2022-03-09T13:18:50.445Z</time>
      </trkpt>
      <trkpt lat="42.6908" lon="23.32994">
        <ele>593.922556</ele>
        <time>2022-03-09T13:18:53.454Z</time>
      </trkpt>
      <trkpt lat="42.69087" lon="23.32985">
        <ele>593.922556</ele>
        <time>2022-03-09T13:18:56.427Z</time>
      </trkpt>
      <trkpt lat="42.69093" lon="23.32975">
        <ele>593.922556</ele>
        <time>2022-03-09T13:19:00.433Z</time>
      </trkpt>
      <trkpt lat="42.69097" lon="23.32961">
        <ele>593.922556</ele>
        <time>2022-03-09T13:19:05.431Z</time>
      </trkpt>
      <trkpt lat="42.69104" lon="23.32953">
        <ele>593.922556</ele>
        <time>2022-03-09T13:19:09.437Z</time>
      </trkpt>
      <trkpt lat="42.69113" lon="23.32953">
        <ele>593.922556</ele>
        <time>2022-03-09T13:19:13.424Z</time>
      </trkpt>
      <trkpt lat="42.69123" lon="23.32963">
        <ele>593.922556</ele>
        <time>2022-03-09T13:19:17.439Z</time>
      </trkpt>
      <trkpt lat="42.69131" lon="23.32974">
        <ele>593.922556</ele>
        <time>2022-03-09T13:19:21.409Z</time>
      </trkpt>
      <trkpt lat="42.69138" lon="23.32982">
        <ele>593.922556</ele>
        <time>2022-03-09T13:19:30.422Z</time>
      </trkpt>
      <trkpt lat="42.69142" lon="23.32978">
        <ele>593.922556</ele>
        <time>2022-03-09T13:19:56.965Z</time>
      </trkpt>
    </trkseg>
  </trk>
</gpx>